# Wetter Temperatur Luftdruck Luftfeuchtigkeit Sichtweite Windgeschwindigkeit Windrichtung Zeit
1 Clouds 3 1022 74 0 2.37 179 02:18 05.04.2020
2 Clouds 3 1022 69 0 2.37 179 01:42 05.04.2020
3 Clouds 3 1022 49 0 3.6 90 00:52 05.04.2020
4 Clouds 3 1022 49 0 3.6 90 00:52 05.04.2020
5 Clouds 4 1022 49 0 4.1 90 00:23 05.04.2020
6 Clear 5 1022 49 0 4.1 90 23:58 04.04.2020
7 Clear 5 1022 49 0 3.6 100 23:39 04.04.2020
8 Clear 5 1022 65 0 4.1 100 23:21 04.04.2020
9 Clear 5 1022 65 0 4.1 100 22:56 04.04.2020
10 Clear 5 1022 65 0 4.1 90 22:38 04.04.2020
11 Clear 6 1021 61 0 3.6 90 22:19 04.04.2020
12 Clear 6 1021 61 0 3.6 90 21:56 04.04.2020
13 Clear 6 1021 61 0 3.1 90 21:38 04.04.2020
14 Clouds 7 1021 53 0 3.6 70 21:18 04.04.2020
15 Clouds 8 1021 48 0 4.6 40 20:43 04.04.2020
16 Clouds 9 1021 48 0 4.6 40 20:23 04.04.2020
17 Clouds 9 1020 48 0 5.1 40 19:59 04.04.2020
18 Clouds 9 1020 48 0 5.1 40 19:59 04.04.2020
19 Clouds 10 1020 48 0 5.7 30 19:40 04.04.2020
20 Clouds 11 1020 48 0 6.2 30 19:20 04.04.2020
21 Clouds 11 1020 48 0 6.2 30 18:59 04.04.2020
22 Clouds 12 1020 41 0 5.1 30 18:39 04.04.2020
23 Clouds 12 1020 48 0 4.1 20 18:21 04.04.2020
24 Clouds 12 1020 40 0 4.1 20 17:58 04.04.2020
25 Clouds 12 1020 40 0 7.2 30 17:38 04.04.2020
26 Clouds 12 1020 41 0 7.2 40 17:19 04.04.2020
27 Clouds 12 1020 41 0 6.7 40 16:45 04.04.2020
28 Clouds 11 1020 41 0 6.7 40 16:27 04.04.2020
29 Clouds 11 1020 44 0 6.2 40 15:59 04.04.2020
30 Clouds 11 1020 38 0 3.1 0 15:39 04.04.2020
31 Clear 11 1020 43 0 2.6 280 15:19 04.04.2020
32 Clear 11 1020 43 0 2.6 280 15:19 04.04.2020
33 Clear 11 1020 43 0 2.6 280 14:54 04.04.2020
34 Clear 11 1020 41 0 2.1 270 14:36 04.04.2020
35 Clouds 12 1020 44 0 2.6 280 14:18 04.04.2020
36 Clouds 12 1021 47 0 2.1 0 13:42 04.04.2020
37 Clouds 12 1021 44 0 6.7 50 13:21 04.04.2020
38 Clouds 12 1021 44 0 6.7 50 13:21 04.04.2020
39 Clouds 11 1021 44 0 6.7 50 12:58 04.04.2020
40 Clouds 11 1021 44 0 4.1 70 12:39 04.04.2020
41 Clear 10 1021 40 0 4.1 70 12:20 04.04.2020
42 Clear 8 1021 44 0 1 0 11:42 04.04.2020
43 Clear 9 1021 52 0 1 0 11:23 04.04.2020
44 Clear 8 1021 52 0 1 0 10:59 04.04.2020
45 Clear 7 1021 56 0 1.35 177 10:41 04.04.2020
46 Clear 6 1021 60 0 0.5 0 10:22 04.04.2020
47 Clear 6 1021 60 0 0.5 0 09:57 04.04.2020
48 Clear 5 1021 60 0 1.5 100 09:39 04.04.2020
49 Clear 2 1021 42 0 1.37 176 09:20 04.04.2020
50 Clear 1 1021 80 0 1.09 189 08:44 04.04.2020
51 Clear 1 1021 80 0 1.09 189 08:23 04.04.2020
52 Clear 0 1021 53 0 0.5 0 07:59 04.04.2020
53 Clear -1 1020 53 0 1.09 189 07:39 04.04.2020
54 Clear -1 1020 86 0 1.5 100 07:21 04.04.2020
55 Clear 0 1020 80 0 1 0 06:38 04.04.2020
56 Clear 0 1020 56 0 2.1 100 05:52 04.04.2020
57 Clear 0 1020 56 0 2.1 100 05:52 04.04.2020
58 Clear 1 1020 56 0 2.1 100 05:33 04.04.2020
59 Clear 1 1019 80 0 3.1 90 04:34 04.04.2020
60 Clear 1 1020 80 0 3.6 110 03:57 04.04.2020
61 Clear 1 1020 80 0 3.6 110 03:36 04.04.2020
62 Clouds 3 1020 65 0 2.6 80 02:46 04.04.2020
63 Clouds 2 1020 65 0 2.6 80 02:25 04.04.2020
64 Clouds 2 1019 52 0 4.6 50 01:31 04.04.2020
65 Clouds 5 1019 49 0 3.6 60 00:59 04.04.2020
66 Clouds 4 1019 42 0 4.6 50 00:35 04.04.2020
67 Clouds 4 1019 45 0 4.6 60 23:59 03.04.2020
68 Clouds 5 1018 43 0 3.6 80 23:38 03.04.2020
69 Clouds 5 1018 43 0 3.1 60 23:19 03.04.2020
70 Clouds 6 1018 39 0 2.6 30 22:41 03.04.2020
71 Clouds 6 1018 40 0 3.1 20 22:19 03.04.2020
72 Clouds 6 1018 40 0 3.1 20 21:59 03.04.2020
73 Clouds 6 1017 40 0 3.1 0 21:40 03.04.2020
74 Clouds 6 1017 43 0 3.6 20 21:21 03.04.2020
75 Clouds 6 1017 43 0 3.6 20 20:56 03.04.2020
76 Clouds 7 1016 43 0 3.1 0 20:36 03.04.2020
77 Clouds 7 1016 43 0 3.1 0 20:36 03.04.2020
78 Clouds 8 1016 43 0 3.6 40 20:18 03.04.2020
79 Clouds 7 1016 43 0 3.6 40 19:56 03.04.2020
80 Clouds 8 1016 43 0 5.1 40 19:37 03.04.2020
81 Clouds 8 1016 40 0 5.1 30 19:19 03.04.2020
82 Clouds 8 1015 40 0 3.6 50 18:58 03.04.2020
83 Clouds 9 1015 40 0 3.6 50 18:40 03.04.2020
84 Clouds 9 1015 51 0 4.6 50 18:21 03.04.2020
85 Clouds 9 1015 40 0 3.6 20 17:42 03.04.2020
86 Clouds 9 1015 40 0 4.6 20 17:20 03.04.2020
87 Clouds 9 1015 40 0 4.6 20 16:56 03.04.2020
88 Clouds 9 1015 37 0 3.6 0 16:38 03.04.2020
89 Clouds 9 1015 43 0 4.1 40 16:20 03.04.2020
90 Clouds 9 1015 43 0 4.1 40 15:56 03.04.2020
91 Clouds 9 1015 37 0 4.1 40 15:37 03.04.2020
92 Clouds 9 1015 44 0 1.5 0 15:19 03.04.2020
93 Clouds 7 1015 44 0 2.1 270 14:41 03.04.2020
94 Clouds 7 1015 44 0 2.1 270 14:22 03.04.2020
95 Clouds 9 1015 44 0 2.1 270 13:57 03.04.2020
96 Clouds 9 1015 44 0 2.1 270 13:37 03.04.2020
97 Clouds 9 1015 44 0 3.1 260 13:18 03.04.2020
98 Clouds 9 1016 44 0 2.6 270 12:43 03.04.2020
99 Clouds 8 1015 46 0 2.1 0 12:20 03.04.2020
100 Clouds 8 1015 45 0 4.1 50 11:56 03.04.2020
101 Clouds 8 1015 45 0 4.1 50 11:37 03.04.2020
102 Clouds 7 1015 46 0 1 0 11:18 03.04.2020
103 Clouds 7 1015 46 0 1 0 10:57 03.04.2020
104 Clouds 7 1015 46 0 2.2 5 10:38 03.04.2020
105 Clouds 6 1015 65 0 1 0 10:20 03.04.2020
106 Clouds 6 1015 65 0 1 0 10:20 03.04.2020
107 Clouds 6 1015 65 0 1 0 09:57 03.04.2020
108 Clouds 5 1015 46 0 2.2 5 09:39 03.04.2020
109 Clouds 5 1015 46 0 2.2 5 09:39 03.04.2020
110 Clouds 3 1015 46 0 0.5 0 09:21 03.04.2020
111 Clouds 2 1015 56 0 0.5 0 08:55 03.04.2020
112 Clouds 2 1015 56 0 2.18 347 08:36 03.04.2020
113 Clouds 2 1015 56 0 2.18 347 08:18 03.04.2020
114 Clouds 2 1014 56 0 2.18 347 07:41 03.04.2020
115 Clouds 2 1014 56 0 2.18 347 07:23 03.04.2020
116 Clouds 2 1014 56 0 1.5 90 06:38 03.04.2020
117 Clouds 2 1013 58 0 1.5 70 06:20 03.04.2020
118 Clouds 2 1014 74 0 2.32 343 05:34 03.04.2020
119 Clouds 3 1013 58 0 2.32 343 03:40 03.04.2020
120 Clouds 4 1013 57 0 1 0 02:53 03.04.2020
121 Clouds 4 1013 57 0 2.1 270 01:36 03.04.2020
122 Clouds 5 1013 57 0 1 0 01:18 03.04.2020
123 Clouds 5 1013 56 10000 1.5 260 00:34 03.04.2020
124 Clouds 4 1012 57 0 1.5 300 23:57 02.04.2020
125 Clouds 3 1012 57 0 1.5 270 23:39 02.04.2020
126 Clouds 4 1012 57 0 1.5 260 23:19 02.04.2020
127 Clouds 4 1012 57 0 1.5 260 23:19 02.04.2020
128 Clouds 4 1012 57 0 1.5 260 23:19 02.04.2020
129 Clouds 4 1012 65 0 1 0 22:43 02.04.2020
130 Clouds 5 1012 65 0 1 0 22:25 02.04.2020
131 Clouds 6 1011 61 0 1 310 21:59 02.04.2020
132 Clouds 5 1011 57 0 1.83 338 21:38 02.04.2020
133 Clouds 6 1011 57 0 0.5 0 21:19 02.04.2020
134 Clouds 6 1011 57 0 0.5 0 20:55 02.04.2020
135 Clouds 6 1010 53 0 1 0 20:37 02.04.2020
136 Clouds 7 1010 40 0 2.1 240 20:19 02.04.2020
137 Clouds 8 1010 46 0 1.5 260 19:42 02.04.2020
138 Clouds 10 1010 37 0 4.1 300 19:20 02.04.2020
139 Clouds 10 1010 37 0 4.1 300 19:20 02.04.2020
140 Clouds 10 1010 37 0 4.1 300 19:20 02.04.2020
141 Rain 9 1010 43 0 4.6 310 18:57 02.04.2020
142 Rain 9 1010 43 0 4.6 310 18:39 02.04.2020
143 Clouds 11 1010 41 0 1.5 200 18:20 02.04.2020
144 Clouds 11 1010 41 0 1.5 0 17:55 02.04.2020
145 Clouds 9 1010 41 0 1.5 0 17:37 02.04.2020
146 Clouds 11 1010 41 0 2.6 280 17:18 02.04.2020
147 Clouds 9 1010 41 0 4.1 210 16:55 02.04.2020
148 Clouds 9 1010 41 0 4.1 210 16:36 02.04.2020
149 Clouds 9 1010 43 0 4.6 250 16:18 02.04.2020
150 Clouds 10 1010 41 0 3.6 250 15:42 02.04.2020
151 Clear 11 1010 37 0 4.1 250 15:20 02.04.2020
152 Clear 11 1010 37 0 4.1 250 14:58 02.04.2020
153 Clear 11 1011 40 0 4.1 250 14:39 02.04.2020
154 Clear 11 1011 38 0 4.6 260 14:19 02.04.2020
155 Clear 10 1012 43 0 5.1 260 13:55 02.04.2020
156 Clear 10 1012 43 0 5.1 260 13:37 02.04.2020
157 Clear 10 1012 43 0 4.1 260 13:19 02.04.2020
158 Clear 9 1012 46 0 3.6 250 12:47 02.04.2020
159 Clear 9 1012 42 0 2.6 260 12:21 02.04.2020
160 Clear 8 1012 42 0 2.6 260 11:58 02.04.2020
161 Clear 7 1012 45 0 1.5 260 11:39 02.04.2020
162 Clear 7 1013 52 0 1 0 11:21 02.04.2020
163 Clear 6 1013 52 0 1 0 10:57 02.04.2020
164 Clear 6 1013 56 0 1 0 10:39 02.04.2020
165 Clear 5 1013 65 0 1.3 8 10:21 02.04.2020
166 Clear 4 1013 65 0 1.3 8 09:59 02.04.2020
167 Clear 3 1013 64 0 1.3 8 09:41 02.04.2020
168 Clear 2 1014 80 0 1.4 2 09:23 02.04.2020
169 Clear 1 1014 80 0 1.68 334 08:57 02.04.2020
170 Clear 0 1014 86 0 0.5 130 08:38 02.04.2020
171 Clear -1 1014 86 0 1.68 334 08:19 02.04.2020
172 Clear -1 1013 86 0 1 90 07:42 02.04.2020
173 Clear -2 1013 92 0 1.68 334 07:19 02.04.2020
174 Clear -2 1013 86 0 1.68 334 06:26 02.04.2020
175 Clear -2 1013 86 0 0.86 309 05:59 02.04.2020
176 Clear -2 1013 86 0 0.5 0 05:41 02.04.2020
177 Clouds -1 1014 92 0 2.1 100 02:46 02.04.2020
178 Clouds 0 1015 60 0 0.6 238 01:30 02.04.2020
179 Clouds 0 1015 60 0 1.5 90 00:42 02.04.2020
180 Clouds 0 1015 60 0 1 0 00:24 02.04.2020
181 Clouds 1 1015 74 0 1 0 23:41 01.04.2020
182 Clouds 1 1015 69 0 2.6 100 23:20 01.04.2020
183 Clouds 1 1015 69 0 2.6 100 22:58 01.04.2020
184 Clouds 1 1015 69 0 3.6 90 22:39 01.04.2020
185 Clouds 3 1015 69 0 3.6 100 22:21 01.04.2020
186 Clouds 2 1015 64 0 4.1 110 21:42 01.04.2020
187 -273 0 0 0 0 0 21:21 01.04.2020
188 -273 0 0 0 0 0 21:21 01.04.2020
189 -273 0 0 0 0 0 21:21 01.04.2020
190 -273 0 0 0 0 0 21:21 01.04.2020
191 -273 0 0 0 0 0 21:20 01.04.2020
192 Clouds 4 1014 42 0 6.7 60 20:57 01.04.2020
193 Clouds 4 1014 42 0 6.7 60 20:39 01.04.2020
194 Clouds 4 1014 39 0 5.7 40 20:20 01.04.2020
195 -273 0 0 0 0 0 20:20 01.04.2020
196 Clouds 5 1014 34 0 5.7 40 19:59 01.04.2020
197 Clouds 6 1014 34 0 5.7 40 19:40 01.04.2020
198 Clouds 8 1014 32 0 4.6 60 19:20 01.04.2020
199 Clouds 9 1014 29 0 3.1 50 18:44 01.04.2020
200 Clouds 9 1014 32 0 1 0 18:25 01.04.2020
201 Clouds 8 1014 34 0 1.5 200 17:58 01.04.2020
202 Clouds 8 1014 34 0 1.5 200 17:38 01.04.2020
203 Clouds 8 1015 37 0 2.6 250 17:19 01.04.2020
204 Clouds 8 1015 37 0 2.6 250 16:58 01.04.2020
205 Clouds 8 1015 37 0 2.6 250 16:58 01.04.2020
206 Clouds 8 1015 34 0 3.6 260 16:39 01.04.2020
207 Clouds 9 1015 40 0 2.6 260 16:21 01.04.2020
208 Clouds 8 1015 40 0 2.6 260 15:57 01.04.2020
209 Clouds 8 1015 40 0 2.6 260 15:57 01.04.2020
210 Clouds 8 1015 40 0 2.1 0 15:37 01.04.2020
211 Clear 9 1016 39 0 2.1 270 15:18 01.04.2020
212 Clear 8 1016 39 0 2.1 270 14:55 01.04.2020
213 Clear 8 1016 39 0 2.1 270 14:55 01.04.2020
214 Clear 7 1016 42 0 2.1 0 14:36 01.04.2020
215 Clear 8 1017 36 0 2.6 250 14:18 01.04.2020
216 Clear 8 1017 36 0 2.6 250 13:55 01.04.2020
217 Clear 8 1017 42 0 3.1 260 13:36 01.04.2020
218 Clear 7 1017 42 0 2.6 230 13:18 01.04.2020
219 Clear 6 1018 45 0 2.1 260 12:42 01.04.2020
220 Clear 5 1018 48 0 2.1 240 12:23 01.04.2020
221 Clear 5 1018 48 0 2.1 240 11:59 01.04.2020
222 Clear 5 1018 48 0 2.1 240 11:59 01.04.2020
223 Clear 4 1018 48 0 2.1 220 11:39 01.04.2020
224 Clear 3 1018 44 0 1.5 190 11:20 01.04.2020
225 Clear 2 1019 48 0 0.27 207 10:42 01.04.2020
226 Clear 2 1019 48 0 0.27 207 10:42 01.04.2020
227 Clear 1 1019 59 0 0.27 207 10:23 01.04.2020
228 Clear 1 1019 59 0 0.27 207 09:59 01.04.2020
229 Clear -1 1019 69 0 0.27 207 09:40 01.04.2020
230 Clear -1 1019 69 0 0.27 207 09:40 01.04.2020
231 Clear -2 1019 45 0 1 0 09:21 01.04.2020
232 Clouds -2 1019 62 0 1 0 08:57 01.04.2020
233 Clouds -3 1019 86 0 2.1 120 08:38 01.04.2020
234 Clouds -4 1020 92 0 1 240 08:18 01.04.2020
235 Clouds -4 1019 92 0 1 0 07:41 01.04.2020
236 Clouds -4 1019 86 0 1 240 07:19 01.04.2020
237 Clouds -4 1019 86 0 1 240 06:47 01.04.2020
238 Clouds -4 1019 86 0 2.1 110 06:21 01.04.2020
239 Clouds -4 1019 92 0 2.6 100 05:50 01.04.2020
240 Clouds -5 1020 86 0 3.6 100 04:29 01.04.2020
241 Clouds -3 1019 72 0 4.1 90 03:21 01.04.2020
242 Clear -3 1020 73 0 4.1 90 02:41 01.04.2020
243 Clouds -3 1020 86 0 3.6 90 01:53 01.04.2020
244 Clouds -3 1020 86 0 3.6 90 01:27 01.04.2020
245 Clouds -2 1020 59 0 4.1 80 00:47 01.04.2020
246 Clouds -2 1020 69 0 3.6 100 00:23 01.04.2020
247 Clouds -2 1020 69 0 3.6 100 23:59 31.03.2020
248 Clouds -1 1021 64 0 3.6 110 23:40 31.03.2020
249 Clouds -2 1021 69 0 3.6 100 23:21 31.03.2020
250 Clouds -2 1021 59 0 3.6 90 22:41 31.03.2020
251 Clouds -1 1021 48 0 4.6 100 22:21 31.03.2020
252 Clouds 0 1021 44 0 4.6 80 21:58 31.03.2020
253 Clouds 0 1021 44 0 4.6 80 21:58 31.03.2020
254 Clouds 0 1021 44 0 4.6 80 21:40 31.03.2020
255 Clouds 0 1021 41 0 5.1 50 21:21 31.03.2020
256 Clear 0 1021 41 0 5.1 50 20:57 31.03.2020
257 Clear 1 1021 41 0 3.6 50 20:37 31.03.2020
258 Clear 1 1021 41 0 3.6 50 20:19 31.03.2020
259 Clear 2 1021 38 0 2.6 0 19:57 31.03.2020
260 Clear 2 1021 38 0 2.6 0 19:38 31.03.2020
261 Clear 2 1021 38 0 3.1 0 19:19 31.03.2020
262 Clear 2 1021 36 0 3.6 0 18:44 31.03.2020
263 Clear 3 1021 36 0 3.1 0 18:20 31.03.2020
264 Clear 3 1020 39 0 3.6 0 17:57 31.03.2020
265 Clear 3 1020 39 0 3.6 0 17:57 31.03.2020
266 Clear 3 1020 39 0 3.6 0 17:39 31.03.2020
267 Clear 3 1020 39 0 3.6 0 17:39 31.03.2020
268 Clear 3 1022 33 10000 3.6 320 17:21 31.03.2020
269 Clear 3 1022 33 10000 3.6 320 16:56 31.03.2020
270 Clear 3 1020 39 0 5.1 80 16:37 31.03.2020
271 Clear 3 1021 45 0 3.6 0 16:18 31.03.2020
272 Clear 4 1021 45 0 3.6 0 15:56 31.03.2020
273 Clear 4 1021 45 0 5.7 50 15:37 31.03.2020
274 Clear 3 1021 48 0 2.6 0 15:18 31.03.2020
275 Clouds 4 1021 48 0 3.6 70 14:42 31.03.2020
276 Clouds 3 1021 52 0 6.2 40 14:23 31.03.2020
277 Clouds 3 1021 52 0 6.2 40 13:59 31.03.2020
278 Clouds 3 1021 52 0 5.1 0 13:40 31.03.2020
279 Clouds 4 1021 52 0 7.2 50 13:19 31.03.2020
280 Clouds 4 1021 52 0 7.2 50 13:19 31.03.2020
281 Clouds 4 1021 51 0 6.7 40 12:45 31.03.2020
282 Clouds 1 1022 55 0 7.7 50 12:20 31.03.2020
283 Clouds 3 1022 55 0 7.7 50 11:58 31.03.2020
284 Clouds 2 1022 59 0 5.7 40 11:37 31.03.2020
285 Clear 1 1021 59 0 5.1 30 11:19 31.03.2020
286 Clear 0 1021 64 0 5.7 30 10:55 31.03.2020
287 Clear 1 1021 64 0 5.7 30 10:55 31.03.2020
288 Clear 1 1021 64 0 5.7 30 10:37 31.03.2020
289 Clouds 0 1021 49 0 6.7 40 10:19 31.03.2020
290 Clouds 0 1021 64 0 6.2 30 09:44 31.03.2020
291 Clouds -2 1021 64 0 6.2 30 09:25 31.03.2020
292 Clouds -2 1021 67 0 7.2 40 08:59 31.03.2020
293 Clouds -3 1021 67 0 7.7 40 08:40 31.03.2020
294 Clouds -3 1022 74 10000 0.5 0 08:20 31.03.2020
295 Clouds -4 1022 74 10000 0.5 0 07:57 31.03.2020
296 Clouds -3 1020 67 0 7.7 30 07:38 31.03.2020
297 Clouds -3 1020 67 0 8.2 60 07:20 31.03.2020
298 Clouds -3 1020 67 0 8.2 60 07:20 31.03.2020
299 Clouds -3 1020 69 0 6.7 40 06:53 31.03.2020
300 Clouds -3 1020 69 0 6.7 40 06:35 31.03.2020
301 Clouds -3 1020 69 0 6.7 30 05:41 31.03.2020
302 Clouds -3 1020 74 0 6.2 30 04:33 31.03.2020
303 Clouds -2 1020 69 0 6.2 60 02:30 31.03.2020
304 Clouds -2 1020 69 0 6.2 60 01:46 31.03.2020
305 Clouds -2 1020 69 0 5.7 60 00:53 31.03.2020
306 Clouds -1 1021 69 0 5.7 80 00:25 31.03.2020
307 Clouds -1 1021 69 0 5.7 80 23:59 30.03.2020
308 Clouds -1 1021 69 0 4.1 90 23:38 30.03.2020
309 Clouds -1 1021 69 0 4.6 90 23:19 30.03.2020
310 Clouds -1 1021 69 0 4.6 90 22:57 30.03.2020
311 Clouds -1 1021 74 0 5.1 60 22:38 30.03.2020
312 Clouds -1 1021 74 0 5.7 60 22:18 30.03.2020
313 Clouds -1 1021 74 0 5.7 60 21:57 30.03.2020
314 Clouds -1 1021 74 0 5.7 60 21:37 30.03.2020
315 Clouds -1 1020 69 0 5.1 80 21:19 30.03.2020
316 Clouds -1 1020 69 0 5.1 80 20:55 30.03.2020
317 Drizzle -1 1020 80 0 4.1 80 20:36 30.03.2020
318 Clouds -1 1020 69 0 3.1 0 20:18 30.03.2020
319 Clouds 1 1020 69 0 2.6 0 19:40 30.03.2020
320 Clouds 1 1020 69 0 3.6 0 19:22 30.03.2020
321 Clouds 1 1020 69 0 3.6 0 18:57 30.03.2020
322 Clouds 1 1019 69 0 4.6 60 18:38 30.03.2020
323 Clouds 0 1019 69 0 4.6 60 18:20 30.03.2020
324 Clouds 1 1019 74 0 8.2 60 17:57 30.03.2020
325 Clouds 0 1019 74 0 8.2 60 17:38 30.03.2020
326 Clouds 1 1019 74 0 7.7 60 17:19 30.03.2020
327 Clouds 1 1019 74 0 7.7 60 16:55 30.03.2020
328 Clouds 1 1019 74 0 7.7 60 16:37 30.03.2020
329 Clouds 0 1021 69 10000 2.6 190 16:19 30.03.2020
330 Clouds 0 1021 69 10000 2.6 190 15:54 30.03.2020
331 Clouds 1 1019 74 0 8.7 50 15:36 30.03.2020
332 Clouds 0 1019 74 0 7.7 60 15:18 30.03.2020
333 Rain 0 1019 69 0 5.7 60 14:39 30.03.2020
334 Clouds 0 1019 69 0 6.2 0 14:19 30.03.2020
335 Clouds 0 1019 69 0 6.2 0 13:59 30.03.2020
336 Rain 0 1019 74 0 7.2 70 13:40 30.03.2020
337 Clouds 1 1019 74 0 6.2 60 13:20 30.03.2020
338 Clouds 1 1019 74 0 5.1 60 12:56 30.03.2020
339 Clouds 0 1019 74 0 5.1 60 12:37 30.03.2020
340 Clouds 0 1019 74 0 5.1 0 12:19 30.03.2020
341 Clouds -1 1019 80 0 6.2 0 11:55 30.03.2020
342 Clouds -1 1019 80 0 6.2 0 11:37 30.03.2020
343 Rain -1 1019 80 0 6.7 60 11:18 30.03.2020
344 Rain -1 1018 80 0 6.7 70 10:39 30.03.2020
345 Clouds -1 1018 80 0 6.2 70 10:21 30.03.2020
346 Clouds -1 1018 80 0 6.2 70 09:54 30.03.2020
347 Clouds -1 1018 80 0 7.2 60 09:36 30.03.2020
348 Clouds 0 1018 80 0 7.7 60 09:18 30.03.2020
349 Clouds -1 1018 80 0 6.2 50 08:40 30.03.2020
350 Clouds -1 1018 80 0 6.2 60 08:21 30.03.2020
351 Snow -1 1017 80 0 6.2 70 07:48 30.03.2020
352 Snow -1 1017 86 0 6.7 70 07:25 30.03.2020
353 Clouds -1 1017 80 0 6.2 80 06:52 30.03.2020
354 Clouds -1 1017 80 0 6.2 80 06:30 30.03.2020
355 Rain -1 1018 80 0 4.6 90 05:47 30.03.2020
356 Rain 0 1018 80 0 4.1 0 05:18 30.03.2020
357 Rain 0 1018 80 0 4.1 0 04:21 30.03.2020
358 Rain 0 1018 80 0 5.7 80 03:19 30.03.2020
359 Rain 0 1018 80 0 6.2 60 02:37 30.03.2020
360 Rain 0 1018 80 0 5.1 70 01:26 30.03.2020
361 Rain 0 1019 80 0 5.1 80 00:33 30.03.2020
362 Rain -1 1019 80 0 5.7 70 23:59 29.03.2020
363 Rain -1 1019 57 0 5.7 60 23:41 29.03.2020
364 Rain -1 1019 57 0 3.6 0 23:22 29.03.2020
365 Rain -1 1019 57 0 3.6 0 22:57 29.03.2020
366 Rain -1 1019 93 0 0.5 0 22:37 29.03.2020
367 Rain -1 1019 93 0 1.5 250 22:18 29.03.2020
368 Rain -1 1019 93 0 2.1 270 21:40 29.03.2020
369 Rain -1 1018 86 0 2.1 280 21:21 29.03.2020
370 Rain 0 1018 93 0 3.1 280 20:56 29.03.2020
371 Rain 0 1018 93 0 3.1 280 20:56 29.03.2020
372 Rain 0 1018 93 0 3.1 280 20:38 29.03.2020
373 Rain 0 1017 54 0 3.6 0 20:19 29.03.2020
374 Rain 0 1017 54 0 3.6 0 19:59 29.03.2020
375 Rain 0 1017 54 0 3.6 0 19:59 29.03.2020
376 Rain 1 1017 75 0 6.7 40 19:41 29.03.2020
377 Rain 1 1016 80 0 4.1 0 19:23 29.03.2020
378 Rain 1 1016 80 0 6.2 50 18:57 29.03.2020
379 Rain 2 1016 80 0 6.2 50 18:39 29.03.2020
380 Rain 2 1016 80 0 5.1 50 18:20 29.03.2020
381 Rain 2 1015 80 0 6.2 70 17:56 29.03.2020
382 Rain 2 1015 80 0 6.2 70 17:38 29.03.2020
383 Rain 3 1015 80 0 7.2 40 17:20 29.03.2020
384 Rain 2 1015 80 0 7.2 40 16:57 29.03.2020
385 Rain 3 1015 75 0 6.7 30 16:38 29.03.2020
386 Rain 4 1015 70 0 6.2 40 16:20 29.03.2020
387 Rain 5 1015 65 0 7.2 30 15:43 29.03.2020
388 Rain 5 1015 65 0 7.2 30 15:43 29.03.2020
389 Rain 5 1015 65 0 7.2 30 15:25 29.03.2020
390 Rain 5 1015 65 0 6.7 40 14:59 29.03.2020
391 Clouds 6 1015 61 0 6.2 50 14:40 29.03.2020
392 Rain 6 1015 61 0 6.2 50 14:20 29.03.2020
393 Clouds 6 1015 61 0 7.2 40 13:58 29.03.2020
394 Clouds 7 1015 61 0 7.2 40 13:40 29.03.2020
395 Clouds 7 1015 57 0 7.7 40 13:21 29.03.2020
396 Clouds 7 1015 57 0 7.2 30 12:57 29.03.2020
397 Clouds 7 1015 57 0 7.2 30 12:38 29.03.2020
398 Clouds 7 1015 57 0 7.2 40 12:19 29.03.2020
399 Clouds 7 1015 61 0 7.2 40 11:55 29.03.2020
400 Clouds 8 1015 61 0 7.2 40 11:37 29.03.2020
401 Clouds 8 1015 61 0 7.7 40 11:19 29.03.2020
402 Clouds 7 1015 57 0 7.7 60 10:38 29.03.2020
403 Clouds 8 1015 61 0 6.7 70 10:19 29.03.2020
404 Clouds 6 1015 61 0 5.7 50 09:42 29.03.2020
405 Clouds 5 1015 65 0 5.7 40 09:23 29.03.2020
406 Clouds 5 1015 65 0 5.7 40 08:57 29.03.2020
407 Clouds 4 1015 65 0 7.2 60 08:39 29.03.2020
408 Clouds 4 1015 65 0 7.2 40 08:20 29.03.2020
409 Clouds 2 1016 86 10000 2.1 220 07:44 29.03.2020
410 Clouds 2 1016 86 10000 1 0 07:22 29.03.2020
411 Clouds 2 1015 81 0 1 0 05:59 29.03.2020
412 Clouds 3 1015 70 0 2.6 90 04:56 29.03.2020
413 Clouds 3 1016 93 0 1.5 110 03:37 29.03.2020
414 Clouds 3 1016 86 0 1.5 70 01:57 29.03.2020
415 Clouds 3 1016 86 0 1.5 100 01:37 29.03.2020
416 Clouds 4 1016 75 0 0.5 0 01:19 29.03.2020
417 Clouds 4 1016 75 0 1.76 347 00:34 29.03.2020
418 Clouds 5 1016 70 0 2.6 90 23:57 28.03.2020
419 Clouds 5 1016 70 0 2.6 90 23:39 28.03.2020
420 Clouds 5 1016 70 0 2.6 90 23:39 28.03.2020
421 Clouds 6 1016 66 0 2.6 90 23:20 28.03.2020
422 Clouds 6 1016 70 0 2.6 90 22:41 28.03.2020
423 Clouds 6 1016 61 0 3.1 90 22:22 28.03.2020
424 Clouds 6 1016 61 0 3.1 90 21:56 28.03.2020
425 Clouds 7 1016 62 0 3.1 90 21:38 28.03.2020
426 Clouds 7 1016 58 0 2.6 70 21:19 28.03.2020
427 Clouds 7 1016 47 0 2.6 0 20:54 28.03.2020
428 Clouds 7 1016 47 0 2.6 0 20:36 28.03.2020
429 Clouds 7 1016 47 0 2.6 0 20:36 28.03.2020
430 Clouds 8 1015 47 0 2.1 120 20:18 28.03.2020
431 Clouds 8 1015 47 0 2.1 120 19:54 28.03.2020
432 Clouds 8 1015 50 0 2.1 50 19:36 28.03.2020
433 Clouds 9 1015 44 0 1 0 19:18 28.03.2020
434 Clouds 10 1015 44 0 3.6 30 18:39 28.03.2020
435 Clouds 10 1015 47 0 4.1 30 18:20 28.03.2020
436 Clouds 11 1014 47 0 3.6 30 17:40 28.03.2020
437 Clouds 11 1014 44 0 4.1 70 17:22 28.03.2020
438 Clouds 11 1014 44 0 5.1 60 16:57 28.03.2020
439 Clouds 11 1014 44 0 5.1 60 16:38 28.03.2020
440 Clouds 11 1014 41 0 1.5 250 16:18 28.03.2020
441 Clouds 11 1014 41 0 1.5 260 15:40 28.03.2020
442 Clouds 11 1015 44 0 1 0 15:19 28.03.2020
443 Clouds 11 1015 44 0 1 0 15:19 28.03.2020
444 Clouds 11 1015 44 0 1 0 14:57 28.03.2020
445 Clouds 11 1015 44 0 2.6 240 14:39 28.03.2020
446 Rain 12 1015 44 0 3.1 260 14:20 28.03.2020
447 Rain 12 1015 44 0 3.1 260 14:20 28.03.2020
448 Clouds 12 1015 44 0 3.1 260 14:20 28.03.2020
449 Rain 12 1015 43 0 3.6 260 13:42 28.03.2020
450 Clouds 12 1015 47 0 3.1 260 13:23 28.03.2020
451 Clouds 11 1015 47 0 2.1 250 12:41 28.03.2020
452 Clouds 11 1016 50 0 2.1 240 12:22 28.03.2020
453 Clouds 11 1016 50 0 1 0 11:43 28.03.2020
454 Clouds 10 1016 53 0 0.5 0 11:23 28.03.2020
455 Clouds 9 1017 65 0 0.5 0 10:58 28.03.2020
456 Clouds 9 1017 65 0 0.5 0 10:38 28.03.2020
457 Clouds 8 1017 70 0 1 0 10:18 28.03.2020
458 Clouds 8 1017 75 0 0.5 0 09:43 28.03.2020
459 Clouds 6 1017 80 0 1.92 0 09:23 28.03.2020
460 Clouds 5 1017 80 0 1.92 0 08:55 28.03.2020
461 Clouds 4 1018 93 0 2.1 110 08:37 28.03.2020
462 Clouds 2 1018 50 0 2.1 110 08:18 28.03.2020
463 Clouds 1 1017 86 0 1 0 07:42 28.03.2020
464 Clouds 1 1017 92 0 1.22 339 06:58 28.03.2020
465 Clouds 1 1016 51 0 0.5 0 06:35 28.03.2020
466 Clouds 1 1016 92 0 1.22 339 05:43 28.03.2020
467 Clouds 1 1016 51 0 1.22 339 05:21 28.03.2020
468 Clouds 1 1016 50 0 0.5 0 04:41 28.03.2020
469 Clouds 1 1016 50 0 1.5 80 03:42 28.03.2020
470 Clouds 2 1016 86 0 1 0 01:57 28.03.2020
471 Clouds 2 1016 80 0 1.76 187 01:26 28.03.2020
472 Clouds 2 1016 80 0 1.76 187 00:57 28.03.2020
473 Clouds 2 1016 80 0 1.76 187 00:36 28.03.2020
474 Clouds 3 1015 51 0 3.6 100 23:56 27.03.2020
475 Clouds 3 1015 51 0 3.6 100 23:38 27.03.2020
476 Clouds 3 1015 51 0 3.6 100 23:38 27.03.2020
477 Clouds 3 1015 52 0 4.1 100 23:19 27.03.2020
478 Clouds 2 1015 52 0 4.1 100 22:56 27.03.2020
479 Clouds 2 1015 52 0 4.1 100 22:37 27.03.2020
480 Clouds 3 1015 52 0 4.6 110 22:18 27.03.2020
481 Clouds 4 1015 52 0 4.1 90 21:43 27.03.2020
482 Clouds 3 1015 52 0 5.1 90 21:24 27.03.2020
483 Clouds 3 1015 52 0 5.1 90 20:58 27.03.2020
484 Clouds 5 1015 52 0 7.2 50 20:40 27.03.2020
485 Clouds 5 1015 52 0 6.7 40 20:20 27.03.2020
486 Clouds 5 1015 52 0 6.7 40 19:57 27.03.2020
487 Clouds 6 1014 52 0 7.2 40 19:39 27.03.2020
488 Clouds 6 1014 52 0 7.2 40 19:39 27.03.2020
489 Clouds 6 1014 52 0 7.7 40 19:20 27.03.2020
490 Clouds 7 1013 46 0 4.6 60 18:44 27.03.2020
491 Clouds 8 1013 52 0 2.1 60 18:24 27.03.2020
492 Clouds 8 1013 52 0 3.6 50 17:58 27.03.2020
493 Clouds 8 1013 52 0 3.6 50 17:39 27.03.2020
494 Clouds 10 1013 48 0 1.58 181 17:19 27.03.2020
495 Clouds 10 1013 43 0 0.5 0 16:44 27.03.2020
496 Clouds 10 1013 43 10000 1 0 16:25 27.03.2020
497 Clouds 10 1013 43 10000 1 0 15:55 27.03.2020
498 Clouds 10 1013 43 0 1.5 270 15:37 27.03.2020
499 Clouds 4 1014 48 0 1.58 181 15:19 27.03.2020
500 Clouds 4 1014 48 0 1.58 181 14:43 27.03.2020
501 Clouds 4 1014 48 0 1.58 181 14:24 27.03.2020
502 Clouds 4 1014 47 0 1.8 172 13:55 27.03.2020
503 Clouds 4 1014 47 0 1.8 172 13:36 27.03.2020
504 Clouds 4 1014 46 0 1.72 177 13:18 27.03.2020
505 Clouds 4 1014 46 0 1.72 177 12:42 27.03.2020
506 Clouds 4 1014 46 0 1.72 177 12:19 27.03.2020
507 Clouds 4 1014 46 0 1.72 177 11:55 27.03.2020
508 Clouds 4 1014 46 0 1.72 177 11:55 27.03.2020
509 Clouds 4 1014 46 0 1.72 177 11:36 27.03.2020
510 Clouds 3 1015 46 0 1.64 184 11:18 27.03.2020
511 Clouds 3 1015 46 0 1.64 184 10:41 27.03.2020
512 Clouds 3 1015 46 0 1.64 184 10:22 27.03.2020
513 Clouds 3 1015 46 0 1.64 184 09:59 27.03.2020
514 Clouds 3 1015 46 0 1.64 184 09:40 27.03.2020
515 Clouds 3 1015 46 0 1.64 184 09:22 27.03.2020
516 Clouds 3 1015 46 0 1.64 184 08:59 27.03.2020
517 Clouds 3 1015 46 0 1.64 184 08:59 27.03.2020
518 Clouds 3 1015 46 0 1.64 184 08:40 27.03.2020
519 Clouds 3 1015 46 0 1.64 184 08:21 27.03.2020
520 Clouds -3 1017 57 0 1.39 200 07:55 27.03.2020
521 Clouds -3 1017 57 0 1.39 200 07:37 27.03.2020
522 Clouds -3 1017 57 0 1.39 200 07:19 27.03.2020
523 Clouds -3 1017 57 0 1.39 200 06:38 27.03.2020
524 Clouds -3 1017 57 0 1.39 200 05:45 27.03.2020
525 Clouds -3 1017 60 0 1.68 204 03:26 27.03.2020
526 Clouds -4 1017 62 0 1.76 202 01:55 27.03.2020
527 Clouds -4 1016 62 0 1.7 204 00:58 27.03.2020
528 Clouds -4 1016 62 0 1.7 204 00:38 27.03.2020
529 Clouds -4 1016 62 0 1.7 204 00:19 27.03.2020
530 Clouds -4 1016 62 0 1.7 204 23:37 26.03.2020
531 Clouds -3 1016 60 0 2.28 181 23:18 26.03.2020
532 Clouds -3 1016 60 0 2.28 181 22:56 26.03.2020
533 Clouds -3 1016 60 0 2.28 181 22:36 26.03.2020
534 Clouds -3 1016 60 0 2.28 181 22:18 26.03.2020
535 Clouds -3 1016 60 0 2.28 181 21:40 26.03.2020
536 Clouds -3 1016 60 0 2.28 181 21:21 26.03.2020
537 Clouds -3 1016 60 0 2.28 181 21:21 26.03.2020
538 Clouds -3 1016 60 0 2.28 181 20:58 26.03.2020
539 Clouds -3 1016 60 0 2.28 181 20:39 26.03.2020
540 Clouds -3 1016 60 0 2.28 181 20:20 26.03.2020
541 Clouds -2 1014 58 0 1.5 167 19:57 26.03.2020
542 Clouds -2 1014 58 0 1.5 167 19:39 26.03.2020
543 Clouds -2 1014 58 0 1.5 167 19:20 26.03.2020
544 Clouds -2 1014 58 0 1.5 167 18:58 26.03.2020
545 Clouds -2 1014 58 0 1.5 167 18:39 26.03.2020
546 Clouds -2 1014 58 0 1.5 167 18:21 26.03.2020
547 Clouds -2 1014 58 0 1.5 167 17:44 26.03.2020
548 Clouds 2 1013 44 0 0.7 110 17:19 26.03.2020
549 Clouds 2 1013 44 0 0.7 110 16:47 26.03.2020
550 Clouds 2 1013 44 0 0.7 110 16:28 26.03.2020
551 Clouds 2 1013 44 0 0.7 110 15:59 26.03.2020
552 Clouds 2 1013 44 0 0.7 110 15:41 26.03.2020
553 Clouds 2 1013 44 0 0.7 110 15:22 26.03.2020
554 Clouds 2 1013 44 0 0.7 110 14:58 26.03.2020
555 Clouds 2 1013 44 0 0.7 110 14:39 26.03.2020
556 Clouds 1 1014 45 0 0.41 228 14:19 26.03.2020
557 Clouds 1 1014 45 0 0.41 228 13:44 26.03.2020
558 Clouds 1 1014 45 0 0.27 256 13:24 26.03.2020
559 Clouds 1 1014 45 0 0.27 256 12:58 26.03.2020
560 Clouds 1 1014 45 0 0.27 256 12:38 26.03.2020
561 Clouds 1 1016 51 0 0.27 256 12:20 26.03.2020
562 Clouds 1 1017 49 0 0.27 256 11:45 26.03.2020
563 Clouds 1 1014 45 0 0.27 256 11:22 26.03.2020
564 Clouds -2 1016 47 0 1.3 193 10:56 26.03.2020
565 Clouds -2 1016 47 0 1.3 193 10:37 26.03.2020
566 Clouds -2 1016 47 0 1.3 193 10:19 26.03.2020
567 Clouds -2 1016 47 0 1.3 193 09:44 26.03.2020
568 Clouds -2 1016 61 0 1.3 193 09:20 26.03.2020
569 Clouds -4 1016 69 0 1.3 193 08:55 26.03.2020
570 Clouds -4 1016 69 0 1.3 193 08:37 26.03.2020
571 Clouds -10 1019 73 0 1.16 217 08:18 26.03.2020
572 Clouds -9 1019 72 0 1.05 237 07:43 26.03.2020
573 Clouds -9 1019 72 0 1.05 237 07:21 26.03.2020
574 Clouds -9 1019 72 0 1.05 237 06:48 26.03.2020
575 Clouds -9 1019 72 0 1.05 237 05:57 26.03.2020
576 Clouds -12 1019 76 0 1.17 204 04:25 26.03.2020
577 Clouds -12 1019 76 0 1.17 204 03:41 26.03.2020
578 Clouds -12 1019 76 0 1.17 204 02:54 26.03.2020
579 Snow -9 1019 80 0 2.74 184 01:50 26.03.2020
580 Snow -10 1019 79 0 2.67 186 00:52 26.03.2020
581 Snow -10 1019 79 0 2.67 186 23:59 25.03.2020
582 Snow -10 1019 79 0 2.67 186 23:40 25.03.2020
583 Snow -7 1019 72 0 3.49 177 23:20 25.03.2020
584 Snow -7 1019 72 0 3.49 177 22:40 25.03.2020
585 Snow -7 1019 72 0 3.49 177 22:21 25.03.2020
586 Snow -7 1019 72 0 3.49 177 21:56 25.03.2020
587 Snow -7 1019 72 0 3.49 177 21:37 25.03.2020
588 Snow -7 1019 72 0 3.49 177 21:19 25.03.2020
589 Snow -7 1019 72 0 3.49 177 20:55 25.03.2020
590 Snow -7 1019 72 0 3.49 177 20:37 25.03.2020
591 Snow -6 1017 68 0 2.03 165 20:18 25.03.2020
592 Snow -6 1016 68 0 2 170 19:42 25.03.2020
593 Snow -6 1016 68 0 2 170 19:22 25.03.2020
594 Snow -6 1016 68 0 2 170 18:57 25.03.2020
595 Snow -5 1016 66 0 2.14 171 18:39 25.03.2020
596 Snow -6 1016 68 0 2 170 18:21 25.03.2020
597 Snow -5 1016 66 0 2.14 171 17:55 25.03.2020
598 Snow -6 1016 68 0 2 170 17:37 25.03.2020
599 Snow -2 1016 53 0 2.11 160 17:18 25.03.2020
600 Snow -2 1016 53 0 2.11 160 16:43 25.03.2020
601 Snow -2 1016 53 0 2.11 160 16:43 25.03.2020
602 Snow -2 1016 53 0 2.11 160 16:23 25.03.2020
603 Snow -2 1016 53 0 2.11 160 15:57 25.03.2020
604 Snow -2 1016 53 0 2.11 160 15:38 25.03.2020
605 Snow -2 1016 53 0 2.11 160 15:19 25.03.2020
606 Snow -1 1016 52 0 1.78 160 14:42 25.03.2020
607 Snow -2 1016 53 0 2.11 160 14:22 25.03.2020
608 Clear -1 1018 51 0 1.29 164 13:56 25.03.2020
609 Clouds -1 1018 51 0 1.48 160 13:38 25.03.2020
610 Clear -1 1018 51 0 1.29 164 13:19 25.03.2020
611 Clear -1 1018 51 0 1.29 164 12:37 25.03.2020
612 Clouds -1 1018 51 0 1.48 160 12:19 25.03.2020
613 Clear -1 1018 51 0 1.29 164 11:55 25.03.2020
614 Clear -1 1018 51 0 1.29 164 11:36 25.03.2020
615 Clear -3 1020 52 0 0.94 168 11:18 25.03.2020
616 Clear -3 1020 52 0 0.94 168 10:55 25.03.2020
617 Clear -3 1020 52 0 0.94 168 10:36 25.03.2020
618 Clear -3 1020 52 0 0.94 168 10:18 25.03.2020
619 Clear -3 1020 52 0 0.94 168 09:42 25.03.2020
620 Clear -3 1020 52 0 0.94 168 09:22 25.03.2020
621 Clear -3 1020 52 0 0.94 168 08:55 25.03.2020
622 Clear -3 1021 65 0 0.45 164 08:37 25.03.2020
623 Clear -9 1023 65 0 1.56 344 08:18 25.03.2020
624 Clear -8 1023 64 0 1.91 344 07:39 25.03.2020
625 Clear -8 1023 64 0 1.91 344 07:20 25.03.2020
626 Clear -8 1023 64 0 1.91 344 06:46 25.03.2020
627 Clear -8 1023 64 0 1.91 344 06:25 25.03.2020
628 Clear -8 1023 64 0 1.91 344 05:50 25.03.2020
629 Clear -9 1024 67 0 1.03 325 04:59 25.03.2020
630 Clear -9 1024 67 0 1.03 325 04:39 25.03.2020
631 Clear -9 1024 67 0 1.03 325 03:35 25.03.2020
632 Clear -9 1025 72 0 1.17 225 01:57 25.03.2020
633 Clear -9 1025 72 0 1.17 225 01:20 25.03.2020
634 Clear -9 1025 74 0 1.26 219 00:47 25.03.2020
635 Clear -9 1025 74 0 1.26 219 00:19 25.03.2020
636 Clear -9 1025 74 0 1.26 219 23:44 24.03.2020
637 Clear -9 1025 74 0 1.26 219 23:25 24.03.2020
638 Clear -8 1025 70 0 1.35 180 22:55 24.03.2020
639 Clear -8 1025 70 0 1.35 180 22:37 24.03.2020
640 Clear -8 1025 70 0 1.35 180 22:19 24.03.2020
641 Clear -8 1025 70 0 1.35 180 21:55 24.03.2020
642 Clear -8 1025 70 0 1.35 180 21:36 24.03.2020
643 Clear -8 1025 70 0 1.35 180 21:18 24.03.2020
644 Clear -8 1025 70 0 1.35 180 20:42 24.03.2020
645 Clear -8 1025 70 0 1.35 180 20:23 24.03.2020
646 Clouds -7 1023 68 0 0.81 204 19:56 24.03.2020
647 Clouds -7 1023 68 0 0.81 204 19:56 24.03.2020
648 Clouds -7 1023 68 0 0.81 204 19:38 24.03.2020
649 Clouds -7 1023 68 0 0.81 204 19:18 24.03.2020
650 Clouds -7 1023 68 0 0.81 204 18:55 24.03.2020
651 Clouds -7 1023 68 0 0.81 204 18:36 24.03.2020
652 Clouds -7 1023 68 0 0.81 204 18:18 24.03.2020
653 Clouds -7 1023 68 0 0.81 204 17:41 24.03.2020
654 Clouds -7 1023 68 0 0.81 204 17:22 24.03.2020
655 Clouds -7 1023 68 0 0.81 204 17:22 24.03.2020
656 Snow 4 1022 39 10000 2.6 60 16:57 24.03.2020
657 Snow 4 1022 39 10000 2.6 60 16:39 24.03.2020
658 -273 0 0 0 0 0 16:20 24.03.2020
659 Snow 4 1020 39 10000 5.1 100 16:20 24.03.2020
660 Snow 4 1021 41 10000 5.7 90 15:55 24.03.2020
661 Snow 5 1021 41 10000 5.7 90 15:37 24.03.2020
662 Snow 4 1021 44 10000 6.7 70 15:19 24.03.2020
663 Snow 3 1021 48 10000 7.2 70 14:42 24.03.2020
664 Clouds -2 1024 51 0 1.87 146 14:18 24.03.2020
665 Clouds -2 1024 51 0 1.87 146 13:42 24.03.2020
666 Clouds -2 1023 51 0 1.82 143 13:24 24.03.2020
667 Clouds -2 1023 51 0 1.82 143 12:54 24.03.2020
668 Clouds -2 1023 51 0 1.82 143 12:36 24.03.2020
669 Clouds -2 1023 51 0 1.82 143 12:18 24.03.2020
670 Clouds -2 1023 51 0 1.82 143 11:39 24.03.2020
671 Clear 1 1023 55 10000 9.8 50 11:19 24.03.2020
672 Clear 1 1026 55 10000 2.1 110 10:43 24.03.2020
673 Clear 1 1026 55 10000 2.1 110 10:43 24.03.2020
674 Clouds 0 1026 55 10000 1.5 0 10:20 24.03.2020
675 Clouds 0 1026 55 10000 1.5 0 09:58 24.03.2020
676 Clear 1 1024 55 10000 8.2 60 09:39 24.03.2020
677 Clear 0 1024 55 10000 8.2 50 09:21 24.03.2020
678 Clouds 0 1024 55 10000 9.3 60 08:38 24.03.2020
679 Clear -2 1024 58 10000 9.3 40 08:20 24.03.2020
680 Clear -3 1024 63 10000 8.7 40 07:47 24.03.2020
681 Clear -4 1024 63 0 8.7 40 07:24 24.03.2020
682 Clear -4 1024 68 0 6.7 70 06:53 24.03.2020
683 Clouds -4 1024 63 0 8.2 60 06:27 24.03.2020
684 Clear -4 1024 58 0 6.2 60 04:57 24.03.2020
685 Clear -3 1024 58 0 6.2 60 04:27 24.03.2020
686 Clear -3 1024 38 0 8.2 60 03:18 24.03.2020
687 Clear -1 1025 55 0 9.3 30 01:47 24.03.2020
688 Clear -1 1025 55 0 8.7 30 00:48 24.03.2020
689 Clear -1 1025 55 0 9.3 40 00:25 24.03.2020
690 Clear -1 1025 59 0 8.2 40 23:45 23.03.2020
691 Clear -1 1025 59 0 7.7 50 23:26 23.03.2020
692 Clear -1 1025 64 0 7.7 40 22:56 23.03.2020
693 Clear -1 1025 64 0 7.7 40 22:37 23.03.2020
694 Clouds 0 1025 64 10000 7.2 50 22:19 23.03.2020
695 Clouds 1 1025 69 10000 6.2 40 21:44 23.03.2020
696 Clouds 1 1025 64 10000 4.6 70 21:20 23.03.2020
697 Clouds 1 1025 64 10000 4.6 70 20:58 23.03.2020
698 Clouds 0 1025 60 10000 4.6 60 20:39 23.03.2020
699 Clouds 1 1024 60 10000 5.1 70 20:21 23.03.2020
700 Clouds 1 1024 60 10000 5.1 0 19:46 23.03.2020
701 Clouds 3 1024 60 10000 5.1 70 19:27 23.03.2020
702 Clouds 3 1024 60 10000 6.7 60 18:59 23.03.2020
703 Clouds 3 1024 60 10000 6.7 60 18:41 23.03.2020
704 Clouds 3 1024 56 0 7.2 70 18:21 23.03.2020
705 Clouds 5 1024 56 0 8.7 60 17:44 23.03.2020
706 Clouds 5 1024 56 10000 9.3 60 17:22 23.03.2020
707 Clouds 5 1026 65 10000 1 0 16:59 23.03.2020
708 Clouds 6 1026 65 10000 1 0 16:41 23.03.2020
709 Clouds 6 1024 56 10000 8.2 50 16:23 23.03.2020
710 Clouds 5 1024 56 10000 7.7 40 15:42 23.03.2020
711 Clouds 5 1024 56 10000 10.3 40 15:20 23.03.2020
712 Clouds 5 1024 56 10000 10.3 40 14:55 23.03.2020
713 Clouds 4 1024 60 10000 8.2 30 14:36 23.03.2020
714 Clouds 4 1024 60 10000 8.7 40 14:18 23.03.2020
715 Clouds 4 1027 60 10000 1 0 13:40 23.03.2020
716 Clouds 4 1027 60 10000 1 0 13:40 23.03.2020
717 Clear 4 1024 60 0 9.8 50 13:21 23.03.2020
718 Clear 4 1024 64 0 10.3 40 12:46 23.03.2020
719 Clear 4 1024 64 10000 10.3 40 12:26 23.03.2020
720 Clear 4 1024 64 10000 9.3 60 11:59 23.03.2020
721 Clear 3 1024 64 10000 9.3 60 11:40 23.03.2020
722 Clear 2 1024 64 10000 8.2 60 11:21 23.03.2020
723 Clouds 2 1025 64 10000 8.2 50 10:58 23.03.2020
724 Clouds 2 1025 64 10000 8.2 50 10:58 23.03.2020
725 Clouds 2 1025 64 10000 8.2 50 10:39 23.03.2020
726 Clouds 2 1025 69 10000 7.2 30 10:21 23.03.2020
727 Clouds 2 1025 69 10000 7.7 40 09:46 23.03.2020
728 Clouds 1 1024 64 10000 6.7 20 09:21 23.03.2020
729 Clouds 1 1024 64 10000 6.7 20 08:58 23.03.2020
730 Clouds 1 1024 64 10000 6.7 20 08:58 23.03.2020
731 Clouds 0 1024 64 10000 6.2 60 08:37 23.03.2020
732 Clouds -1 1024 74 10000 5.1 50 08:18 23.03.2020
733 Clouds -1 1024 64 0 6.7 30 07:47 23.03.2020
734 Clouds -1 1024 64 0 6.7 30 07:29 23.03.2020
735 Clouds -1 1024 69 0 7.7 60 06:52 23.03.2020
736 Clouds -2 1023 69 0 9.8 50 05:55 23.03.2020
737 Clouds -1 1023 69 0 6.7 50 05:29 23.03.2020
738 Clouds -1 1023 69 0 8.7 30 03:41 23.03.2020
739 Clouds 0 1023 69 0 9.3 20 02:37 23.03.2020
740 Clouds 0 1023 64 0 8.2 20 01:34 23.03.2020
741 Clouds 1 1022 69 0 9.8 40 00:40 23.03.2020
742 Clouds 1 1023 69 0 8.7 40 23:53 22.03.2020
743 Clouds 3 1022 69 0 7.7 40 23:26 22.03.2020
744 Clouds 3 1023 97 0 9.3 40 22:56 22.03.2020
745 Clouds 3 1023 97 0 9.3 40 22:36 22.03.2020
746 Clouds 3 1022 97 0 8.2 40 22:18 22.03.2020
747 Clouds 3 1022 75 0 6.7 50 21:39 22.03.2020
748 Clouds 4 1022 75 0 6.2 40 21:20 22.03.2020
749 Clouds 3 1022 75 0 6.2 40 20:56 22.03.2020
750 Clouds 3 1022 75 0 7.2 40 20:38 22.03.2020
751 Clouds 4 1023 80 10000 1.5 240 20:20 22.03.2020
752 Clouds 4 1023 80 10000 1.5 240 19:55 22.03.2020
753 Clouds 4 1021 80 0 7.7 40 19:37 22.03.2020
754 Clouds 5 1021 80 0 7.7 30 19:18 22.03.2020
755 Clouds 5 1020 80 0 8.7 50 18:55 22.03.2020
756 Clouds 5 1020 80 0 8.7 50 18:37 22.03.2020
757 Clouds 6 1020 80 0 8.2 40 18:18 22.03.2020
758 Clouds 5 1020 80 0 10.3 60 17:55 22.03.2020
759 Clouds 4 1020 80 0 10.3 60 17:36 22.03.2020
760 Clouds 5 1020 80 0 9.8 50 17:18 22.03.2020
761 Clouds 5 1020 80 0 9.3 40 16:41 22.03.2020
762 Clouds 5 1020 80 0 9.8 50 16:22 22.03.2020
763 Clouds 5 1020 80 0 9.8 50 15:59 22.03.2020
764 Clouds 4 1019 80 0 9.8 50 15:39 22.03.2020
765 Clouds 4 1019 80 0 7.7 40 14:47 22.03.2020
766 Clouds 4 1019 80 0 10.3 50 14:20 22.03.2020
767 Clouds 4 1019 80 0 10.3 50 13:58 22.03.2020
768 Clouds 4 1019 80 0 9.3 50 13:40 22.03.2020
769 Clouds 4 1019 80 0 10.3 50 13:19 22.03.2020
770 Clouds 5 1019 86 0 8.7 50 12:44 22.03.2020
771 Clouds 5 1019 86 0 8.2 60 12:22 22.03.2020
772 Clouds 5 1019 86 0 8.2 60 12:22 22.03.2020
773 Clouds 4 1019 86 0 8.7 60 11:58 22.03.2020
774 Clouds 4 1019 86 0 8.7 60 11:39 22.03.2020
775 Clouds 4 1018 86 0 9.8 50 11:20 22.03.2020
776 Clouds 4 1018 80 0 9.8 40 10:43 22.03.2020
777 Clouds 4 1020 80 10000 3.6 320 10:24 22.03.2020
778 Clouds 4 1018 86 0 9.3 40 09:55 22.03.2020
779 Clouds 4 1018 86 0 9.3 40 09:36 22.03.2020
780 Clouds 3 1018 86 0 8.7 30 09:18 22.03.2020
781 Clouds 3 1018 86 0 9.8 50 08:41 22.03.2020
782 Rain 3 1017 86 0 10.3 50 08:21 22.03.2020
783 Rain 3 1017 86 0 8.7 50 07:50 22.03.2020
784 Rain 3 1017 86 0 6.2 50 07:19 22.03.2020
785 Rain 3 1016 86 0 8.7 50 05:56 22.03.2020
786 Clouds 2 1016 86 0 9.3 50 04:58 22.03.2020
787 Clouds 3 1016 86 0 10.3 50 02:50 22.03.2020
788 Clouds 3 1016 86 0 8.2 40 01:22 22.03.2020
789 Clouds 3 1016 86 0 9.3 40 00:39 22.03.2020
790 Clouds 3 1016 86 0 9.3 40 00:21 22.03.2020
791 Clouds 3 1016 86 0 10.8 40 23:41 21.03.2020
792 Clouds 3 1016 86 0 10.8 40 23:41 21.03.2020
793 Clouds 3 1016 86 0 11.3 50 23:19 21.03.2020
794 Clouds 3 1016 86 0 11.3 50 22:38 21.03.2020
795 Clouds 3 1015 86 0 10.3 60 22:20 21.03.2020
796 Clouds 4 1015 86 0 10.3 60 21:59 21.03.2020
797 Clouds 4 1015 87 0 10.3 50 21:40 21.03.2020
798 Clouds 4 1015 87 0 11.3 50 21:22 21.03.2020
799 Clouds 4 1015 81 0 11.3 50 20:46 21.03.2020
800 Clouds 4 1014 87 0 11.8 50 20:23 21.03.2020
801 Clouds 5 1014 87 0 11.8 50 19:57 21.03.2020
802 Clouds 6 1014 81 0 11.3 50 19:39 21.03.2020
803 Clouds 6 1014 81 0 11.3 50 19:21 21.03.2020
804 Clouds 6 1014 81 0 10.8 50 18:54 21.03.2020
805 Clouds 6 1014 81 0 10.8 50 18:36 21.03.2020
806 Clouds 6 1013 81 0 9.3 50 18:18 21.03.2020
807 Clouds 7 1013 76 0 10.8 30 17:43 21.03.2020
808 Clouds 7 1013 76 0 9.8 30 17:23 21.03.2020
809 Clouds 8 1013 71 0 9.8 30 16:57 21.03.2020
810 Clouds 9 1013 71 0 9.8 30 16:38 21.03.2020
811 Snow 9 1013 71 0 9.3 30 16:18 21.03.2020
812 Snow 9 1013 71 0 9.3 30 16:18 21.03.2020
813 Snow 9 1013 62 0 7.7 20 15:42 21.03.2020
814 Snow 11 1013 62 0 6.7 0 15:23 21.03.2020
815 Snow 11 1013 62 0 6.7 0 14:58 21.03.2020
816 Clouds 11 1015 76 10000 7.2 340 14:40 21.03.2020
817 Snow 12 1014 62 0 8.2 40 14:20 21.03.2020
818 Clear 11 1014 62 0 8.2 40 13:59 21.03.2020
819 Clear 12 1014 66 0 7.2 40 13:40 21.03.2020
820 Clear 12 1014 58 0 5.1 0 13:22 21.03.2020
821 Clear 12 1014 58 0 5.1 0 12:59 21.03.2020
822 Clear 12 1014 58 0 8.7 60 12:38 21.03.2020
823 Clear 12 1014 58 0 8.7 60 12:19 21.03.2020
824 Clear 11 1015 66 0 2.1 140 11:56 21.03.2020
825 Clear 11 1015 66 0 2.1 140 11:38 21.03.2020
826 Clear 10 1016 71 0 1.65 351 11:19 21.03.2020
827 Clear 9 1016 76 0 0.5 0 10:57 21.03.2020
828 Clear 9 1016 76 0 0.5 0 10:38 21.03.2020
829 Clear 9 1017 76 0 1 0 10:19 21.03.2020
830 Clear 9 1017 76 0 1 0 09:56 21.03.2020
831 Clear 8 1017 81 0 1 0 09:37 21.03.2020
832 Clear 7 1017 93 0 0.5 0 09:19 21.03.2020
833 Clear 5 1017 100 0 1.65 351 08:43 21.03.2020
834 Clear 5 1017 100 0 1.65 351 08:24 21.03.2020
835 Clear 3 1018 100 0 2.6 90 07:45 21.03.2020
836 Fog 3 1018 100 0 2.6 100 07:27 21.03.2020
837 Fog 3 1018 100 0 2.1 90 06:48 21.03.2020
838 Fog 4 1018 93 0 2.41 334 06:28 21.03.2020
839 Fog 3 1018 100 0 1 0 05:46 21.03.2020
840 Clouds 4 1018 100 0 2.1 80 04:46 21.03.2020
841 Fog 6 1018 100 0 0.5 0 02:55 21.03.2020
842 Fog 7 1019 93 0 2.12 326 02:33 21.03.2020
843 Clouds 7 1019 100 0 0.5 0 01:33 21.03.2020
844 Clouds 8 1019 100 0 2.23 322 00:56 21.03.2020
845 Clouds 9 1020 93 0 2.23 322 00:37 21.03.2020
846 Snow 8 1020 93 0 2.23 322 23:53 20.03.2020
847 Rain 8 1020 93 0 2.23 322 23:28 20.03.2020
848 Rain 8 1020 93 0 1.6 334 22:59 20.03.2020
849 Rain 8 1020 93 0 1.6 334 22:59 20.03.2020
850 Clouds 8 1021 93 0 1 0 22:40 20.03.2020
851 Rain 9 1021 87 0 1.5 80 22:21 20.03.2020
852 Rain 9 1021 87 0 1.5 80 21:56 20.03.2020
853 Rain 9 1021 87 0 2.1 90 21:38 20.03.2020
854 Rain 9 1021 87 0 2.1 100 21:18 20.03.2020
855 Rain 10 1021 87 0 2.1 100 20:56 20.03.2020
856 Rain 9 1021 87 0 3.1 80 20:38 20.03.2020
857 Rain 10 1021 66 0 3.1 240 20:18 20.03.2020
858 Rain 10 1020 58 0 6.2 290 19:44 20.03.2020
859 Rain 11 1020 62 0 8.7 310 19:19 20.03.2020
860 Rain 11 1019 54 0 7.7 300 18:55 20.03.2020
861 Rain 12 1019 54 0 7.7 300 18:37 20.03.2020
862 Clouds 12 1019 62 0 5.1 290 18:19 20.03.2020
863 Clouds 13 1018 67 0 1.5 280 17:39 20.03.2020
864 Clouds 14 1018 58 10000 1 0 17:21 20.03.2020
865 Clouds 14 1018 58 10000 1 0 17:21 20.03.2020
866 Clouds 14 1018 58 10000 1 0 16:58 20.03.2020
867 Clouds 14 1018 58 10000 1 0 16:39 20.03.2020
868 Clouds 14 1018 54 10000 1.65 208 16:18 20.03.2020
869 Clouds 15 1018 58 10000 2.1 260 15:42 20.03.2020
870 Clouds 14 1019 51 10000 2.6 240 15:22 20.03.2020
871 Clouds 15 1019 51 10000 2.6 240 14:56 20.03.2020
872 Clouds 15 1019 51 10000 3.1 250 14:37 20.03.2020
873 Clouds 15 1019 44 10000 3.1 250 14:18 20.03.2020
874 Clouds 15 1020 50 10000 3.6 250 13:43 20.03.2020
875 Clouds 14 1020 54 0 4.1 250 13:19 20.03.2020
876 Clouds 14 1020 50 0 3.6 240 12:41 20.03.2020
877 Clouds 13 1020 58 10000 4.1 270 12:23 20.03.2020
878 Clouds 13 1021 58 10000 3.6 270 11:58 20.03.2020
879 Clouds 13 1021 58 10000 3.6 270 11:38 20.03.2020
880 Clouds 12 1021 47 10000 1.88 184 11:19 20.03.2020
881 Clouds 12 1021 54 10000 1.88 184 10:42 20.03.2020
882 Clouds 11 1021 61 10000 1.88 184 10:21 20.03.2020
883 Clouds 10 1022 61 10000 1.88 184 09:57 20.03.2020
884 Clouds 10 1022 61 10000 1.88 184 09:39 20.03.2020
885 Clouds 9 1022 66 10000 0.5 0 09:19 20.03.2020
886 Clouds 8 1021 70 10000 1.88 184 08:42 20.03.2020
887 Clouds 5 1021 86 10000 1.89 178 08:22 20.03.2020
888 Clear 5 1021 86 10000 0.86 237 07:54 20.03.2020
889 Clear 4 1021 82 10000 1 0 07:36 20.03.2020
890 Clear 4 1021 82 10000 1.5 70 07:18 20.03.2020
891 Clear 4 1021 82 0 0.5 0 06:41 20.03.2020
892 Clear 5 1021 86 0 1.24 247 04:51 20.03.2020
893 Clear 5 1022 86 0 0.5 40 03:22 20.03.2020
894 Clear 6 1022 86 0 1 0 01:58 20.03.2020
895 Clear 7 1022 80 0 1.53 217 00:59 20.03.2020
896 Clear 7 1022 81 0 1.53 217 00:30 20.03.2020
897 Clear 7 1022 80 0 0.5 0 23:47 19.03.2020
898 Clear 9 1022 81 0 1.5 100 23:28 19.03.2020
899 Clear 9 1022 70 0 2.1 80 22:57 19.03.2020
900 Clear 9 1022 70 0 2.1 80 22:38 19.03.2020
901 Clear 9 1022 70 0 2.6 100 22:19 19.03.2020
902 Clear 10 1022 66 0 3.1 90 21:42 19.03.2020
903 Clear 11 1022 66 0 3.6 90 21:20 19.03.2020
904 Clear 11 1022 66 0 3.6 90 20:59 19.03.2020
905 Clear 10 1022 66 0 3.6 100 20:41 19.03.2020
906 Clouds 10 1022 66 0 3.6 90 20:22 19.03.2020
907 Clouds 10 1022 66 0 3.6 90 19:55 19.03.2020
908 Clouds 10 1022 66 0 3.6 100 19:37 19.03.2020
909 Clouds 12 1022 58 0 3.1 90 19:19 19.03.2020
910 Clouds 12 1021 58 0 1.5 20 18:54 19.03.2020
911 Clouds 13 1021 58 0 1.5 20 18:36 19.03.2020
912 Clouds 15 1021 55 0 1 150 18:18 19.03.2020
913 Clouds 15 1022 45 0 1.25 215 17:41 19.03.2020
914 Clouds 16 1022 45 10000 1 0 17:19 19.03.2020
915 Clouds 16 1022 42 10000 1.5 250 16:44 19.03.2020
916 Clouds 16 1022 45 10000 1.5 220 16:24 19.03.2020
917 Clouds 15 1022 45 10000 2.1 230 15:46 19.03.2020
918 Clouds 15 1022 48 10000 3.1 220 15:27 19.03.2020
919 Clouds 15 1022 48 10000 3.1 220 14:58 19.03.2020
920 Clouds 16 1023 48 10000 4.1 250 14:40 19.03.2020
921 Clouds 16 1023 48 10000 4.1 250 14:19 19.03.2020
922 Clouds 15 1023 44 10000 3.6 250 13:40 19.03.2020
923 Clouds 16 1023 44 10000 3.6 250 13:40 19.03.2020
924 Clouds 15 1024 62 10000 2.1 60 13:19 19.03.2020
925 Clouds 15 1024 47 0 3.6 250 12:56 19.03.2020
926 Clouds 15 1024 47 0 3.6 250 12:37 19.03.2020
927 Clouds 14 1024 67 10000 1.5 0 12:19 19.03.2020
928 Clouds 14 1025 66 10000 2.6 70 11:42 19.03.2020
929 Clouds 14 1025 58 10000 2.1 250 11:23 19.03.2020
930 Clear 13 1025 66 10000 1 0 10:56 19.03.2020
931 Clear 13 1025 66 10000 1 0 10:36 19.03.2020
932 Clear 12 1025 71 10000 1 0 10:18 19.03.2020
933 Clear 10 1025 70 10000 1.56 189 09:44 19.03.2020
934 Clear 10 1025 70 10000 1.56 189 09:26 19.03.2020
935 Clear 8 1025 75 10000 1.56 189 08:57 19.03.2020
936 Clear 6 1025 87 10000 1 240 08:37 19.03.2020
937 Clear 4 1025 86 10000 1.5 100 08:18 19.03.2020
938 Clear 4 1025 79 10000 0.5 0 07:42 19.03.2020
939 Clear 4 1025 100 10000 0.5 0 07:22 19.03.2020
940 Clear 4 1025 93 0 1 100 06:27 19.03.2020
941 Clear 4 1025 93 0 0.79 252 05:25 19.03.2020
942 Clear 4 1025 93 0 1.21 280 04:51 19.03.2020
943 Clear 5 1025 86 0 1 0 04:22 19.03.2020
944 Clear 5 1026 93 0 1 0 02:33 19.03.2020
945 Clouds 6 1026 86 0 1.32 236 00:53 19.03.2020
946 Clouds 7 1026 75 0 1.32 236 00:20 19.03.2020
947 Clouds 7 1026 75 0 1.32 236 23:44 18.03.2020
948 Clouds 7 1026 75 0 1 0 23:26 18.03.2020
949 Clouds 8 1026 70 0 3.1 110 22:43 18.03.2020
950 Clouds 9 1026 70 0 3.6 80 22:23 18.03.2020
951 Clouds 9 1026 70 0 3.6 80 21:59 18.03.2020
952 Clouds 8 1026 70 0 3.6 100 21:40 18.03.2020
953 Clouds 9 1026 66 0 4.1 90 21:21 18.03.2020
954 Clouds 9 1026 66 0 4.1 90 21:21 18.03.2020
955 Clouds 9 1026 66 0 4.1 90 20:56 18.03.2020
956 Clouds 9 1026 66 0 4.1 100 20:38 18.03.2020
957 Clouds 9 1026 62 0 4.1 100 20:19 18.03.2020
958 Clouds 10 1025 58 0 4.1 90 19:42 18.03.2020
959 Clouds 11 1025 51 0 5.1 40 19:21 18.03.2020
960 Clouds 12 1025 51 0 5.1 40 18:59 18.03.2020
961 Clouds 12 1025 44 0 4.1 30 18:40 18.03.2020
962 Clouds 13 1025 42 0 3.6 40 18:19 18.03.2020
963 Clouds 15 1025 42 0 0.98 219 17:57 18.03.2020
964 Clouds 15 1025 42 0 0.98 219 17:39 18.03.2020
965 Clouds 15 1025 45 0 0.5 0 17:19 18.03.2020
966 Clouds 15 1025 42 0 1 0 16:43 18.03.2020
967 Clouds 16 1025 45 10000 1.5 250 16:21 18.03.2020
968 Clouds 16 1025 45 10000 1.5 250 15:59 18.03.2020
969 Clouds 16 1025 45 10000 2.6 250 15:39 18.03.2020
970 Clouds 15 1026 45 10000 2.6 240 15:20 18.03.2020
971 Clouds 15 1026 44 10000 3.1 250 14:44 18.03.2020
972 Clouds 14 1026 48 10000 2.6 270 14:21 18.03.2020
973 Clouds 14 1027 48 10000 1.5 280 13:42 18.03.2020
974 Clouds 15 1027 48 0 1.5 260 13:20 18.03.2020
975 Clouds 15 1027 50 0 2.1 260 12:58 18.03.2020
976 Clouds 14 1027 50 0 2.1 260 12:39 18.03.2020
977 Clouds 14 1028 54 10000 3.1 260 12:19 18.03.2020
978 Clouds 13 1028 58 10000 2.6 280 11:39 18.03.2020
979 Clouds 11 1029 66 10000 0.5 0 11:19 18.03.2020
980 Clouds 11 1029 57 10000 0.5 0 10:58 18.03.2020
981 Clouds 11 1029 57 10000 0.5 0 10:38 18.03.2020
982 Clouds 10 1029 66 10000 0.78 94 10:19 18.03.2020
983 Clouds 9 1030 70 10000 0.5 0 09:43 18.03.2020
984 Clouds 8 1030 75 10000 1.5 120 09:23 18.03.2020
985 Clouds 7 1030 75 10000 1 0 08:55 18.03.2020
986 Clouds 6 1030 75 10000 1 0 08:37 18.03.2020
987 Clear 5 1030 93 10000 0.5 0 08:19 18.03.2020
988 Clear 3 1029 71 0 2.59 332 07:43 18.03.2020
989 Clear 3 1029 71 10000 2.59 332 07:25 18.03.2020
990 Clear 4 1030 93 0 2.59 332 06:44 18.03.2020
991 Clear 4 1030 93 0 1 0 05:56 18.03.2020
992 Clear 3 1030 93 0 1 0 05:34 18.03.2020
993 Clear 4 1030 86 0 2.86 335 04:24 18.03.2020
994 Clouds 6 1030 75 0 2.86 335 02:42 18.03.2020
995 Clouds 7 1030 81 0 3.11 330 01:47 18.03.2020
996 Clouds 7 1030 75 0 2.99 331 01:21 18.03.2020
997 Clouds 7 1031 70 0 2.6 110 00:23 18.03.2020
998 Clouds 7 1031 75 0 2.6 90 23:47 17.03.2020
999 Clouds 7 1031 70 0 2.6 90 23:26 17.03.2020
1000 Clouds 8 1031 70 0 2.6 90 22:48 17.03.2020
1001 Clear 7 1031 66 0 3.6 90 22:29 17.03.2020
1002 Clear 8 1031 66 0 3.6 90 21:59 17.03.2020
1003 Clear 7 1030 61 0 4.1 80 21:39 17.03.2020
1004 Clouds 8 1030 66 10000 1.5 0 21:20 17.03.2020
1005 Clear 8 1030 57 0 4.1 90 20:39 17.03.2020
1006 Clear 8 1030 57 0 4.1 90 20:39 17.03.2020
1007 Clear 9 1030 62 0 3.6 90 20:21 17.03.2020
1008 Clouds 9 1030 62 0 3.6 90 19:56 17.03.2020
1009 Clouds 9 1029 50 0 4.6 30 19:38 17.03.2020
1010 Clouds 10 1029 47 0 4.6 30 19:18 17.03.2020
1011 Clouds 10 1029 47 0 6.2 30 18:54 17.03.2020
1012 Clouds 11 1029 47 0 6.2 30 18:36 17.03.2020
1013 Clouds 12 1028 44 0 3.1 40 18:18 17.03.2020
1014 Clouds 14 1028 44 0 4.6 30 17:40 17.03.2020
1015 Clouds 14 1028 44 10000 5.7 30 17:20 17.03.2020
1016 Clouds 15 1028 42 10000 3.6 40 16:45 17.03.2020
1017 Clouds 15 1029 42 10000 4.6 50 16:20 17.03.2020
1018 Clouds 15 1029 42 10000 4.6 50 15:58 17.03.2020
1019 Clouds 15 1029 41 10000 1.5 270 15:39 17.03.2020
1020 Clouds 15 1029 44 10000 2.6 250 15:18 17.03.2020
1021 Clouds 14 1029 48 10000 2.1 150 14:41 17.03.2020
1022 Clouds 14 1029 48 10000 2.1 150 14:41 17.03.2020
1023 Clouds 14 1030 44 10000 3.1 240 14:18 17.03.2020
1024 Clouds 14 1030 47 10000 3.1 240 13:43 17.03.2020
1025 Clouds 14 1031 47 0 4.6 250 13:24 17.03.2020
1026 Clouds 14 1030 47 0 3.1 260 12:54 17.03.2020
1027 Clouds 14 1030 47 0 3.1 260 12:36 17.03.2020
1028 Clouds 13 1030 50 10000 2.6 230 12:18 17.03.2020
1029 Clouds 13 1030 43 10000 2.1 230 11:42 17.03.2020
1030 Clouds 12 1031 50 10000 1.5 240 11:24 17.03.2020
1031 Clouds 11 1031 50 10000 2.6 110 10:56 17.03.2020
1032 Clouds 11 1031 50 10000 2.6 110 10:37 17.03.2020
1033 Clouds 10 1031 57 10000 3.1 110 10:18 17.03.2020
1034 Clouds 9 1031 71 10000 0.5 0 09:46 17.03.2020
1035 Clouds 7 1032 65 0 1.79 346 09:20 17.03.2020
1036 Clouds 7 1032 65 0 1.79 346 08:58 17.03.2020
1037 Clouds 5 1031 75 0 0.5 0 08:40 17.03.2020
1038 Clouds 4 1031 86 10000 2.1 90 08:18 17.03.2020
1039 Clouds 3 1031 73 10000 3.27 338 07:49 17.03.2020
1040 Clouds 3 1030 73 10000 3.27 338 07:21 17.03.2020
1041 Clouds 3 1030 86 0 0.5 0 06:49 17.03.2020
1042 Clouds 3 1030 73 0 3.27 338 06:25 17.03.2020
1043 Clouds 3 1029 73 0 1.5 110 05:26 17.03.2020
1044 Clouds 3 1029 86 0 2.6 90 03:34 17.03.2020
1045 Clouds 3 1028 86 0 0.5 0 02:31 17.03.2020
1046 Clouds 4 1028 64 0 1.86 314 01:38 17.03.2020
1047 Clouds 5 1027 62 0 1 90 00:54 17.03.2020
1048 Clouds 5 1027 86 0 1.78 319 00:19 17.03.2020
1049 Clouds 5 1027 80 0 1.78 319 23:38 16.03.2020
1050 Clouds 5 1027 86 0 1.15 240 23:19 16.03.2020
1051 Clouds 6 1026 75 0 1 0 22:38 16.03.2020
1052 Clouds 6 1026 80 10000 1.5 110 22:20 16.03.2020
1053 Clouds 6 1026 80 10000 1.5 110 22:20 16.03.2020
1054 Clouds 6 1025 80 10000 1.5 110 21:45 16.03.2020
1055 Clouds 6 1025 80 10000 1.5 110 21:27 16.03.2020
1056 Clouds 7 1025 75 10000 2.6 90 20:59 16.03.2020
1057 Clouds 7 1025 75 10000 2.6 90 20:40 16.03.2020
1058 Clouds 7 1024 65 10000 2.6 80 20:21 16.03.2020
1059 Clouds 7 1024 70 10000 2.6 90 19:46 16.03.2020
1060 Clouds 8 1023 70 10000 2.1 100 19:25 16.03.2020
1061 Clouds 9 1023 70 10000 2.1 100 18:59 16.03.2020
1062 Clouds 9 1023 70 10000 1 0 18:39 16.03.2020
1063 Clouds 11 1022 58 0 0.5 0 18:20 16.03.2020
1064 Clouds 13 1022 44 0 1 0 17:46 16.03.2020
1065 Clouds 13 1022 41 10000 1 230 17:25 16.03.2020
1066 Clouds 14 1022 41 10000 1 0 16:57 16.03.2020
1067 Clouds 14 1022 41 10000 1 0 16:39 16.03.2020
1068 Clouds 14 1021 41 10000 1 0 16:20 16.03.2020
1069 Clouds 14 1021 38 10000 1 0 15:43 16.03.2020
1070 Clouds 12 1021 44 10000 2.6 220 15:23 16.03.2020
1071 Clouds 14 1021 41 10000 3.6 240 14:47 16.03.2020
1072 Clouds 13 1021 99 10000 4.1 240 14:20 16.03.2020
1073 Clouds 13 1021 46 10000 4.1 250 13:48 16.03.2020
1074 Clouds 13 1021 46 10000 4.1 250 13:28 16.03.2020
1075 Clouds 13 1021 50 10000 1 0 12:57 16.03.2020
1076 Clouds 13 1021 50 10000 1 0 12:38 16.03.2020
1077 Clouds 12 1021 46 10000 2.1 70 12:20 16.03.2020
1078 Clouds 11 1021 57 10000 2.1 80 11:43 16.03.2020
1079 Clouds 11 1021 50 10000 0.5 0 11:23 16.03.2020
1080 Clouds 9 1021 90 10000 2.52 176 10:44 16.03.2020
1081 Clouds 8 1021 57 10000 1 0 10:24 16.03.2020
1082 Clouds 7 1021 70 10000 1 0 09:49 16.03.2020
1083 Clouds 7 1021 70 10000 1 0 09:30 16.03.2020
1084 Clouds 6 1021 90 10000 1.5 90 08:59 16.03.2020
1085 Clouds 5 1020 80 10000 1.5 110 08:39 16.03.2020
1086 Clouds 2 1019 80 10000 0.5 0 08:20 16.03.2020
1087 Clouds 1 1019 92 10000 1.5 300 07:41 16.03.2020
1088 Clouds 1 1019 92 10000 1.5 40 07:18 16.03.2020
1089 Clouds 1 1018 74 10000 2.6 240 06:28 16.03.2020
1090 Clouds 1 1018 80 10000 2.6 240 05:55 16.03.2020
1091 Clouds 2 1017 74 10000 2.1 270 04:21 16.03.2020
1092 Clouds 2 1017 74 10000 2.1 250 01:46 16.03.2020
1093 Clouds 2 1017 98 10000 2.6 250 00:44 16.03.2020
1094 Clouds 3 1016 98 10000 2.1 230 00:25 16.03.2020
1095 Clouds 3 1016 98 10000 2.6 240 23:39 15.03.2020
1096 Clouds 3 1016 99 10000 2.1 220 23:18 15.03.2020
1097 Clouds 4 1016 99 10000 2.6 250 22:42 15.03.2020
1098 Clouds 4 1016 99 10000 2.6 220 22:20 15.03.2020
1099 Clouds 5 1016 99 10000 2.6 220 21:39 15.03.2020
1100 Clouds 5 1016 99 10000 2.6 270 21:21 15.03.2020
1101 Clouds 5 1016 99 10000 2.6 270 20:55 15.03.2020
1102 Clouds 6 1016 65 10000 2.6 250 20:36 15.03.2020
1103 Clouds 6 1016 61 10000 3.1 270 20:18 15.03.2020
1104 Clouds 6 1016 61 10000 3.1 270 19:55 15.03.2020
1105 Clouds 7 1016 57 10000 1.5 270 19:37 15.03.2020
1106 Clouds 7 1016 61 10000 2.1 260 19:18 15.03.2020
1107 Clouds 8 1016 57 10000 2.1 210 18:41 15.03.2020
1108 Clouds 8 1015 53 10000 1.5 0 18:23 15.03.2020
1109 Clouds 9 1015 54 10000 1 0 17:57 15.03.2020
1110 Clouds 9 1015 54 10000 1 0 17:38 15.03.2020
1111 Clouds 10 1016 54 10000 1.5 50 17:19 15.03.2020
1112 Clouds 11 1016 50 10000 2.6 60 16:44 15.03.2020
1113 Clouds 10 1016 50 10000 2.6 60 16:26 15.03.2020
1114 Clouds 10 1016 50 10000 1.5 80 15:59 15.03.2020
1115 Clouds 10 1016 54 10000 1.5 60 15:41 15.03.2020
1116 Clouds 10 1016 50 10000 2.1 70 15:20 15.03.2020
1117 Clouds 11 1017 54 10000 2.1 80 14:46 15.03.2020
1118 Clouds 11 1017 54 10000 2.1 80 14:25 15.03.2020
1119 Clouds 11 1017 53 10000 1.5 0 13:59 15.03.2020
1120 Clouds 11 1018 61 10000 2.1 70 13:38 15.03.2020
1121 Clouds 10 1018 61 10000 2.1 70 13:20 15.03.2020
1122 Clouds 10 1019 61 10000 2.1 70 12:44 15.03.2020
1123 Clouds 10 1019 61 10000 2.1 70 12:44 15.03.2020
1124 Clouds 9 1019 61 10000 1.5 90 12:26 15.03.2020
1125 Clouds 9 1019 65 10000 2.1 90 11:57 15.03.2020
1126 Clouds 9 1019 65 10000 2.1 90 11:39 15.03.2020
1127 Snow 8 1019 70 10000 2.1 70 11:20 15.03.2020
1128 Snow 7 1019 65 10000 1 0 10:56 15.03.2020
1129 Snow 7 1019 65 10000 1 0 10:36 15.03.2020
1130 Snow 6 1019 75 10000 0.5 0 10:18 15.03.2020
1131 Snow 5 1019 75 10000 1 0 09:39 15.03.2020
1132 -273 0 0 0 0 0 09:21 15.03.2020
1133 Snow 2 1019 94 10000 1.5 250 08:42 15.03.2020
1134 Clear 0 1019 87 10000 1.5 230 08:20 15.03.2020
1135 Clear -1 1019 86 10000 1 250 07:51 15.03.2020
1136 Clear -1 1019 86 10000 1 250 07:29 15.03.2020
1137 Clear -1 1020 87 10000 2.1 250 06:52 15.03.2020
1138 Clear -1 1020 86 10000 1.5 240 05:50 15.03.2020
1139 Clear 0 1020 80 10000 2.1 250 05:18 15.03.2020
1140 Clear -1 1020 66 10000 2.1 270 04:43 15.03.2020
1141 Clear -1 1021 86 10000 2.1 230 04:24 15.03.2020
1142 Clear -1 1021 86 10000 2.1 240 03:38 15.03.2020
1143 Clear -1 1021 86 10000 2.1 260 02:38 15.03.2020
1144 Clouds 1 1022 77 10000 2.6 240 01:34 15.03.2020
1145 Clear 1 1022 80 10000 1.5 290 00:46 15.03.2020
1146 Clear 1 1022 74 10000 2.1 220 00:24 15.03.2020
1147 Clear 2 1022 74 10000 0.5 0 23:55 14.03.2020
1148 Clear 2 1022 74 10000 0.5 0 23:36 14.03.2020
1149 Clear 2 1022 86 10000 1 0 23:18 14.03.2020
1150 Clear 2 1022 86 10000 1 0 22:42 14.03.2020
1151 Clouds 2 1022 86 10000 1 0 22:23 14.03.2020
1152 Clouds 2 1022 86 10000 1 0 21:56 14.03.2020
1153 Clear 3 1022 80 10000 1.5 230 21:36 14.03.2020
1154 Clouds 3 1022 86 10000 1.5 230 21:18 14.03.2020
1155 Clouds 3 1022 86 10000 1.5 230 20:58 14.03.2020
1156 Clouds 4 1022 75 10000 0.5 0 20:40 14.03.2020
1157 Clouds 3 1022 81 10000 0.5 0 20:19 14.03.2020
1158 Clouds 4 1022 75 10000 0.5 0 19:43 14.03.2020
1159 Clouds 4 1022 70 10000 0.5 130 19:25 14.03.2020
1160 Clouds 6 1021 70 10000 0.5 0 18:42 14.03.2020
1161 Clouds 5 1021 75 10000 1 0 18:24 14.03.2020
1162 Clouds 4 1021 75 10000 1 50 17:58 14.03.2020
1163 Clouds 6 1021 75 10000 1 50 17:38 14.03.2020
1164 Clouds 5 1021 75 10000 1.5 0 17:20 14.03.2020
1165 Clouds 6 1021 70 10000 1.5 90 16:41 14.03.2020
1166 Clouds 5 1021 65 10000 1.5 0 16:23 14.03.2020
1167 Clouds 6 1021 65 10000 1.5 0 15:58 14.03.2020
1168 Clouds 5 1021 70 10000 2.1 90 15:27 14.03.2020
1169 Snow 4 1021 75 10000 2.1 70 14:58 14.03.2020
1170 Snow 5 1021 70 10000 1 0 14:36 14.03.2020
1171 Drizzle 4 1021 70 10000 1 0 14:18 14.03.2020
1172 Clouds 5 1021 70 10000 1.5 0 13:42 14.03.2020
1173 Clouds 5 1021 65 10000 1 0 13:23 14.03.2020
1174 Rain 5 1021 75 10000 1.5 0 12:47 14.03.2020
1175 Clouds 4 1021 70 10000 1 0 12:27 14.03.2020
1176 Clouds 4 1021 75 10000 1.5 120 11:59 14.03.2020
1177 Clouds 4 1021 75 10000 1.5 120 11:39 14.03.2020
1178 Clouds 3 1021 81 10000 2.1 60 11:20 14.03.2020
1179 Clouds 4 1021 81 10000 1 0 10:45 14.03.2020
1180 Clouds 2 1021 86 10000 1.5 70 10:27 14.03.2020
1181 Clouds 2 1021 86 10000 1.5 70 10:27 14.03.2020
1182 Clouds 3 1021 86 10000 1.5 70 09:57 14.03.2020
1183 Clouds 2 1021 81 10000 0.5 0 09:39 14.03.2020
1184 Clouds 2 1021 86 10000 0.5 0 09:19 14.03.2020
1185 Clouds 2 1020 93 10000 1 200 08:45 14.03.2020
1186 Clouds 1 1020 93 10000 0.5 0 08:22 14.03.2020
1187 Clouds 0 1020 93 10000 0.5 0 07:39 14.03.2020
1188 Clouds 0 1020 93 10000 1.5 0 07:20 14.03.2020
1189 Clouds 0 1020 93 10000 1 210 06:41 14.03.2020
1190 Clouds 0 1019 93 10000 1 280 05:49 14.03.2020
1191 Clouds 1 1020 93 10000 0.5 0 04:51 14.03.2020
1192 Clouds 0 1020 55 10000 0.5 0 03:25 14.03.2020
1193 Clouds 0 1020 93 10000 1.5 220 02:28 14.03.2020
1194 Clouds 0 1021 93 10000 1.5 230 01:27 14.03.2020
1195 Clouds 0 1021 86 10000 1.5 270 00:20 14.03.2020
1196 Clouds 0 1021 93 10000 1.5 260 23:32 13.03.2020
1197 Clouds 1 1022 86 10000 1.5 240 22:57 13.03.2020
1198 Clouds 1 1022 86 10000 1.5 240 22:38 13.03.2020
1199 Clouds 1 1021 86 10000 2.1 230 22:19 13.03.2020
1200 Clouds 1 1021 93 10000 1.5 240 21:39 13.03.2020
1201 Clouds 1 1021 86 10000 1.5 0 21:18 13.03.2020
1202 Clouds 2 1021 80 10000 1.5 0 20:41 13.03.2020
1203 Clouds 3 1021 81 10000 0.5 0 20:22 13.03.2020
1204 Clouds 3 1021 75 10000 0.5 0 19:49 13.03.2020
1205 Clouds 3 1021 75 10000 0.5 0 19:31 13.03.2020
1206 Clouds 3 1021 70 10000 1.5 60 18:55 13.03.2020
1207 Clouds 5 1021 70 10000 1.5 60 18:36 13.03.2020
1208 Clouds 4 1021 70 10000 0.5 70 18:18 13.03.2020
1209 Clouds 6 1021 65 10000 1 0 17:41 13.03.2020
1210 Clouds 4 1021 75 10000 1.5 100 17:21 13.03.2020
1211 Clouds 6 1022 70 10000 1.5 110 16:55 13.03.2020
1212 Clouds 7 1022 70 10000 1.5 110 16:36 13.03.2020
1213 Clouds 6 1022 91 10000 3.92 346 16:18 13.03.2020
1214 Clouds 7 1022 65 10000 1.5 80 15:41 13.03.2020
1215 Clouds 6 1022 65 10000 1 0 15:21 13.03.2020
1216 Clouds 5 1022 65 10000 1.5 290 14:44 13.03.2020
1217 Clouds 6 1022 65 10000 2.1 290 14:23 13.03.2020
1218 Clouds 6 1022 65 10000 2.1 290 13:59 13.03.2020
1219 Clouds 6 1022 65 10000 2.6 310 13:40 13.03.2020
1220 Clouds 5 1023 65 0 2.1 320 13:21 13.03.2020
1221 Clouds 6 1022 65 0 3.1 300 12:56 13.03.2020
1222 Clouds 6 1022 65 0 3.1 300 12:38 13.03.2020
1223 Clouds 6 1022 99 10000 4.1 300 12:19 13.03.2020
1224 Clouds 6 1022 99 10000 3.6 310 11:45 13.03.2020
1225 Clouds 5 1022 65 10000 2.6 290 11:26 13.03.2020
1226 Clouds 5 1022 65 10000 2.6 280 10:58 13.03.2020
1227 Clouds 5 1022 65 10000 2.6 280 10:39 13.03.2020
1228 Clouds 5 1022 65 10000 4.1 300 10:21 13.03.2020
1229 Snow 5 1022 70 10000 4.6 320 09:44 13.03.2020
1230 Rain 5 1021 75 10000 6.7 310 09:25 13.03.2020
1231 Rain 4 1021 81 10000 5.7 300 08:48 13.03.2020
1232 Drizzle 4 1020 81 10000 7.7 300 08:24 13.03.2020
1233 Drizzle 5 1020 81 10000 7.7 300 07:59 13.03.2020
1234 Rain 5 1020 87 8000 4.6 280 07:38 13.03.2020
1235 Rain 5 1019 87 0 4.6 280 07:20 13.03.2020
1236 Rain 5 1019 87 0 4.6 260 06:45 13.03.2020
1237 Rain 5 1019 87 0 3.6 250 06:18 13.03.2020
1238 Rain 5 1019 87 0 3.1 260 05:43 13.03.2020
1239 Rain 6 1018 93 0 3.1 270 04:39 13.03.2020
1240 Rain 6 1018 87 0 3.1 250 03:50 13.03.2020
1241 Rain 6 1018 93 0 2.1 250 01:48 13.03.2020
1242 Rain 7 1018 93 0 2.6 230 01:19 13.03.2020
1243 Rain 7 1018 93 0 2.6 230 00:56 13.03.2020
1244 Rain 7 1018 93 0 2.6 230 00:37 13.03.2020
1245 Rain 7 1018 100 0 0.5 0 00:18 13.03.2020
1246 Rain 8 1017 93 0 2.38 317 23:29 12.03.2020
1247 Rain 8 1017 93 0 1.5 80 22:58 12.03.2020
1248 Rain 9 1017 93 0 1.5 80 22:40 12.03.2020
1249 Rain 9 1017 87 0 1 0 22:22 12.03.2020
1250 Rain 10 1017 81 0 2.28 292 21:46 12.03.2020
1251 Rain 10 1017 81 0 2.28 292 21:28 12.03.2020
1252 Rain 10 1017 81 0 0.5 0 20:59 12.03.2020
1253 Rain 10 1016 76 0 1 0 20:40 12.03.2020
1254 Clouds 11 1016 71 0 1.87 296 20:19 12.03.2020
1255 Clouds 11 1016 71 0 1 0 19:42 12.03.2020
1256 Clouds 11 1015 71 0 1 0 19:20 12.03.2020
1257 Clouds 11 1015 71 0 1.87 296 18:45 12.03.2020
1258 Clouds 12 1015 71 0 1.5 120 18:25 12.03.2020
1259 Clouds 13 1015 67 0 1 0 17:57 12.03.2020
1260 Clouds 13 1015 67 0 1 0 17:39 12.03.2020
1261 Clouds 13 1015 58 10000 1 130 17:20 12.03.2020
1262 Clouds 12 1015 67 10000 1.69 249 16:56 12.03.2020
1263 Clouds 13 1015 67 10000 1.69 249 16:38 12.03.2020
1264 Clouds 15 1015 55 10000 1.69 249 16:19 12.03.2020
1265 Clouds 14 1015 55 10000 1 0 15:45 12.03.2020
1266 Clouds 15 1015 55 10000 1 0 15:27 12.03.2020
1267 Clouds 15 1016 48 10000 0.5 0 14:42 12.03.2020
1268 Clouds 14 1016 51 10000 2.1 310 14:24 12.03.2020
1269 Clouds 14 1016 51 10000 2.1 310 13:57 12.03.2020
1270 Clouds 14 1017 58 10000 3.1 250 13:37 12.03.2020
1271 Clouds 14 1017 58 0 4.1 250 13:19 12.03.2020
1272 Clouds 13 1018 62 0 3.6 270 12:41 12.03.2020
1273 Clouds 12 1018 66 10000 1.5 80 12:22 12.03.2020
1274 Clouds 13 1018 58 10000 1.5 260 11:57 12.03.2020
1275 Clouds 12 1018 58 10000 1.5 260 11:38 12.03.2020
1276 Clouds 12 1019 58 10000 1 0 11:20 12.03.2020
1277 Clouds 11 1018 66 10000 1 0 10:58 12.03.2020
1278 Clouds 11 1018 66 10000 1 0 10:58 12.03.2020
1279 Clouds 11 1018 66 10000 1 0 10:40 12.03.2020
1280 Clouds 10 1019 75 10000 1 0 10:22 12.03.2020
1281 Clouds 9 1019 75 10000 1 0 09:46 12.03.2020
1282 Clouds 9 1019 75 10000 1 0 09:27 12.03.2020
1283 Clear 7 1019 86 10000 2.6 110 08:45 12.03.2020
1284 Clouds 6 1018 87 10000 2.1 230 08:20 12.03.2020
1285 Clouds 5 1018 87 10000 2.1 230 07:59 12.03.2020
1286 Clouds 5 1018 93 10000 2.1 240 07:40 12.03.2020
1287 Clouds 4 1019 100 10000 0.5 0 07:21 12.03.2020
1288 Clouds 4 1019 38 0 1.79 299 05:55 12.03.2020
1289 Clouds 4 1019 100 0 1.79 299 05:26 12.03.2020
1290 Clear 5 1021 100 0 1.39 295 02:43 12.03.2020
1291 Clear 6 1021 100 0 0.5 0 01:36 12.03.2020
1292 Mist 5 1021 100 0 1.5 100 01:18 12.03.2020
1293 Clear 6 1021 93 0 1.74 236 00:40 12.03.2020
1294 Clear 7 1021 100 0 1.74 236 23:51 11.03.2020
1295 Clear 7 1021 100 0 1 100 23:26 11.03.2020
1296 Clear 7 1021 93 0 1.5 90 22:55 11.03.2020
1297 Clear 7 1021 93 0 1.5 90 22:37 11.03.2020
1298 Clear 7 1021 93 0 1.5 90 22:37 11.03.2020
1299 Clear 8 1021 93 0 0.5 0 22:18 11.03.2020
1300 Clouds 7 1021 87 0 2.6 90 21:41 11.03.2020
1301 Clouds 7 1021 87 0 2.1 90 21:23 11.03.2020
1302 Clouds 7 1021 87 0 2.1 90 20:59 11.03.2020
1303 Clouds 7 1021 87 0 3.1 80 20:40 11.03.2020
1304 Clouds 8 1021 87 0 3.1 80 20:20 11.03.2020
1305 Clouds 9 1021 87 0 3.1 80 19:57 11.03.2020
1306 Clouds 9 1021 87 0 2.6 90 19:38 11.03.2020
1307 Clouds 9 1021 81 0 2.6 80 19:20 11.03.2020
1308 Clouds 10 1021 81 0 3.1 90 18:43 11.03.2020
1309 Clouds 11 1021 81 0 2.1 110 18:24 11.03.2020
1310 Clouds 11 1021 71 0 1.5 110 17:59 11.03.2020
1311 Clouds 12 1021 71 0 1.5 110 17:39 11.03.2020
1312 Clouds 12 1021 76 10000 1.5 130 17:21 11.03.2020
1313 Clouds 13 1021 71 10000 1 0 16:47 11.03.2020
1314 Clouds 11 1021 76 10000 3.1 100 16:24 11.03.2020
1315 Clouds 12 1021 76 10000 3.1 100 15:59 11.03.2020
1316 Clouds 12 1021 76 10000 3.1 100 15:59 11.03.2020
1317 Clouds 12 1021 81 10000 2.6 100 15:41 11.03.2020
1318 Clouds 12 1022 81 10000 2.87 323 15:22 11.03.2020
1319 Clouds 12 1022 81 10000 2.87 323 14:44 11.03.2020
1320 Clouds 12 1022 87 10000 0.5 0 14:23 11.03.2020
1321 Clouds 12 1022 87 10000 0.5 0 13:57 11.03.2020
1322 Clouds 11 1023 87 10000 1 130 13:38 11.03.2020
1323 Clouds 12 1023 87 0 2.6 90 13:20 11.03.2020
1324 Clouds 12 1023 87 0 2.6 90 12:40 11.03.2020
1325 Clouds 11 1023 87 10000 2.1 80 12:20 11.03.2020
1326 Clouds 11 1023 87 10000 1.5 90 11:56 11.03.2020
1327 Clouds 10 1023 87 10000 1.5 90 11:37 11.03.2020
1328 Clouds 10 1023 93 10000 2.1 100 11:19 11.03.2020
1329 Clouds 9 1023 93 10000 1.5 100 10:42 11.03.2020
1330 Clouds 8 1022 87 10000 1.5 50 10:19 11.03.2020
1331 Clouds 7 1022 87 10000 1 70 09:43 11.03.2020
1332 Clouds 7 1023 93 10000 1 0 09:25 11.03.2020
1333 Clouds 6 1023 93 10000 1 0 08:58 11.03.2020
1334 Clouds 6 1023 100 9000 3.28 322 08:40 11.03.2020
1335 Clouds 6 1023 93 8000 1 0 08:19 11.03.2020
1336 Clouds 5 1023 93 8000 0.5 0 07:43 11.03.2020
1337 Clouds 5 1023 93 6000 2.6 90 07:19 11.03.2020
1338 Clouds 5 1023 100 0 3.76 322 06:44 11.03.2020
1339 Clouds 5 1022 100 0 2.6 120 05:36 11.03.2020
1340 Rain 5 1022 100 0 2.1 110 04:31 11.03.2020
1341 Mist 5 1022 100 0 1 0 02:24 11.03.2020
1342 Mist 5 1022 100 0 1.5 110 01:28 11.03.2020
1343 Rain 5 1022 100 0 3.86 322 00:47 11.03.2020
1344 Rain 5 1021 93 6000 1.5 0 00:18 11.03.2020
1345 Rain 5 1022 100 0 1.5 90 23:40 10.03.2020
1346 Rain 5 1022 93 0 1 0 23:21 10.03.2020
1347 Rain 5 1022 93 0 1.5 80 22:39 10.03.2020
1348 Rain 5 1022 100 0 0.5 0 22:20 10.03.2020
1349 Rain 5 1022 100 0 0.5 0 21:57 10.03.2020
1350 Rain 5 1022 100 0 1 0 21:39 10.03.2020
1351 Rain 5 1022 100 0 1.5 40 21:20 10.03.2020
1352 Rain 5 1022 100 0 1.5 40 20:59 10.03.2020
1353 Rain 5 1022 100 0 1.5 60 20:41 10.03.2020
1354 Rain 4 1022 100 0 4.5 320 20:18 10.03.2020
1355 Rain 4 1022 100 0 4.6 319 19:56 10.03.2020
1356 Rain 4 1022 100 0 4.6 319 19:37 10.03.2020
1357 Rain 4 1022 93 0 4.6 319 19:19 10.03.2020
1358 Rain 4 1021 93 0 4.6 319 18:44 10.03.2020
1359 Rain 4 1021 93 0 4.6 319 18:25 10.03.2020
1360 Rain 3 1021 100 0 1 0 17:57 10.03.2020
1361 Rain 3 1021 100 0 1 0 17:39 10.03.2020
1362 Rain 3 1020 93 3700 4.6 319 17:21 10.03.2020
1363 Rain 3 1020 100 3400 2.75 314 16:39 10.03.2020
1364 Rain 4 1020 100 4200 2.75 314 16:19 10.03.2020
1365 Rain 4 1020 100 4200 2.75 314 15:55 10.03.2020
1366 Rain 4 1020 100 4200 2.75 314 15:55 10.03.2020
1367 Rain 4 1020 100 7000 2.75 314 15:37 10.03.2020
1368 Rain 3 1020 100 5000 2.75 314 15:19 10.03.2020
1369 Rain 3 1019 86 7000 2.6 80 14:41 10.03.2020
1370 Rain 2 1020 100 4600 0.5 0 14:20 10.03.2020
1371 Snow 3 1020 100 4600 0.5 0 13:57 10.03.2020
1372 Snow 3 1021 100 2500 1 0 13:38 10.03.2020
1373 Snow 3 1021 100 0 2.1 100 13:19 10.03.2020
1374 Snow 3 1021 100 0 1 90 12:41 10.03.2020
1375 Snow 3 1021 100 0 1.8 295 12:19 10.03.2020
1376 Snow 3 1021 100 2000 1.8 295 11:57 10.03.2020
1377 Snow 3 1021 100 2000 1.8 295 11:39 10.03.2020
1378 Snow 2 1021 94 2000 1 0 11:20 10.03.2020
1379 Snow 1 1021 94 2500 1 0 10:42 10.03.2020
1380 Snow 2 1022 94 2000 1 90 10:23 10.03.2020
1381 Snow 2 1022 94 2000 1 90 09:57 10.03.2020
1382 Snow 2 1022 94 1000 1 100 09:39 10.03.2020
1383 Snow 1 1022 94 1300 1 0 09:18 10.03.2020
1384 Rain 2 1021 94 10000 0.5 0 08:46 10.03.2020
1385 Rain 1 1021 94 10000 0.5 0 08:28 10.03.2020
1386 Clouds 0 1021 86 10000 1.5 140 07:49 10.03.2020
1387 Clouds 0 1021 86 10000 1.5 140 07:30 10.03.2020
1388 Clouds 0 1021 59 0 3.64 322 06:44 10.03.2020
1389 Clouds 0 1021 59 0 3.64 322 06:25 10.03.2020
1390 Clouds 0 1020 86 0 1 0 05:41 10.03.2020
1391 Clouds 1 1020 65 0 2.1 90 04:37 10.03.2020
1392 Clouds -1 1021 65 0 1 0 03:37 10.03.2020
1393 Clouds -1 1021 65 0 2.1 90 02:26 10.03.2020
1394 Clouds 0 1022 86 0 2.1 110 01:20 10.03.2020
1395 Clouds 0 1022 100 0 4.06 327 00:41 10.03.2020
1396 Clouds 0 1022 100 0 4.06 327 00:22 10.03.2020
1397 Clouds 0 1022 89 0 4.06 327 23:40 09.03.2020
1398 Clouds 0 1022 100 0 4.06 327 23:21 09.03.2020
1399 Clouds 0 1022 93 0 1 0 22:41 09.03.2020
1400 Clouds 0 1022 93 10000 4.19 329 22:22 09.03.2020
1401 Snow 1 1022 93 10000 4.19 329 21:57 09.03.2020
1402 Snow 1 1022 93 10000 0.5 20 21:38 09.03.2020
1403 Snow 3 1021 93 10000 4.19 329 21:20 09.03.2020
1404 Clouds 3 1021 93 10000 4.19 329 20:56 09.03.2020
1405 Rain 3 1021 93 10000 0.5 0 20:37 09.03.2020
1406 Rain 2 1021 86 10000 3.92 341 20:18 09.03.2020
1407 Snow 2 1020 93 10000 3.92 341 19:44 09.03.2020
1408 Snow 4 1020 93 10000 1.5 80 19:21 09.03.2020
1409 Snow 3 1020 93 10000 1.5 80 18:57 09.03.2020
1410 Snow 3 1019 80 10000 2.1 250 18:38 09.03.2020
1411 Rain 3 1019 80 0 3.1 250 18:19 09.03.2020
1412 Snow 3 1019 75 0 3.1 260 17:57 09.03.2020
1413 Snow 4 1019 75 0 3.1 260 17:38 09.03.2020
1414 Drizzle 3 1019 86 10000 1.5 0 17:20 09.03.2020
1415 Snow 3 1018 80 10000 4.1 260 16:57 09.03.2020
1416 Snow 4 1018 80 10000 4.1 260 16:39 09.03.2020
1417 Snow 4 1011 79 10000 1.5 0 16:20 09.03.2020
1418 Rain 4 1017 70 10000 4.1 260 15:57 09.03.2020
1419 Rain 4 1017 70 10000 4.1 260 15:38 09.03.2020
1420 Clouds 4 1016 70 10000 2.6 210 15:19 09.03.2020
1421 Snow 4 1017 75 10000 2.1 230 14:41 09.03.2020
1422 Snow 4 1017 75 10000 2.1 230 14:41 09.03.2020
1423 Snow 4 1017 80 10000 3.1 230 14:23 09.03.2020
1424 Rain 4 1017 80 4500 5.1 300 13:59 09.03.2020
1425 Rain 4 1017 80 4500 5.1 300 13:40 09.03.2020
1426 Snow 3 1016 65 0 1.5 0 13:22 09.03.2020
1427 Clouds 4 1016 65 0 1.5 170 12:59 09.03.2020
1428 Clouds 4 1016 65 0 1.5 170 12:40 09.03.2020
1429 Snow 4 1016 70 0 1.5 230 12:20 09.03.2020
1430 Snow 3 1017 81 10000 2.6 240 11:41 09.03.2020
1431 Snow 3 1017 86 10000 3.1 270 11:21 09.03.2020
1432 Rain 2 1017 93 10000 3.9 345 10:58 09.03.2020
1433 Rain 2 1017 93 10000 3.9 345 10:40 09.03.2020
1434 Rain 2 1017 93 10000 3.9 345 10:40 09.03.2020
1435 Rain 2 1017 86 10000 3.9 345 10:19 09.03.2020
1436 Rain 2 1017 86 10000 3.9 345 10:19 09.03.2020
1437 Rain 1 1016 93 10000 1.5 100 09:43 09.03.2020
1438 Rain 2 1016 93 10000 2.1 100 09:24 09.03.2020
1439 Rain 2 1016 93 0 1.5 100 08:54 09.03.2020
1440 Snow 2 1014 86 10000 3.9 345 08:36 09.03.2020
1441 Rain 1 1016 93 10000 1 70 08:18 09.03.2020
1442 Rain 1 1016 93 10000 1 70 08:18 09.03.2020
1443 Rain 2 1016 93 10000 2.49 338 07:39 09.03.2020
1444 Rain 3 1015 93 10000 1 0 07:20 09.03.2020
1445 Rain 2 1015 80 0 3.1 300 06:41 09.03.2020
1446 Rain 2 1014 86 0 1 0 06:23 09.03.2020
1447 Snow 3 1013 96 0 2.1 110 05:45 09.03.2020
1448 Rain 3 1013 88 0 1.01 283 04:59 09.03.2020
1449 Rain 3 1013 88 0 1.01 283 04:40 09.03.2020
1450 Clouds 2 1014 88 0 0.5 0 04:21 09.03.2020
1451 Clouds 3 1014 69 0 1.5 240 02:55 09.03.2020
1452 Clouds 2 1015 74 0 0.5 0 00:44 09.03.2020
1453 Clouds 2 1015 74 0 2.6 310 00:25 09.03.2020
1454 Clouds 3 1015 80 0 1.5 0 23:59 08.03.2020
1455 Clouds 3 1015 80 0 1.5 0 23:38 08.03.2020
1456 Clouds 3 1015 80 0 1 0 23:18 08.03.2020
1457 Clouds 3 1015 80 0 0.5 0 22:41 08.03.2020
1458 Clouds 4 1015 69 0 0.88 254 22:22 08.03.2020
1459 Clouds 3 1015 74 0 1 0 21:59 08.03.2020
1460 Clouds 4 1015 74 0 1 0 21:41 08.03.2020
1461 Clouds 4 1015 74 0 2.1 100 21:20 08.03.2020
1462 Clouds 4 1016 69 0 2.1 120 20:58 08.03.2020
1463 Clouds 5 1018 60 0 0.5 0 20:38 08.03.2020
1464 Clouds 4 1016 69 0 1.5 110 20:19 08.03.2020
1465 Clouds 4 1016 69 0 1.5 110 20:19 08.03.2020
1466 Clouds 4 1016 69 0 1.5 100 19:40 08.03.2020
1467 Clouds 5 1016 74 0 2.6 110 19:19 08.03.2020
1468 Clouds 5 1017 65 0 1.47 313 18:56 08.03.2020
1469 Clouds 6 1016 60 10000 2.1 50 18:38 08.03.2020
1470 Clouds 5 1016 60 10000 2.1 50 18:19 08.03.2020
1471 Clouds 6 1017 37 0 1 270 17:40 08.03.2020
1472 Clouds 7 1017 32 0 1.5 240 17:22 08.03.2020
1473 Clouds 7 1017 36 0 3.1 250 16:58 08.03.2020
1474 Clouds 8 1017 36 0 3.1 250 16:40 08.03.2020
1475 Clouds 8 1017 36 0 3.1 250 16:22 08.03.2020
1476 Clouds 7 1018 45 10000 2.1 60 15:41 08.03.2020
1477 Clouds 7 1018 45 10000 2.1 60 15:22 08.03.2020
1478 Clouds 8 1018 34 0 2.1 270 14:59 08.03.2020
1479 Clouds 8 1019 42 10000 2.6 70 14:38 08.03.2020
1480 Clouds 8 1019 42 10000 2.6 70 14:19 08.03.2020
1481 Clouds 7 1020 45 0 1.5 0 13:42 08.03.2020
1482 Clouds 7 1020 45 0 1.5 0 13:42 08.03.2020
1483 Clouds 7 1020 39 0 2.6 220 13:21 08.03.2020
1484 Clouds 6 1021 36 0 1 0 12:56 08.03.2020
1485 Clouds 7 1021 36 0 1 0 12:36 08.03.2020
1486 Clouds 6 1021 36 0 1 0 12:18 08.03.2020
1487 Clouds 5 1022 52 0 1.5 230 11:41 08.03.2020
1488 Clouds 5 1022 52 0 1.5 230 11:21 08.03.2020
1489 Clouds 3 1022 51 0 1.94 338 10:57 08.03.2020
1490 Clouds 4 1022 51 0 1.94 338 10:39 08.03.2020
1491 Clouds 4 1022 51 0 1.94 338 10:20 08.03.2020
1492 Clouds 2 1022 64 0 2.1 120 09:38 08.03.2020
1493 Clouds 2 1022 64 0 2.1 120 09:20 08.03.2020
1494 Clouds 0 1023 80 0 1.5 130 08:43 08.03.2020
1495 Clouds -1 1023 86 0 2.1 110 08:21 08.03.2020
1496 Clear -3 1023 86 0 3.3 324 07:46 08.03.2020
1497 Clear -3 1023 26 10000 1.5 230 07:27 08.03.2020
1498 Clear -3 1022 92 0 2.1 90 06:43 08.03.2020
1499 Clear -3 1022 92 0 2.1 90 06:25 08.03.2020
1500 Clear -1 1022 86 0 3.3 324 05:43 08.03.2020
1501 Clear -2 1023 86 0 1 0 03:52 08.03.2020
1502 Clear -2 1024 92 0 2.1 100 02:59 08.03.2020
1503 Clouds 0 1024 58 0 0.5 0 01:38 08.03.2020
1504 Clear -1 1024 80 10000 1.5 280 01:19 08.03.2020
1505 Clouds -1 1024 74 0 0.5 0 00:32 08.03.2020
1506 Clouds 0 1024 69 0 0.5 0 23:58 07.03.2020
1507 Clear 0 1021 36 0 1.5 80 23:37 07.03.2020
1508 Clouds 0 1024 74 0 4.24 334 23:18 07.03.2020
1509 Clear 1 1020 33 0 2.1 0 22:38 07.03.2020
1510 Clouds 1 1024 56 0 2.6 260 22:19 07.03.2020
1511 Clouds 1 1024 56 0 2.6 260 22:19 07.03.2020
1512 Clouds 1 1024 56 0 3.6 300 21:45 07.03.2020
1513 Clouds 1 1023 56 0 3.1 310 21:22 07.03.2020
1514 Clouds 1 1023 56 0 3.6 320 20:41 07.03.2020
1515 Clouds 2 1023 56 0 2.6 310 20:22 07.03.2020
1516 Snow 2 1022 60 0 1.5 0 19:54 07.03.2020
1517 Snow 2 1022 52 0 1.5 290 19:36 07.03.2020
1518 Snow 3 1022 52 0 1.5 290 19:18 07.03.2020
1519 Clouds 3 1021 52 0 2.1 330 18:39 07.03.2020
1520 Clouds 3 1021 56 0 2.1 330 18:21 07.03.2020
1521 Clouds 4 1021 56 0 2.1 290 17:42 07.03.2020
1522 Clouds 4 1020 56 0 3.1 300 17:20 07.03.2020
1523 Snow 4 1020 48 0 2.1 0 16:57 07.03.2020
1524 Snow 4 1020 48 0 2.1 0 16:39 07.03.2020
1525 Snow 4 1021 78 10000 3.6 90 16:21 07.03.2020
1526 Snow 3 1021 78 10000 3.1 60 15:55 07.03.2020
1527 Snow 4 1021 78 10000 3.1 60 15:37 07.03.2020
1528 Snow 4 1019 52 0 2.1 210 15:19 07.03.2020
1529 Clouds 4 1019 52 0 3.1 260 14:45 07.03.2020
1530 Clouds 4 1019 52 0 1.5 0 14:24 07.03.2020
1531 Clouds 4 1019 52 0 1 0 13:57 07.03.2020
1532 Clouds 4 1019 52 0 1 0 13:38 07.03.2020
1533 Clouds 4 1019 76 0 4.1 50 13:18 07.03.2020
1534 Rain 4 1019 60 0 1.5 0 12:40 07.03.2020
1535 Clouds 4 1019 60 0 3.1 310 12:20 07.03.2020
1536 Clouds 3 1019 65 0 1 0 11:57 07.03.2020
1537 Clouds 3 1019 65 0 1 0 11:38 07.03.2020
1538 Clouds 3 1019 80 0 2.1 210 11:19 07.03.2020
1539 Snow 3 1018 80 0 2.1 210 10:40 07.03.2020
1540 Snow 2 1018 80 0 2.1 270 10:20 07.03.2020
1541 Rain 3 1018 86 0 3.1 230 09:56 07.03.2020
1542 Snow 3 1012 43 0 1 0 09:37 07.03.2020
1543 Rain 1 1018 93 0 2.6 250 09:18 07.03.2020
1544 Rain 0 1017 93 0 2.6 260 08:43 07.03.2020
1545 Rain 1 1017 81 0 2.1 270 08:21 07.03.2020
1546 Rain 1 1017 81 0 2.1 270 08:21 07.03.2020
1547 Rain 1 1016 100 0 2.1 240 07:49 07.03.2020
1548 Rain 1 1016 90 0 2.1 270 07:23 07.03.2020
1549 Snow -1 1009 55 0 2.6 50 06:55 07.03.2020
1550 Snow -2 1008 60 0 0.5 0 06:29 07.03.2020
1551 Snow -2 1008 60 0 0.5 0 05:52 07.03.2020
1552 Rain 2 1014 90 0 4.6 300 04:42 07.03.2020
1553 Snow 2 1012 60 0 1.5 230 02:47 07.03.2020
1554 Snow 2 1007 60 0 0.5 0 02:24 07.03.2020
1555 Clouds 2 1011 64 0 1.5 0 01:26 07.03.2020
1556 Clouds 2 1006 69 0 1 0 00:38 07.03.2020
1557 Clouds 3 1010 56 0 1.5 250 00:20 07.03.2020
1558 Snow 1 1010 60 0 1.5 270 23:44 06.03.2020
1559 Snow 1 1010 56 0 2.1 260 23:25 06.03.2020
1560 Clouds 2 1010 52 0 2.6 330 22:48 06.03.2020
1561 Clouds 2 1009 56 0 2.1 300 22:21 06.03.2020
1562 Clouds 1 1009 69 0 4.56 331 21:55 06.03.2020
1563 Clouds 1 1003 81 0 1.5 250 21:37 06.03.2020
1564 Clouds 2 1008 60 0 4.56 331 21:18 06.03.2020
1565 Snow 2 1002 81 0 4.56 331 20:37 06.03.2020
1566 Snow 2 1007 52 0 0.5 0 20:19 06.03.2020
1567 Snow 2 1007 52 0 1 0 19:45 06.03.2020
1568 Snow 2 1006 56 0 1.5 280 19:26 06.03.2020
1569 Clouds 3 1005 48 0 3.1 260 18:44 06.03.2020
1570 Clouds 3 1005 48 0 3.1 270 18:22 06.03.2020
1571 Clouds 5 1004 45 0 3.1 290 17:59 06.03.2020
1572 Clouds 5 1004 45 0 3.1 290 17:41 06.03.2020
1573 Clouds 5 1004 45 10000 4.1 290 17:22 06.03.2020
1574 Snow 2 999 66 10000 3.1 250 16:58 06.03.2020
1575 Snow 3 999 66 10000 3.1 250 16:40 06.03.2020
1576 Snow 3 1003 45 10000 5.1 280 16:19 06.03.2020
1577 Clouds 3 1003 42 10000 3.6 280 15:44 06.03.2020
1578 Clouds 3 1002 42 10000 4.6 290 15:24 06.03.2020
1579 Clouds 4 1002 45 10000 8.7 270 14:45 06.03.2020
1580 Clouds 4 1001 45 10000 6.2 300 14:24 06.03.2020
1581 Clouds 4 1001 49 10000 5.7 280 13:59 06.03.2020
1582 Clouds 4 1001 49 10000 5.7 280 13:40 06.03.2020
1583 Clouds 4 1001 49 0 6.2 280 13:21 06.03.2020
1584 Clouds 4 1001 49 0 6.7 300 12:55 06.03.2020
1585 Clouds 4 999 70 0 4.6 250 12:36 06.03.2020
1586 Clouds 4 1000 49 10000 8.2 270 12:18 06.03.2020
1587 Clouds 4 1000 52 10000 4.6 280 11:43 06.03.2020
1588 Clouds 3 1000 56 10000 6.7 300 11:21 06.03.2020
1589 Clouds 2 999 56 10000 7.7 300 10:58 06.03.2020
1590 Clouds 2 999 75 10000 2.1 80 10:37 06.03.2020
1591 Clouds 3 1000 56 10000 4.1 290 10:18 06.03.2020
1592 Clouds 3 1000 56 10000 4.1 290 09:42 06.03.2020
1593 Clouds 2 999 56 10000 4.1 280 09:24 06.03.2020
1594 Clouds 2 998 82 10000 3.1 240 08:58 06.03.2020
1595 Clouds 2 998 82 10000 3.1 240 08:39 06.03.2020
1596 Clouds 3 998 60 10000 6.2 320 08:20 06.03.2020
1597 Clouds 2 998 89 10000 3.1 300 07:47 06.03.2020
1598 Clouds 3 997 60 10000 4.6 0 07:25 06.03.2020
1599 Clouds 3 997 75 0 0.5 0 06:47 06.03.2020
1600 Clouds 3 997 80 0 3.1 260 06:28 06.03.2020
1601 Snow 3 997 70 0 4.6 280 05:39 06.03.2020
1602 Snow 3 997 65 0 6.7 310 05:20 06.03.2020
1603 Rain 3 996 65 0 7.7 300 04:39 06.03.2020
1604 Rain 3 996 93 0 1 0 01:45 06.03.2020
1605 Rain 3 995 93 0 1 0 01:26 06.03.2020
1606 Snow 4 995 93 0 0.5 0 00:57 06.03.2020
1607 Clouds 4 995 93 0 1.63 305 00:31 06.03.2020
1608 Clouds 4 995 93 0 0.5 0 23:44 05.03.2020
1609 Clouds 3 995 86 0 3.6 240 23:25 05.03.2020
1610 Clouds 3 995 93 0 3.1 240 22:56 05.03.2020
1611 Rain 3 1002 100 0 1 80 22:37 05.03.2020
1612 Clouds 4 995 93 0 1 0 22:18 05.03.2020
1613 Clouds 3 996 86 0 0.5 0 21:55 05.03.2020
1614 Rain 3 1003 100 0 1 250 21:37 05.03.2020
1615 Rain 3 996 86 0 2.1 0 21:19 05.03.2020
1616 Rain 3 996 86 0 2.1 0 21:19 05.03.2020
1617 Snow 3 997 86 0 3.1 60 20:42 05.03.2020
1618 Rain 4 997 93 0 1.5 0 20:21 05.03.2020
1619 Rain 3 997 87 0 3.1 270 19:59 05.03.2020
1620 Rain 4 997 87 0 3.1 270 19:40 05.03.2020
1621 Rain 5 995 81 0 5.7 270 19:21 05.03.2020
1622 Rain 5 993 66 0 3.1 0 18:58 05.03.2020
1623 Rain 5 993 66 0 3.1 0 18:37 05.03.2020
1624 Rain 6 993 75 0 2.1 0 18:19 05.03.2020
1625 Clouds 6 993 57 0 5.7 110 17:57 05.03.2020
1626 Clouds 7 993 57 0 5.7 110 17:39 05.03.2020
1627 Clouds 6 993 75 10000 1.5 0 17:21 05.03.2020
1628 Clouds 7 994 75 10000 4.1 0 16:42 05.03.2020
1629 Clouds 7 994 81 10000 2.1 0 16:24 05.03.2020
1630 Clouds 6 995 75 10000 1.5 280 15:58 05.03.2020
1631 Clouds 6 995 75 10000 1.5 280 15:58 05.03.2020
1632 Clouds 6 995 75 10000 1.5 280 15:38 05.03.2020
1633 Clouds 6 996 87 10000 4.1 270 15:20 05.03.2020
1634 Rain 6 996 87 10000 2.6 270 14:42 05.03.2020
1635 Rain 5 997 93 10000 2.6 240 14:23 05.03.2020
1636 Rain 5 998 93 0 1 0 13:58 05.03.2020
1637 Rain 5 998 93 0 1 0 13:40 05.03.2020
1638 Rain 5 999 93 0 3.1 260 13:20 05.03.2020
1639 Rain 5 999 93 0 2.6 260 12:55 05.03.2020
1640 Rain 5 1011 81 0 1 0 12:37 05.03.2020
1641 Rain 4 999 86 0 2.6 270 12:18 05.03.2020
1642 Rain 4 1000 93 10000 2.1 250 11:56 05.03.2020
1643 Rain 4 1012 87 6000 3.1 250 11:36 05.03.2020
1644 Rain 4 1001 93 10000 1.5 260 11:18 05.03.2020
1645 Rain 4 1001 86 8000 4.23 172 10:55 05.03.2020
1646 Rain 4 1012 70 8000 4.23 172 10:37 05.03.2020
1647 Rain 4 1002 86 8000 1 0 10:19 05.03.2020
1648 Rain 4 1003 93 6000 1 0 09:41 05.03.2020
1649 Rain 4 1003 80 7000 4.23 172 09:22 05.03.2020
1650 Rain 3 1004 95 8000 4.23 172 08:43 05.03.2020
1651 Rain 3 1004 69 10000 4.23 172 08:25 05.03.2020
1652 Clouds 3 1004 74 10000 2.51 180 07:46 05.03.2020
1653 Clouds 3 1004 74 10000 1.5 290 07:22 05.03.2020
1654 Clouds 3 1004 74 0 1 0 06:48 05.03.2020
1655 Clouds 3 1005 74 0 4.6 110 06:22 05.03.2020
1656 Clouds 3 1006 74 0 4.1 100 05:39 05.03.2020
1657 Clouds 2 1007 74 0 1.5 300 04:45 05.03.2020
1658 Clouds 2 1008 74 0 1 0 04:22 05.03.2020
1659 Clouds 2 1008 80 0 2.1 120 03:19 05.03.2020
1660 Clouds 2 1009 80 0 2.13 213 01:46 05.03.2020
1661 Clouds 2 1009 80 0 1 0 01:20 05.03.2020
1662 Clouds 2 1010 80 0 2.1 120 00:26 05.03.2020
1663 Clouds 3 1011 74 0 2.03 213 23:42 04.03.2020
1664 Clouds 2 1011 74 0 0.5 0 23:23 04.03.2020
1665 Clouds 2 1011 74 0 1.25 224 22:58 04.03.2020
1666 Clouds 2 1011 74 0 1.25 224 22:39 04.03.2020
1667 Clouds 2 1011 74 0 1.25 224 22:19 04.03.2020
1668 Clouds 2 1011 64 0 1 0 21:57 04.03.2020
1669 Clouds 2 1011 64 0 1 0 21:39 04.03.2020
1670 Clouds 1 1011 65 10000 1.5 0 21:20 04.03.2020
1671 Clouds 2 1012 80 0 1.5 90 20:54 04.03.2020
1672 Clouds 1 1012 65 0 0.5 0 20:36 04.03.2020
1673 Clouds 3 1012 74 0 2.1 110 20:18 04.03.2020
1674 Clouds 2 1012 69 0 1 0 19:42 04.03.2020
1675 Clouds 3 1012 56 0 1.5 120 19:23 04.03.2020
1676 Clouds 3 1012 60 0 2.1 120 18:55 04.03.2020
1677 Clouds 4 1011 31 0 2.1 100 18:36 04.03.2020
1678 Clouds 4 1012 56 0 1.5 120 18:18 04.03.2020
1679 Clouds 4 1012 42 0 2.1 220 17:54 04.03.2020
1680 Clouds 4 1010 24 0 2.1 0 17:36 04.03.2020
1681 Clouds 5 1012 42 10000 1 0 17:18 04.03.2020
1682 Clouds 5 1012 36 10000 2.6 250 16:42 04.03.2020
1683 Clouds 5 1012 36 10000 1.5 230 16:23 04.03.2020
1684 Clouds 6 1012 33 10000 1.5 230 15:57 04.03.2020
1685 Clouds 6 1012 33 10000 1.5 230 15:38 04.03.2020
1686 Clouds 5 1013 49 10000 3.1 80 15:19 04.03.2020
1687 Clouds 6 1013 45 10000 3.1 80 14:41 04.03.2020
1688 Clouds 6 1013 33 10000 2.1 220 14:22 04.03.2020
1689 Clouds 6 1013 39 10000 2.1 220 13:59 04.03.2020
1690 Clouds 6 1013 39 10000 2.1 220 13:40 04.03.2020
1691 Clouds 5 1013 42 0 1.5 220 13:21 04.03.2020
1692 Clouds 5 1014 45 0 1 0 12:59 04.03.2020
1693 Clouds 5 1014 45 0 1 0 12:41 04.03.2020
1694 Clouds 5 1014 48 10000 1 0 12:23 04.03.2020
1695 Clouds 4 1015 60 10000 1.5 0 11:55 04.03.2020
1696 Clear 4 1012 23 10000 1.5 0 11:37 04.03.2020
1697 Clouds 3 1015 60 10000 1 0 11:19 04.03.2020
1698 Clouds 2 1015 78 10000 2.1 110 10:42 04.03.2020
1699 Clouds 2 1015 80 10000 2.6 70 10:23 04.03.2020
1700 Clouds 4 1015 86 10000 2.1 90 09:55 04.03.2020
1701 Clouds 2 1015 86 10000 2.1 90 09:37 04.03.2020
1702 Clouds 1 1016 78 10000 2.1 100 09:18 04.03.2020
1703 Clouds 0 1016 78 10000 1 130 08:41 04.03.2020
1704 Clouds 0 1015 76 10000 3.4 348 08:23 04.03.2020
1705 Clouds 0 1015 91 10000 2.1 130 07:47 04.03.2020
1706 Rain 0 1015 91 0 2.6 80 07:28 04.03.2020
1707 Snow 0 1014 91 0 0.5 0 06:49 04.03.2020
1708 Clouds -1 1014 91 0 1 0 06:26 04.03.2020
1709 Snow -1 1014 91 0 0.5 0 05:57 04.03.2020
1710 Rain 0 1013 86 0 2.1 130 05:00 04.03.2020
1711 Rain 0 1013 86 0 2.1 130 04:59 04.03.2020
1712 Clouds -1 1013 86 0 1 0 03:50 04.03.2020
1713 Clouds -1 1012 86 0 5.11 333 03:31 04.03.2020
1714 Clouds 0 1012 86 0 1 0 02:58 04.03.2020
1715 Rain 0 1012 86 0 2.1 120 02:25 04.03.2020
1716 Clouds 0 1011 86 0 4.93 327 01:56 04.03.2020
1717 Clouds -1 1011 80 0 1 310 01:31 04.03.2020
1718 Clouds -1 1011 78 0 5.13 327 00:41 04.03.2020
1719 Clouds -1 1011 78 0 5.13 327 00:19 04.03.2020
1720 Clouds -1 1010 78 0 5.13 327 23:41 03.03.2020
1721 Clouds 0 1010 86 0 2.1 120 23:22 03.03.2020
1722 Clouds 1 1010 92 0 2.1 100 22:42 03.03.2020
1723 Clouds 1 1009 86 10000 2.1 110 22:20 03.03.2020
1724 Clouds 1 1009 86 10000 2.1 100 21:59 03.03.2020
1725 Clouds 1 1009 86 10000 2.1 100 21:59 03.03.2020
1726 Clouds 1 1009 86 10000 2.1 100 21:40 03.03.2020
1727 Snow 1 1009 80 10000 3.1 90 21:21 03.03.2020
1728 Snow 1 1008 92 10000 3.6 90 20:58 03.03.2020
1729 Snow 1 1008 92 10000 3.6 90 20:39 03.03.2020
1730 Snow 0 1008 80 10000 1 0 20:18 03.03.2020
1731 Snow 0 1008 80 10000 1 0 20:18 03.03.2020
1732 Rain 1 1007 80 10000 3.6 230 19:56 03.03.2020
1733 Rain 1 1007 80 10000 3.6 230 19:56 03.03.2020
1734 Clouds 1 1003 27 0 1 0 19:37 03.03.2020
1735 Clouds 1 1003 27 0 1 0 19:37 03.03.2020
1736 Snow 1 1007 69 10000 7.7 260 19:18 03.03.2020
1737 Snow 1 1005 52 10000 2.6 0 18:55 03.03.2020
1738 Clouds 2 1001 27 0 1.5 0 18:37 03.03.2020
1739 Clouds 2 1004 45 0 3.6 40 18:18 03.03.2020
1740 Clouds 3 1004 48 0 0.5 0 17:41 03.03.2020
1741 Clouds 3 1004 48 0 0.5 0 17:41 03.03.2020
1742 Clouds 3 1003 41 10000 1.5 230 17:22 03.03.2020
1743 Clouds 4 1003 39 10000 2.1 220 16:59 03.03.2020
1744 Clouds 4 1003 39 10000 2.1 220 16:38 03.03.2020
1745 Clouds 4 1003 42 10000 2.6 240 16:20 03.03.2020
1746 Clouds 3 1003 39 10000 2.1 230 15:58 03.03.2020
1747 Clouds 3 1003 39 10000 2.1 230 15:58 03.03.2020
1748 Clouds 4 1003 39 10000 2.1 230 15:40 03.03.2020
1749 Clouds 4 1003 33 10000 1.5 200 15:20 03.03.2020
1750 Clouds 6 1003 39 10000 1.5 180 14:43 03.03.2020
1751 Clouds 4 1003 42 10000 1 0 14:20 03.03.2020
1752 Clouds 4 1004 42 10000 1.5 140 13:58 03.03.2020
1753 Clouds 6 1004 42 10000 1.5 140 13:40 03.03.2020
1754 Clouds 4 1004 52 0 2.6 120 13:21 03.03.2020
1755 Clouds 4 1005 56 0 1.5 100 12:48 03.03.2020
1756 Clouds 3 1005 56 10000 1.5 90 12:27 03.03.2020
1757 Clouds 3 1006 55 10000 1.5 180 11:59 03.03.2020
1758 Clouds 5 1006 55 10000 1.5 180 11:38 03.03.2020
1759 Clouds 4 1006 52 10000 2.1 70 11:19 03.03.2020
1760 Clouds 3 1006 60 10000 2.1 220 10:56 03.03.2020
1761 Clouds 3 999 40 10000 0.5 0 10:38 03.03.2020
1762 Clouds 3 1006 60 10000 1.5 270 10:19 03.03.2020
1763 Clouds 3 1006 64 10000 4.83 337 09:45 03.03.2020
1764 Clouds 2 1006 69 10000 2.1 210 09:23 03.03.2020
1765 Snow 2 1006 69 10000 2.1 250 08:58 03.03.2020
1766 Snow 3 1006 69 10000 2.1 250 08:39 03.03.2020
1767 Snow 1 1006 64 0 2.6 290 08:21 03.03.2020
1768 Snow 0 1005 64 0 6.2 310 07:44 03.03.2020
1769 Rain 0 1005 69 10000 3.6 310 07:22 03.03.2020
1770 Rain 0 1005 74 0 5.1 290 06:51 03.03.2020
1771 Rain 0 1005 74 0 6.7 320 06:25 03.03.2020
1772 Rain 2 1004 90 0 4.6 310 05:47 03.03.2020
1773 Rain 2 1003 90 0 5.7 330 05:28 03.03.2020
1774 Rain 2 1002 90 0 8.2 310 04:30 03.03.2020
1775 Rain 2 999 86 0 5.1 280 01:40 03.03.2020
1776 Rain 3 998 80 0 4.1 270 00:49 03.03.2020
1777 Rain 3 998 75 0 5.7 310 00:27 03.03.2020
1778 Rain 3 997 80 0 6.2 290 23:59 02.03.2020
1779 Rain 3 997 80 0 6.2 290 23:40 02.03.2020
1780 Rain 2 997 80 0 8.7 300 23:22 02.03.2020
1781 Rain 3 995 70 10000 4.6 260 22:55 02.03.2020
1782 Rain 3 995 70 10000 4.6 260 22:55 02.03.2020
1783 Rain 3 995 93 0 4.1 240 22:37 02.03.2020
1784 Rain 3 995 93 0 4.1 240 22:18 02.03.2020
1785 Rain 4 995 93 0 2.1 240 21:42 02.03.2020
1786 Rain 4 994 93 0 1.5 250 21:23 02.03.2020
1787 Rain 3 994 93 0 1 0 20:58 02.03.2020
1788 Rain 3 994 93 0 1 0 20:58 02.03.2020
1789 Rain 4 994 93 0 1 0 20:40 02.03.2020
1790 Rain 3 993 100 0 1 0 20:21 02.03.2020
1791 Rain 3 993 93 0 1 0 19:57 02.03.2020
1792 Rain 3 993 93 0 1 0 19:38 02.03.2020
1793 Rain 3 992 93 0 1.5 240 19:20 02.03.2020
1794 Rain 3 991 86 0 2.1 270 18:54 02.03.2020
1795 Snow 3 994 94 0 1.5 90 18:36 02.03.2020
1796 Drizzle 4 991 80 0 4.1 270 18:18 02.03.2020
1797 Clouds 3 990 75 0 4.6 270 17:54 02.03.2020
1798 Snow 2 992 94 0 1.5 80 17:36 02.03.2020
1799 Clouds 3 989 75 10000 5.7 280 17:18 02.03.2020
1800 Clouds 4 988 65 10000 6.7 270 16:39 02.03.2020
1801 Clouds 4 988 65 10000 4.6 270 16:20 02.03.2020
1802 Clouds 4 987 65 10000 5.7 280 15:45 02.03.2020
1803 Clouds 4 986 61 10000 1 0 15:21 02.03.2020
1804 Clouds 3 984 65 10000 3.6 260 14:57 02.03.2020
1805 Clouds 4 996 100 3000 1.5 100 14:37 02.03.2020
1806 Clouds 4 985 65 10000 5.7 240 14:19 02.03.2020
1807 Clouds 4 985 70 10000 4.1 0 13:44 02.03.2020
1808 Snow 4 985 65 0 4.6 250 13:20 02.03.2020
1809 Snow 4 985 61 0 4.6 270 12:59 02.03.2020
1810 Snow 4 985 61 0 4.6 270 12:40 02.03.2020
1811 Clouds 3 988 96 10000 0.5 0 12:18 02.03.2020
1812 Clouds 4 987 40 10000 11.3 100 11:38 02.03.2020
1813 Clouds 3 990 75 10000 1.5 190 11:19 02.03.2020
1814 Clouds 3 991 96 10000 1.5 0 10:55 02.03.2020
1815 Clouds 5 990 45 10000 9.8 0 10:37 02.03.2020
1816 Clouds 4 990 45 10000 9.8 0 10:18 02.03.2020
1817 Clouds 3 992 93 10000 3.1 0 09:47 02.03.2020
1818 Drizzle 2 993 96 10000 3.1 240 09:28 02.03.2020
1819 Drizzle 2 993 96 10000 2.6 260 08:48 02.03.2020
1820 Clouds 1 994 95 10000 1 0 08:22 02.03.2020
1821 Clouds 1 994 55 0 1 180 07:50 02.03.2020
1822 Clouds 1 995 100 10000 2.1 90 07:31 02.03.2020
1823 Clouds 1 995 55 0 0.5 0 06:50 02.03.2020
1824 Clouds 0 996 55 0 1 0 06:20 02.03.2020
1825 Clouds 1 998 100 0 1 0 05:24 02.03.2020
1826 Clear 0 1001 68 0 0.5 0 03:27 02.03.2020
1827 Clear 1 1001 68 0 0.5 0 02:55 02.03.2020
1828 Clear 2 1002 93 0 2.1 110 02:30 02.03.2020
1829 Mist 3 1003 100 0 2.6 288 01:36 02.03.2020
1830 Clouds 3 1003 93 0 1 0 01:18 02.03.2020
1831 Clouds 4 1003 93 0 2.6 70 00:22 02.03.2020
1832 Snow 4 1003 86 0 3.1 50 23:42 01.03.2020
1833 Snow 2 1004 93 0 2.6 90 23:22 01.03.2020
1834 Snow 3 1004 93 0 2.1 90 22:44 01.03.2020
1835 Snow 4 1004 80 0 4.6 230 22:21 01.03.2020
1836 Rain 4 1004 80 0 10.8 290 21:58 01.03.2020
1837 Rain 3 1004 80 0 10.8 290 21:39 01.03.2020
1838 Rain 5 1004 75 0 12.9 260 21:20 01.03.2020
1839 Rain 5 1001 61 0 7.7 310 20:55 01.03.2020
1840 Snow 5 1003 70 0 2.65 286 20:37 01.03.2020
1841 Snow 5 999 65 0 3.6 250 20:19 01.03.2020
1842 Snow 5 998 61 0 1.5 330 19:41 01.03.2020
1843 Clouds 7 997 70 0 1.5 310 19:21 01.03.2020
1844 Clouds 6 997 65 0 1 0 18:57 01.03.2020
1845 Clouds 6 997 65 0 1 0 18:39 01.03.2020
1846 Clouds 7 997 61 0 1.77 212 18:19 01.03.2020
1847 Clouds 7 997 61 0 1.5 110 17:55 01.03.2020
1848 Clouds 7 1002 70 0 2.1 270 17:37 01.03.2020
1849 Snow 8 997 61 0 1 0 17:18 01.03.2020
1850 Clouds 9 998 40 0 1.5 250 16:40 01.03.2020
1851 Clouds 9 998 57 0 1.5 280 16:20 01.03.2020
1852 Snow 9 998 93 0 2.1 240 15:59 01.03.2020
1853 Snow 9 998 93 0 2.1 240 15:41 01.03.2020
1854 Snow 8 999 93 0 3.1 240 15:23 01.03.2020
1855 Clouds 8 999 53 0 2.1 260 14:58 01.03.2020
1856 Clouds 9 999 53 0 2.1 260 14:40 01.03.2020
1857 Snow 9 1000 93 0 2.1 250 14:22 01.03.2020
1858 Clouds 8 1000 53 0 2.1 220 13:59 01.03.2020
1859 Clouds 9 1000 53 0 2.1 220 13:41 01.03.2020
1860 Clouds 8 1001 61 0 1.5 240 13:20 01.03.2020
1861 Clouds 9 1002 61 0 0.5 0 12:57 01.03.2020
1862 Clouds 9 1002 61 0 0.5 0 12:38 01.03.2020
1863 Clouds 9 1002 66 0 0.5 0 12:20 01.03.2020
1864 Clouds 7 1003 70 0 1 0 11:40 01.03.2020
1865 Clouds 7 1003 70 0 1 0 11:40 01.03.2020
1866 Clouds 8 1003 81 0 1.5 210 11:20 01.03.2020
1867 Clouds 7 1004 81 0 2.1 140 10:56 01.03.2020
1868 Clouds 7 1008 81 0 1 0 10:37 01.03.2020
1869 Clouds 7 1008 81 0 1 0 10:37 01.03.2020
1870 Clouds 5 1004 87 0 1.99 172 10:19 01.03.2020
1871 Clouds 5 1004 87 0 1 0 09:46 01.03.2020
1872 Clouds 3 1005 93 0 1.5 0 09:26 01.03.2020
1873 Clouds 4 1005 93 0 4.6 70 08:52 01.03.2020
1874 Clouds 4 1005 100 0 0.5 0 08:29 01.03.2020
1875 Clouds 2 1005 100 0 1.5 230 07:59 01.03.2020
1876 Clouds 3 1005 100 0 1.5 230 07:40 01.03.2020
1877 Clouds 2 1005 93 0 1.5 0 07:22 01.03.2020
1878 Clouds 2 1005 100 0 1.5 80 06:44 01.03.2020
1879 Drizzle 3 1005 93 0 1.5 280 06:23 01.03.2020
1880 Rain 2 1006 93 0 2.6 240 03:40 01.03.2020
1881 Clouds 3 1005 93 0 2.1 230 02:23 01.03.2020
1882 Clouds 4 1006 93 0 0.5 0 01:48 01.03.2020
1883 Clouds 4 1006 93 0 1 0 01:20 01.03.2020
1884 Rain 4 1006 93 0 2.1 80 00:41 01.03.2020
1885 Rain 4 1007 93 0 1.5 0 00:20 01.03.2020
1886 Rain 3 1007 86 0 2.1 270 23:45 29.02.2020
1887 Rain 3 1006 86 0 3.6 260 23:26 29.02.2020
1888 Rain 3 1006 93 0 2.6 280 22:42 29.02.2020
1889 Rain 4 1006 75 0 2.6 290 22:22 29.02.2020
1890 Snow 3 1004 52 0 4.1 80 21:42 29.02.2020
1891 Snow 3 1004 52 0 4.1 80 21:42 29.02.2020
1892 Drizzle 4 1004 52 0 6.7 90 21:22 29.02.2020
1893 Snow 4 1004 42 0 4.1 90 20:43 29.02.2020
1894 Clouds 4 1004 42 0 9.3 70 20:21 29.02.2020
1895 Clouds 5 1002 42 0 9.3 90 19:56 29.02.2020
1896 Clouds 5 1002 42 0 9.3 90 19:37 29.02.2020
1897 Clouds 6 1002 34 0 8.2 90 19:19 29.02.2020
1898 Clouds 7 1000 34 0 10.3 80 18:42 29.02.2020
1899 Clouds 7 1000 34 0 10.8 80 18:23 29.02.2020
1900 Clouds 7 1001 34 0 10.8 90 17:57 29.02.2020
1901 Clouds 7 1001 34 0 10.8 90 17:39 29.02.2020
1902 Clouds 8 1000 31 0 11.3 80 17:20 29.02.2020
1903 Clouds 8 1000 31 0 12.3 70 16:45 29.02.2020
1904 Clouds 8 1000 34 0 12.3 90 16:21 29.02.2020
1905 Clouds 8 1001 31 0 12.9 80 15:58 29.02.2020
1906 Clouds 8 1001 31 0 12.9 80 15:39 29.02.2020
1907 Clouds 8 1001 29 0 13.9 80 15:21 29.02.2020
1908 Clouds 9 1001 29 0 12.3 80 14:41 29.02.2020
1909 Clouds 8 1001 29 0 13.4 80 14:22 29.02.2020
1910 Clouds 9 1002 32 0 12.9 90 13:46 29.02.2020
1911 Clouds 8 1002 32 0 12.3 90 13:28 29.02.2020
1912 Clouds 8 1002 32 0 11.3 90 12:58 29.02.2020
1913 Clouds 10 1002 32 0 11.3 90 12:39 29.02.2020
1914 Clouds 9 1003 34 0 6.2 130 12:20 29.02.2020
1915 Clouds 10 1003 53 0 4.1 0 11:46 29.02.2020
1916 Clouds 8 1003 70 0 4.1 280 11:27 29.02.2020
1917 Clouds 7 1003 70 0 2.6 260 10:55 29.02.2020
1918 Clouds 7 1016 56 0 4.88 165 10:37 29.02.2020
1919 Clouds 7 1003 75 0 3.1 270 10:19 29.02.2020
1920 Clouds 6 1004 80 0 1 0 09:47 29.02.2020
1921 Clouds 6 1005 80 0 1 0 09:23 29.02.2020
1922 Clouds 4 1005 73 0 1 0 08:41 29.02.2020
1923 Clouds 4 1006 74 0 2.1 280 08:21 29.02.2020
1924 Clouds 4 1006 74 0 1.5 270 07:53 29.02.2020
1925 Clouds 3 1017 69 0 2.92 191 07:33 29.02.2020
1926 Clouds 4 1008 69 0 2.1 130 06:57 29.02.2020
1927 Rain 4 1010 74 0 5.7 80 06:30 29.02.2020
1928 Rain 3 1011 80 0 2.6 110 05:54 29.02.2020
1929 Clouds 3 1018 74 0 1 0 05:33 29.02.2020
1930 Clouds 2 1011 74 0 3.1 90 04:44 29.02.2020
1931 Clouds 2 1019 64 0 0.5 0 03:37 29.02.2020
1932 Clouds 2 1012 80 0 1 0 03:18 29.02.2020
1933 Clouds 3 1020 64 0 1.5 90 02:32 29.02.2020
1934 Clouds 4 1014 74 0 2.1 100 00:54 29.02.2020
1935 Clouds 4 1020 51 0 1 60 00:36 29.02.2020
1936 Clouds 4 1015 74 0 0.5 0 23:42 28.02.2020
1937 Clouds 3 1015 74 0 2.6 110 23:24 28.02.2020
1938 Clouds 3 1016 74 0 2.6 90 22:44 28.02.2020
1939 Clouds 3 1016 64 0 2.43 208 22:24 28.02.2020
1940 Clouds 3 1016 60 10000 0.5 0 21:56 28.02.2020
1941 Clouds 3 1016 60 10000 0.5 0 21:38 28.02.2020
1942 Clouds 3 1017 64 0 1 0 21:20 28.02.2020
1943 Clouds 3 1017 69 0 2.6 110 20:39 28.02.2020
1944 Clouds 2 1017 74 0 2.1 80 20:21 28.02.2020
1945 Clouds 3 1017 69 0 1 0 19:57 28.02.2020
1946 Clouds 3 1017 69 0 1 0 19:39 28.02.2020
1947 Clouds 2 1017 69 0 1 120 19:20 28.02.2020
1948 Clouds 2 1017 64 0 0.5 0 18:55 28.02.2020
1949 Clouds 2 1017 64 0 0.5 0 18:55 28.02.2020
1950 Clouds 2 1018 23 0 1 0 18:37 28.02.2020
1951 Clouds 2 1017 69 0 1.52 264 18:19 28.02.2020
1952 Clouds 2 1018 55 0 1 0 17:40 28.02.2020
1953 Clouds 3 1018 52 10000 1.5 70 17:22 28.02.2020
1954 Clouds 2 1018 48 0 1 0 16:44 28.02.2020
1955 Clouds 4 1018 41 0 1 0 16:20 28.02.2020
1956 Clouds 4 1018 35 10000 1 0 15:58 28.02.2020
1957 Clouds 4 1018 35 10000 1 0 15:58 28.02.2020
1958 Clouds 4 1018 35 10000 1 0 15:40 28.02.2020
1959 Clouds 3 1018 33 10000 1 0 15:19 28.02.2020
1960 Clouds 3 1019 38 10000 1.5 270 14:57 28.02.2020
1961 Clouds 3 1019 38 10000 1.5 270 14:38 28.02.2020
1962 Clouds 3 1019 38 10000 1.5 270 14:38 28.02.2020
1963 Clouds 3 1019 38 10000 1 0 14:18 28.02.2020
1964 Clouds 3 1020 38 10000 1.5 270 13:41 28.02.2020
1965 Clouds 3 1021 48 0 1.5 260 13:20 28.02.2020
1966 Clouds 3 1021 48 0 1.5 260 13:20 28.02.2020
1967 Clouds 2 1021 48 0 1 270 12:58 28.02.2020
1968 Clouds 3 1021 48 0 1 270 12:40 28.02.2020
1969 Clouds 2 1021 55 10000 1 0 12:22 28.02.2020
1970 Clouds 2 1022 55 10000 1 0 11:41 28.02.2020
1971 Clouds 1 1022 51 10000 1 100 11:23 28.02.2020
1972 Clouds 1 1022 59 10000 2.1 120 10:57 28.02.2020
1973 Clouds 1 1017 21 10000 3.6 130 10:37 28.02.2020
1974 Clouds 1 1017 21 10000 3.6 130 10:37 28.02.2020
1975 Clouds 0 1022 64 10000 1 0 10:18 28.02.2020
1976 Clouds 0 1023 69 10000 1 110 09:43 28.02.2020
1977 Clouds 0 1022 64 10000 1 0 09:20 28.02.2020
1978 Clouds -1 1022 80 10000 2.6 80 08:54 28.02.2020
1979 Clouds -1 1017 64 10000 2.1 70 08:36 28.02.2020
1980 Snow -3 1021 90 10000 1 0 08:18 28.02.2020
1981 Snow -1 1021 69 10000 3.1 240 07:38 28.02.2020
1982 Snow -1 1021 69 10000 2.1 260 07:19 28.02.2020
1983 Snow 0 1021 55 0 2.1 210 06:41 28.02.2020
1984 Snow 0 1014 69 0 1.5 300 05:37 28.02.2020
1985 Snow -1 1013 69 0 1 0 04:32 28.02.2020
1986 Clouds -1 1012 93 0 1 0 03:34 28.02.2020
1987 Clouds -1 1016 51 0 8.7 260 02:42 28.02.2020
1988 Rain -1 1015 59 0 7.2 280 02:18 28.02.2020
1989 Clouds 0 1009 86 0 2.1 50 00:35 28.02.2020
1990 Rain 2 1012 69 0 4.6 310 23:57 27.02.2020
1991 Rain 1 1012 69 0 4.6 310 23:38 27.02.2020
1992 Rain 0 1011 60 0 7.7 290 23:18 27.02.2020
1993 Rain 1 1010 64 0 7.2 310 22:40 27.02.2020
1994 Rain 1 1009 64 0 4.6 290 22:22 27.02.2020
1995 Rain 1 1008 92 0 6.7 320 21:54 27.02.2020
1996 Drizzle 4 1007 93 0 2.1 80 21:36 27.02.2020
1997 Rain 2 1006 52 0 12.9 280 21:18 27.02.2020
1998 Rain 2 1004 56 0 11.8 270 20:41 27.02.2020
1999 Rain 2 1002 70 0 13.4 270 20:23 27.02.2020
2000 Rain 2 1002 70 0 13.4 270 20:23 27.02.2020
2001 Clouds 2 1001 96 0 5.1 140 19:57 27.02.2020
2002 Clouds 3 1001 96 0 5.1 140 19:39 27.02.2020
2003 Clouds 4 1000 96 0 3.17 198 19:21 27.02.2020
2004 Snow 2 999 96 0 1.5 0 18:57 27.02.2020
2005 Snow 2 999 96 0 1.5 0 18:39 27.02.2020
2006 Snow 1 999 96 0 1 0 18:19 27.02.2020
2007 Rain 1 999 96 0 1.5 280 17:55 27.02.2020
2008 Rain 1 1008 96 0 3.1 220 17:36 27.02.2020
2009 Snow 1 1000 94 7000 1.5 280 17:18 27.02.2020
2010 Snow 1 1000 94 7000 1.5 280 17:18 27.02.2020
2011 Snow 1 998 93 10000 1 0 16:41 27.02.2020
2012 Snow 0 998 94 10000 1 0 16:20 27.02.2020
2013 Snow 0 999 94 4200 1 0 15:59 27.02.2020
2014 Snow 0 999 94 4200 1 0 15:38 27.02.2020
2015 Snow 0 1000 94 1100 1.5 250 15:20 27.02.2020
2016 Snow 0 1001 94 1100 3.6 260 14:59 27.02.2020
2017 Snow 0 1001 94 1100 3.6 260 14:39 27.02.2020
2018 Snow 0 1001 77 1500 4.1 270 14:20 27.02.2020
2019 Snow 1 1001 74 0 5.1 270 13:43 27.02.2020
2020 Clouds 1 1001 74 0 2.1 270 13:22 27.02.2020
2021 Clouds 2 1003 74 0 1.5 270 12:57 27.02.2020
2022 Clouds 1 1010 42 0 1 0 12:39 27.02.2020
2023 Clouds 1 1004 74 10000 5.12 180 12:19 27.02.2020
2024 Clouds 0 1005 74 10000 1.5 110 11:45 27.02.2020
2025 Clouds 0 1006 74 10000 5.12 180 11:22 27.02.2020
2026 Clouds -1 1007 80 10000 1 0 10:45 27.02.2020
2027 Clouds 0 1007 80 10000 2.1 90 10:25 27.02.2020
2028 Clouds 0 1009 86 10000 1.5 90 09:59 27.02.2020
2029 Clouds -1 1009 86 10000 1.5 90 09:40 27.02.2020
2030 Clouds -1 1009 80 10000 2.6 100 09:21 27.02.2020
2031 Clouds -2 1010 92 10000 3.6 120 08:41 27.02.2020
2032 Mist -2 1010 92 0 1.5 90 08:22 27.02.2020
2033 Clouds -2 1011 92 10000 1 0 07:46 27.02.2020
2034 Clouds -2 1011 92 0 1.5 0 07:25 27.02.2020
2035 Clouds -2 1012 92 0 2.1 70 06:48 27.02.2020
2036 Clouds -2 1012 92 0 3.2 311 05:58 27.02.2020
2037 Snow -1 1013 74 0 3.1 210 04:21 27.02.2020
2038 Clouds -1 1012 60 0 2.1 80 02:33 27.02.2020
2039 Snow -1 1012 80 0 5.7 310 00:46 27.02.2020
2040 Snow -1 1012 80 0 6.2 290 00:26 27.02.2020
2041 Snow -1 1012 95 0 3.6 250 23:40 26.02.2020
2042 Snow -1 1012 95 0 4.1 270 23:19 26.02.2020
2043 Snow -1 1012 100 0 4.6 240 22:58 26.02.2020
2044 Snow -1 1012 100 0 4.6 240 22:39 26.02.2020
2045 Snow -1 1011 92 0 4.6 240 22:20 26.02.2020
2046 Snow -1 1011 92 0 4.6 260 21:56 26.02.2020
2047 Snow -1 1008 48 0 1 0 21:37 26.02.2020
2048 Snow -1 1011 95 0 5.7 290 21:18 26.02.2020
2049 Clouds 0 1010 55 0 2.6 0 20:55 26.02.2020
2050 Clouds 0 1008 41 0 3.1 270 20:37 26.02.2020
2051 Clouds 0 1008 41 0 3.1 270 20:37 26.02.2020
2052 Clouds -1 1010 59 0 5.7 310 20:18 26.02.2020
2053 Clouds -1 1010 59 0 5.7 310 20:18 26.02.2020
2054 Snow -1 1010 47 0 6.7 270 19:45 26.02.2020
2055 Snow -1 1009 92 0 1.5 0 19:21 26.02.2020
2056 Snow -1 1009 92 0 3.1 260 18:58 26.02.2020
2057 Snow -1 1009 92 0 3.1 260 18:40 26.02.2020
2058 Snow 0 1009 64 0 3.6 290 18:22 26.02.2020
2059 Snow -1 1008 64 0 5.7 270 17:56 26.02.2020
2060 Snow 0 1003 31 0 3.6 310 17:37 26.02.2020
2061 Snow 1 1008 85 5000 5.7 300 17:18 26.02.2020
2062 Snow 1 1007 74 6000 4.6 290 16:43 26.02.2020
2063 Snow 1 1007 85 5000 3.1 310 16:22 26.02.2020
2064 Snow 2 1007 85 550 5.1 300 15:54 26.02.2020
2065 Snow 0 1001 14 10000 3.1 0 15:36 26.02.2020
2066 Snow -1 1006 85 500 5.7 290 15:18 26.02.2020
2067 Snow 2 1005 51 6000 1 0 14:42 26.02.2020
2068 Snow 2 1005 55 7000 4.1 320 14:22 26.02.2020
2069 Snow 3 1006 55 7000 5.1 290 13:43 26.02.2020
2070 Snow 2 1006 51 0 6.7 270 13:22 26.02.2020
2071 Rain 4 1006 51 0 7.2 270 12:42 26.02.2020
2072 Clouds 4 1006 59 10000 7.2 270 12:22 26.02.2020
2073 Clouds 2 1005 64 10000 2.1 290 11:59 26.02.2020
2074 Clouds 2 1005 64 10000 2.1 290 11:41 26.02.2020
2075 Snow 1 1004 76 7000 5.1 290 11:22 26.02.2020
2076 Snow 1 1003 69 1600 9.8 260 10:43 26.02.2020
2077 Snow 1 1003 87 2000 3.1 260 10:24 26.02.2020
2078 Snow 1 1002 86 10000 3.6 280 09:59 26.02.2020
2079 Snow 2 1002 86 10000 3.6 280 09:41 26.02.2020
2080 Clouds 2 1002 74 10000 5.7 300 09:21 26.02.2020
2081 Clouds 2 1002 74 10000 5.7 300 09:21 26.02.2020
2082 Clouds 2 1002 74 10000 5.7 300 09:21 26.02.2020
2083 Rain 3 1002 69 10000 6.7 310 08:54 26.02.2020
2084 Clouds 2 1000 65 10000 2.6 70 08:36 26.02.2020
2085 Snow 2 1002 69 10000 2.6 0 08:18 26.02.2020
2086 Clouds 2 1002 69 10000 1.5 240 07:41 26.02.2020
2087 Clouds 2 1002 69 10000 1 0 07:21 26.02.2020
2088 Clouds 2 1003 60 0 6.2 290 06:46 26.02.2020
2089 Clouds 2 1004 60 0 9.8 270 06:23 26.02.2020
2090 Clouds 2 1003 48 0 12.9 270 05:48 26.02.2020
2091 Clouds 2 1003 56 0 14.9 260 05:19 26.02.2020
2092 Clouds 4 1003 60 0 6.7 300 03:33 26.02.2020
2093 Clouds 5 1003 75 0 4.1 260 01:59 26.02.2020
2094 Rain 6 1003 75 0 9.3 310 01:26 26.02.2020
2095 Rain 5 1003 81 0 5.1 270 00:46 26.02.2020
2096 Clouds 6 1003 81 0 3.6 240 00:21 26.02.2020
2097 Rain 6 1003 81 0 7.7 300 23:42 25.02.2020
2098 Rain 6 1003 87 0 4.1 270 23:24 25.02.2020
2099 Rain 5 1003 75 0 2.1 0 22:57 25.02.2020
2100 Rain 6 1003 75 0 2.1 0 22:39 25.02.2020
2101 Rain 6 1003 75 0 1 0 22:19 25.02.2020
2102 Clouds 6 1003 80 0 1 0 21:38 25.02.2020
2103 Clouds 7 1003 75 0 1.93 273 21:20 25.02.2020
2104 Clouds 6 1003 70 0 1 0 20:57 25.02.2020
2105 Clouds 7 1003 70 0 1 0 20:39 25.02.2020
2106 Clouds 7 1004 65 0 2.6 70 20:20 25.02.2020
2107 Clouds 7 1005 65 0 2.1 60 19:56 25.02.2020
2108 Clouds 7 1005 65 0 2.1 60 19:38 25.02.2020
2109 Clouds 8 1005 57 0 2.6 180 19:19 25.02.2020
2110 Clouds 8 1005 57 0 3.1 240 18:41 25.02.2020
2111 Clouds 10 1005 53 0 3.1 240 18:21 25.02.2020
2112 Rain 10 1005 57 0 5.7 280 17:56 25.02.2020
2113 Clouds 10 1005 50 10000 6.2 270 17:37 25.02.2020
2114 Clouds 10 1005 50 10000 6.2 270 17:19 25.02.2020
2115 Clouds 10 1005 50 10000 6.2 270 17:19 25.02.2020
2116 Clouds 11 1005 78 10000 6.2 270 16:57 25.02.2020
2117 Clouds 11 1005 78 10000 6.2 270 16:38 25.02.2020
2118 Clouds 12 1005 40 10000 5.7 290 16:20 25.02.2020
2119 Clouds 11 1005 78 10000 4.1 270 15:55 25.02.2020
2120 Clouds 11 1005 78 10000 2.6 230 15:36 25.02.2020
2121 Clouds 11 1005 78 10000 2.6 230 15:18 25.02.2020
2122 Clouds 11 1005 46 10000 1 0 14:54 25.02.2020
2123 Mist 11 1008 87 2500 1.5 250 14:36 25.02.2020
2124 Clouds 11 1006 50 10000 1.51 197 14:18 25.02.2020
2125 Clouds 11 1006 50 10000 1.51 197 14:18 25.02.2020
2126 Clouds 11 1007 57 10000 1.51 197 13:42 25.02.2020
2127 Clouds 11 1007 78 0 1.5 220 13:21 25.02.2020
2128 Clouds 10 1008 43 0 0.5 0 12:59 25.02.2020
2129 Clouds 11 1008 43 0 0.5 0 12:39 25.02.2020
2130 Clouds 11 1008 57 10000 2.1 110 12:20 25.02.2020
2131 Clouds 10 1008 61 10000 2.1 110 11:56 25.02.2020
2132 Mist 10 1011 100 2500 0.5 0 11:38 25.02.2020
2133 Clouds 10 1009 70 10000 1 0 11:18 25.02.2020
2134 Clouds 10 1009 70 10000 1 0 11:18 25.02.2020
2135 Clouds 9 1009 58 10000 0.5 0 10:42 25.02.2020
2136 Clouds 8 1009 58 10000 0.5 0 10:23 25.02.2020
2137 Clouds 6 1010 80 10000 1 0 09:57 25.02.2020
2138 Clouds 6 1010 80 10000 1 0 09:39 25.02.2020
2139 Clouds 4 1010 86 10000 1.5 100 09:18 25.02.2020
2140 Clouds 3 1010 58 10000 2.23 191 08:42 25.02.2020
2141 Clouds 4 1010 92 10000 0.5 0 08:24 25.02.2020
2142 Clouds 3 1010 92 10000 0.5 0 07:49 25.02.2020
2143 Clouds 4 1011 40 10000 0.5 0 07:24 25.02.2020
2144 Clouds 4 1011 92 0 1 0 06:56 25.02.2020
2145 Clouds 3 1011 86 0 1 0 05:54 25.02.2020
2146 Clouds 4 1011 86 0 1 0 05:19 25.02.2020
2147 Clouds 4 1013 35 0 1.5 310 02:37 25.02.2020
2148 Clear 6 1015 86 0 1.45 294 00:58 25.02.2020
2149 Mist 6 1016 76 0 2.1 260 00:32 25.02.2020
2150 Clear 5 1015 86 0 1.45 294 23:48 24.02.2020
2151 Clear 6 1016 80 0 1.45 294 23:29 24.02.2020
2152 Clear 8 1016 80 0 1.5 100 22:59 24.02.2020
2153 Mist 8 1017 76 0 1 0 22:37 24.02.2020
2154 Clear 8 1017 86 10000 1.75 297 22:18 24.02.2020
2155 Clear 8 1017 80 10000 1.75 297 21:55 24.02.2020
2156 Clouds 8 1017 71 0 1 0 21:36 24.02.2020
2157 Clouds 8 1017 71 0 1 0 21:36 24.02.2020
2158 Clear 8 1017 80 10000 1 0 21:18 24.02.2020
2159 Clear 9 1017 80 10000 1 0 20:42 24.02.2020
2160 Clear 10 1017 70 10000 1 0 20:21 24.02.2020
2161 Clouds 10 1017 70 10000 2.6 90 19:59 24.02.2020
2162 Clouds 10 1017 70 10000 2.6 90 19:41 24.02.2020
2163 Clouds 11 1017 66 10000 2.6 100 19:23 24.02.2020
2164 Clouds 12 1017 70 10000 3.1 100 18:59 24.02.2020
2165 Clouds 13 1015 42 0 2.6 20 18:41 24.02.2020
2166 Clouds 14 1017 70 0 2.6 100 18:22 24.02.2020
2167 Clouds 16 1017 66 0 1 0 17:54 24.02.2020
2168 Clouds 16 1015 37 0 2.6 0 17:36 24.02.2020
2169 Clouds 14 1017 66 10000 1.5 100 17:18 24.02.2020
2170 Clouds 15 1018 58 10000 1 0 16:54 24.02.2020
2171 Clouds 16 1018 47 10000 1 0 16:36 24.02.2020
2172 Clouds 16 1018 47 10000 1 0 16:18 24.02.2020
2173 Clouds 16 1019 41 10000 2.6 240 15:54 24.02.2020
2174 Clouds 16 1015 37 10000 1.5 230 15:36 24.02.2020
2175 Clouds 15 1019 44 10000 3.6 250 15:18 24.02.2020
2176 Clouds 16 1020 44 10000 3.1 260 14:40 24.02.2020
2177 Clouds 15 1020 44 10000 0.5 0 14:21 24.02.2020
2178 Clouds 15 1020 44 10000 0.5 0 14:21 24.02.2020
2179 Clouds 15 1021 47 10000 1.5 220 13:58 24.02.2020
2180 Clouds 15 1021 47 10000 1.5 220 13:39 24.02.2020
2181 Clouds 15 1021 47 10000 1.5 220 13:39 24.02.2020
2182 Clouds 14 1022 51 0 0.5 0 13:20 24.02.2020
2183 Clear 15 1022 50 0 1.5 240 12:57 24.02.2020
2184 Clear 15 1022 50 0 1.5 240 12:38 24.02.2020
2185 Clear 14 1023 50 0 1.5 260 12:19 24.02.2020
2186 Clear 14 1024 58 10000 1.5 230 11:45 24.02.2020
2187 Clear 14 1023 54 10000 1 0 11:26 24.02.2020
2188 Clouds 12 1024 54 10000 1 0 10:45 24.02.2020
2189 Clouds 12 1024 66 10000 1 0 10:27 24.02.2020
2190 Clouds 10 1025 70 10000 3.45 336 09:54 24.02.2020
2191 Clouds 9 1020 66 10000 1 0 09:36 24.02.2020
2192 Clouds 8 1024 71 10000 0.5 0 09:18 24.02.2020
2193 Clouds 7 1025 86 10000 3.45 336 08:45 24.02.2020
2194 Clouds 7 1025 93 10000 1.5 90 08:27 24.02.2020
2195 Clouds 7 1025 93 10000 1 0 07:45 24.02.2020
2196 Clouds 7 1025 80 10000 1 0 07:27 24.02.2020
2197 Clouds 7 1020 100 0 4.31 329 06:37 24.02.2020
2198 Clouds 8 1025 81 0 1 0 06:18 24.02.2020
2199 Clouds 8 1025 66 0 1.5 100 05:29 24.02.2020
2200 Clouds 9 1026 66 0 1.5 0 03:54 24.02.2020
2201 Clouds 10 1026 61 0 1.5 0 02:54 24.02.2020
2202 Clouds 11 1027 50 0 2.1 0 01:43 24.02.2020
2203 Clouds 11 1027 47 0 4.1 260 00:57 24.02.2020
2204 Clouds 11 1026 38 0 8.2 300 00:27 24.02.2020
2205 Clouds 11 1027 54 0 2.1 0 23:59 23.02.2020
2206 Clouds 11 1027 54 0 2.1 0 23:40 23.02.2020
2207 Clouds 11 1026 75 0 1 0 23:18 23.02.2020
2208 Clouds 11 1027 81 0 4.96 322 22:56 23.02.2020
2209 Clouds 11 1022 80 0 4.96 322 22:37 23.02.2020
2210 Clouds 11 1027 81 0 0.5 0 22:18 23.02.2020
2211 Clouds 12 1027 75 0 4.96 322 21:43 23.02.2020
2212 Clouds 12 1027 75 0 4.96 322 21:43 23.02.2020
2213 Clouds 12 1027 81 0 1 0 21:19 23.02.2020
2214 Clouds 12 1027 81 0 0.5 0 20:56 23.02.2020
2215 Clouds 12 1027 81 0 0.5 0 20:38 23.02.2020
2216 Clouds 12 1027 76 0 4.32 316 20:20 23.02.2020
2217 Clouds 12 1027 76 0 4.32 316 19:56 23.02.2020
2218 Clouds 13 1027 76 0 4.32 316 19:38 23.02.2020
2219 Clouds 13 1027 71 0 0.5 0 19:18 23.02.2020
2220 Clouds 13 1027 71 0 0.5 0 19:18 23.02.2020
2221 Clouds 13 1027 71 0 1 0 18:54 23.02.2020
2222 Clouds 11 1023 61 0 4.32 316 18:36 23.02.2020
2223 Clouds 11 1026 66 0 4.32 316 18:18 23.02.2020
2224 Clouds 11 1026 66 0 4.32 316 18:18 23.02.2020
2225 Clouds 12 1026 62 0 4.32 316 17:54 23.02.2020
2226 Clouds 13 1022 50 0 1 230 17:36 23.02.2020
2227 Clouds 12 1026 66 0 3.57 316 17:18 23.02.2020
2228 Clouds 12 1026 54 0 1 0 16:42 23.02.2020
2229 Clouds 13 1026 54 0 0.5 0 16:23 23.02.2020
2230 Clouds 13 1027 50 0 1 0 15:56 23.02.2020
2231 Clouds 13 1027 50 0 1 0 15:37 23.02.2020
2232 Clouds 13 1027 50 0 3.57 316 15:19 23.02.2020
2233 Clouds 13 1027 54 0 1 0 14:55 23.02.2020
2234 Clouds 12 1024 46 0 2.6 250 14:37 23.02.2020
2235 Clouds 12 1027 50 0 3.52 322 14:19 23.02.2020
2236 Clouds 12 1028 50 0 3.52 322 13:55 23.02.2020
2237 Clouds 12 1025 50 0 2.1 240 13:37 23.02.2020
2238 Clouds 11 1028 53 0 3.5 321 13:19 23.02.2020
2239 Clouds 11 1028 53 0 2.1 280 12:40 23.02.2020
2240 Clouds 11 1029 53 0 1 0 12:21 23.02.2020
2241 Clouds 10 1029 57 0 0.5 0 11:39 23.02.2020
2242 Clouds 9 1029 65 0 1 0 11:20 23.02.2020
2243 Clouds 9 1029 75 0 1 0 10:59 23.02.2020
2244 Clouds 8 1029 75 0 1 0 10:40 23.02.2020
2245 Clouds 8 1029 81 0 1 0 10:22 23.02.2020
2246 Clouds 7 1029 86 0 1 0 09:56 23.02.2020
2247 Clouds 7 1029 86 0 1 0 09:38 23.02.2020
2248 Clouds 7 1029 86 0 1.5 50 09:18 23.02.2020
2249 Clouds 6 1030 86 0 3.64 331 08:50 23.02.2020
2250 Clouds 6 1029 86 0 0.5 0 08:29 23.02.2020
2251 Clouds 6 1030 93 0 2.6 80 07:48 23.02.2020
2252 Clouds 6 1030 93 0 0.5 0 07:29 23.02.2020
2253 Clouds 6 1029 81 10000 1.5 260 06:25 23.02.2020
2254 Clouds 5 1030 86 0 1.5 70 05:34 23.02.2020
2255 Clouds 5 1030 49 0 1 0 04:23 23.02.2020
2256 Clouds 5 1031 86 0 0.5 0 02:50 23.02.2020
2257 Clouds 3 1031 49 0 1 0 01:43 23.02.2020
2258 Clouds 3 1031 50 0 3.89 320 01:21 23.02.2020
2259 Clouds 3 1030 80 10000 1 260 00:44 23.02.2020
2260 Clouds 3 1031 50 0 0.5 0 00:23 23.02.2020
2261 Clouds 4 1031 50 0 3.89 320 23:43 22.02.2020
2262 Clouds 4 1032 50 0 1 0 23:24 22.02.2020
2263 Clouds 5 1032 51 0 4.16 323 22:46 22.02.2020
2264 Clouds 5 1032 51 0 4.16 323 22:22 22.02.2020
2265 Clouds 6 1031 70 10000 1.5 200 21:55 22.02.2020
2266 Clouds 5 1032 75 0 4.16 323 21:37 22.02.2020
2267 Clouds 5 1032 51 0 2.1 90 21:18 22.02.2020
2268 Clouds 6 1031 51 0 0.5 0 20:41 22.02.2020
2269 Clouds 6 1031 51 0 1 0 20:22 22.02.2020
2270 Clouds 7 1030 58 0 0.5 0 19:43 22.02.2020
2271 Clear 7 1030 58 0 1.5 130 19:24 22.02.2020
2272 Clear 8 1030 58 0 2.1 70 18:58 22.02.2020
2273 Clear 9 1029 65 10000 1.5 0 18:38 22.02.2020
2274 Clear 9 1030 65 0 2.6 70 18:20 22.02.2020
2275 Clear 11 1028 53 10000 1.5 0 17:54 22.02.2020
2276 Clear 11 1030 46 0 1.5 170 17:36 22.02.2020
2277 Clouds 11 1029 49 0 1.5 210 17:18 22.02.2020
2278 Clouds 11 1029 86 0 1.53 281 16:40 22.02.2020
2279 Clouds 12 1029 45 0 0.5 0 16:20 22.02.2020
2280 Clouds 12 1028 43 0 2.1 200 15:57 22.02.2020
2281 Clouds 12 1028 43 0 2.1 200 15:39 22.02.2020
2282 Clouds 11 1030 46 0 4.1 240 15:21 22.02.2020
2283 Clouds 12 1030 86 0 4.1 260 14:42 22.02.2020
2284 Clouds 11 1030 46 0 2.1 240 14:22 22.02.2020
2285 Clouds 11 1029 100 0 1.5 270 13:44 22.02.2020
2286 Clouds 10 1030 46 0 1.5 260 13:20 22.02.2020
2287 Clouds 10 1031 100 0 1.5 250 12:59 22.02.2020
2288 Clouds 10 1031 100 0 1.5 250 12:40 22.02.2020
2289 Clouds 9 1031 52 0 1.5 160 12:21 22.02.2020
2290 Clouds 9 1031 100 0 2.6 120 11:44 22.02.2020
2291 Clouds 8 1031 100 0 1.5 90 11:26 22.02.2020
2292 Clear 6 1032 69 0 2.08 326 10:56 22.02.2020
2293 Clear 6 1032 69 0 2.08 326 10:38 22.02.2020
2294 Clear 5 1032 80 0 1 0 10:19 22.02.2020
2295 Clear 4 1032 80 0 0.5 0 09:56 22.02.2020
2296 Clear 2 1033 85 0 0.5 80 09:37 22.02.2020
2297 Clear 2 1033 85 0 0.5 80 09:37 22.02.2020
2298 Clear 1 1031 80 0 1 0 09:18 22.02.2020
2299 Clear 0 1031 85 10000 1.5 280 08:44 22.02.2020
2300 Clear -1 1032 92 0 1 0 08:26 22.02.2020
2301 Clear -1 1032 92 0 1 0 08:26 22.02.2020
2302 Clouds -1 1031 100 0 1.5 70 07:43 22.02.2020
2303 Clouds -1 1031 92 0 2.1 90 07:18 22.02.2020
2304 Clouds -1 1031 100 0 0.5 0 06:46 22.02.2020
2305 Clouds 0 1030 92 0 1 0 05:44 22.02.2020
2306 Clouds 0 1031 92 0 2.49 320 04:29 22.02.2020
2307 Clouds 0 1030 92 0 2.49 320 02:43 22.02.2020
2308 Clouds 1 1031 92 0 1 0 01:53 22.02.2020
2309 Clouds 1 1031 40 10000 1 0 01:30 22.02.2020
2310 Clear 2 1031 40 0 2.1 70 00:58 22.02.2020
2311 Clear 1 1029 74 0 1 60 00:36 22.02.2020
2312 Clear 2 1031 86 0 2.6 120 00:18 22.02.2020
2313 Clear 2 1031 92 0 2.1 110 23:38 21.02.2020
2314 Clear 2 1030 38 0 3.8 328 23:20 21.02.2020
2315 Clear 2 1030 86 0 3.8 328 22:42 21.02.2020
2316 Clear 2 1030 38 0 0.5 0 22:24 21.02.2020
2317 Clear 3 1030 38 0 2.1 110 21:56 21.02.2020
2318 Clear 2 1026 38 0 3.8 328 21:37 21.02.2020
2319 Clear 2 1030 38 0 2.6 110 21:19 21.02.2020
2320 Clear 3 1030 38 0 3.1 110 20:43 21.02.2020
2321 Clear 4 1030 86 0 2.6 90 20:25 21.02.2020
2322 Clouds 4 1030 75 0 1 0 19:40 21.02.2020
2323 Clouds 3 1030 75 0 4 331 19:22 21.02.2020
2324 Clouds 4 1029 75 0 1 0 18:44 21.02.2020
2325 Clouds 5 1029 75 0 2.1 120 18:24 21.02.2020
2326 Clouds 6 1029 75 0 1.5 80 17:58 21.02.2020
2327 Clouds 6 1029 75 0 1.5 80 17:39 21.02.2020
2328 Clouds 6 1029 65 10000 0.5 0 17:20 21.02.2020
2329 Clouds 7 1030 61 10000 2.6 240 16:56 21.02.2020
2330 Clouds 7 1030 61 10000 2.6 240 16:56 21.02.2020
2331 Clouds 7 1030 61 10000 2.6 240 16:38 21.02.2020
2332 Clouds 6 1030 61 10000 2.6 250 16:20 21.02.2020
2333 Clouds 7 1030 65 10000 2.6 260 15:44 21.02.2020
2334 Clouds 7 1030 65 10000 2.1 80 15:19 21.02.2020
2335 Clouds 7 1030 61 10000 1 0 14:54 21.02.2020
2336 Clouds 7 1030 61 10000 2.1 110 14:36 21.02.2020
2337 Clouds 7 1030 61 10000 2.1 110 14:18 21.02.2020
2338 Clouds 7 1030 61 10000 0.5 0 13:41 21.02.2020
2339 Clouds 7 1031 65 0 4.31 339 13:21 21.02.2020
2340 Clouds 6 1031 70 10000 1.5 0 12:46 21.02.2020
2341 Clouds 6 1031 75 10000 2.1 60 12:27 21.02.2020
2342 Clouds 6 1031 75 10000 2.6 0 11:58 21.02.2020
2343 Clouds 5 1031 75 10000 2.6 0 11:38 21.02.2020
2344 Clouds 4 1031 84 10000 5.1 40 11:20 21.02.2020
2345 Clouds 4 1031 84 10000 5.1 40 11:20 21.02.2020
2346 Clouds 4 1030 70 10000 2.1 0 10:42 21.02.2020
2347 Clouds 5 1030 65 10000 3.6 0 10:23 21.02.2020
2348 Clouds 3 1029 70 10000 2.1 0 09:58 21.02.2020
2349 Clouds 3 1029 70 10000 2.1 0 09:40 21.02.2020
2350 Clouds 3 1029 70 10000 2.1 0 09:22 21.02.2020
2351 Clouds 2 1029 81 10000 4.94 333 08:56 21.02.2020
2352 Clouds 2 1024 80 10000 1 0 08:37 21.02.2020
2353 Clouds 3 1028 81 10000 2.1 0 08:18 21.02.2020
2354 Rain 3 1027 81 0 4.1 230 07:43 21.02.2020
2355 Clouds 3 1027 75 0 5.1 0 07:22 21.02.2020
2356 Clouds 2 1026 91 0 1.5 100 06:56 21.02.2020
2357 Clouds 3 1026 91 0 0.5 0 06:33 21.02.2020
2358 Clouds 2 1026 91 0 1.5 0 05:58 21.02.2020
2359 Clouds 3 1025 91 0 1 0 05:31 21.02.2020
2360 Clouds 4 1025 80 0 1 0 04:26 21.02.2020
2361 Clouds 4 1025 84 0 1.5 110 03:52 21.02.2020
2362 Clouds 4 1025 80 0 1 0 02:59 21.02.2020
2363 Rain 3 1025 86 0 1.5 260 01:44 21.02.2020
2364 Clouds 2 1024 86 0 2.1 90 01:22 21.02.2020
2365 Clouds 2 1024 92 0 2.1 100 00:39 21.02.2020
2366 Clear 1 1024 92 0 3.1 110 00:20 21.02.2020
2367 Clear 2 1024 86 0 1.5 340 23:41 20.02.2020
2368 Clear 1 1023 62 0 1 0 23:22 20.02.2020
2369 Clear 2 1022 74 10000 1.5 260 22:42 20.02.2020
2370 Clear 2 1022 92 0 1.5 90 22:24 20.02.2020
2371 Clear 2 1022 92 0 1.5 90 22:24 20.02.2020
2372 Clear 3 1022 86 0 1 0 21:58 20.02.2020
2373 Clear 3 1022 86 0 1 0 21:40 20.02.2020
2374 Clear 3 1021 80 0 1 0 21:20 20.02.2020
2375 Clear 3 1021 80 0 1 0 21:20 20.02.2020
2376 Clear 3 1021 86 0 2.1 120 20:57 20.02.2020
2377 Clear 3 1021 86 0 2.1 120 20:39 20.02.2020
2378 Clouds 4 1021 86 0 1.36 277 20:20 20.02.2020
2379 Clouds 4 1021 80 0 0.5 0 19:59 20.02.2020
2380 Clouds 4 1021 80 0 0.5 0 19:41 20.02.2020
2381 Clouds 5 1021 74 0 2.1 100 19:23 20.02.2020
2382 Clouds 5 1021 80 0 2.6 110 18:55 20.02.2020
2383 Clouds 6 1021 69 0 2.1 110 18:37 20.02.2020
2384 Clouds 6 1021 69 0 2.1 110 18:18 20.02.2020
2385 Clouds 8 1021 65 0 3.1 110 17:39 20.02.2020
2386 Clouds 7 1021 65 0 3.1 110 17:20 20.02.2020
2387 Clouds 8 1021 56 10000 0.5 0 16:58 20.02.2020
2388 Clouds 9 1023 42 10000 2.1 260 16:39 20.02.2020
2389 Clouds 9 1023 42 10000 2.1 260 16:39 20.02.2020
2390 Clouds 9 1021 43 10000 3.1 230 16:19 20.02.2020
2391 Clouds 9 1021 42 10000 4.1 250 15:56 20.02.2020
2392 Clouds 9 1021 42 10000 4.1 250 15:37 20.02.2020
2393 Clouds 9 1021 45 10000 3.6 240 15:19 20.02.2020
2394 Clouds 9 1021 49 10000 3.6 260 14:43 20.02.2020
2395 Clouds 8 1021 42 10000 1.5 0 14:25 20.02.2020
2396 Clouds 8 1022 49 0 3.1 250 13:58 20.02.2020
2397 Clouds 8 1022 49 0 3.1 250 13:40 20.02.2020
2398 Clouds 8 1022 56 0 3.1 250 13:19 20.02.2020
2399 Clouds 7 1023 91 0 3.1 260 12:43 20.02.2020
2400 Clouds 7 1023 56 10000 1 0 12:21 20.02.2020
2401 Clouds 7 1024 60 10000 0.5 0 11:59 20.02.2020
2402 Clouds 7 1024 60 10000 0.5 0 11:41 20.02.2020
2403 Clouds 7 1024 60 10000 0.5 0 11:41 20.02.2020
2404 Clouds 6 1024 91 10000 1 0 11:22 20.02.2020
2405 Clouds 4 1024 80 10000 1.13 212 10:56 20.02.2020
2406 Clouds 3 1026 52 10000 1.5 80 10:38 20.02.2020
2407 Clouds 3 1024 68 10000 0.5 0 10:19 20.02.2020
2408 Clouds 3 1024 68 10000 1 0 09:39 20.02.2020
2409 Clouds 2 1024 68 10000 1.5 110 09:21 20.02.2020
2410 Clouds 1 1024 68 10000 1 0 08:44 20.02.2020
2411 Clouds 1 1024 68 10000 1.13 212 08:24 20.02.2020
2412 Clouds 0 1024 71 10000 0.5 0 07:55 20.02.2020
2413 Clouds 0 1025 71 10000 0.5 0 07:37 20.02.2020
2414 Clouds 1 1024 71 10000 1.5 150 07:19 20.02.2020
2415 Clouds 0 1025 71 0 2.56 317 06:43 20.02.2020
2416 Clouds 0 1025 71 0 1.5 0 05:58 20.02.2020
2417 Clouds 0 1024 64 0 0.5 0 05:34 20.02.2020
2418 Clouds 0 1025 68 0 2.1 120 04:48 20.02.2020
2419 Clouds 0 1026 68 0 3.76 323 03:46 20.02.2020
2420 Clouds 1 1026 68 0 3.76 323 02:47 20.02.2020
2421 Clouds 1 1027 73 0 1.5 90 01:25 20.02.2020
2422 Clouds 1 1027 75 0 2.1 110 00:46 20.02.2020
2423 Clouds 2 1027 100 0 4.37 327 00:24 20.02.2020
2424 Clouds 2 1027 75 0 1 0 23:46 19.02.2020
2425 Clouds 2 1027 75 0 1 0 23:46 19.02.2020
2426 Clouds 2 1028 93 10000 1.5 60 23:18 19.02.2020
2427 Clouds 2 1028 86 10000 0.5 0 22:43 19.02.2020
2428 Clouds 2 1028 86 10000 0.5 0 22:43 19.02.2020
2429 Clouds 2 1027 93 0 1.5 100 22:24 19.02.2020
2430 Clouds 2 1027 93 0 1.5 110 21:58 19.02.2020
2431 Clouds 3 1027 93 0 1.5 110 21:40 19.02.2020
2432 Rain 2 1027 93 0 1.5 120 21:19 19.02.2020
2433 Clouds 3 1027 93 0 4.8 327 20:57 19.02.2020
2434 Clouds 3 1027 93 0 4.8 327 20:38 19.02.2020
2435 Clouds 2 1027 93 0 0.5 0 20:19 19.02.2020
2436 Rain 2 1027 93 0 4.17 323 19:57 19.02.2020
2437 Rain 2 1027 93 0 4.17 323 19:38 19.02.2020
2438 Rain 2 1027 93 0 1.5 130 19:19 19.02.2020
2439 Rain 3 1027 89 10000 3.1 310 18:57 19.02.2020
2440 Rain 2 1027 89 10000 3.1 310 18:39 19.02.2020
2441 Rain 3 1026 89 0 1.5 0 18:21 19.02.2020
2442 Rain 4 1025 89 0 5.1 20 17:44 19.02.2020
2443 Rain 3 1025 82 8000 6.2 50 17:20 19.02.2020
2444 Rain 3 1025 82 8000 4.6 0 16:59 19.02.2020
2445 Rain 3 1025 82 8000 4.6 0 16:41 19.02.2020
2446 Rain 4 1024 82 8000 5.7 20 16:18 19.02.2020
2447 Rain 3 1024 82 8000 6.7 300 15:43 19.02.2020
2448 Rain 4 1023 65 8000 3.6 250 15:25 19.02.2020
2449 Rain 4 1023 82 8000 4.1 300 14:59 19.02.2020
2450 Rain 4 1023 82 0 7.7 310 14:40 19.02.2020
2451 Rain 4 1023 82 0 7.7 310 14:21 19.02.2020
2452 Rain 5 1023 75 8000 3.6 260 13:42 19.02.2020
2453 Rain 4 1024 80 0 4.6 240 13:23 19.02.2020
2454 Clouds 4 1024 86 0 2.6 260 12:57 19.02.2020
2455 Clouds 4 1020 34 0 3.2 317 12:37 19.02.2020
2456 Rain 5 1024 86 10000 4.6 240 12:18 19.02.2020
2457 Rain 5 1024 93 7000 5.7 230 11:39 19.02.2020
2458 Snow 4 1024 100 4000 3.1 230 11:20 19.02.2020
2459 Clouds 5 1022 91 10000 6.2 260 10:58 19.02.2020
2460 Clouds 4 1022 91 10000 6.2 260 10:38 19.02.2020
2461 Snow 4 1025 91 3500 1 0 10:20 19.02.2020
2462 Clouds 4 1024 91 4000 0.5 0 09:59 19.02.2020
2463 Snow 4 1023 48 10000 1 0 09:38 19.02.2020
2464 Snow 3 1024 74 6000 1 0 09:19 19.02.2020
2465 Rain 3 1024 74 10000 4.6 60 08:47 19.02.2020
2466 Clouds 3 1024 80 10000 2.6 110 08:24 19.02.2020
2467 Clouds 3 1024 80 10000 4.14 318 07:46 19.02.2020
2468 Clouds 4 1024 80 10000 4.14 318 07:26 19.02.2020
2469 Clouds 2 1024 80 0 4.14 318 06:57 19.02.2020
2470 Clouds 2 1022 59 0 0.5 0 06:34 19.02.2020
2471 Clouds 2 1025 86 0 3.43 319 04:49 19.02.2020
2472 Clouds 2 1026 86 0 1.5 80 03:22 19.02.2020
2473 Clouds 2 1024 41 0 2.6 60 02:33 19.02.2020
2474 Clear 2 1024 38 0 2.1 80 01:33 19.02.2020
2475 Clouds 2 1027 80 0 1.5 90 00:53 19.02.2020
2476 Clear 3 1024 44 0 2.1 80 00:34 19.02.2020
2477 Clouds 3 1028 65 0 2.1 230 23:57 18.02.2020
2478 Clouds 3 1028 65 0 2.1 230 23:39 18.02.2020
2479 Clouds 4 1028 60 0 2.6 260 23:19 18.02.2020
2480 Clouds 4 1028 60 0 2.6 260 23:19 18.02.2020
2481 Clouds 3 1028 65 0 2.1 260 22:45 18.02.2020
2482 Clouds 5 1028 65 10000 3.87 329 22:20 18.02.2020
2483 Clouds 4 1028 65 10000 1.5 0 21:59 18.02.2020
2484 Clouds 3 1028 65 10000 1.5 0 21:38 18.02.2020
2485 Clouds 5 1028 52 10000 3.6 300 21:20 18.02.2020
2486 Clouds 4 1028 60 10000 3.1 270 20:59 18.02.2020
2487 Clouds 5 1028 60 10000 3.1 270 20:39 18.02.2020
2488 Clouds 5 1028 89 10000 3.65 329 20:20 18.02.2020
2489 Clouds 5 1028 89 10000 3.65 329 20:20 18.02.2020
2490 Clouds 5 1028 89 10000 1 0 19:56 18.02.2020
2491 Clouds 5 1028 89 10000 1 0 19:38 18.02.2020
2492 Clouds 4 1028 89 10000 1.5 0 19:18 18.02.2020
2493 Clouds 4 1028 89 10000 3.65 329 18:42 18.02.2020
2494 Clouds 4 1027 70 0 1.5 100 18:21 18.02.2020
2495 Clouds 4 1027 89 0 3.1 110 17:57 18.02.2020
2496 Clouds 4 1027 89 0 3.1 110 17:38 18.02.2020
2497 Clouds 6 1027 78 10000 2.1 110 17:19 18.02.2020
2498 Clouds 7 1027 60 10000 1.5 220 16:40 18.02.2020
2499 Clouds 6 1027 49 10000 1.5 210 16:21 18.02.2020
2500 Clouds 6 1028 45 10000 2.1 220 15:42 18.02.2020
2501 Clouds 6 1028 49 10000 2.1 220 15:21 18.02.2020
2502 Clouds 6 1028 65 10000 3.6 60 14:58 18.02.2020
2503 Clouds 6 1028 65 10000 3.6 60 14:58 18.02.2020
2504 Clouds 6 1028 65 10000 3.6 60 14:40 18.02.2020
2505 Clouds 6 1029 52 10000 2.1 210 14:21 18.02.2020
2506 Clouds 6 1029 57 10000 1 0 13:57 18.02.2020
2507 Clouds 6 1024 17 10000 4.1 140 13:38 18.02.2020
2508 Clear 6 1029 61 0 1.5 130 13:20 18.02.2020
2509 Clouds 6 1030 81 0 1.5 150 12:43 18.02.2020
2510 Clouds 6 1030 81 10000 2.1 230 12:24 18.02.2020
2511 Clouds 6 1030 65 10000 1.5 210 11:56 18.02.2020
2512 Clouds 5 1030 65 10000 1.5 210 11:38 18.02.2020
2513 Clouds 4 1030 75 10000 1 230 11:19 18.02.2020
2514 Clouds 5 1030 86 10000 1 0 10:44 18.02.2020
2515 Clouds 4 1030 86 10000 0.5 0 10:22 18.02.2020
2516 Clouds 3 1030 93 10000 1 0 09:56 18.02.2020
2517 Clouds 3 1030 93 10000 1 0 09:38 18.02.2020
2518 Clouds 1 1030 87 10000 1 0 09:19 18.02.2020
2519 Clouds 1 1029 87 10000 4.25 338 08:55 18.02.2020
2520 Clear 1 1025 86 10000 0.5 0 08:37 18.02.2020
2521 Clouds 2 1029 87 10000 4.32 330 08:18 18.02.2020
2522 Clouds 2 1029 87 10000 1.5 100 07:45 18.02.2020
2523 Clouds 2 1028 93 10000 2.1 90 07:25 18.02.2020
2524 Clouds 1 1028 80 0 0.5 0 06:50 18.02.2020
2525 Clouds 1 1028 80 0 4.32 330 06:28 18.02.2020
2526 Clouds 2 1028 80 0 3.6 240 05:48 18.02.2020
2527 Clouds 3 1028 80 0 3.6 230 05:20 18.02.2020
2528 Rain 4 1028 80 0 3.6 230 03:49 18.02.2020
2529 Snow 4 1027 81 0 3.6 240 02:58 18.02.2020
2530 Clouds 4 1027 93 0 0.5 0 01:25 18.02.2020
2531 Clouds 4 1027 87 0 0.5 0 00:23 18.02.2020
2532 Clouds 4 1026 93 0 2.1 300 23:59 17.02.2020
2533 Clouds 4 1026 93 0 2.1 300 23:39 17.02.2020
2534 Rain 4 1027 100 0 2.6 250 23:19 17.02.2020
2535 Rain 4 1026 93 0 0.5 0 22:57 17.02.2020
2536 Rain 4 1026 93 0 0.5 0 22:38 17.02.2020
2537 Rain 4 1026 93 0 2.6 260 22:18 17.02.2020
2538 Rain 5 1026 93 0 3.1 260 21:39 17.02.2020
2539 Rain 5 1025 93 0 2.6 240 21:19 17.02.2020
2540 Rain 5 1025 93 0 2.1 240 20:55 17.02.2020
2541 Snow 5 1023 70 0 1 0 20:36 17.02.2020
2542 Snow 5 1023 70 0 1 0 20:36 17.02.2020
2543 Rain 5 1025 93 0 1.5 270 20:18 17.02.2020
2544 Rain 5 1024 93 0 2.1 250 19:42 17.02.2020
2545 Rain 5 1024 87 0 2.1 250 19:21 17.02.2020
2546 Rain 6 1023 87 0 2.6 230 18:39 17.02.2020
2547 Rain 6 1022 93 0 3.6 240 18:20 17.02.2020
2548 Rain 6 1022 87 0 4.1 290 18:00 17.02.2020
2549 Rain 7 1022 87 0 4.1 290 17:38 17.02.2020
2550 Rain 7 1022 81 10000 4.1 50 17:19 17.02.2020
2551 Rain 8 1021 75 10000 2.6 280 16:58 17.02.2020
2552 Rain 8 1021 75 10000 2.6 280 16:40 17.02.2020
2553 Rain 9 1021 81 10000 7.7 330 16:21 17.02.2020
2554 Rain 8 1020 61 10000 3.6 250 15:46 17.02.2020
2555 Clouds 8 1019 62 10000 1 0 15:27 17.02.2020
2556 Clouds 9 1019 62 10000 6.2 340 14:58 17.02.2020
2557 Clouds 9 1019 62 10000 6.2 340 14:39 17.02.2020
2558 Clouds 10 1019 53 10000 1 0 14:20 17.02.2020
2559 Clouds 10 1019 57 10000 3.6 230 13:55 17.02.2020
2560 Clouds 10 1024 65 10000 0.5 0 13:36 17.02.2020
2561 Clouds 10 1024 65 10000 0.5 0 13:36 17.02.2020
2562 Clouds 10 1024 65 10000 0.5 0 13:36 17.02.2020
2563 Clouds 11 1020 66 0 5.1 260 13:18 17.02.2020
2564 Clouds 11 1020 66 0 5.1 260 13:18 17.02.2020
2565 Clouds 11 1020 70 0 3.1 270 12:42 17.02.2020
2566 Clouds 11 1020 61 10000 2.1 260 12:23 17.02.2020
2567 Clouds 10 1019 65 10000 0.5 0 11:50 17.02.2020
2568 Clouds 9 1019 81 10000 2.6 110 11:29 17.02.2020
2569 Clouds 9 1019 81 10000 2.6 110 11:29 17.02.2020
2570 Clouds 8 1020 75 10000 3.63 184 10:59 17.02.2020
2571 Clouds 9 1020 75 10000 3.63 184 10:41 17.02.2020
2572 Clouds 7 1020 80 10000 1 0 10:22 17.02.2020
2573 Clouds 6 1020 86 10000 1 0 09:58 17.02.2020
2574 Clouds 5 1020 86 10000 1 0 09:40 17.02.2020
2575 Clouds 4 1020 89 10000 1.5 260 09:21 17.02.2020
2576 Clouds 3 1019 89 10000 0.5 0 08:56 17.02.2020
2577 Clouds 3 1019 89 10000 0.5 0 08:38 17.02.2020
2578 Clouds 3 1020 86 10000 0.5 0 08:19 17.02.2020
2579 Clouds 3 1019 86 10000 2.18 206 07:42 17.02.2020
2580 Clouds 3 1019 70 10000 1.5 80 07:23 17.02.2020
2581 Clouds 3 1019 70 0 0.5 0 06:51 17.02.2020
2582 Clouds 3 1019 70 0 0.5 0 06:30 17.02.2020
2583 Clouds 4 1020 70 0 1.5 140 05:41 17.02.2020
2584 Clouds 3 1020 67 0 1 0 04:59 17.02.2020
2585 Clouds 4 1020 67 0 1 0 03:20 17.02.2020
2586 Clouds 5 1020 71 0 1.5 90 01:47 17.02.2020
2587 Clouds 5 1020 71 0 1.5 90 01:47 17.02.2020
2588 Clouds 5 1019 70 0 0.5 0 00:42 17.02.2020
2589 Clouds 5 1019 93 0 1 0 00:19 17.02.2020
2590 Clouds 6 1019 86 0 0.5 0 23:53 16.02.2020
2591 Clouds 6 1019 86 0 3.6 120 23:30 16.02.2020
2592 Clouds 6 1019 71 0 1.5 120 22:57 16.02.2020
2593 Clouds 5 1019 71 0 1.5 120 22:39 16.02.2020
2594 -273 0 0 0 0 0 22:20 16.02.2020
2595 Clouds 6 1019 86 0 0.5 0 21:57 16.02.2020
2596 Clouds 6 1019 86 0 0.5 0 21:39 16.02.2020
2597 Clouds 7 1019 86 0 2.64 201 21:20 16.02.2020
2598 Clouds 7 1018 86 0 1 0 20:57 16.02.2020
2599 Clouds 7 1018 86 0 1 0 20:38 16.02.2020
2600 Clouds 8 1019 75 0 2.28 208 20:20 16.02.2020
2601 Clouds 7 1019 80 0 2.6 110 19:57 16.02.2020
2602 Clouds 8 1028 75 0 2.28 208 19:37 16.02.2020
2603 Clouds 8 1019 80 0 3.1 110 19:18 16.02.2020
2604 Clouds 8 1019 80 0 3.1 110 19:18 16.02.2020
2605 Clouds 8 1019 75 0 2.1 110 18:42 16.02.2020
2606 Clouds 9 1019 75 0 2.1 100 18:23 16.02.2020
2607 Clouds 9 1018 70 0 2.1 120 17:55 16.02.2020
2608 Clouds 9 1028 57 0 1 200 17:36 16.02.2020
2609 Clouds 11 1018 61 10000 0.5 0 17:18 16.02.2020
2610 Clouds 11 1018 65 0 1.5 290 16:54 16.02.2020
2611 Clouds 10 1027 57 0 1 230 16:36 16.02.2020
2612 Clouds 10 1018 83 0 1.5 240 16:18 16.02.2020
2613 Clouds 11 1018 57 0 1 0 15:41 16.02.2020
2614 Clouds 11 1018 61 0 1.5 280 15:21 16.02.2020
2615 Clouds 10 1018 57 10000 0.5 0 14:44 16.02.2020
2616 Clouds 10 1019 61 0 1 0 14:23 16.02.2020
2617 Clouds 10 1019 61 0 1 0 13:57 16.02.2020
2618 Clouds 10 1019 61 0 1 0 13:38 16.02.2020
2619 Clouds 10 1020 61 0 1 0 13:20 16.02.2020
2620 Clouds 10 1021 57 0 1 0 12:39 16.02.2020
2621 Clouds 10 1021 57 0 1 0 12:39 16.02.2020
2622 Clouds 10 1021 65 0 1.5 280 12:19 16.02.2020
2623 Clouds 10 1021 65 0 1.5 280 12:19 16.02.2020
2624 Clouds 9 1021 65 0 1 0 11:40 16.02.2020
2625 Clouds 8 1021 65 10000 1 0 11:20 16.02.2020
2626 Clouds 8 1021 65 10000 1.5 230 10:58 16.02.2020
2627 Clouds 8 1021 65 10000 1.5 230 10:58 16.02.2020
2628 Clouds 7 1021 65 10000 1.5 230 10:40 16.02.2020
2629 Clouds 6 1021 63 0 3.1 90 10:21 16.02.2020
2630 Clouds 6 1021 63 0 3.1 90 10:21 16.02.2020
2631 Clouds 5 1021 63 0 2.6 90 09:59 16.02.2020
2632 Clouds 5 1021 63 0 2.6 90 09:38 16.02.2020
2633 Clouds 5 1021 63 0 2.6 90 09:38 16.02.2020
2634 Clouds 5 1021 63 0 2.6 90 09:38 16.02.2020
2635 Clouds 4 1021 80 0 1 0 09:20 16.02.2020
2636 Clouds 3 1021 63 0 1.5 270 08:56 16.02.2020
2637 Clouds 3 1021 63 0 1.5 270 08:38 16.02.2020
2638 Clouds 3 1021 86 0 1.5 0 08:18 16.02.2020
2639 Clouds 3 1022 41 0 2.1 90 07:41 16.02.2020
2640 Clouds 2 1022 92 0 0.5 0 06:54 16.02.2020
2641 Clouds 1 1022 92 0 2.18 207 05:53 16.02.2020
2642 Clouds 1 1028 34 0 1 60 04:37 16.02.2020
2643 Clouds 2 1023 34 0 2.1 110 03:19 16.02.2020
2644 Clouds 2 1023 45 0 3.1 120 01:58 16.02.2020
2645 Clouds 2 1023 45 0 3.1 120 01:38 16.02.2020
2646 Clouds 2 1024 39 0 1 0 01:19 16.02.2020
2647 Clouds 3 1023 39 0 0.5 0 00:41 16.02.2020
2648 Clouds 3 1023 86 0 1.42 248 00:22 16.02.2020
2649 Clouds 3 1023 39 0 1 0 23:43 15.02.2020
2650 Clouds 3 1023 39 0 1 0 23:25 15.02.2020
2651 Clouds 3 1024 55 0 0.5 0 22:57 15.02.2020
2652 Clouds 3 1024 55 0 0.5 0 22:57 15.02.2020
2653 Clouds 3 1024 55 0 0.5 0 22:39 15.02.2020
2654 Clouds 3 1024 86 0 1.17 260 22:19 15.02.2020
2655 Clouds 4 1024 86 0 2.6 100 21:44 15.02.2020
2656 Clouds 4 1023 69 10000 2.1 260 21:24 15.02.2020
2657 Clouds 4 1024 55 10000 1.5 230 20:58 15.02.2020
2658 Clouds 4 1025 80 0 1.5 90 20:37 15.02.2020
2659 Clouds 4 1025 80 0 1.5 90 20:19 15.02.2020
2660 Clouds 5 1024 86 0 1.5 110 19:42 15.02.2020
2661 Clouds 5 1023 86 0 2.1 90 19:22 15.02.2020
2662 Clouds 5 1023 68 10000 1.5 0 18:42 15.02.2020
2663 Clouds 6 1023 74 0 0.5 0 18:21 15.02.2020
2664 Clouds 6 1023 61 10000 1 0 17:57 15.02.2020
2665 Clouds 7 1022 68 0 1.19 266 17:37 15.02.2020
2666 Clear 8 1022 82 0 2.16 175 17:19 15.02.2020
2667 Clear 9 1022 82 0 2.16 175 16:41 15.02.2020
2668 Clear 9 1022 82 0 0.5 0 16:23 15.02.2020
2669 Clear 9 1023 61 0 2.1 260 15:56 15.02.2020
2670 Clear 9 1023 61 0 2.1 260 15:38 15.02.2020
2671 Clear 9 1023 82 0 1.5 130 15:20 15.02.2020
2672 Clear 10 1024 49 0 0.5 0 14:43 15.02.2020
2673 Clouds 9 1024 88 0 1 0 14:19 15.02.2020
2674 Clouds 9 1024 88 0 2.6 270 13:43 15.02.2020
2675 Clouds 8 1025 88 0 2.1 270 13:25 15.02.2020
2676 Clouds 8 1025 60 0 1.5 250 12:59 15.02.2020
2677 Clouds 8 1025 60 0 1.5 250 12:40 15.02.2020
2678 Clouds 7 1026 90 0 2.6 120 12:22 15.02.2020
2679 Clouds 6 1026 90 0 2.16 189 11:47 15.02.2020
2680 Clouds 6 1026 90 0 2.16 189 11:47 15.02.2020
2681 Clouds 5 1026 90 0 2.16 189 11:27 15.02.2020
2682 Clouds 4 1026 86 0 0.5 0 10:51 15.02.2020
2683 Clouds 3 1026 57 0 2.2 203 10:30 15.02.2020
2684 Clouds 2 1027 57 0 1.5 110 09:58 15.02.2020
2685 Clouds 2 1027 57 0 1.5 110 09:39 15.02.2020
2686 Clouds 1 1027 92 0 2.2 203 09:21 15.02.2020
2687 Clouds 1 1027 92 0 0.5 0 08:43 15.02.2020
2688 Clouds 0 1026 92 0 2.15 204 08:24 15.02.2020
2689 Clouds 0 1026 86 0 2.1 120 07:51 15.02.2020
2690 Clouds 0 1026 100 0 2.6 90 07:31 15.02.2020
2691 Clouds -1 1026 92 0 1 0 06:51 15.02.2020
2692 Clouds 0 1025 92 0 1.91 208 06:31 15.02.2020
2693 Clouds 0 1025 92 0 1.91 208 05:41 15.02.2020
2694 Clouds 1 1025 100 0 1.5 80 04:45 15.02.2020
2695 Clouds 1 1025 92 0 1 0 03:39 15.02.2020
2696 Clouds 1 1025 100 0 1.56 208 02:50 15.02.2020
2697 Clouds 1 1025 92 0 1.56 208 02:22 15.02.2020
2698 Clouds 1 1026 92 0 1 0 01:40 15.02.2020
2699 Clear 0 1027 86 0 0.63 319 00:42 15.02.2020
2700 Clear 1 1027 86 0 3.1 120 00:21 15.02.2020
2701 Clear 1 1027 20 0 2.1 90 23:40 14.02.2020
2702 Clear 1 1027 86 0 2.6 110 23:20 14.02.2020
2703 Clear 1 1027 22 0 3.1 80 22:44 14.02.2020
2704 Clear 1 1028 22 0 2.6 90 22:23 14.02.2020
2705 Clouds 1 1028 22 0 2.6 110 21:54 14.02.2020
2706 Clear 2 1024 49 0 3.1 332 21:36 14.02.2020
2707 Clouds 2 1028 86 0 3.1 90 21:18 14.02.2020
2708 Clouds 2 1027 86 0 3.6 100 20:42 14.02.2020
2709 Clouds 2 1027 70 10000 2.1 280 20:19 14.02.2020
2710 Clouds 3 1027 86 0 3.6 80 19:55 14.02.2020
2711 Clear 3 1022 53 0 0.5 0 19:37 14.02.2020
2712 Clouds 3 1026 86 0 3.1 100 19:18 14.02.2020
2713 Clouds 3 1026 80 0 2.6 80 18:55 14.02.2020
2714 Clear 3 1021 65 0 0.5 0 18:36 14.02.2020
2715 Clouds 4 1025 86 0 2.6 90 18:18 14.02.2020
2716 Clouds 4 1025 86 0 2.1 100 17:40 14.02.2020
2717 Clouds 5 1025 61 10000 2.6 100 17:19 14.02.2020
2718 Clouds 6 1025 75 10000 4.12 341 16:43 14.02.2020
2719 Clouds 6 1024 75 10000 1.5 120 16:25 14.02.2020
2720 Clouds 6 1024 70 10000 2.1 110 15:59 14.02.2020
2721 Clouds 6 1024 70 10000 2.1 110 15:41 14.02.2020
2722 Clouds 7 1024 66 10000 3.1 120 15:21 14.02.2020
2723 Clouds 6 1024 66 10000 1.5 150 14:59 14.02.2020
2724 Clouds 6 1024 66 10000 1.5 150 14:59 14.02.2020
2725 Clouds 6 1024 66 10000 1.5 150 14:41 14.02.2020
2726 Clouds 6 1024 65 10000 1.5 0 14:22 14.02.2020
2727 Clouds 6 1025 61 10000 1 0 13:57 14.02.2020
2728 Clouds 6 1025 61 10000 1 0 13:39 14.02.2020
2729 Clouds 5 1024 70 0 2.1 120 13:20 14.02.2020
2730 Clouds 5 1024 70 0 2.1 120 12:57 14.02.2020
2731 Clouds 5 1024 70 0 2.1 120 12:57 14.02.2020
2732 Clouds 5 1024 70 0 2.1 120 12:38 14.02.2020
2733 Clouds 5 1024 61 10000 3.6 90 12:20 14.02.2020
2734 Clouds 4 1024 81 10000 2.1 110 11:56 14.02.2020
2735 Clouds 4 1024 81 10000 2.1 110 11:56 14.02.2020
2736 Clouds 4 1018 70 10000 2.1 230 11:37 14.02.2020
2737 Clouds 4 1024 66 10000 3.6 170 11:19 14.02.2020
2738 Clouds 3 1024 86 10000 1.5 90 10:41 14.02.2020
2739 Clouds 4 1024 86 10000 1 0 10:22 14.02.2020
2740 Snow 3 1023 75 10000 3.6 200 09:55 14.02.2020
2741 Snow 3 1018 93 10000 3.6 70 09:36 14.02.2020
2742 Rain 3 1023 80 10000 4.1 260 09:18 14.02.2020
2743 Snow 3 1022 86 10000 3.6 240 08:40 14.02.2020
2744 Snow 2 1021 86 0 4.6 240 08:22 14.02.2020
2745 Snow 2 1021 86 0 4.6 240 08:22 14.02.2020
2746 Snow 2 1021 86 0 4.6 240 08:22 14.02.2020
2747 Snow 2 1021 86 0 4.6 240 08:22 14.02.2020
2748 Rain 1 1021 93 10000 3.6 250 07:50 14.02.2020
2749 Rain 2 1020 86 7000 4.1 240 07:30 14.02.2020
2750 Rain 1 1020 93 0 3.1 240 06:48 14.02.2020
2751 Rain 2 1019 93 0 1 0 06:22 14.02.2020
2752 Rain 2 1019 93 0 4.64 318 05:41 14.02.2020
2753 Rain 2 1019 93 0 4.64 318 05:41 14.02.2020
2754 Rain 2 1018 93 0 5.1 290 03:51 14.02.2020
2755 Snow 2 1018 93 0 3.1 270 02:58 14.02.2020
2756 Snow 2 1017 93 0 3.1 270 02:18 14.02.2020
2757 Rain 2 1015 93 0 4.6 0 00:59 14.02.2020
2758 Snow 1 1015 75 0 4.1 120 00:32 14.02.2020
2759 Rain 2 1012 93 0 1.5 80 23:59 13.02.2020
2760 Rain 2 1012 93 0 1.5 80 23:41 13.02.2020
2761 Snow 3 1012 100 0 2.1 110 23:19 13.02.2020
2762 Snow 3 1012 93 0 3.6 70 22:40 13.02.2020
2763 Rain 2 1012 93 0 4.6 60 22:19 13.02.2020
2764 Snow 2 1011 80 10000 5.7 60 21:58 13.02.2020
2765 Snow 2 1011 80 10000 5.7 60 21:40 13.02.2020
2766 Rain 2 1011 81 0 3.1 0 21:20 13.02.2020
2767 Rain 3 1011 81 0 5.7 280 20:43 13.02.2020
2768 Rain 2 1010 75 0 4.6 260 20:23 13.02.2020
2769 Clouds 2 1007 95 0 1 0 19:58 13.02.2020
2770 Clouds 3 1007 95 0 1 0 19:39 13.02.2020
2771 Rain 4 1008 95 0 2.1 270 19:20 13.02.2020
2772 Clouds 4 1007 49 0 0.5 0 18:58 13.02.2020
2773 Clouds 4 1007 49 0 0.5 0 18:58 13.02.2020
2774 Clouds 4 1007 49 0 0.5 0 18:39 13.02.2020
2775 Rain 5 1007 49 0 4.1 0 18:21 13.02.2020
2776 Rain 5 1008 95 0 1.5 270 17:57 13.02.2020
2777 Snow 5 1016 42 0 3.82 175 17:37 13.02.2020
2778 Snow 5 1016 42 0 3.82 175 17:37 13.02.2020
2779 Rain 5 1008 60 0 1.5 260 17:19 13.02.2020
2780 Rain 5 1008 45 0 2.1 0 16:42 13.02.2020
2781 Clouds 5 1009 56 10000 2.6 90 16:21 13.02.2020
2782 Clouds 5 1010 64 10000 4.6 100 15:58 13.02.2020
2783 Clouds 6 1010 64 10000 4.6 100 15:40 13.02.2020
2784 Clouds 5 1012 48 10000 3.6 240 15:20 13.02.2020
2785 Clouds 5 1011 52 10000 4.1 250 14:59 13.02.2020
2786 Clouds 6 1011 52 10000 4.1 250 14:40 13.02.2020
2787 Clouds 6 1011 56 10000 4.1 260 14:22 13.02.2020
2788 Clouds 6 1010 42 10000 2.1 240 13:59 13.02.2020
2789 Clouds 7 1010 42 10000 2.1 240 13:41 13.02.2020
2790 Clouds 6 1012 48 0 0.5 0 13:18 13.02.2020
2791 Clouds 6 1013 44 0 1 0 12:48 13.02.2020
2792 Clouds 5 1014 51 10000 1 0 12:30 13.02.2020
2793 Clouds 4 1014 48 10000 1 0 11:58 13.02.2020
2794 Clouds 4 1014 48 10000 1 0 11:40 13.02.2020
2795 Clouds 3 1015 60 10000 1 0 11:19 13.02.2020
2796 Clouds 3 1016 64 10000 1 0 10:43 13.02.2020
2797 Clouds 3 1017 59 10000 3.1 100 10:24 13.02.2020
2798 Clouds 2 1017 69 10000 1 0 09:47 13.02.2020
2799 Clouds 1 1017 62 10000 4.6 260 09:24 13.02.2020
2800 Clouds -1 1016 86 10000 3.68 192 08:48 13.02.2020
2801 Clouds -1 1016 74 10000 2.6 90 08:20 13.02.2020
2802 Clouds -1 1017 74 10000 2.1 100 07:46 13.02.2020
2803 Clouds -1 1017 86 10000 2.1 100 07:25 13.02.2020
2804 Clouds -1 1017 86 0 2.55 195 06:59 13.02.2020
2805 Clouds -1 1017 86 0 2.55 195 06:41 13.02.2020
2806 Clouds -1 1018 86 0 1 0 05:57 13.02.2020
2807 Clouds -1 1018 36 10000 2.1 270 05:20 13.02.2020
2808 Clouds -1 1019 86 0 1.12 237 04:24 13.02.2020
2809 Clouds -2 1021 79 0 3.1 110 03:45 13.02.2020
2810 Clouds -2 1022 86 0 1.12 237 02:59 13.02.2020
2811 Clouds -2 1022 86 0 1.12 237 02:41 13.02.2020
2812 Clouds -2 1022 86 0 1.86 324 02:18 13.02.2020
2813 Clouds -1 1022 80 0 0.5 0 01:27 13.02.2020
2814 Clouds -1 1021 38 0 1 0 00:32 13.02.2020
2815 Clouds -1 1022 80 0 1 0 23:58 12.02.2020
2816 Clouds -1 1021 38 0 1 0 23:37 12.02.2020
2817 Clouds -1 1022 80 0 3.58 334 23:18 12.02.2020
2818 Clouds -1 1022 64 0 2.1 120 22:43 12.02.2020
2819 Clouds -1 1022 64 0 2.1 120 22:43 12.02.2020
2820 Clouds -1 1023 74 0 2.1 80 22:24 12.02.2020
2821 Clouds -1 1023 64 0 1.5 100 21:56 12.02.2020
2822 Clouds -1 1021 38 0 3.1 50 21:37 12.02.2020
2823 Clouds 0 1023 59 0 2.6 110 21:19 12.02.2020
2824 Clouds 0 1023 74 0 2.6 80 20:55 12.02.2020
2825 Clouds 0 1020 38 0 1 0 20:37 12.02.2020
2826 Clouds 0 1023 69 0 1 0 20:18 12.02.2020
2827 Clouds 1 1023 59 0 0.5 0 19:43 12.02.2020
2828 Clouds 1 1022 59 0 1.5 0 19:23 12.02.2020
2829 Clouds 2 1022 51 0 1.5 260 18:54 12.02.2020
2830 Clouds 2 1019 23 0 2.6 120 18:36 12.02.2020
2831 Clouds 2 1021 48 0 3.1 270 18:18 12.02.2020
2832 Clouds 3 1021 41 0 3.6 280 17:42 12.02.2020
2833 Clouds 3 1021 42 10000 5.1 270 17:19 12.02.2020
2834 Clouds 3 1021 39 10000 5.1 280 16:57 12.02.2020
2835 Clouds 3 1019 22 10000 3.1 310 16:37 12.02.2020
2836 Clouds 4 1022 77 10000 5.7 60 16:18 12.02.2020
2837 Clouds 5 1022 39 10000 5.7 270 15:40 12.02.2020
2838 Rain 4 1022 77 10000 4.1 70 15:20 12.02.2020
2839 Clouds 3 1022 42 10000 7.7 280 14:54 12.02.2020
2840 Clouds 3 1021 42 10000 7.2 280 14:36 12.02.2020
2841 Clouds 4 1021 42 10000 7.2 280 14:18 12.02.2020
2842 Clouds 4 1022 45 0 10.3 270 13:55 12.02.2020
2843 Snow 4 1022 45 0 8.2 280 13:37 12.02.2020
2844 Snow 4 1022 45 0 8.2 280 13:18 12.02.2020
2845 Snow 3 1022 42 0 8.7 260 12:55 12.02.2020
2846 Snow 3 1019 20 0 3.1 160 12:36 12.02.2020
2847 Snow 3 1023 48 10000 7.2 290 12:18 12.02.2020
2848 Clouds 2 1022 48 10000 5.1 290 11:42 12.02.2020
2849 Clouds 1 1022 52 10000 6.2 300 11:21 12.02.2020
2850 Clouds 1 1022 52 10000 6.2 310 10:59 12.02.2020
2851 Clouds 1 1022 52 10000 6.2 310 10:41 12.02.2020
2852 Clouds 1 1022 48 10000 4.6 290 10:21 12.02.2020
2853 Clouds 1 1021 52 10000 2.1 260 09:57 12.02.2020
2854 Clouds 1 1021 52 10000 2.1 260 09:57 12.02.2020
2855 Clouds 1 1021 52 10000 2.1 260 09:39 12.02.2020
2856 Clouds 2 1021 48 10000 4.1 300 09:19 12.02.2020
2857 Clouds 1 1021 48 10000 5.1 310 08:57 12.02.2020
2858 Clouds 1 1019 64 10000 2.7 316 08:37 12.02.2020
2859 Clouds 0 1021 44 10000 6.2 300 08:19 12.02.2020
2860 Clouds 1 1021 41 10000 5.7 290 07:43 12.02.2020
2861 Clouds 1 1021 44 10000 6.7 300 07:22 12.02.2020
2862 Clouds 1 1020 44 0 6.7 300 06:52 12.02.2020
2863 Clouds 1 1020 48 0 6.2 290 06:20 12.02.2020
2864 Clouds 0 1017 44 0 0.5 0 05:36 12.02.2020
2865 Clouds 1 1020 52 0 6.7 290 04:56 12.02.2020
2866 Snow 0 1017 38 0 1.5 100 04:38 12.02.2020
2867 Snow 0 1017 44 0 3.75 329 03:31 12.02.2020
2868 Snow 0 1020 64 0 3.1 220 02:58 12.02.2020
2869 Clouds 0 1020 64 0 5.1 260 02:28 12.02.2020
2870 Snow 1 1017 23 0 2.1 270 01:42 12.02.2020
2871 Snow 1 1020 52 0 5.1 280 00:45 12.02.2020
2872 Snow 1 1020 45 0 6.2 280 00:25 12.02.2020
2873 Snow 1 1019 41 0 5.7 280 23:55 11.02.2020
2874 Snow 1 1019 41 0 5.7 280 23:55 11.02.2020
2875 Snow 2 1015 22 0 3.1 300 23:37 11.02.2020
2876 Snow 2 1020 45 0 7.2 270 23:18 11.02.2020
2877 Snow 2 1014 45 0 1.5 230 22:42 11.02.2020
2878 Snow 2 1019 39 0 7.2 280 22:21 11.02.2020
2879 Clouds 1 1018 42 0 8.2 280 21:58 11.02.2020
2880 Clouds 2 1018 42 0 8.2 280 21:39 11.02.2020
2881 Clouds 2 1018 42 0 5.7 280 21:19 11.02.2020
2882 Snow 2 1018 45 0 7.7 290 20:59 11.02.2020
2883 Snow 3 1018 45 0 7.7 290 20:39 11.02.2020
2884 Snow 3 1018 45 0 7.7 290 20:39 11.02.2020
2885 Snow 2 1017 52 0 7.2 300 20:20 11.02.2020
2886 Snow 2 1017 56 0 8.2 300 19:58 11.02.2020
2887 Snow 3 1017 56 0 8.2 300 19:40 11.02.2020
2888 Snow 3 1017 75 0 4.1 250 19:22 11.02.2020
2889 Rain 2 1017 75 0 5.7 310 18:46 11.02.2020
2890 Rain 1 1016 70 0 5.7 330 18:28 11.02.2020
2891 Rain 2 1015 70 0 4.6 340 17:59 11.02.2020
2892 Rain 2 1015 70 0 4.6 340 17:40 11.02.2020
2893 Rain 3 1015 65 6000 6.7 320 17:21 11.02.2020
2894 Rain 3 1015 65 8000 5.7 300 16:59 11.02.2020
2895 Rain 3 1015 65 8000 5.7 300 16:40 11.02.2020
2896 Rain 3 1014 85 10000 7.7 320 16:21 11.02.2020
2897 Rain 3 1014 85 10000 7.7 280 15:58 11.02.2020
2898 Rain 3 1014 85 10000 7.7 280 15:39 11.02.2020
2899 Rain 3 1013 45 10000 10.3 270 15:21 11.02.2020
2900 Rain 3 1014 49 10000 7.7 290 14:42 11.02.2020
2901 Rain 3 1014 49 10000 7.7 290 14:19 11.02.2020
2902 Rain 3 1014 49 10000 6.2 280 13:58 11.02.2020
2903 Rain 4 1014 49 10000 6.2 280 13:39 11.02.2020
2904 Snow 3 1014 45 0 4.6 280 13:20 11.02.2020
2905 Rain 3 1015 49 0 5.7 300 12:55 11.02.2020
2906 Snow 4 1011 28 0 5.1 250 12:36 11.02.2020
2907 Snow 4 1015 49 10000 5.1 260 12:18 11.02.2020
2908 Snow 4 1015 45 10000 8.2 300 11:41 11.02.2020
2909 Snow 4 1016 52 10000 4.6 290 11:20 11.02.2020
2910 Snow 4 1016 52 10000 7.7 280 10:55 11.02.2020
2911 Snow 4 1011 21 10000 5.7 350 10:36 11.02.2020
2912 Snow 4 1011 21 10000 5.7 350 10:36 11.02.2020
2913 Snow 4 1016 48 10000 8.7 260 10:18 11.02.2020
2914 Rain 4 1016 48 10000 8.7 280 09:44 11.02.2020
2915 Clouds 4 1016 45 10000 8.7 250 09:22 11.02.2020
2916 Clouds 5 1017 39 10000 11.3 250 08:56 11.02.2020
2917 Clouds 5 1017 39 10000 11.3 250 08:38 11.02.2020
2918 Clouds 5 1016 33 10000 13.4 270 08:19 11.02.2020
2919 Snow 4 1015 36 10000 13.9 270 07:45 11.02.2020
2920 Rain 4 1014 52 10000 10.8 270 07:24 11.02.2020
2921 Rain 4 1013 61 0 12.9 290 06:42 11.02.2020
2922 Rain 3 1012 61 0 9.8 290 06:20 11.02.2020
2923 Rain 3 1012 70 0 9.3 290 05:47 11.02.2020
2924 Rain 4 1011 65 0 10.8 280 05:21 11.02.2020
2925 Rain 5 1010 61 0 9.8 280 04:35 11.02.2020
2926 Snow 7 1010 95 0 9.3 280 02:41 11.02.2020
2927 Snow 7 1010 95 0 11.3 280 02:22 11.02.2020
2928 Snow 7 1009 93 0 12.9 280 01:34 11.02.2020
2929 Snow 7 1009 93 0 12.9 270 00:32 11.02.2020
2930 Rain 8 1009 93 0 11.8 270 23:52 10.02.2020
2931 Rain 8 1010 37 0 14.4 280 23:31 10.02.2020
2932 Clouds 8 1009 91 0 11.8 280 22:58 10.02.2020
2933 Rain 9 1009 91 0 11.8 280 22:38 10.02.2020
2934 Rain 8 1010 37 0 10.8 280 22:20 10.02.2020
2935 Rain 9 1009 33 0 14.4 270 21:43 10.02.2020
2936 Clouds 8 1009 40 0 9.8 270 21:25 10.02.2020
2937 Clouds 9 1010 32 0 11.3 290 20:57 10.02.2020
2938 Clouds 9 1010 32 0 11.3 290 20:38 10.02.2020
2939 Clouds 8 1011 35 0 10.3 280 20:20 10.02.2020
2940 Clouds 8 1010 35 0 9.8 290 19:58 10.02.2020
2941 Clouds 8 1010 35 0 9.8 290 19:38 10.02.2020
2942 Clouds 8 1011 40 0 8.7 290 19:19 10.02.2020
2943 Snow 7 1011 40 0 8.2 290 18:58 10.02.2020
2944 Snow 7 1011 40 0 8.2 290 18:39 10.02.2020
2945 Snow 7 1012 40 0 7.7 280 18:20 10.02.2020
2946 Snow 6 1013 40 0 8.2 290 17:56 10.02.2020
2947 Snow 7 1013 43 10000 7.7 280 17:37 10.02.2020
2948 Snow 7 1013 43 10000 7.7 280 17:37 10.02.2020
2949 Snow 8 1013 43 10000 7.7 280 17:19 10.02.2020
2950 Snow 8 1013 43 10000 7.7 280 17:19 10.02.2020
2951 Snow 8 1013 43 10000 7.2 280 16:58 10.02.2020
2952 Snow 9 1013 43 10000 7.2 280 16:38 10.02.2020
2953 Clouds 9 1012 40 10000 8.2 280 16:19 10.02.2020
2954 Clouds 7 1013 35 10000 11.8 250 15:55 10.02.2020
2955 Clouds 7 1013 80 10000 8.2 280 15:37 10.02.2020
2956 Clouds 10 1013 80 10000 8.2 280 15:18 10.02.2020
2957 Clouds 9 1013 46 10000 11.8 270 14:41 10.02.2020
2958 Clouds 9 1013 43 10000 12.9 270 14:20 10.02.2020
2959 Clouds 9 1013 43 10000 12.9 270 14:20 10.02.2020
2960 Rain 9 1013 47 10000 8.2 280 13:57 10.02.2020
2961 Rain 9 1013 47 10000 8.2 280 13:39 10.02.2020
2962 Rain 9 1013 58 0 9.8 290 13:21 10.02.2020
2963 Rain 9 1013 62 0 11.3 280 12:47 10.02.2020
2964 Rain 9 1012 41 0 13.4 270 12:26 10.02.2020
2965 Clouds 8 1011 36 10000 14.4 260 11:56 10.02.2020
2966 Clouds 8 1017 65 8000 2.1 50 11:37 10.02.2020
2967 Clouds 9 1011 38 10000 12.9 260 11:19 10.02.2020
2968 Rain 8 1010 51 10000 11.8 270 10:46 10.02.2020
2969 Rain 9 1010 47 10000 8.7 290 10:26 10.02.2020
2970 Rain 8 1009 44 10000 9.3 280 09:45 10.02.2020
2971 Clouds 8 1009 41 10000 10.8 280 09:26 10.02.2020
2972 Clouds 8 1009 41 10000 7.7 270 08:55 10.02.2020
2973 Clouds 8 1019 86 6000 0.5 0 08:36 10.02.2020
2974 Clouds 9 1008 44 10000 8.2 270 08:18 10.02.2020
2975 Clouds 8 1009 70 10000 2.6 130 07:46 10.02.2020
2976 Clouds 6 1009 75 10000 2.6 0 07:25 10.02.2020
2977 Clouds 8 1010 96 0 1 0 05:52 10.02.2020
2978 Clouds 6 1011 74 0 1 0 04:26 10.02.2020
2979 Clouds 6 1022 80 0 1 0 03:34 10.02.2020
2980 Clouds 6 1012 95 0 1.5 0 02:54 10.02.2020
2981 Rain 5 1024 100 0 1.5 80 01:36 10.02.2020
2982 Clouds 5 1014 69 0 1 0 00:48 10.02.2020
2983 Clouds 4 1014 74 0 2.1 100 00:28 10.02.2020
2984 Clouds 4 1015 80 0 2.1 80 23:45 09.02.2020
2985 Clouds 5 1016 80 0 0.5 0 23:26 09.02.2020
2986 Clouds 4 1016 86 0 1.5 0 22:59 09.02.2020
2987 Clouds 5 1027 75 0 3.64 193 22:38 09.02.2020
2988 Clouds 5 1016 80 0 1 0 22:19 09.02.2020
2989 Clouds 5 1017 80 0 0.5 0 21:41 09.02.2020
2990 Clouds 5 1017 80 0 1.5 0 21:23 09.02.2020
2991 Clouds 5 1017 80 0 1.5 90 20:48 09.02.2020
2992 Clouds 5 1017 80 0 0.5 0 20:23 09.02.2020
2993 Clouds 5 1018 74 0 1 0 19:58 09.02.2020
2994 Clouds 5 1018 74 0 1 0 19:39 09.02.2020
2995 Clouds 5 1019 69 0 1.5 140 19:20 09.02.2020
2996 Clouds 5 1019 74 0 2.6 100 18:54 09.02.2020
2997 Clouds 5 1028 65 0 1 0 18:36 09.02.2020
2998 Clouds 5 1020 64 0 3.63 189 18:18 09.02.2020
2999 Clouds 5 1020 69 0 2.1 100 17:39 09.02.2020
3000 Clouds 6 1020 64 0 2.6 90 17:21 09.02.2020
3001 Clouds 7 1020 48 0 2.1 110 16:44 09.02.2020
3002 Clouds 6 1021 48 0 3.1 90 16:24 09.02.2020
3003 Clouds 7 1021 52 0 1.5 0 15:59 09.02.2020
3004 Clouds 7 1021 52 0 1.5 0 15:41 09.02.2020
3005 Clouds 7 1021 52 0 1.5 0 15:41 09.02.2020
3006 Clouds 7 1021 48 0 3.6 240 15:22 09.02.2020
3007 Clouds 8 1021 45 0 3.1 250 14:57 09.02.2020
3008 Clouds 8 1021 45 0 3.1 250 14:39 09.02.2020
3009 Clouds 8 1021 52 0 2.1 250 14:20 09.02.2020
3010 Clouds 8 1022 52 0 2.1 240 13:44 09.02.2020
3011 Clouds 8 1023 52 0 3.58 181 13:26 09.02.2020
3012 Clouds 7 1024 55 0 1 0 12:56 09.02.2020
3013 Clouds 6 1031 56 0 1 0 12:38 09.02.2020
3014 Clouds 7 1024 55 0 1.5 250 12:18 09.02.2020
3015 Clouds 5 1025 59 0 0.5 0 11:41 09.02.2020
3016 Clouds 4 1025 69 0 1 0 11:22 09.02.2020
3017 Clear 4 1026 69 0 0.5 0 10:58 09.02.2020
3018 Clear 3 1026 69 0 0.5 0 10:40 09.02.2020
3019 Clear 2 1027 80 0 1.5 100 10:21 09.02.2020
3020 Clear 0 1027 80 0 2.6 100 09:45 09.02.2020
3021 Clear -1 1026 86 0 1 0 09:25 09.02.2020
3022 Clear -2 1026 92 0 0.5 0 08:45 09.02.2020
3023 Clear -2 1025 85 0 3.1 90 08:27 09.02.2020
3024 Clouds -2 1025 92 0 1 0 07:58 09.02.2020
3025 Clouds -2 1030 100 0 0.5 0 07:34 09.02.2020
3026 Clouds -2 1026 92 0 2.1 80 06:46 09.02.2020
3027 Clouds -2 1027 85 0 0.5 0 05:59 09.02.2020
3028 Clouds -2 1030 100 0 1.4 241 05:37 09.02.2020
3029 Clouds -2 1027 92 0 1 0 05:18 09.02.2020
3030 Clouds -2 1026 92 0 1.5 130 03:52 09.02.2020
3031 Clouds -1 1027 92 0 1 0 02:44 09.02.2020
3032 Clouds -1 1026 92 0 2.1 90 02:24 09.02.2020
3033 Clouds -1 1030 100 0 0.5 0 01:34 09.02.2020
3034 Clouds -1 1027 92 0 0.5 0 00:41 09.02.2020
3035 Clouds -1 1027 86 0 0.5 0 00:21 09.02.2020
3036 Clouds -1 1027 86 0 0.98 300 23:42 08.02.2020
3037 Clear 0 1027 92 0 2.1 110 23:20 08.02.2020
3038 Clear 0 1027 92 0 2.1 110 23:20 08.02.2020
3039 Clear 0 1027 86 0 1 0 22:42 08.02.2020
3040 Clear 0 1027 92 0 1 0 22:21 08.02.2020
3041 Clear 0 1027 80 0 0.5 0 21:58 08.02.2020
3042 Clear 0 1027 80 0 0.5 0 21:40 08.02.2020
3043 Clouds 0 1026 86 0 2.1 120 21:19 08.02.2020
3044 Clouds 0 1026 92 0 1.5 70 20:55 08.02.2020
3045 Clouds 1 1029 86 0 0.5 0 20:37 08.02.2020
3046 Clouds 1 1026 80 0 1.4 302 20:19 08.02.2020
3047 Clouds 1 1025 67 0 2.6 100 19:54 08.02.2020
3048 Clouds 2 1029 74 0 0.5 0 19:36 08.02.2020
3049 Clouds 2 1025 86 0 2.1 90 19:18 08.02.2020
3050 Clouds 2 1025 67 0 2.6 90 18:42 08.02.2020
3051 Clouds 3 1024 67 0 2.6 100 18:22 08.02.2020
3052 Clouds 4 1024 74 0 2.1 80 17:43 08.02.2020
3053 Clouds 5 1024 69 0 0.5 0 17:21 08.02.2020
3054 Clouds 5 1024 69 0 0.5 0 17:21 08.02.2020
3055 Clouds 5 1023 69 0 1 300 16:58 08.02.2020
3056 Clouds 5 1027 49 0 1 250 16:38 08.02.2020
3057 Clouds 6 1023 69 0 1.5 280 16:20 08.02.2020
3058 Clouds 6 1024 56 0 1.5 260 15:42 08.02.2020
3059 Clouds 7 1023 56 0 0.5 0 15:19 08.02.2020
3060 Clouds 6 1024 56 0 0.5 0 14:58 08.02.2020
3061 Clouds 7 1024 56 0 0.5 0 14:39 08.02.2020
3062 Clouds 7 1024 56 0 2.11 168 14:18 08.02.2020
3063 Clouds 7 1024 55 0 2.11 168 13:43 08.02.2020
3064 Clouds 7 1024 60 0 0.5 0 13:23 08.02.2020
3065 Clouds 7 1024 60 0 0.5 0 13:23 08.02.2020
3066 Clouds 6 1025 60 0 2.17 170 12:55 08.02.2020
3067 Clouds 6 1029 48 0 0.5 0 12:37 08.02.2020
3068 Clouds 5 1025 64 0 0.5 0 12:19 08.02.2020
3069 Clouds 4 1025 74 0 2.17 170 11:41 08.02.2020
3070 Clouds 3 1025 74 0 0.5 0 11:21 08.02.2020
3071 Clouds 2 1025 80 0 1.34 204 10:43 08.02.2020
3072 Clouds 1 1025 86 0 1.34 204 10:25 08.02.2020
3073 Clouds 0 1026 86 0 1.5 70 09:55 08.02.2020
3074 Clouds -1 1030 58 0 0.5 0 09:36 08.02.2020
3075 Clouds -1 1026 92 0 1.5 90 09:18 08.02.2020
3076 Clouds -3 1025 92 0 1.34 204 08:39 08.02.2020
3077 Clouds -3 1025 92 0 0.5 0 08:21 08.02.2020
3078 Clouds -3 1025 92 0 1.5 80 07:50 08.02.2020
3079 Clouds -3 1025 92 0 1.5 120 07:31 08.02.2020
3080 Clouds -3 1029 100 0 1 0 06:34 08.02.2020
3081 Clouds -3 1025 92 0 1.18 249 05:57 08.02.2020
3082 Clouds -3 1029 92 0 1.18 249 05:32 08.02.2020
3083 Clouds -3 1025 86 10000 2.1 250 04:51 08.02.2020
3084 Clouds -3 1025 92 0 1.5 120 03:57 08.02.2020
3085 Clouds -2 1025 92 0 1.33 235 03:20 08.02.2020
3086 Clouds -2 1025 79 10000 1.5 260 02:28 08.02.2020
3087 Clear -2 1025 92 0 1 80 01:28 08.02.2020
3088 Clear -2 1025 74 10000 2.1 270 00:46 08.02.2020
3089 Clear -2 1025 79 10000 2.1 250 00:24 08.02.2020
3090 Clear -1 1025 80 10000 2.1 250 23:56 07.02.2020
3091 Clear -1 1025 80 10000 1.5 230 23:37 07.02.2020
3092 Clear -1 1025 80 10000 1.5 230 23:19 07.02.2020
3093 Clear -1 1025 80 10000 2.1 260 22:41 07.02.2020
3094 Clear -1 1025 80 10000 1.5 240 22:19 07.02.2020
3095 Clear -1 1025 86 0 1.22 231 21:45 07.02.2020
3096 Clear -1 1025 86 0 0.5 0 21:23 07.02.2020
3097 Clear -1 1025 86 0 1.22 231 20:59 07.02.2020
3098 Clear 0 1025 86 0 1.22 231 20:39 07.02.2020
3099 Clear 0 1025 79 0 3.1 110 20:18 07.02.2020
3100 Clear 0 1025 79 0 1 0 19:43 07.02.2020
3101 Clear 0 1025 86 0 2.1 90 19:22 07.02.2020
3102 Clear 1 1025 86 0 2.1 100 18:59 07.02.2020
3103 Clear 1 1025 86 0 2.1 100 18:41 07.02.2020
3104 Clear 1 1024 80 0 1 0 18:23 07.02.2020
3105 Clear 2 1024 64 10000 1 0 17:44 07.02.2020
3106 Clear 4 1024 80 10000 0.5 0 17:22 07.02.2020
3107 Clear 3 1024 69 10000 0.62 211 16:58 07.02.2020
3108 Clear 4 1024 69 10000 0.62 211 16:39 07.02.2020
3109 Clear 4 1024 69 10000 0.62 211 16:21 07.02.2020
3110 Clear 5 1024 64 10000 1 0 15:52 07.02.2020
3111 Clear 5 1024 55 10000 1 0 15:28 07.02.2020
3112 Clear 5 1024 51 10000 0.5 0 14:54 07.02.2020
3113 Clear 5 1024 45 10000 2.6 240 14:36 07.02.2020
3114 Clear 5 1025 59 10000 0.48 199 14:18 07.02.2020
3115 Clear 5 1025 51 10000 1.5 280 13:40 07.02.2020
3116 Clear 5 1026 59 0 1.5 250 13:22 07.02.2020
3117 Clear 5 1026 59 0 1.5 260 12:58 07.02.2020
3118 Clear 4 1026 59 0 1.5 260 12:40 07.02.2020
3119 Clear 5 1026 59 0 1.5 240 12:21 07.02.2020
3120 Clear 4 1026 64 10000 0.43 218 11:42 07.02.2020
3121 Clouds 2 1027 74 10000 1.5 210 11:22 07.02.2020
3122 Clouds 1 1027 50 10000 1 0 10:43 07.02.2020
3123 Clear 0 1027 85 10000 1.36 328 10:24 07.02.2020
3124 Clear -2 1027 86 10000 1 0 09:59 07.02.2020
3125 Clear -2 1027 86 10000 1 0 09:39 07.02.2020
3126 Clear -3 1027 92 10000 0.5 0 09:21 07.02.2020
3127 Clear -3 1027 92 10000 2.1 80 08:44 07.02.2020
3128 Clear -3 1027 92 10000 2.1 80 08:44 07.02.2020
3129 Clear -4 1027 92 0 2.1 80 08:21 07.02.2020
3130 Clear -4 1028 92 10000 1.5 100 07:52 07.02.2020
3131 Clear -4 1028 100 10000 0.5 0 07:30 07.02.2020
3132 Clear -4 1028 85 0 0.5 0 06:47 07.02.2020
3133 Clear -4 1028 92 0 1.5 70 06:27 07.02.2020
3134 Clear -3 1028 92 0 1 0 05:58 07.02.2020
3135 Clear -3 1027 86 0 1 40 05:36 07.02.2020
3136 Clear -3 1027 86 0 2.91 334 03:33 07.02.2020
3137 -273 0 0 0 0 0 01:51 07.02.2020
3138 -273 0 0 0 0 0 00:51 07.02.2020
3139 Clear -3 1029 92 0 2.93 330 00:25 07.02.2020
3140 Clear -3 1028 80 0 1 70 23:38 06.02.2020
3141 Clear -2 1029 92 0 1.5 90 23:19 06.02.2020
3142 Clear -2 1029 85 0 1 80 22:46 06.02.2020
3143 Clear -2 1029 85 0 3.03 328 22:25 06.02.2020
3144 Clear -2 1030 79 0 0.5 0 21:55 06.02.2020
3145 Clear -2 1029 69 0 3.03 328 21:36 06.02.2020
3146 Clear -2 1029 69 0 3.03 328 21:36 06.02.2020
3147 Clear -1 1029 86 0 3.03 328 21:18 06.02.2020
3148 Clear -1 1030 86 0 3.1 100 20:54 06.02.2020
3149 Clear -1 1029 59 0 3.03 328 20:36 06.02.2020
3150 Clear -2 1030 74 10000 1 260 20:18 06.02.2020
3151 Clear -2 1030 74 10000 1 260 20:18 06.02.2020
3152 Clear -2 1029 85 0 2.1 80 19:55 06.02.2020
3153 Clear -1 1028 59 0 2.1 100 19:36 06.02.2020
3154 Clear -2 1030 86 0 1 0 19:18 06.02.2020
3155 Clear -1 1028 56 0 1 0 18:40 06.02.2020
3156 Clear -1 1030 74 0 2.6 130 18:22 06.02.2020
3157 Clear 0 1029 74 0 2.6 110 17:46 06.02.2020
3158 Clear 1 1029 74 10000 2.6 100 17:22 06.02.2020
3159 Clear 2 1029 52 10000 1.5 200 16:59 06.02.2020
3160 Clear 2 1029 52 10000 1.5 200 16:41 06.02.2020
3161 Clear 2 1029 52 10000 1.5 0 16:22 06.02.2020
3162 Clear 3 1028 55 10000 0.74 336 15:43 06.02.2020
3163 Clear 3 1029 56 10000 1 0 15:22 06.02.2020
3164 Clear 3 1029 52 10000 1 0 14:51 06.02.2020
3165 Clear 2 1029 55 10000 2.1 260 14:28 06.02.2020
3166 Clouds 3 1029 47 10000 1 0 13:59 06.02.2020
3167 Clouds 3 1029 47 10000 1 0 13:40 06.02.2020
3168 Clouds 2 1029 51 0 1 0 13:19 06.02.2020
3169 Clouds 3 1030 55 0 1.5 270 12:44 06.02.2020
3170 Clouds 2 1030 64 10000 1.5 270 12:19 06.02.2020
3171 Clouds 2 1030 64 10000 1.5 270 12:19 06.02.2020
3172 Clouds 2 1030 58 10000 1 0 11:57 06.02.2020
3173 Clouds 1 1031 45 10000 1.1 134 11:39 06.02.2020
3174 Clouds -1 1029 74 10000 0.5 0 11:19 06.02.2020
3175 Clouds -1 1029 74 10000 1 0 10:56 06.02.2020
3176 Clouds -1 1031 59 10000 1 0 10:38 06.02.2020
3177 Clouds -2 1029 79 10000 0.5 0 10:19 06.02.2020
3178 Clouds -2 1029 79 10000 0.5 0 10:19 06.02.2020
3179 Clouds -2 1030 79 10000 0.84 32 09:56 06.02.2020
3180 Clouds -3 1031 64 10000 1.5 110 09:36 06.02.2020
3181 Clouds -4 1031 74 10000 1 230 09:18 06.02.2020
3182 Clouds -3 1031 85 10000 2.6 100 08:41 06.02.2020
3183 Clouds -4 1031 79 10000 1.5 80 08:21 06.02.2020
3184 Clouds -4 1031 85 0 0.5 0 07:46 06.02.2020
3185 Clouds -4 1031 79 10000 2.1 120 07:25 06.02.2020
3186 Clouds -4 1031 85 0 3.1 80 06:22 06.02.2020
3187 Clouds -4 1031 85 0 3.1 80 06:22 06.02.2020
3188 Clouds -4 1031 79 0 3.1 110 05:55 06.02.2020
3189 Clouds -4 1031 79 0 2.1 110 04:24 06.02.2020
3190 Clouds -4 1032 79 0 2.6 90 03:20 06.02.2020
3191 Clouds -4 1033 79 10000 2.1 200 02:29 06.02.2020
3192 Clear -4 1032 79 0 4.6 80 01:35 06.02.2020
3193 Clear -4 1032 68 0 4.6 90 00:58 06.02.2020
3194 Clear -5 1032 68 0 5.7 70 00:26 06.02.2020
3195 Clear -5 1033 74 0 4.6 90 23:45 05.02.2020
3196 Clear -4 1033 68 0 4.6 70 23:25 05.02.2020
3197 Clear -4 1033 74 0 4.6 70 22:57 05.02.2020
3198 Clear -4 1033 74 0 5.1 60 22:39 05.02.2020
3199 Clear -4 1033 74 0 5.1 60 22:21 05.02.2020
3200 Clear -4 1033 74 0 4.6 80 21:42 05.02.2020
3201 Clear -5 1033 74 0 5.7 80 21:24 05.02.2020
3202 Clear -5 1033 31 0 4.1 90 20:59 05.02.2020
3203 Clear -5 1033 64 0 3.1 80 20:38 05.02.2020
3204 Clouds -2 1033 64 0 3.1 80 20:19 05.02.2020
3205 Clear -3 1033 57 0 4.1 90 19:56 05.02.2020
3206 Clear -2 1026 18 0 5.7 140 19:38 05.02.2020
3207 Clear -2 1033 80 0 3.1 90 19:18 05.02.2020
3208 Clear -1 1034 86 0 3.6 100 18:45 05.02.2020
3209 Clear -1 1034 74 0 3.1 90 18:21 05.02.2020
3210 Clear 0 1034 74 0 3.1 120 17:58 05.02.2020
3211 Clear 1 1027 13 0 4.1 0 17:37 05.02.2020
3212 Clouds 2 1034 59 10000 2.1 130 17:18 05.02.2020
3213 Clouds 2 1034 55 10000 1 0 16:44 05.02.2020
3214 Clouds 2 1035 69 10000 6.24 336 16:25 05.02.2020
3215 Clouds 2 1035 45 10000 3.1 210 15:59 05.02.2020
3216 Clouds 2 1035 45 10000 3.1 210 15:41 05.02.2020
3217 Clouds 2 1034 69 10000 6.24 336 15:19 05.02.2020
3218 Clouds 2 1034 69 10000 1.5 210 14:55 05.02.2020
3219 Clear 2 1027 16 10000 2.6 0 14:36 05.02.2020
3220 Clouds 2 1034 60 10000 2.1 0 14:18 05.02.2020
3221 Clouds 1 1034 64 0 4.1 60 13:40 05.02.2020
3222 Snow 2 1033 69 0 4.6 20 13:22 05.02.2020
3223 Snow 2 1033 59 0 5.7 50 12:43 05.02.2020
3224 Snow 2 1033 59 0 5.7 50 12:43 05.02.2020
3225 Snow 2 1033 74 10000 4.6 40 12:24 05.02.2020
3226 Rain 2 1033 64 10000 1.5 260 11:57 05.02.2020
3227 Snow 2 1026 18 10000 5.1 310 11:38 05.02.2020
3228 Snow 1 1032 82 10000 3.1 240 11:19 05.02.2020
3229 Rain 0 1032 93 10000 2.6 240 10:42 05.02.2020
3230 Rain 0 1032 82 8000 1 0 10:24 05.02.2020
3231 Snow 2 1031 82 8000 1 0 09:57 05.02.2020
3232 Rain 0 1030 82 8000 0.5 0 09:37 05.02.2020
3233 Rain 1 1030 82 8000 0.5 0 09:19 05.02.2020
3234 Rain 0 1030 82 8000 2.1 250 08:41 05.02.2020
3235 Snow 0 1029 82 3000 1 0 08:23 05.02.2020
3236 Rain 0 1029 93 10000 6.86 324 07:48 05.02.2020
3237 Rain 0 1028 93 10000 2.1 250 07:29 05.02.2020
3238 Rain 0 1028 88 0 4.1 290 06:46 05.02.2020
3239 Clouds 0 1029 69 10000 2.6 190 06:23 05.02.2020
3240 Rain 0 1028 88 0 3.6 240 05:51 05.02.2020
3241 Rain -1 1028 88 10000 1.5 0 05:18 05.02.2020
3242 Clouds 0 1019 64 0 1.5 0 04:45 05.02.2020
3243 Clouds 0 1019 64 0 1 0 03:36 05.02.2020
3244 Snow 0 1025 88 0 6.2 290 02:24 05.02.2020
3245 Clouds 0 1018 65 0 0.5 0 01:35 05.02.2020
3246 Clouds -1 1018 65 0 2.1 90 00:39 05.02.2020
3247 Snow 0 1024 86 0 8.7 310 23:43 04.02.2020
3248 Clouds -1 1024 86 0 6.7 300 23:23 04.02.2020
3249 Snow -1 1024 91 0 5.1 300 22:58 04.02.2020
3250 Snow 0 1024 91 0 5.1 300 22:40 04.02.2020
3251 Snow 0 1024 91 0 6.7 310 22:21 04.02.2020
3252 Snow -1 1023 91 0 5.7 310 21:59 04.02.2020
3253 Snow -1 1023 91 0 5.7 310 21:40 04.02.2020
3254 Snow -1 1023 91 0 6.2 300 21:19 04.02.2020
3255 Snow -1 1023 91 0 6.2 300 21:19 04.02.2020
3256 Snow -1 1023 91 0 6.7 300 20:57 04.02.2020
3257 Clouds -1 1016 33 0 3.1 290 20:38 04.02.2020
3258 Snow 0 1023 86 0 5.1 310 20:19 04.02.2020
3259 Snow 0 1022 69 0 3.1 320 19:55 04.02.2020
3260 Clouds -1 1015 60 0 1 0 19:37 04.02.2020
3261 Rain 0 1022 69 0 3.6 310 19:18 04.02.2020
3262 Snow -1 1022 80 0 6.2 280 18:54 04.02.2020
3263 Clouds -1 1014 56 0 11.07 333 18:36 04.02.2020
3264 Clouds -1 1021 74 0 3.1 290 18:18 04.02.2020
3265 Clouds -1 1020 52 10000 10.3 230 17:41 04.02.2020
3266 Clouds 1 1020 52 10000 10.3 230 17:20 04.02.2020
3267 Rain 0 1012 52 10000 4.6 100 16:40 04.02.2020
3268 Rain 0 1018 60 10000 6.2 190 16:21 04.02.2020
3269 Rain 0 1018 80 2500 6.7 310 15:58 04.02.2020
3270 Snow 1 1018 80 2500 6.7 310 15:40 04.02.2020
3271 Snow 0 1017 69 5000 7.7 300 15:20 04.02.2020
3272 Snow 0 1017 80 3000 6.2 310 14:57 04.02.2020
3273 Snow 0 1017 80 3000 6.2 310 14:39 04.02.2020
3274 Snow 0 1017 74 2500 9.3 270 14:20 04.02.2020
3275 Snow 1 1016 51 8000 8.7 280 13:41 04.02.2020
3276 Clouds 0 1017 55 0 9.8 270 13:23 04.02.2020
3277 Rain 0 1017 44 0 11.3 260 12:58 04.02.2020
3278 Rain -1 1017 44 0 11.3 260 12:39 04.02.2020
3279 Rain 0 1018 48 0 10.8 260 12:20 04.02.2020
3280 Snow 0 1018 55 10000 10.8 260 11:56 04.02.2020
3281 Rain 0 1018 51 10000 6.7 280 11:37 04.02.2020
3282 Rain 0 1018 51 10000 6.7 280 11:18 04.02.2020
3283 Rain 1 1018 51 10000 7.7 300 10:45 04.02.2020
3284 Rain 1 1018 60 10000 9.3 290 10:26 04.02.2020
3285 Rain 1 1016 60 10000 8.7 290 09:57 04.02.2020
3286 Rain 1 1009 100 9000 2.1 0 09:38 04.02.2020
3287 Rain 2 1016 75 10000 4.6 270 09:19 04.02.2020
3288 Rain 2 1016 90 10000 6.7 310 08:45 04.02.2020
3289 Rain 2 1016 90 10000 6.7 310 08:45 04.02.2020
3290 Rain 2 1016 70 10000 5.7 300 08:27 04.02.2020
3291 Rain 3 1016 70 10000 6.7 310 07:50 04.02.2020
3292 Rain 4 1016 75 10000 6.2 310 07:24 04.02.2020
3293 Rain 4 1016 75 10000 6.2 310 07:24 04.02.2020
3294 Rain 5 1016 75 0 4.6 0 06:53 04.02.2020
3295 Rain 5 1015 87 0 7.2 280 06:34 04.02.2020
3296 Rain 7 1006 100 0 1.5 0 05:33 04.02.2020
3297 Rain 9 1007 38 0 9.3 270 04:27 04.02.2020
3298 Rain 11 1007 41 0 4.1 240 03:43 04.02.2020
3299 Rain 9 1008 61 0 2.1 0 03:25 04.02.2020
3300 Snow 10 1011 100 0 2.1 260 02:34 04.02.2020
3301 Clouds 10 1012 75 0 1.5 70 01:57 04.02.2020
3302 Clouds 10 1012 75 0 1.5 70 01:39 04.02.2020
3303 Clouds 10 1015 75 0 3.97 274 00:52 04.02.2020
3304 Clouds 10 1015 76 0 2.1 90 00:22 04.02.2020
3305 Clouds 10 1016 76 0 2.1 80 23:45 03.02.2020
3306 Clouds 10 1017 81 0 0.5 0 23:26 03.02.2020
3307 Clouds 10 1018 81 0 1 0 22:54 03.02.2020
3308 Clouds 9 1014 70 0 1 0 22:36 03.02.2020
3309 Clouds 9 1018 81 0 1 0 22:18 03.02.2020
3310 Clouds 10 1018 76 0 1 0 21:41 03.02.2020
3311 Clouds 10 1019 81 0 1.5 90 21:19 03.02.2020
3312 Clouds 10 1019 81 0 2.1 110 20:42 03.02.2020
3313 Clouds 10 1020 76 0 2.1 100 20:20 03.02.2020
3314 Clouds 10 1020 71 0 2.6 120 19:59 03.02.2020
3315 Clouds 11 1020 71 0 2.6 120 19:40 03.02.2020
3316 Clouds 10 1020 76 0 2.1 80 19:21 03.02.2020
3317 Clouds 10 1020 58 0 1.5 0 18:57 03.02.2020
3318 Clouds 11 1014 32 0 2.1 120 18:38 03.02.2020
3319 Clouds 10 1020 54 0 4.1 260 18:20 03.02.2020
3320 Clouds 10 1021 51 0 5.1 280 17:55 03.02.2020
3321 Rain 9 1020 45 10000 8.7 250 17:36 03.02.2020
3322 Rain 10 1020 45 10000 8.7 250 17:18 03.02.2020
3323 Rain 10 1020 45 10000 8.7 250 17:18 03.02.2020
3324 Rain 10 1021 87 10000 1.5 130 16:40 03.02.2020
3325 Rain 10 1021 87 10000 1.5 130 16:40 03.02.2020
3326 Clouds 9 1021 93 10000 1 0 16:21 03.02.2020
3327 Clouds 9 1021 93 10000 1 0 16:21 03.02.2020
3328 Rain 9 1021 100 10000 1 0 15:56 03.02.2020
3329 Rain 9 1021 100 10000 1 0 15:56 03.02.2020
3330 Rain 10 1019 55 10000 10.3 250 15:38 03.02.2020
3331 Rain 10 1019 55 10000 10.3 250 15:19 03.02.2020
3332 Clouds 10 1019 71 10000 4.1 50 14:45 03.02.2020
3333 Clouds 10 1021 100 10000 1 0 14:27 03.02.2020
3334 Rain 9 1021 93 0 1 0 13:58 03.02.2020
3335 Rain 9 1014 62 10000 3.1 0 13:40 03.02.2020
3336 Rain 9 1021 93 0 4.96 314 13:19 03.02.2020
3337 Rain 10 1022 93 0 1 0 12:56 03.02.2020
3338 Rain 10 1014 62 0 2.1 0 12:37 03.02.2020
3339 Rain 10 1014 62 0 2.1 0 12:37 03.02.2020
3340 Rain 10 1021 93 0 2.1 110 12:19 03.02.2020
3341 Rain 9 1021 93 10000 1.5 90 11:39 03.02.2020
3342 Rain 8 1021 93 9000 1.5 90 11:19 03.02.2020
3343 Rain 8 1021 93 9000 1.5 90 11:19 03.02.2020
3344 Rain 8 1021 93 7000 1 0 10:58 03.02.2020
3345 Rain 8 1021 93 7000 1 0 10:38 03.02.2020
3346 Rain 8 1021 100 10000 2.6 90 10:20 03.02.2020
3347 Rain 8 1020 100 9000 1.5 100 09:39 03.02.2020
3348 Rain 8 1020 100 10000 5.34 316 09:20 03.02.2020
3349 Rain 9 1020 93 10000 1 0 08:41 03.02.2020
3350 Rain 9 1020 93 10000 1 0 08:41 03.02.2020
3351 Rain 7 1019 93 10000 1.5 0 08:23 03.02.2020
3352 Rain 8 1020 100 10000 2.1 120 07:57 03.02.2020
3353 Rain 8 1020 100 10000 2.1 120 07:39 03.02.2020
3354 Rain 8 1020 100 0 2.1 100 07:20 03.02.2020
3355 Rain 8 1021 93 0 2.1 100 06:42 03.02.2020
3356 Rain 8 1021 93 0 1.5 100 06:24 03.02.2020
3357 Rain 8 1016 93 0 1.5 0 05:35 03.02.2020
3358 Rain 8 1021 100 0 1.5 120 04:50 03.02.2020
3359 Rain 8 1022 100 0 3.1 100 02:58 03.02.2020
3360 Rain 8 1018 100 0 1 0 02:32 03.02.2020
3361 Rain 8 1021 100 0 1 0 00:55 03.02.2020
3362 Rain 8 1018 81 0 1.5 340 00:36 03.02.2020
3363 Rain 8 1021 100 0 1.5 290 00:18 03.02.2020
3364 Rain 7 1018 100 0 1 0 23:37 02.02.2020
3365 Rain 8 1021 100 0 3.6 90 23:18 02.02.2020
3366 Rain 8 1022 100 0 0.5 0 22:40 02.02.2020
3367 Rain 8 1022 100 0 1 0 22:22 02.02.2020
3368 Rain 7 1022 100 0 3 299 21:59 02.02.2020
3369 Rain 8 1022 100 0 3 299 21:39 02.02.2020
3370 Rain 7 1021 100 0 3 299 21:21 02.02.2020
3371 Rain 7 1021 100 0 1 0 20:58 02.02.2020
3372 Rain 8 1021 100 0 1 0 20:39 02.02.2020
3373 Rain 7 1021 100 0 0.5 0 20:20 02.02.2020
3374 Rain 8 1021 100 0 1 0 19:59 02.02.2020
3375 Rain 8 1021 100 0 1 0 19:41 02.02.2020
3376 Rain 8 1021 100 0 3.64 311 19:22 02.02.2020
3377 Rain 8 1021 100 0 3.64 311 18:56 02.02.2020
3378 Rain 8 1018 75 0 1 90 18:37 02.02.2020
3379 Rain 8 1021 93 0 3.64 311 18:19 02.02.2020
3380 Rain 8 1021 100 0 0.5 0 17:57 02.02.2020
3381 Rain 8 1018 61 0 3.64 311 17:37 02.02.2020
3382 Rain 8 1020 100 0 1 0 17:18 02.02.2020
3383 Rain 8 1020 100 0 1 0 16:57 02.02.2020
3384 Rain 8 1017 62 0 2.1 240 16:38 02.02.2020
3385 Rain 8 1020 100 0 3.52 309 16:18 02.02.2020
3386 Rain 8 1020 100 0 3.52 309 15:56 02.02.2020
3387 Rain 8 1017 62 0 2.1 240 15:37 02.02.2020
3388 Rain 8 1019 100 0 1 0 15:19 02.02.2020
3389 Rain 8 1019 100 0 1 0 14:44 02.02.2020
3390 Rain 8 1020 100 0 1 0 14:19 02.02.2020
3391 Rain 8 1019 100 0 0.5 0 13:59 02.02.2020
3392 Rain 8 1019 100 0 0.5 0 13:41 02.02.2020
3393 Rain 8 1020 93 0 1 0 13:21 02.02.2020
3394 Rain 8 1020 93 0 1 0 13:21 02.02.2020
3395 Rain 8 1020 93 0 2.44 253 12:56 02.02.2020
3396 Rain 8 1019 66 0 0.5 0 12:38 02.02.2020
3397 Rain 8 1020 93 0 2.1 120 12:19 02.02.2020
3398 Rain 7 1020 93 0 1.5 130 11:42 02.02.2020
3399 Rain 7 1019 93 0 2.6 300 11:19 02.02.2020
3400 Rain 7 1018 87 0 1 0 10:58 02.02.2020
3401 Rain 7 1018 87 0 1 0 10:39 02.02.2020
3402 Clouds 6 1018 93 0 1 0 10:21 02.02.2020
3403 Clouds 6 1019 93 0 1 0 09:57 02.02.2020
3404 Clouds 6 1019 93 0 1 0 09:39 02.02.2020
3405 Clouds 5 1019 93 0 1.5 80 09:20 02.02.2020
3406 Clouds 5 1019 100 0 2.1 120 08:45 02.02.2020
3407 Clouds 5 1020 93 0 3.07 283 08:26 02.02.2020
3408 Clouds 5 1019 93 0 1 0 07:48 02.02.2020
3409 Clouds 5 1019 93 0 2.1 100 07:30 02.02.2020
3410 Clouds 5 1019 93 0 3.14 311 06:46 02.02.2020
3411 Clouds 5 1019 93 0 0.5 0 06:28 02.02.2020
3412 Clouds 5 1020 93 0 1 0 05:53 02.02.2020
3413 Clouds 5 1020 81 0 2.6 100 04:58 02.02.2020
3414 Clouds 5 1021 87 0 2.1 90 03:41 02.02.2020
3415 Rain 5 1020 93 0 1 0 02:42 02.02.2020
3416 Clouds 6 1020 93 0 0.5 0 01:57 02.02.2020
3417 Snow 6 1018 96 0 1 0 01:36 02.02.2020
3418 Clouds 6 1020 93 0 2.1 0 00:49 02.02.2020
3419 Rain 5 1020 93 0 1 0 00:24 02.02.2020
3420 Rain 5 1019 93 0 0.5 0 23:55 01.02.2020
3421 Snow 5 1019 100 0 0.5 0 23:36 01.02.2020
3422 Clouds 6 1020 100 0 3.09 314 23:18 01.02.2020
3423 Clouds 6 1019 93 0 2.1 70 22:42 01.02.2020
3424 Clouds 6 1019 93 0 2.1 70 22:42 01.02.2020
3425 Rain 6 1019 100 0 2.6 120 22:18 01.02.2020
3426 Rain 6 1018 100 0 2.1 0 21:39 01.02.2020
3427 Rain 6 1018 93 0 1.5 0 21:19 01.02.2020
3428 Rain 6 1017 100 0 2.1 140 20:42 01.02.2020
3429 Rain 7 1017 100 0 2.1 90 20:21 01.02.2020
3430 Rain 7 1017 100 0 2.1 90 20:21 01.02.2020
3431 Rain 6 1017 100 0 1 0 19:58 01.02.2020
3432 Rain 7 1017 100 0 1 0 19:39 01.02.2020
3433 Rain 7 1016 100 0 1 0 19:20 01.02.2020
3434 Rain 7 1016 93 0 1 0 18:59 01.02.2020
3435 Rain 7 1016 93 0 1 0 18:41 01.02.2020
3436 Rain 7 1016 93 0 2.1 90 18:23 01.02.2020
3437 Rain 7 1016 93 0 2.1 110 17:58 01.02.2020
3438 Rain 7 1016 93 0 2.1 110 17:40 01.02.2020
3439 Rain 8 1015 87 0 1.37 279 17:20 01.02.2020
3440 Rain 9 1015 81 0 1 0 16:57 01.02.2020
3441 Rain 8 1017 81 0 1.5 220 16:38 01.02.2020
3442 Clouds 8 1014 81 10000 1 0 16:20 01.02.2020
3443 Clouds 8 1014 81 0 0.5 0 15:42 01.02.2020
3444 Clouds 9 1015 75 0 1.5 190 15:24 01.02.2020
3445 Clouds 9 1014 81 0 2.6 100 14:57 01.02.2020
3446 Clouds 9 1014 81 0 2.6 100 14:38 01.02.2020
3447 Clouds 9 1014 81 0 1.5 80 14:20 01.02.2020
3448 Clouds 9 1014 75 0 1 0 13:43 01.02.2020
3449 Clouds 9 1014 81 0 2.6 90 13:20 01.02.2020
3450 Clouds 9 1014 81 0 3.1 260 12:44 01.02.2020
3451 Clouds 9 1014 87 0 2.1 290 12:25 01.02.2020
3452 Clouds 8 1014 93 0 3.1 250 11:56 01.02.2020
3453 Clouds 8 1020 93 0 2.86 183 11:37 01.02.2020
3454 Clouds 8 1013 76 10000 1 0 11:18 01.02.2020
3455 Clouds 7 1014 86 0 1.5 160 10:55 01.02.2020
3456 Clouds 5 1020 100 0 1.5 80 10:37 01.02.2020
3457 Clouds 5 1014 93 0 1.5 90 10:18 01.02.2020
3458 Clouds 4 1015 97 0 1 0 09:41 01.02.2020
3459 Clouds 3 1015 97 0 0.5 0 09:22 01.02.2020
3460 Clouds 3 1015 97 0 3.1 110 08:59 01.02.2020
3461 Clouds 3 1020 100 0 0.5 250 08:36 01.02.2020
3462 Clouds 3 1016 95 0 2.1 110 07:46 01.02.2020
3463 Clouds 2 1015 95 0 2.6 90 07:25 01.02.2020
3464 Clouds 2 1016 95 0 1 0 06:49 01.02.2020
3465 Clouds 3 1015 100 0 2.1 320 05:55 01.02.2020
3466 Clouds 3 1020 100 0 1 0 05:37 01.02.2020
3467 Clear 3 1017 100 0 2.1 90 03:39 01.02.2020
3468 Clouds 3 1017 100 0 1.5 100 03:18 01.02.2020
3469 Clouds 3 1018 100 0 1.5 300 02:41 01.02.2020
3470 Clouds 4 1018 93 0 1.88 240 02:21 01.02.2020
3471 Clouds 4 1018 100 0 1.88 240 01:47 01.02.2020
3472 Clouds 4 1018 87 10000 1 0 01:27 01.02.2020
3473 Clouds 4 1018 83 0 1.5 90 00:24 01.02.2020
3474 Clouds 4 1019 100 0 1 0 23:42 31.01.2020
3475 Mist 4 1019 79 0 1.44 269 23:19 31.01.2020
3476 Clouds 5 1019 79 0 1.44 269 22:57 31.01.2020
3477 Clouds 4 1019 79 0 1.44 269 22:39 31.01.2020
3478 Clouds 4 1019 79 0 1.5 90 22:21 31.01.2020
3479 Fog 5 1019 100 0 1.44 269 21:55 31.01.2020
3480 Clouds 5 1020 79 0 1.44 269 21:37 31.01.2020
3481 Fog 5 1018 79 0 1.44 269 21:18 31.01.2020
3482 Mist 5 1018 100 0 1 70 20:55 31.01.2020
3483 Clouds 5 1018 81 10000 1 0 20:37 31.01.2020
3484 Clouds 5 1018 81 10000 1 0 20:18 31.01.2020
3485 Mist 5 1018 100 0 2.39 325 19:42 31.01.2020
3486 Mist 5 1018 93 0 0.5 0 19:24 31.01.2020
3487 Mist 5 1018 93 0 0.5 0 19:24 31.01.2020
3488 Fog 6 1017 100 0 2.39 325 18:58 31.01.2020
3489 Fog 6 1017 100 0 2.39 325 18:38 31.01.2020
3490 Fog 6 1017 100 0 2.39 325 18:20 31.01.2020
3491 Clouds 7 1017 81 10000 0.5 0 17:44 31.01.2020
3492 Mist 7 1017 100 0 1 0 17:26 31.01.2020
3493 Fog 8 1017 100 0 0.5 0 16:57 31.01.2020
3494 Fog 8 1017 100 0 0.5 0 16:38 31.01.2020
3495 Fog 9 1018 93 10000 2.71 327 16:19 31.01.2020
3496 Clouds 9 1018 100 10000 0.5 0 15:57 31.01.2020
3497 Clouds 9 1018 100 10000 0.5 0 15:39 31.01.2020
3498 Clouds 10 1017 71 10000 1.5 0 15:20 31.01.2020
3499 Clouds 10 1017 76 10000 3.1 100 14:43 31.01.2020
3500 Mist 9 1018 93 10000 2.71 327 14:24 31.01.2020
3501 Fog 9 1018 87 10000 0.5 0 13:55 31.01.2020
3502 Clouds 10 1018 50 10000 0.5 0 13:36 31.01.2020
3503 Clouds 9 1019 87 0 1 0 12:59 31.01.2020
3504 Clouds 8 1019 57 0 1.5 220 12:41 31.01.2020
3505 Clouds 8 1020 93 10000 1 0 12:22 31.01.2020
3506 Clouds 8 1020 93 10000 2.57 328 11:46 31.01.2020
3507 Rain 7 1020 100 10000 1.5 140 11:26 31.01.2020
3508 Rain 6 1020 100 10000 3.09 329 10:59 31.01.2020
3509 Rain 6 1020 100 10000 3.09 329 10:41 31.01.2020
3510 Clouds 5 1019 93 10000 1 0 10:21 31.01.2020
3511 Mist 5 1019 93 5000 3.09 329 09:57 31.01.2020
3512 Mist 5 1019 93 5000 3.09 329 09:39 31.01.2020
3513 Clouds 5 1020 100 10000 1.5 50 09:39 31.01.2020
3514 Mist 4 1019 100 4000 1 0 09:19 31.01.2020
3515 Mist 4 1019 100 4000 1 0 09:19 31.01.2020
3516 Clouds 4 1018 100 10000 1 0 08:52 31.01.2020
3517 Mist 4 1019 93 3100 1 0 08:27 31.01.2020
3518 Clouds 4 1018 100 10000 1.5 190 07:53 31.01.2020
3519 Mist 4 1018 93 2100 3.58 328 07:25 31.01.2020
3520 Mist 4 1018 100 0 0.5 0 06:49 31.01.2020
3521 Mist 4 1018 100 0 1.5 80 06:19 31.01.2020
3522 Rain 3 1018 93 0 1 0 05:48 31.01.2020
3523 Rain 3 1018 100 0 2.79 314 04:56 31.01.2020
3524 Rain 4 1018 93 0 2.79 314 02:58 31.01.2020
3525 Rain 4 1018 100 0 2.02 305 01:39 31.01.2020
3526 Rain 4 1018 100 0 1.5 70 00:46 31.01.2020
3527 Rain 3 1018 100 0 2.1 130 00:27 31.01.2020
3528 Rain 4 1018 93 0 2.1 110 23:57 30.01.2020
3529 Rain 4 1018 93 0 2.6 110 23:25 30.01.2020
3530 Rain 4 1018 93 0 1 0 22:57 30.01.2020
3531 Rain 4 1020 80 0 1 0 22:37 30.01.2020
3532 Rain 4 1017 93 0 2.6 230 22:18 30.01.2020
3533 Rain 4 1017 93 0 2.6 230 22:18 30.01.2020
3534 Rain 4 1017 93 0 1.29 278 21:57 30.01.2020
3535 Rain 4 1020 65 0 1.5 40 21:38 30.01.2020
3536 Rain 4 1020 65 0 1.5 40 21:38 30.01.2020
3537 Rain 4 1017 93 0 1 0 21:18 30.01.2020
3538 Rain 4 1019 94 0 1 0 20:41 30.01.2020
3539 Rain 4 1018 86 0 1.5 110 20:22 30.01.2020
3540 Rain 4 1017 86 0 0.5 0 19:57 30.01.2020
3541 Rain 5 1019 65 0 1 0 19:39 30.01.2020
3542 Rain 4 1017 80 0 1.5 0 19:19 30.01.2020
3543 Clouds 4 1018 65 0 1.5 270 18:42 30.01.2020
3544 Clouds 4 1015 80 0 1.5 310 18:22 30.01.2020
3545 Clouds 4 1015 86 0 2.1 240 17:58 30.01.2020
3546 Clouds 4 1018 55 0 1 0 17:39 30.01.2020
3547 Clouds 4 1015 80 10000 1 0 17:19 30.01.2020
3548 Clouds 5 1015 80 10000 1 0 16:56 30.01.2020
3549 Clouds 5 1015 75 10000 1.87 184 16:38 30.01.2020
3550 Clouds 5 1015 75 10000 1.87 184 16:20 30.01.2020
3551 Clouds 5 1015 68 10000 1.5 0 15:43 30.01.2020
3552 Clouds 6 1015 75 10000 1 0 15:20 30.01.2020
3553 Clouds 5 1016 75 10000 1.87 184 14:50 30.01.2020
3554 Clouds 5 1016 75 10000 1.87 184 14:50 30.01.2020
3555 Clouds 6 1016 69 10000 0.5 0 14:27 30.01.2020
3556 Clouds 6 1017 67 10000 1 0 13:57 30.01.2020
3557 Clouds 5 1019 46 10000 1 0 13:38 30.01.2020
3558 Clouds 6 1017 67 10000 1 0 13:38 30.01.2020
3559 Clouds 5 1017 62 0 0.5 0 13:19 30.01.2020
3560 Clouds 6 1018 69 0 2.29 186 12:43 30.01.2020
3561 Clouds 5 1018 74 0 0.5 150 12:24 30.01.2020
3562 Clouds 4 1018 62 10000 2.29 186 11:58 30.01.2020
3563 Clouds 4 1018 62 10000 2.29 186 11:40 30.01.2020
3564 Clouds 3 1019 86 10000 1.33 299 11:21 30.01.2020
3565 Clouds 2 1019 60 10000 1.33 299 10:42 30.01.2020
3566 Clouds 1 1019 60 10000 1 0 10:24 30.01.2020
3567 Clouds 1 1019 92 10000 1 0 09:49 30.01.2020
3568 Clouds 1 1019 92 10000 1 0 09:49 30.01.2020
3569 Clouds 0 1019 60 10000 2.1 240 09:30 30.01.2020
3570 Clouds 0 1019 100 10000 1 0 08:59 30.01.2020
3571 Clouds 0 1019 100 10000 1 0 08:41 30.01.2020
3572 Clouds -1 1019 92 10000 1 0 08:20 30.01.2020
3573 Clouds 0 1019 92 10000 1 0 07:52 30.01.2020
3574 Clouds 0 1019 92 10000 1 0 07:52 30.01.2020
3575 Clouds 0 1019 74 10000 3.25 320 07:32 30.01.2020
3576 Clouds 0 1019 92 0 1 0 06:47 30.01.2020
3577 Clouds -1 1020 100 0 0.5 0 06:29 30.01.2020
3578 Clouds -1 1020 100 0 1 0 05:47 30.01.2020
3579 Clouds -1 1020 100 0 1 0 05:24 30.01.2020
3580 Clouds -1 1021 92 0 3.65 321 03:55 30.01.2020
3581 Clouds -1 1021 92 0 0.5 0 03:37 30.01.2020
3582 Clouds -1 1021 100 0 3.65 321 02:47 30.01.2020
3583 Clouds 0 1021 73 0 1.5 110 00:43 30.01.2020
3584 Clouds 0 1020 73 0 2.1 70 00:21 30.01.2020
3585 Clouds 1 1020 73 0 0.5 0 23:47 29.01.2020
3586 Clouds 1 1020 73 0 0.5 0 23:47 29.01.2020
3587 Clouds 1 1019 86 0 3.73 312 23:22 29.01.2020
3588 Clouds 1 1019 80 0 2.1 100 22:58 29.01.2020
3589 Clouds 1 1018 90 0 5.7 290 22:39 29.01.2020
3590 Clouds 1 1018 90 0 5.7 290 22:19 29.01.2020
3591 Clouds 1 1018 75 0 6.2 290 21:58 29.01.2020
3592 Clouds 1 1018 75 0 6.2 290 21:39 29.01.2020
3593 Clouds 1 1019 75 0 5.7 280 21:19 29.01.2020
3594 Rain 1 1018 80 0 7.7 270 20:58 29.01.2020
3595 Rain 2 1018 75 0 5.7 260 20:38 29.01.2020
3596 Rain 2 1018 75 0 5.7 260 20:20 29.01.2020
3597 Rain 2 1018 70 0 7.2 280 19:56 29.01.2020
3598 Rain 1 1017 70 0 7.2 280 19:37 29.01.2020
3599 Rain 1 1017 70 0 7.2 280 19:19 29.01.2020
3600 Rain 1 1017 75 0 6.7 280 18:47 29.01.2020
3601 Rain 2 1016 94 0 5.7 280 18:20 29.01.2020
3602 Rain 1 1016 75 0 5.1 260 17:58 29.01.2020
3603 Rain 1 1016 80 0 6.2 250 17:39 29.01.2020
3604 Rain 2 1016 80 0 6.2 250 17:21 29.01.2020
3605 Rain 2 1016 80 0 4.6 240 16:41 29.01.2020
3606 Rain 2 1016 80 10000 4.1 240 16:23 29.01.2020
3607 Rain 2 1015 86 10000 5.1 240 15:56 29.01.2020
3608 Rain 2 1012 93 10000 5.1 130 15:37 29.01.2020
3609 Rain 2 1015 86 10000 5.1 240 15:19 29.01.2020
3610 Rain 2 1014 86 10000 4.6 230 14:43 29.01.2020
3611 Rain 1 1014 86 10000 5.7 240 14:21 29.01.2020
3612 Rain 1 1014 86 10000 5.7 240 13:55 29.01.2020
3613 Rain 1 1014 86 0 4.6 260 13:37 29.01.2020
3614 Rain 1 1014 86 0 4.6 260 13:19 29.01.2020
3615 Rain 1 1015 86 0 4.1 250 12:55 29.01.2020
3616 Rain 1 1015 86 8000 4.1 250 12:37 29.01.2020
3617 Rain 1 1015 86 8000 4.1 250 12:18 29.01.2020
3618 Rain 1 1015 86 6000 4.6 260 11:45 29.01.2020
3619 Rain 1 1014 86 6000 4.6 250 11:21 29.01.2020
3620 Rain 1 1014 86 7000 6.2 290 10:47 29.01.2020
3621 Rain 1 1014 86 10000 4.6 230 10:26 29.01.2020
3622 Rain 0 1013 80 10000 5.7 300 09:58 29.01.2020
3623 Rain 0 1013 80 10000 5.7 300 09:40 29.01.2020
3624 Rain 0 1013 80 10000 5.7 300 09:20 29.01.2020
3625 Rain 0 1014 86 10000 2.1 200 08:56 29.01.2020
3626 Rain 0 1011 100 10000 3.1 90 08:37 29.01.2020
3627 Rain 1 1013 93 7000 3.1 250 08:18 29.01.2020
3628 Rain 1 1012 86 0 7.7 310 07:43 29.01.2020
3629 Rain 0 1011 86 0 6.7 300 07:21 29.01.2020
3630 Rain 0 1010 100 0 2.6 70 06:38 29.01.2020
3631 Rain 0 1011 80 0 7.2 290 06:19 29.01.2020
3632 Rain 0 1010 95 0 9.8 270 05:52 29.01.2020
3633 Rain 0 1010 100 0 3.1 80 05:33 29.01.2020
3634 Rain 1 1009 75 0 9.8 300 04:39 29.01.2020
3635 Rain 1 1009 75 0 9.8 300 04:39 29.01.2020
3636 Rain 1 1009 80 0 3.6 240 03:59 29.01.2020
3637 Rain 1 1009 80 0 3.6 90 02:34 29.01.2020
3638 Rain 1 1009 95 0 1 0 01:18 29.01.2020
3639 Rain 1 1009 95 0 1 0 01:18 29.01.2020
3640 Rain 1 1009 95 0 2.34 255 00:39 29.01.2020
3641 Rain 1 1009 95 0 2.6 250 00:20 29.01.2020
3642 Rain 1 1009 95 0 3.6 250 23:40 28.01.2020
3643 Rain 1 1009 69 0 6.2 300 23:20 28.01.2020
3644 Rain 1 1009 52 10000 6.7 240 22:51 28.01.2020
3645 Rain 1 1009 56 0 4.6 280 22:27 28.01.2020
3646 Clouds 1 1009 52 0 6.2 300 21:58 28.01.2020
3647 Clouds 1 1009 52 0 6.2 300 21:39 28.01.2020
3648 Clouds 1 1010 52 0 6.2 300 21:20 28.01.2020
3649 Clouds 1 1010 52 0 5.7 290 20:46 28.01.2020
3650 Rain 1 1010 52 0 6.7 290 20:26 28.01.2020
3651 Rain 1 1009 52 0 7.2 280 19:56 28.01.2020
3652 Clouds 1 1008 75 0 2.6 110 19:37 28.01.2020
3653 Clouds 1 1009 45 0 10.3 270 19:19 28.01.2020
3654 Clouds 1 1009 52 0 9.8 270 18:54 28.01.2020
3655 Clouds 1 1007 93 0 1.5 50 18:36 28.01.2020
3656 Clouds 1 1008 69 0 3.6 240 18:18 28.01.2020
3657 Clouds 1 1008 69 0 4.1 230 17:54 28.01.2020
3658 Clouds 1 1007 100 0 3.1 80 17:36 28.01.2020
3659 Clouds 1 1008 69 0 9.3 320 17:18 28.01.2020
3660 Rain 2 1008 69 0 8.7 290 16:44 28.01.2020
3661 Rain 3 1008 56 0 12.9 260 16:25 28.01.2020
3662 Rain 2 1008 56 0 14.4 260 15:57 28.01.2020
3663 Rain 3 1008 56 0 14.4 260 15:38 28.01.2020
3664 Rain 2 1005 100 7000 2.6 100 15:18 28.01.2020
3665 Rain 2 1008 86 0 6.7 300 14:44 28.01.2020
3666 Rain 3 1008 86 0 3.1 260 14:20 28.01.2020
3667 Rain 3 1008 86 0 3.1 230 13:42 28.01.2020
3668 Rain 3 1008 95 0 6.2 290 13:24 28.01.2020
3669 Rain 2 1009 95 0 8.2 280 12:45 28.01.2020
3670 Rain 3 1009 80 0 8.7 300 12:25 28.01.2020
3671 Rain 2 1008 95 0 7.7 280 11:59 28.01.2020
3672 Rain 2 1008 95 0 7.7 280 11:41 28.01.2020
3673 Rain 3 1006 75 4000 11.3 260 11:22 28.01.2020
3674 Clouds 3 1003 94 10000 2.1 280 10:55 28.01.2020
3675 Rain 3 1009 100 5000 2.67 209 10:36 28.01.2020
3676 Rain 4 1003 93 10000 0.5 0 10:18 28.01.2020
3677 Clouds 4 1004 86 10000 3.1 130 09:41 28.01.2020
3678 Rain 3 1004 93 10000 1 0 09:20 28.01.2020
3679 Rain 3 1004 93 10000 1 0 09:20 28.01.2020
3680 Rain 3 1004 93 10000 1 0 09:20 28.01.2020
3681 Rain 3 1004 93 10000 2.6 90 08:45 28.01.2020
3682 Rain 3 1004 93 10000 1.5 80 08:26 28.01.2020
3683 Rain 2 1004 93 10000 0.5 0 07:53 28.01.2020
3684 Rain 2 1004 100 0 1 0 07:31 28.01.2020
3685 Rain 3 1004 100 0 1 0 06:47 28.01.2020
3686 Clouds 3 1004 93 0 2.1 70 06:24 28.01.2020
3687 Rain 3 1005 100 0 0.5 0 05:38 28.01.2020
3688 Rain 3 1006 93 0 1.5 100 05:20 28.01.2020
3689 Rain 3 1007 93 0 2.6 110 03:49 28.01.2020
3690 Clouds 3 1007 93 0 2.1 250 02:46 28.01.2020
3691 Clouds 3 1007 93 0 2.1 250 02:46 28.01.2020
3692 Clouds 3 1007 93 0 3.6 110 02:25 28.01.2020
3693 Rain 3 1008 93 0 1.5 110 01:53 28.01.2020
3694 Rain 3 1008 93 0 3.52 186 01:20 28.01.2020
3695 Clouds 3 1008 93 0 3.52 186 00:43 28.01.2020
3696 Rain 4 1009 93 0 1 140 00:19 28.01.2020
3697 Rain 3 1010 100 0 2.6 80 23:43 27.01.2020
3698 Rain 3 1010 86 0 1 0 23:19 27.01.2020
3699 Rain 3 1010 93 10000 3.6 230 22:45 27.01.2020
3700 Rain 3 1010 96 10000 3.1 260 22:20 27.01.2020
3701 Rain 3 1010 96 10000 3.1 260 22:20 27.01.2020
3702 Clouds 3 1010 96 0 2.1 270 21:57 27.01.2020
3703 Clouds 3 1010 96 0 2.1 270 21:57 27.01.2020
3704 Clouds 3 1010 96 0 2.1 270 21:39 27.01.2020
3705 Clouds 3 1010 96 10000 1 0 21:19 27.01.2020
3706 Clouds 3 1010 96 10000 0.5 0 20:57 27.01.2020
3707 Clouds 3 1016 96 0 0.5 0 20:37 27.01.2020
3708 Clouds 3 1010 99 10000 3.26 174 20:19 27.01.2020
3709 Clouds 3 1010 99 10000 3.31 172 19:55 27.01.2020
3710 Clouds 3 1016 74 0 3.31 172 19:37 27.01.2020
3711 Clouds 3 1010 99 10000 3.31 172 19:19 27.01.2020
3712 Clouds 4 1011 99 10000 1 0 18:39 27.01.2020
3713 Clouds 4 1011 99 10000 3.31 172 18:21 27.01.2020
3714 Clouds 4 1011 99 0 2.6 100 17:57 27.01.2020
3715 Clouds 4 1011 99 0 2.6 100 17:57 27.01.2020
3716 Clouds 5 1016 99 0 1 0 17:38 27.01.2020
3717 Clouds 5 1017 92 0 1.5 230 17:18 27.01.2020
3718 Clouds 6 1012 75 10000 0.5 0 16:55 27.01.2020
3719 Clouds 6 1017 92 10000 1 0 16:36 27.01.2020
3720 Clouds 6 1017 92 10000 1 0 16:36 27.01.2020
3721 Clouds 6 1012 75 10000 2.1 250 16:18 27.01.2020
3722 Clouds 5 1013 75 10000 3.6 250 15:41 27.01.2020
3723 Clouds 5 1013 92 10000 1.5 290 15:20 27.01.2020
3724 Clouds 5 1013 70 10000 1.5 40 14:57 27.01.2020
3725 Clouds 5 1013 70 10000 1.5 40 14:39 27.01.2020
3726 Clouds 6 1013 80 10000 1.5 250 14:20 27.01.2020
3727 Clouds 6 1014 81 10000 3.34 172 13:42 27.01.2020
3728 Clouds 6 1014 81 0 0.5 0 13:22 27.01.2020
3729 Clouds 6 1015 80 0 1 0 12:57 27.01.2020
3730 Clouds 6 1015 80 0 1 0 12:57 27.01.2020
3731 Clouds 6 1015 80 0 1 0 12:57 27.01.2020
3732 Clouds 6 1015 80 0 1 0 12:39 27.01.2020
3733 Clouds 5 1015 80 10000 1 0 12:20 27.01.2020
3734 Clouds 4 1016 80 10000 1.5 270 11:42 27.01.2020
3735 Clouds 3 1016 92 10000 1 0 11:21 27.01.2020
3736 Clouds 2 1017 92 10000 1 0 10:56 27.01.2020
3737 Clouds 1 1020 77 10000 0.5 0 10:37 27.01.2020
3738 Clouds 0 1017 86 10000 1 0 10:18 27.01.2020
3739 Clouds 0 1020 100 10000 1.67 222 09:39 27.01.2020
3740 Clouds 0 1018 92 10000 3.1 100 09:19 27.01.2020
3741 Clouds -1 1018 100 10000 1 0 08:48 27.01.2020
3742 Clear -1 1018 92 10000 2.1 0 08:23 27.01.2020
3743 Clouds -1 1018 92 10000 2.1 80 07:56 27.01.2020
3744 Clouds -1 1020 100 10000 0.5 0 07:37 27.01.2020
3745 Clouds -1 1019 92 10000 1 0 07:19 27.01.2020
3746 Clouds 0 1020 100 0 0.5 0 06:37 27.01.2020
3747 Clouds 0 1019 86 0 2.6 90 05:38 27.01.2020
3748 Clouds 0 1019 86 0 2.6 90 05:38 27.01.2020
3749 Clouds 0 1020 100 0 1 90 04:37 27.01.2020
3750 Clouds 0 1020 100 0 1 90 03:35 27.01.2020
3751 Clouds 1 1019 90 0 1 0 01:47 27.01.2020
3752 Clouds 1 1020 88 0 2.6 120 01:22 27.01.2020
3753 Clouds 1 1020 80 0 2.6 120 00:40 27.01.2020
3754 Clouds 1 1020 88 0 2.1 90 00:21 27.01.2020
3755 Clouds 1 1020 88 0 2.1 100 23:43 26.01.2020
3756 Clouds 1 1020 91 0 1.5 100 23:21 26.01.2020
3757 Clouds 1 1020 91 0 1.76 324 22:58 26.01.2020
3758 Clouds 1 1020 91 0 1.76 324 22:38 26.01.2020
3759 Clouds 1 1019 91 0 1.5 280 22:20 26.01.2020
3760 Clouds 2 1019 86 0 1.76 324 21:57 26.01.2020
3761 Clouds 1 1019 86 0 1.76 324 21:39 26.01.2020
3762 Clouds 2 1020 91 0 1.5 90 21:20 26.01.2020
3763 Rain 2 1020 91 0 1.5 0 20:57 26.01.2020
3764 Rain 2 1020 91 0 1.5 0 20:38 26.01.2020
3765 Rain 2 1020 92 0 3.1 100 20:19 26.01.2020
3766 Rain 2 1020 92 0 3.1 100 20:19 26.01.2020
3767 Rain 2 1020 92 0 1.46 345 19:57 26.01.2020
3768 Clouds 2 1020 80 0 1.46 345 19:38 26.01.2020
3769 Clouds 2 1020 92 0 1 0 19:18 26.01.2020
3770 Clouds 2 1019 92 0 0.5 0 18:54 26.01.2020
3771 Clouds 2 1019 92 0 1 0 18:36 26.01.2020
3772 Clouds 2 1019 92 0 1 120 18:18 26.01.2020
3773 Clouds 2 1019 92 0 1 120 18:18 26.01.2020
3774 Clouds 2 1019 92 0 1.5 100 17:54 26.01.2020
3775 Clouds 3 1019 92 0 1.46 345 17:36 26.01.2020
3776 Clouds 3 1019 89 0 2.1 90 17:18 26.01.2020
3777 Clouds 3 1019 75 0 1.5 310 16:54 26.01.2020
3778 Clouds 4 1019 65 0 1.5 240 16:36 26.01.2020
3779 Clouds 4 1019 75 0 4.1 240 16:18 26.01.2020
3780 Clouds 4 1019 89 0 1.5 240 15:41 26.01.2020
3781 Clouds 4 1020 52 0 2.1 240 15:19 26.01.2020
3782 Clouds 4 1020 52 0 2.1 240 14:41 26.01.2020
3783 Clouds 4 1020 52 0 2.1 230 14:23 26.01.2020
3784 Clouds 4 1020 52 0 2.1 230 13:59 26.01.2020
3785 Clouds 4 1020 52 0 2.1 230 13:59 26.01.2020
3786 Clouds 4 1021 52 0 1 0 13:38 26.01.2020
3787 Clouds 4 1021 52 0 1 0 13:18 26.01.2020
3788 Clouds 5 1021 52 0 0.5 0 12:43 26.01.2020
3789 Clouds 4 1021 52 0 0.5 0 12:24 26.01.2020
3790 Clouds 5 1022 56 0 0.5 0 11:58 26.01.2020
3791 Clouds 4 1022 86 0 1.62 168 11:40 26.01.2020
3792 Clouds 2 1022 86 0 0.4 219 11:19 26.01.2020
3793 Clouds 2 1022 86 0 0.4 219 10:59 26.01.2020
3794 Clouds 2 1022 86 0 0.4 219 10:39 26.01.2020
3795 Clouds 1 1020 92 0 0.4 219 10:21 26.01.2020
3796 Clouds 0 1020 86 0 2.1 100 09:58 26.01.2020
3797 Clouds 0 1020 86 0 2.1 100 09:40 26.01.2020
3798 Clouds -1 1020 92 0 1 90 09:21 26.01.2020
3799 Clouds -1 1020 92 0 0.4 219 08:45 26.01.2020
3800 Clouds -1 1020 92 0 1 0 08:23 26.01.2020
3801 Clouds -1 1020 92 0 0.97 321 07:58 26.01.2020
3802 Clouds -1 1020 92 0 0.97 321 07:40 26.01.2020
3803 Clouds -1 1019 92 0 0.97 321 07:22 26.01.2020
3804 Clouds -1 1022 87 0 0.97 321 06:32 26.01.2020
3805 Clouds -1 1022 100 0 0.97 321 05:35 26.01.2020
3806 Clouds -1 1020 86 0 0.5 0 04:52 26.01.2020
3807 Clouds -1 1020 100 0 2.6 90 02:59 26.01.2020
3808 Clouds -1 1020 92 0 1 80 01:59 26.01.2020
3809 Clouds -1 1023 90 0 0.79 223 01:38 26.01.2020
3810 Clouds -1 1020 92 0 0.79 223 01:19 26.01.2020
3811 Clouds -1 1020 92 0 0.91 248 00:39 26.01.2020
3812 Clouds -1 1020 92 0 0.91 248 00:20 26.01.2020
3813 Clouds -1 1020 92 0 0.91 248 00:20 26.01.2020
3814 Clouds 0 1023 90 0 0.91 248 23:37 25.01.2020
3815 Clouds -1 1023 89 0 1.12 250 23:18 25.01.2020
3816 Clouds 0 1023 89 0 1.12 250 22:43 25.01.2020
3817 Clouds -1 1023 89 0 0.5 70 22:20 25.01.2020
3818 Clouds -1 1023 86 0 0.5 80 21:57 25.01.2020
3819 Clouds -1 1023 86 0 0.5 80 21:39 25.01.2020
3820 Clouds 0 1023 100 0 1.12 250 21:20 25.01.2020
3821 Clouds 0 1023 89 0 1 80 20:45 25.01.2020
3822 Clouds 0 1023 74 0 1.12 250 20:26 25.01.2020
3823 Clouds -8 1023 91 0 0.96 243 19:56 25.01.2020
3824 Clouds 0 1023 72 0 0.96 243 19:38 25.01.2020
3825 Clouds 1 1022 69 0 1 90 19:19 25.01.2020
3826 Clouds 0 1023 74 0 1 252 18:55 25.01.2020
3827 Clouds 0 1022 69 0 1 90 18:37 25.01.2020
3828 Clouds 0 1023 72 0 1 252 18:18 25.01.2020
3829 Clouds 0 1022 69 0 1 90 18:18 25.01.2020
3830 Clouds 0 1023 70 0 0.96 243 17:39 25.01.2020
3831 Clouds 2 1022 60 0 0.5 230 17:19 25.01.2020
3832 Clouds 2 1022 60 0 1.17 174 16:56 25.01.2020
3833 Clouds 3 1022 60 0 1.17 174 16:37 25.01.2020
3834 Clouds 3 1023 60 0 1.5 240 16:18 25.01.2020
3835 Clouds 3 1023 60 0 1.5 240 15:42 25.01.2020
3836 Clouds 3 1023 60 0 1.5 240 15:23 25.01.2020
3837 Clouds 3 1024 56 0 1.17 174 14:46 25.01.2020
3838 Clouds 4 1024 56 0 2.2 183 14:19 25.01.2020
3839 Clouds 4 1024 56 0 2.2 183 13:57 25.01.2020
3840 Clouds 4 1025 65 0 2.2 183 13:39 25.01.2020
3841 Clouds 4 1025 65 0 2.24 183 13:20 25.01.2020
3842 Clouds 4 1025 69 0 2.24 183 12:42 25.01.2020
3843 Clouds 3 1025 69 0 2.24 183 12:21 25.01.2020
3844 Clouds 3 1023 100 0 1 240 11:45 25.01.2020
3845 Clouds 1 1023 92 0 1.66 181 11:21 25.01.2020
3846 Clouds 1 1023 92 0 1.5 120 10:56 25.01.2020
3847 Clouds 0 1023 92 0 1.5 120 10:38 25.01.2020
3848 Fog 0 1023 100 250 1 250 10:19 25.01.2020
3849 Clouds -1 1022 100 0 1.66 181 09:40 25.01.2020
3850 Clouds -1 1022 92 0 1.66 181 09:21 25.01.2020
3851 Clouds -2 1022 92 0 1.66 181 08:43 25.01.2020
3852 Clouds -2 1022 92 0 1 0 08:21 25.01.2020
3853 Fog -1 1022 92 150 2.1 220 07:41 25.01.2020
3854 Clouds -2 1022 92 0 1 0 06:44 25.01.2020
3855 Clouds -2 1022 92 0 1.14 252 06:24 25.01.2020
3856 Clouds -2 1022 92 0 1.14 252 06:24 25.01.2020
3857 Clouds -1 1022 100 0 1.14 252 05:44 25.01.2020
3858 Fog -1 1022 93 100 2.1 210 04:26 25.01.2020
3859 Fog -1 1023 93 150 1 0 03:50 25.01.2020
3860 Clouds -1 1022 92 0 0.5 0 02:48 25.01.2020
3861 Mist 0 1023 86 3400 1 200 01:59 25.01.2020
3862 Mist 0 1023 86 3400 1 200 01:59 25.01.2020
3863 Clouds -1 1023 100 0 1.04 269 01:37 25.01.2020
3864 Snow -1 1023 92 0 1.22 227 00:42 25.01.2020
3865 Snow -1 1023 92 0 1 0 00:23 25.01.2020
3866 Clouds -1 1023 92 0 0.5 0 23:56 24.01.2020
3867 Clouds -1 1023 92 0 1 0 23:38 24.01.2020
3868 Clouds -1 1023 92 0 1 0 23:38 24.01.2020
3869 Clouds 0 1023 92 0 1 0 23:19 24.01.2020
3870 Clouds 0 1023 92 0 0.5 0 22:42 24.01.2020
3871 Clouds 0 1023 93 0 2.6 90 22:23 24.01.2020
3872 Clouds 0 1023 92 0 1.5 120 21:41 24.01.2020
3873 Clouds 0 1023 92 0 1.5 300 21:20 24.01.2020
3874 Clouds 0 1023 100 0 0.94 231 20:55 24.01.2020
3875 Clouds 0 1026 69 0 0.94 231 20:37 24.01.2020
3876 Clouds 0 1022 92 0 1.91 175 20:18 24.01.2020
3877 Clouds 0 1023 92 0 1 0 19:55 24.01.2020
3878 Clouds 0 1023 92 0 1.91 175 19:37 24.01.2020
3879 Clouds 0 1023 92 0 1.91 175 19:19 24.01.2020
3880 Clouds 0 1022 92 0 1.91 175 18:42 24.01.2020
3881 Clouds 1 1022 58 0 1.91 175 18:22 24.01.2020
3882 Clouds 1 1023 58 0 2.1 100 17:44 24.01.2020
3883 Clouds 2 1023 58 10000 2.1 90 17:22 24.01.2020
3884 Clouds 2 1023 65 10000 1.4 161 16:57 24.01.2020
3885 Clouds 2 1023 65 10000 1.4 161 16:38 24.01.2020
3886 Clouds 3 1023 65 10000 1.4 161 16:19 24.01.2020
3887 Clouds 2 1023 65 10000 1 0 15:41 24.01.2020
3888 Clouds 2 1023 65 10000 0.5 0 15:21 24.01.2020
3889 Clouds 3 1023 65 10000 1 0 14:42 24.01.2020
3890 Clouds 3 1023 100 10000 2.6 260 14:24 24.01.2020
3891 Clouds 4 1023 100 10000 2.4 164 13:59 24.01.2020
3892 Clouds 3 1023 100 10000 2.4 164 13:40 24.01.2020
3893 Clouds 4 1024 100 6000 1 0 13:21 24.01.2020
3894 Clouds 4 1024 100 5000 2.23 161 12:42 24.01.2020
3895 Fog 4 1025 92 5000 1 240 12:20 24.01.2020
3896 Fog 3 1026 92 400 2.23 161 11:44 24.01.2020
3897 Fog 1 1026 100 400 1.5 110 11:19 24.01.2020
3898 Fog 1 1026 100 300 2.1 90 10:56 24.01.2020
3899 Fog 1 1026 100 300 2.1 90 10:56 24.01.2020
3900 Fog 1 1026 100 300 2.1 90 10:38 24.01.2020
3901 Fog 0 1026 100 350 1 0 10:18 24.01.2020
3902 Fog -1 1026 100 650 1 90 09:41 24.01.2020
3903 Fog -1 1026 92 1200 1 0 09:23 24.01.2020
3904 Fog -1 1025 100 1300 1.5 290 08:41 24.01.2020
3905 Fog -2 1025 100 550 1 0 08:21 24.01.2020
3906 Fog -2 1025 92 600 2.1 110 07:58 24.01.2020
3907 Clouds -2 1027 92 10000 1 0 07:37 24.01.2020
3908 Fog -1 1025 100 600 2.6 260 06:54 24.01.2020
3909 Clouds -2 1027 100 0 1 0 06:33 24.01.2020
3910 Fog -2 1025 100 900 2.1 110 05:59 24.01.2020
3911 Fog -1 1026 92 800 2.1 130 05:18 24.01.2020
3912 Mist -1 1027 100 5000 1 230 02:54 24.01.2020
3913 Clouds -1 1027 92 5000 1 0 02:27 24.01.2020
3914 Clouds -1 1027 92 6000 2.1 110 01:53 24.01.2020
3915 Clouds -1 1027 92 6000 2.1 120 01:33 24.01.2020
3916 Clear 0 1030 100 0 1.06 229 00:33 24.01.2020
3917 Clouds 0 1027 92 6000 2.6 120 23:58 23.01.2020
3918 Clouds 0 1027 92 6000 2.6 120 23:40 23.01.2020
3919 Clouds 0 1027 92 6000 0.5 0 23:20 23.01.2020
3920 Clouds 0 1027 92 6000 1.77 215 22:39 23.01.2020
3921 Clouds 0 1027 92 6000 2.1 260 22:20 23.01.2020
3922 Clouds 0 1026 92 7000 1.77 215 21:58 23.01.2020
3923 Clouds 0 1026 92 7000 1.77 215 21:39 23.01.2020
3924 Clouds 0 1026 92 8000 1 0 21:21 23.01.2020
3925 Clouds 1 1026 54 8000 1.77 215 20:59 23.01.2020
3926 Clouds 1 1026 54 8000 1.77 215 20:39 23.01.2020
3927 Clouds 1 1026 54 7000 1 0 20:21 23.01.2020
3928 Clouds 0 1026 55 7000 2.16 205 19:56 23.01.2020
3929 Clouds 1 1026 55 7000 2.16 205 19:38 23.01.2020
3930 Clouds 0 1026 55 7000 1 210 19:20 23.01.2020
3931 Clouds 1 1025 55 7000 1.5 240 18:56 23.01.2020
3932 Clouds 1 1030 74 10000 1.5 70 18:37 23.01.2020
3933 Clouds 1 1025 55 6000 1 0 18:19 23.01.2020
3934 Clouds 0 1025 55 6000 1.5 270 17:43 23.01.2020
3935 Clouds 2 1025 61 6000 2.1 270 17:20 23.01.2020
3936 Clouds 2 1025 61 7000 2.1 260 16:58 23.01.2020
3937 Clouds 2 1029 52 10000 0.5 0 16:37 23.01.2020
3938 Clouds 2 1025 61 7000 1 0 16:18 23.01.2020
3939 Clouds 2 1025 61 7000 3.6 250 15:57 23.01.2020
3940 Clouds 1 1025 92 8000 2.1 270 15:37 23.01.2020
3941 Clouds 1 1025 92 8000 2.1 270 15:18 23.01.2020
3942 Clouds 1 1025 92 8000 1.5 260 14:56 23.01.2020
3943 Clouds 1 1025 92 10000 1 0 14:38 23.01.2020
3944 Clouds 2 1025 92 10000 1 0 14:20 23.01.2020
3945 Clouds 2 1026 92 7000 2.1 270 13:43 23.01.2020
3946 Clouds 3 1027 92 9000 1.5 260 13:20 23.01.2020
3947 Clouds 2 1027 92 8000 2.1 240 12:54 23.01.2020
3948 Clear 3 1032 65 0 2.1 220 12:36 23.01.2020
3949 Clouds 2 1028 92 10000 2.1 260 12:18 23.01.2020
3950 Mist 2 1028 65 5000 1 0 11:42 23.01.2020
3951 Mist 1 1029 92 4000 2.75 172 11:23 23.01.2020
3952 Mist 0 1029 92 3500 2.37 179 10:56 23.01.2020
3953 Clear 0 1032 74 10000 1.5 60 10:38 23.01.2020
3954 Mist 0 1029 86 4000 1 0 10:18 23.01.2020
3955 Clouds 0 1029 92 4000 0.5 0 09:40 23.01.2020
3956 Clouds -1 1028 92 6000 1 0 09:21 23.01.2020
3957 Clouds -1 1028 92 10000 1 100 08:43 23.01.2020
3958 Clouds -1 1029 92 5000 2.6 210 08:25 23.01.2020
3959 Clear -2 1028 92 10000 0.86 197 07:51 23.01.2020
3960 Clear -2 1028 92 10000 0.86 197 07:27 23.01.2020
3961 Clear -2 1028 92 10000 0.86 197 06:54 23.01.2020
3962 Clear -2 1028 92 10000 0.86 197 06:25 23.01.2020
3963 Clear -2 1028 92 10000 0.86 197 05:59 23.01.2020
3964 Mist -1 1031 92 4100 2.1 210 04:24 23.01.2020
3965 Mist -1 1032 92 4900 1.5 210 02:48 23.01.2020
3966 Clouds -1 1032 100 4200 0.5 0 01:50 23.01.2020
3967 Clear -1 1032 92 10000 2.16 328 00:29 23.01.2020
3968 Mist 0 1033 27 2900 1.5 170 23:57 22.01.2020
3969 Clear 0 1030 86 0 2.16 328 23:39 22.01.2020
3970 Clouds 0 1033 29 4200 0.5 0 23:20 22.01.2020
3971 Clouds -1 1033 29 4200 0.5 0 22:42 22.01.2020
3972 Clouds 0 1033 29 4200 0.5 0 22:23 22.01.2020
3973 Clear -1 1031 92 10000 2.43 328 21:56 22.01.2020
3974 Clear 0 1030 29 0 2.43 328 21:36 22.01.2020
3975 Clear 0 1031 92 10000 0.5 0 21:18 22.01.2020
3976 Clouds 0 1032 29 4200 0.5 0 20:41 22.01.2020
3977 Mist 0 1032 29 2500 1 0 20:23 22.01.2020
3978 Clear 0 1031 92 10000 2.69 334 19:58 22.01.2020
3979 Clear 0 1031 92 10000 2.69 334 19:58 22.01.2020
3980 Clear 0 1031 92 10000 2.69 334 19:39 22.01.2020
3981 Mist 0 1032 33 2800 1 0 19:20 22.01.2020
3982 Clear 0 1032 92 10000 1.5 100 18:58 22.01.2020
3983 Clear 0 1032 92 10000 1.5 100 18:38 22.01.2020
3984 Mist 0 1032 33 3800 0.5 0 18:20 22.01.2020
3985 Clear 0 1031 86 10000 1.5 80 17:55 22.01.2020
3986 Clear 0 1031 80 10000 1.5 100 17:37 22.01.2020
3987 Clear 2 1031 80 10000 1.5 100 17:19 22.01.2020
3988 Clear 2 1030 80 10000 1.5 0 16:43 22.01.2020
3989 Clear 3 1030 86 10000 1.12 237 16:23 22.01.2020
3990 Clear 2 1030 45 10000 1.12 237 15:59 22.01.2020
3991 Clear 2 1030 45 10000 1.12 237 15:40 22.01.2020
3992 Clear 3 1030 86 10000 1 0 15:22 22.01.2020
3993 Clear 2 1030 45 10000 1.12 237 14:57 22.01.2020
3994 Clear 2 1031 45 10000 1.12 237 14:37 22.01.2020
3995 Clear 2 1031 74 10000 1.56 181 14:18 22.01.2020
3996 Clear 3 1031 74 10000 1.56 181 13:54 22.01.2020
3997 Clear 3 1032 92 10000 1.5 270 13:36 22.01.2020
3998 Clear 3 1032 92 10000 1.5 270 13:18 22.01.2020
3999 Clear 4 1032 92 10000 1.5 270 12:55 22.01.2020
4000 Clear 4 1034 48 0 1.5 90 12:37 22.01.2020
4001 Clear 3 1033 92 10000 1 0 12:18 22.01.2020
4002 Clear 3 1033 100 10000 1.63 184 11:56 22.01.2020
4003 Clear 3 1036 55 10000 1.5 110 11:37 22.01.2020
4004 Clear 1 1033 92 10000 1 0 11:18 22.01.2020
4005 Clear 0 1033 92 10000 1.33 207 10:43 22.01.2020
4006 Clear -1 1033 92 10000 1.33 207 10:20 22.01.2020
4007 Clear -1 1033 92 10000 1.33 207 09:43 22.01.2020
4008 Clear -2 1033 92 10000 1.5 90 09:25 22.01.2020
4009 Clear -1 1033 92 9000 1 100 08:57 22.01.2020
4010 Clear -1 1033 92 9000 1 100 08:39 22.01.2020
4011 Clouds -1 1033 92 10000 1 0 08:21 22.01.2020
4012 Clouds -1 1033 92 10000 1 0 07:48 22.01.2020
4013 Clouds -1 1033 92 10000 0.5 0 07:30 22.01.2020
4014 Clouds -1 1032 92 10000 0.5 0 06:50 22.01.2020
4015 Clouds -1 1032 92 10000 1.38 215 06:26 22.01.2020
4016 Clouds -2 1037 100 0 1.38 215 05:33 22.01.2020
4017 Clouds -1 1034 86 10000 1 0 04:18 22.01.2020
4018 Clouds -1 1034 86 10000 1.5 100 03:21 22.01.2020
4019 Clouds -1 1035 92 10000 1 0 01:43 22.01.2020
4020 Clouds -1 1035 86 10000 1 0 00:44 22.01.2020
4021 Clouds -2 1035 92 10000 0.5 0 00:26 22.01.2020
4022 Clouds -1 1035 86 10000 0.5 0 23:38 21.01.2020
4023 Clouds -1 1034 86 10000 1 0 23:20 21.01.2020
4024 Clouds -1 1035 86 10000 1 0 22:56 21.01.2020
4025 Clouds -1 1035 86 10000 1 0 22:56 21.01.2020
4026 Clouds -1 1039 53 0 1 0 22:37 21.01.2020
4027 Clouds -1 1039 53 0 1 0 22:37 21.01.2020
4028 Clouds -1 1035 86 10000 0.5 0 22:19 21.01.2020
4029 Clouds -1 1035 92 10000 0.5 0 21:55 21.01.2020
4030 Clouds -1 1039 80 0 1 90 21:37 21.01.2020
4031 Clouds -1 1035 85 10000 0.5 0 21:18 21.01.2020
4032 Clouds -1 1035 86 10000 1.5 80 20:55 21.01.2020
4033 Clouds -1 1039 74 0 1.74 203 20:37 21.01.2020
4034 Clouds -1 1036 86 10000 0.5 0 20:18 21.01.2020
4035 Clouds -1 1036 92 10000 1.5 80 19:55 21.01.2020
4036 Clouds 0 1039 80 0 1 80 19:36 21.01.2020
4037 Clouds 0 1036 86 10000 1.88 201 19:18 21.01.2020
4038 Clouds -1 1035 85 10000 1 0 18:54 21.01.2020
4039 Clouds -1 1039 64 0 1 80 18:36 21.01.2020
4040 Clouds -1 1035 86 10000 1.88 201 18:18 21.01.2020
4041 Clouds 0 1035 80 10000 1.88 201 17:42 21.01.2020
4042 Clouds 2 1036 53 10000 1.5 80 17:19 21.01.2020
4043 Clouds 2 1036 86 10000 0.5 0 16:56 21.01.2020
4044 Clouds 2 1039 56 10000 1.5 240 16:36 21.01.2020
4045 Clouds 2 1036 53 10000 1.85 183 16:18 21.01.2020
4046 Clouds 2 1036 53 10000 1 0 15:39 21.01.2020
4047 Clouds 2 1037 53 10000 2.1 90 15:20 21.01.2020
4048 Clouds 2 1037 74 10000 1.5 230 14:54 21.01.2020
4049 Clouds 2 1038 74 10000 2.1 190 14:36 21.01.2020
4050 Clouds 3 1037 79 10000 1 0 14:18 21.01.2020
4051 Clouds 3 1037 86 10000 1 0 13:38 21.01.2020
4052 Clouds 3 1038 69 10000 1.5 0 13:18 21.01.2020
4053 Clouds 3 1039 69 10000 0.5 0 12:43 21.01.2020
4054 Clouds 3 1039 74 10000 0.5 0 12:24 21.01.2020
4055 Clouds 3 1040 54 10000 1 230 11:56 21.01.2020
4056 Clouds 2 1043 51 10000 0.5 0 11:38 21.01.2020
4057 Clouds 2 1043 51 10000 0.5 0 11:38 21.01.2020
4058 Clouds 2 1043 51 10000 0.5 0 11:38 21.01.2020
4059 Clouds 0 1039 85 10000 2.07 200 11:19 21.01.2020
4060 Clouds -1 1039 92 10000 1 0 10:43 21.01.2020
4061 Clouds -2 1040 86 10000 1.5 250 10:23 21.01.2020
4062 Clouds -2 1039 92 10000 2.07 200 09:57 21.01.2020
4063 Clouds -2 1039 92 10000 2.07 200 09:39 21.01.2020
4064 Clouds -3 1039 85 10000 0.5 0 09:21 21.01.2020
4065 Clouds -3 1039 92 10000 0.5 0 08:45 21.01.2020
4066 Clouds -3 1039 92 10000 2.6 100 08:27 21.01.2020
4067 Clouds -4 1040 92 10000 1.5 70 07:45 21.01.2020
4068 Clouds -4 1040 85 10000 1 0 07:26 21.01.2020
4069 Clouds -4 1040 85 10000 1.5 100 06:58 21.01.2020
4070 Clouds -4 1040 85 10000 1.5 100 06:39 21.01.2020
4071 Clouds -4 1039 85 10000 1 0 06:20 21.01.2020
4072 Clouds -4 1040 85 10000 2.1 250 05:40 21.01.2020
4073 Clouds -4 1044 73 0 1.2 216 04:38 21.01.2020
4074 Clouds -4 1039 79 10000 1 0 02:34 21.01.2020
4075 Clear -4 1045 79 0 0.5 0 01:37 21.01.2020
4076 Clear -4 1039 85 10000 2.1 280 00:52 21.01.2020
4077 Clear -4 1039 73 10000 3.6 250 00:29 21.01.2020
4078 Clear -4 1039 85 10000 3.6 250 23:56 20.01.2020
4079 Clear -3 1046 74 0 0.5 0 23:36 20.01.2020
4080 Clear -3 1039 79 10000 3.1 250 23:18 20.01.2020
4081 Clear -3 1039 79 10000 0.5 0 22:54 20.01.2020
4082 Clear -3 1045 68 0 2.29 196 22:36 20.01.2020
4083 Clear -3 1039 85 10000 1.5 300 22:18 20.01.2020
4084 Clear -3 1039 79 10000 1.5 320 21:54 20.01.2020
4085 Clear -3 1044 68 0 2.29 196 21:36 20.01.2020
4086 Clear -4 1039 73 10000 1.5 240 21:18 20.01.2020
4087 Clouds -3 1038 73 10000 2.29 196 20:42 20.01.2020
4088 Clouds -3 1039 74 10000 2.1 70 20:20 20.01.2020
4089 Clouds -3 1039 74 10000 4.1 110 19:59 20.01.2020
4090 Clouds -2 1039 74 10000 4.1 110 19:40 20.01.2020
4091 Clouds -2 1039 68 10000 3.1 120 19:19 20.01.2020
4092 Clouds -2 1039 68 10000 3.6 100 18:56 20.01.2020
4093 Clouds -3 1042 51 0 1 0 18:38 20.01.2020
4094 Clouds -3 1039 68 10000 3.1 90 18:19 20.01.2020
4095 Clouds -2 1040 59 0 2.1 170 17:38 20.01.2020
4096 Clear -1 1039 55 10000 3.6 50 17:19 20.01.2020
4097 Clear -1 1038 55 10000 3.1 0 16:46 20.01.2020
4098 Clear 0 1038 55 10000 4.1 70 16:26 20.01.2020
4099 Clear 0 1038 55 10000 5.1 40 15:59 20.01.2020
4100 Clear 1 1038 55 10000 5.1 40 15:40 20.01.2020
4101 -273 0 0 0 0 0 15:22 20.01.2020
4102 Clear 1 1038 50 10000 4.1 60 14:58 20.01.2020
4103 Clear 0 1038 50 10000 4.1 60 14:39 20.01.2020
4104 Clear 0 1038 55 10000 5.1 60 14:20 20.01.2020
4105 Clear 0 1039 55 10000 5.7 60 13:44 20.01.2020
4106 Clear -1 1039 60 10000 2.1 0 13:24 20.01.2020
4107 Clear 0 1039 60 10000 3.1 0 12:58 20.01.2020
4108 Clear 0 1039 60 10000 3.1 0 12:40 20.01.2020
4109 Clear 1 1039 60 10000 3.1 0 12:21 20.01.2020
4110 Clouds -1 1040 68 10000 2.1 100 11:55 20.01.2020
4111 Clear -1 1043 32 10000 2.1 90 11:36 20.01.2020
4112 Clouds -3 1040 68 10000 3.1 120 11:18 20.01.2020
4113 Clouds -3 1040 68 10000 4.1 80 10:41 20.01.2020
4114 Clouds -4 1040 73 10000 4.1 90 10:20 20.01.2020
4115 Clouds -3 1040 73 10000 4.1 100 09:42 20.01.2020
4116 Clouds -4 1040 73 10000 4.1 90 09:24 20.01.2020
4117 Clouds -4 1040 73 10000 5.1 100 08:55 20.01.2020
4118 Clear -3 1041 60 10000 2.1 30 08:34 20.01.2020
4119 Clear -4 1040 79 10000 1.5 230 07:56 20.01.2020
4120 Clear -4 1040 37 10000 1.5 70 07:38 20.01.2020
4121 Clouds -3 1038 73 0 5.7 100 07:19 20.01.2020
4122 Clouds -3 1038 73 0 5.7 70 06:42 20.01.2020
4123 Clouds -4 1038 74 0 5.1 120 06:21 20.01.2020
4124 Clouds -3 1039 43 0 3.6 70 05:38 20.01.2020
4125 Clouds -3 1037 74 0 5.7 140 05:19 20.01.2020
4126 Clouds -3 1039 74 0 5.1 130 03:55 20.01.2020
4127 Clouds -2 1038 74 0 4.1 100 01:58 20.01.2020
4128 Clouds -1 1038 74 0 4.1 100 01:39 20.01.2020
4129 Clouds -2 1038 79 0 4.6 100 00:56 20.01.2020
4130 Clouds -2 1037 43 0 1.5 40 00:38 20.01.2020
4131 Clouds -1 1037 80 0 4.6 110 00:20 20.01.2020
4132 Clouds -2 1036 40 0 1.5 40 23:38 19.01.2020
4133 Clouds -2 1037 69 0 4.1 0 23:18 19.01.2020
4134 Clouds -2 1037 69 0 5.1 120 22:55 19.01.2020
4135 Clouds -2 1036 35 0 1.5 80 22:37 19.01.2020
4136 Clouds -2 1036 74 0 4.6 100 22:19 19.01.2020
4137 Rain 0 1036 74 0 2.6 0 21:56 19.01.2020
4138 Clouds -1 1035 43 0 1 0 21:37 19.01.2020
4139 Clouds 0 1036 74 0 4.6 120 21:19 19.01.2020
4140 Rain -1 1036 74 0 4.6 110 20:56 19.01.2020
4141 Rain 0 1034 28 0 2.6 110 20:38 19.01.2020
4142 Rain -1 1035 74 0 4.1 120 20:19 19.01.2020
4143 Clouds -2 1035 74 0 3.6 120 19:55 19.01.2020
4144 Clouds -1 1033 28 0 1.5 0 19:37 19.01.2020
4145 Rain -1 1035 74 0 4.6 120 19:19 19.01.2020
4146 Rain -1 1034 74 0 5.1 120 18:55 19.01.2020
4147 Clouds -2 1032 26 0 1.5 320 18:37 19.01.2020
4148 Rain -2 1034 64 0 4.6 150 18:19 19.01.2020
4149 Rain -1 1034 64 0 5.7 160 17:57 19.01.2020
4150 Rain -1 1034 64 0 5.7 160 17:38 19.01.2020
4151 Rain 1 1033 64 0 5.1 200 17:19 19.01.2020
4152 Clouds 1 1033 64 0 3.6 0 16:57 19.01.2020
4153 Clouds 1 1030 21 0 4.1 110 16:37 19.01.2020
4154 Clouds 1 1030 21 0 4.1 110 16:37 19.01.2020
4155 Clouds 1 1030 21 0 4.1 110 16:37 19.01.2020
4156 Clouds 0 1033 64 0 3.1 0 16:19 19.01.2020
4157 Rain 1 1033 69 0 3.6 0 15:55 19.01.2020
4158 Rain 1 1029 23 0 4.1 110 15:37 19.01.2020
4159 Rain 1 1032 64 0 3.6 90 15:18 19.01.2020
4160 Snow 1 1032 64 0 4.6 30 14:41 19.01.2020
4161 Snow 1 1032 64 0 4.6 30 14:41 19.01.2020
4162 Rain 1 1032 69 0 3.6 0 14:21 19.01.2020
4163 Clouds 0 1032 69 0 3.6 0 13:59 19.01.2020
4164 Clouds 1 1032 69 0 3.6 0 13:40 19.01.2020
4165 Clouds 0 1032 69 0 3.1 0 13:22 19.01.2020
4166 Clouds 0 1032 69 0 3.1 0 13:22 19.01.2020
4167 Clouds 0 1032 69 0 2.6 0 12:59 19.01.2020
4168 Clouds 0 1032 69 0 2.6 0 12:41 19.01.2020
4169 Clouds 1 1032 69 0 4.1 0 12:21 19.01.2020
4170 Rain 1 1032 64 0 2.1 0 11:57 19.01.2020
4171 Clouds 1 1028 23 0 3.1 130 11:38 19.01.2020
4172 Rain -1 1032 64 0 3.1 0 11:18 19.01.2020
4173 Clouds -1 1031 93 0 4.1 100 10:41 19.01.2020
4174 Clouds -1 1031 93 0 4.1 100 10:21 19.01.2020
4175 Clouds -1 1031 93 0 4.6 90 09:58 19.01.2020
4176 Clouds -1 1031 93 0 4.6 90 09:39 19.01.2020
4177 Clouds -1 1031 93 0 4.1 100 09:21 19.01.2020
4178 Rain -2 1030 74 0 4.1 100 08:56 19.01.2020
4179 Clouds -1 1027 51 0 1.5 90 08:38 19.01.2020
4180 Snow -1 1030 82 0 3.6 100 08:19 19.01.2020
4181 Snow -1 1030 76 0 2.1 120 07:29 19.01.2020
4182 Clouds -1 1029 76 0 2.6 140 06:56 19.01.2020
4183 Snow -1 1029 76 0 2.6 130 06:23 19.01.2020
4184 Clouds -1 1028 54 0 3.1 90 04:19 19.01.2020
4185 Clouds -1 1025 44 0 1.5 70 02:35 19.01.2020
4186 Clouds -1 1028 74 10000 2.1 290 01:58 19.01.2020
4187 Clouds -1 1027 55 0 4.6 90 01:22 19.01.2020
4188 Clouds -2 1027 54 0 4.1 100 00:45 19.01.2020
4189 Clouds -2 1027 54 0 4.1 100 00:45 19.01.2020
4190 Clouds -2 1025 38 0 1 0 00:26 19.01.2020
4191 Clouds -2 1027 54 0 4.1 110 23:55 18.01.2020
4192 Clouds -2 1024 47 0 2.6 100 23:36 18.01.2020
4193 Clouds -2 1027 80 0 3.6 110 23:18 18.01.2020
4194 Clouds -1 1027 80 0 4.1 100 22:54 18.01.2020
4195 Clouds -1 1027 80 0 4.1 100 22:54 18.01.2020
4196 Clouds -1 1024 38 0 1.5 60 22:36 18.01.2020
4197 Clouds -1 1024 38 0 1.5 60 22:36 18.01.2020
4198 Clouds -1 1027 80 0 3.6 100 22:18 18.01.2020
4199 Clouds -1 1028 69 10000 2.1 0 21:55 18.01.2020
4200 Clouds -1 1027 86 0 2.6 90 21:36 18.01.2020
4201 Clouds -1 1027 86 0 2.6 90 21:18 18.01.2020
4202 Clouds -1 1027 86 0 2.1 110 20:41 18.01.2020
4203 Clouds -1 1027 92 0 0.5 0 20:19 18.01.2020
4204 Clouds -1 1027 92 0 4.23 336 19:44 18.01.2020
4205 Clouds -1 1027 86 0 1.5 90 19:25 18.01.2020
4206 Clouds 0 1027 86 0 2.1 90 18:56 18.01.2020
4207 Clouds -1 1023 23 0 2.6 110 18:37 18.01.2020
4208 Clouds -2 1027 92 0 1.5 90 18:19 18.01.2020
4209 Clouds 0 1027 86 0 1 90 17:41 18.01.2020
4210 Clouds 1 1026 86 0 1 0 17:21 18.01.2020
4211 Clouds 1 1026 87 0 1 0 16:57 18.01.2020
4212 Clear 2 1022 15 0 4.6 320 16:38 18.01.2020
4213 Clear 2 1026 86 0 3.4 342 16:20 18.01.2020
4214 Clear 2 1026 87 0 3.4 342 15:56 18.01.2020
4215 Clear 2 1021 50 0 1 0 15:38 18.01.2020
4216 Clouds 1 1026 87 10000 2.1 60 15:20 18.01.2020
4217 Clear 2 1026 87 0 3.4 342 14:41 18.01.2020
4218 Clouds 2 1027 93 0 3.89 338 14:20 18.01.2020
4219 Clouds 2 1027 73 0 1 0 13:57 18.01.2020
4220 Clouds 3 1022 57 0 3.89 338 13:37 18.01.2020
4221 Clouds 2 1027 86 0 0.5 0 13:18 18.01.2020
4222 Clouds 4 1028 93 0 3.97 340 12:43 18.01.2020
4223 Clouds 3 1028 86 0 3.97 340 12:22 18.01.2020
4224 Clouds 3 1028 100 0 1.5 280 11:58 18.01.2020
4225 Clouds 4 1028 100 0 1.5 280 11:40 18.01.2020
4226 Clouds 2 1028 93 0 4.13 333 11:20 18.01.2020
4227 Clouds 3 1028 100 0 1.5 140 10:43 18.01.2020
4228 Clouds 2 1028 93 0 1 60 10:21 18.01.2020
4229 Clouds 2 1028 100 0 4.13 333 09:56 18.01.2020
4230 Clouds 1 1028 100 0 4.13 333 09:38 18.01.2020
4231 Clouds 1 1028 100 0 0.5 0 09:18 18.01.2020
4232 Clouds 1 1028 100 0 1 0 08:42 18.01.2020
4233 Rain 1 1028 93 0 4.28 335 08:20 18.01.2020
4234 Rain 1 1028 93 0 4.24 334 08:20 18.01.2020
4235 Rain 1 1028 93 0 1.5 260 07:58 18.01.2020
4236 Rain 1 1022 93 0 0.5 0 07:37 18.01.2020
4237 Clouds 2 1027 93 0 1.5 300 06:50 18.01.2020
4238 Rain 2 1027 86 0 3.1 250 06:27 18.01.2020
4239 Rain 1 1027 93 0 2.6 270 05:49 18.01.2020
4240 Rain 2 1027 100 0 0.5 0 04:24 18.01.2020
4241 Rain 2 1022 86 0 1.5 220 02:34 18.01.2020
4242 Rain 2 1026 100 0 3.79 337 01:40 18.01.2020
4243 Rain 2 1025 100 0 3.65 338 00:39 18.01.2020
4244 Rain 2 1025 100 0 3.65 338 00:39 18.01.2020
4245 Rain 2 1025 100 0 1 0 00:19 18.01.2020
4246 Rain 2 1025 93 0 0.5 0 23:58 17.01.2020
4247 Rain 2 1025 93 0 0.5 0 23:38 17.01.2020
4248 Rain 2 1024 93 0 1.69 353 23:18 17.01.2020
4249 Rain 3 1024 93 0 1.69 353 22:41 17.01.2020
4250 Rain 3 1024 93 0 2.1 110 22:19 17.01.2020
4251 Rain 3 1024 93 0 2.1 90 21:54 17.01.2020
4252 Clouds 3 1023 95 0 1.5 70 21:36 17.01.2020
4253 Rain 3 1023 93 0 1.69 353 21:18 17.01.2020
4254 Rain 3 1024 86 0 0.5 60 20:41 17.01.2020
4255 Rain 3 1023 95 0 1 0 20:21 17.01.2020
4256 Rain 3 1023 95 0 1 0 20:21 17.01.2020
4257 Rain 3 1023 95 0 1 0 19:57 17.01.2020
4258 Rain 3 1023 95 0 1 0 19:38 17.01.2020
4259 Rain 3 1023 95 0 1.5 150 19:20 17.01.2020
4260 Rain 4 1022 95 0 2.6 90 18:58 17.01.2020
4261 Rain 4 1022 95 0 2.6 90 18:58 17.01.2020
4262 Clouds 4 1023 95 0 0.5 60 18:38 17.01.2020
4263 Clouds 4 1022 95 0 1 0 18:20 17.01.2020
4264 Clouds 4 1022 74 0 3.1 270 17:40 17.01.2020
4265 Clouds 5 1021 74 10000 2.1 320 17:21 17.01.2020
4266 Clouds 5 1021 96 10000 0.5 0 16:57 17.01.2020
4267 Clouds 5 1021 96 10000 0.5 0 16:57 17.01.2020
4268 Clouds 5 1023 96 10000 1 0 16:38 17.01.2020
4269 Clouds 5 1020 96 10000 2.1 90 16:18 17.01.2020
4270 Clouds 6 1021 65 10000 2.6 230 15:44 17.01.2020
4271 Clouds 5 1020 74 10000 2.1 260 15:26 17.01.2020
4272 Clouds 5 1020 80 10000 2.1 280 14:44 17.01.2020
4273 Clouds 6 1020 80 10000 1.5 100 14:26 17.01.2020
4274 Clouds 5 1020 74 10000 1.5 80 13:58 17.01.2020
4275 Clouds 5 1024 56 10000 1 0 13:37 17.01.2020
4276 Clouds 5 1021 80 10000 1 0 13:19 17.01.2020
4277 Clouds 4 1021 86 10000 2.1 270 12:42 17.01.2020
4278 Clouds 4 1022 86 10000 2.1 260 12:21 17.01.2020
4279 Clouds 3 1022 86 10000 2.8 176 11:38 17.01.2020
4280 Clouds 3 1023 92 10000 1 0 11:18 17.01.2020
4281 Clouds 1 1024 80 10000 0.5 0 10:44 17.01.2020
4282 Clouds 0 1025 86 10000 2.1 280 10:23 17.01.2020
4283 Clouds 0 1024 79 10000 1.5 250 09:58 17.01.2020
4284 Clouds -1 1024 79 10000 1.5 250 09:39 17.01.2020
4285 Clouds -1 1024 74 10000 5.7 70 09:20 17.01.2020
4286 Clouds -2 1024 85 10000 2.6 100 08:45 17.01.2020
4287 Clouds -2 1024 86 10000 3.6 90 08:25 17.01.2020
4288 Clouds -2 1024 86 10000 1.5 310 07:55 17.01.2020
4289 Clouds -2 1024 92 10000 1.5 270 07:32 17.01.2020
4290 Clouds -2 1024 86 10000 1.5 260 06:58 17.01.2020
4291 Clouds -2 1024 86 10000 1.5 260 06:58 17.01.2020
4292 Clouds -1 1024 86 10000 1.5 260 06:40 17.01.2020
4293 Clouds -1 1024 86 10000 1.5 220 05:56 17.01.2020
4294 Clouds -1 1029 100 0 0.5 0 03:39 17.01.2020
4295 Clouds -1 1029 100 0 2.31 221 02:52 17.01.2020
4296 Clear 0 1030 100 0 2.43 201 01:47 17.01.2020
4297 Clear 0 1030 100 0 2.43 201 01:29 17.01.2020
4298 Clear 0 1030 100 0 2.33 207 00:50 17.01.2020
4299 Clear -1 1030 100 0 2.33 207 00:26 17.01.2020
4300 Clear 0 1030 100 0 2.33 207 23:44 16.01.2020
4301 Clear 0 1026 82 10000 1.5 0 23:26 16.01.2020
4302 Clear 0 1026 79 10000 1.5 260 22:57 16.01.2020
4303 Clear 0 1026 79 10000 1.5 260 22:39 16.01.2020
4304 Clear 1 1026 80 10000 1 230 22:20 16.01.2020
4305 Clear 1 1026 80 10000 1.5 260 21:55 16.01.2020
4306 Clear 1 1031 79 0 2.29 211 21:36 16.01.2020
4307 Clear 1 1026 74 10000 1.5 0 21:18 16.01.2020
4308 Clear 1 1026 74 10000 2.6 250 20:41 16.01.2020
4309 Clear 2 1026 74 10000 2.1 240 20:21 16.01.2020
4310 Clear 2 1026 80 10000 2.1 230 19:59 16.01.2020
4311 Clear 2 1026 80 10000 2.1 230 19:41 16.01.2020
4312 Clear 1 1027 92 10000 1 0 19:22 16.01.2020
4313 Clear 2 1026 69 10000 2.1 260 18:57 16.01.2020
4314 Clear 2 1026 69 10000 2.1 260 18:39 16.01.2020
4315 Clear 3 1026 68 10000 1 0 18:20 16.01.2020
4316 Clear 3 1026 68 10000 0.5 0 17:59 16.01.2020
4317 Clear 4 1026 68 10000 0.5 0 17:40 16.01.2020
4318 Clear 4 1026 85 10000 0.5 100 17:20 16.01.2020
4319 Clear 5 1026 75 10000 1.5 100 16:42 16.01.2020
4320 Clear 5 1026 85 10000 2.6 60 16:24 16.01.2020
4321 Clear 5 1026 80 10000 1.5 100 15:59 16.01.2020
4322 Clear 5 1026 80 10000 1.5 100 15:40 16.01.2020
4323 Clear 6 1027 74 10000 2.1 90 15:21 16.01.2020
4324 Clear 6 1027 85 10000 1 0 14:45 16.01.2020
4325 Clear 6 1027 85 10000 1.5 0 14:24 16.01.2020
4326 Clouds 7 1027 87 10000 1 0 13:56 16.01.2020
4327 Clouds 7 1031 87 10000 1 0 13:37 16.01.2020
4328 Clouds 7 1031 87 10000 1 0 13:37 16.01.2020
4329 Clouds 6 1027 87 10000 1 0 13:19 16.01.2020
4330 Clouds 7 1028 87 10000 1 0 12:43 16.01.2020
4331 Clouds 6 1028 87 10000 0.5 0 12:25 16.01.2020
4332 Clouds 4 1028 87 10000 1.5 220 11:43 16.01.2020
4333 Clouds 4 1029 69 10000 1 230 11:25 16.01.2020
4334 Clouds 2 1029 80 10000 1.5 0 10:59 16.01.2020
4335 Clouds 2 1033 93 10000 1 0 10:38 16.01.2020
4336 Clouds 1 1029 83 10000 1.5 250 10:20 16.01.2020
4337 Clouds 0 1029 83 10000 1 0 09:56 16.01.2020
4338 Clouds -1 1032 100 10000 1 0 09:37 16.01.2020
4339 Clouds -1 1029 83 10000 2.1 220 09:19 16.01.2020
4340 Clouds -1 1029 85 10000 1 0 08:48 16.01.2020
4341 Clouds -1 1029 92 0 2.1 50 08:29 16.01.2020
4342 Clouds -1 1029 92 10000 1.5 60 07:44 16.01.2020
4343 Clouds -1 1029 92 10000 1 0 07:25 16.01.2020
4344 Clouds -2 1029 92 0 1.5 90 06:59 16.01.2020
4345 Clouds -1 1030 100 0 0.5 0 06:37 16.01.2020
4346 Clouds -1 1029 92 0 3.21 346 05:58 16.01.2020
4347 Clouds -2 1029 92 0 3.21 346 05:39 16.01.2020
4348 Clear -1 1030 100 0 1.5 70 04:37 16.01.2020
4349 Clear -1 1030 100 0 1.5 70 04:37 16.01.2020
4350 Clouds -1 1029 74 10000 0.5 0 03:28 16.01.2020
4351 Clouds 0 1029 75 10000 1.5 220 02:36 16.01.2020
4352 Clouds -1 1029 86 0 2.1 70 00:48 16.01.2020
4353 Clouds 0 1028 85 0 2.1 100 00:24 16.01.2020
4354 Clouds 0 1028 86 0 1 0 23:48 15.01.2020
4355 Clouds -1 1027 86 0 1 0 23:23 15.01.2020
4356 Clouds 0 1027 86 0 2.1 110 22:57 15.01.2020
4357 Clouds 0 1027 86 0 2.1 110 22:57 15.01.2020
4358 Clouds 0 1027 86 0 2.1 110 22:39 15.01.2020
4359 Clouds 0 1027 92 0 1 0 22:19 15.01.2020
4360 Clouds 0 1027 86 0 2.05 333 21:57 15.01.2020
4361 Clouds 0 1029 80 0 0.5 0 21:37 15.01.2020
4362 Clouds 0 1027 92 0 2.6 100 21:19 15.01.2020
4363 Clouds 1 1026 69 10000 2.1 230 20:57 15.01.2020
4364 Clouds 1 1026 69 10000 2.1 230 20:57 15.01.2020
4365 Clouds 1 1026 86 0 1 0 20:39 15.01.2020
4366 Clouds 2 1026 86 0 1.09 197 20:20 15.01.2020
4367 Clouds 2 1026 86 0 0.76 239 19:55 15.01.2020
4368 Clouds 2 1025 86 0 1 0 19:37 15.01.2020
4369 Clouds 2 1025 86 0 1 0 19:19 15.01.2020
4370 Clouds 2 1025 86 0 2.6 110 18:56 15.01.2020
4371 Clouds 3 1025 86 0 2.6 110 18:56 15.01.2020
4372 Clouds 2 1028 69 0 0.76 239 18:38 15.01.2020
4373 Clouds 2 1024 92 0 2.1 110 18:19 15.01.2020
4374 Clouds 3 1024 94 0 1 0 17:57 15.01.2020
4375 Clouds 3 1028 65 0 1 0 17:38 15.01.2020
4376 Clouds 4 1023 60 10000 1 0 17:19 15.01.2020
4377 Clouds 5 1023 98 10000 1.5 90 16:41 15.01.2020
4378 Clouds 5 1023 86 10000 1 0 16:22 15.01.2020
4379 Clouds 5 1022 98 10000 1 0 15:58 15.01.2020
4380 Clouds 5 1027 60 10000 2.59 186 15:39 15.01.2020
4381 Clouds 5 1022 74 10000 0.5 0 15:20 15.01.2020
4382 Clouds 6 1022 74 10000 1 0 14:43 15.01.2020
4383 Clouds 7 1021 45 10000 1 0 14:20 15.01.2020
4384 Clouds 7 1022 49 10000 1.5 250 13:46 15.01.2020
4385 Clouds 7 1022 49 10000 1.5 250 13:46 15.01.2020
4386 Clouds 7 1022 52 10000 2.1 230 13:27 15.01.2020
4387 Clouds 7 1021 48 10000 1 0 12:59 15.01.2020
4388 Clouds 7 1021 48 10000 1 0 12:40 15.01.2020
4389 Clouds 6 1021 56 10000 1 0 12:20 15.01.2020
4390 Clouds 5 1021 64 10000 1 0 11:58 15.01.2020
4391 Clouds 4 1029 96 10000 0.5 0 11:37 15.01.2020
4392 Clouds 3 1021 80 10000 0.5 0 11:19 15.01.2020
4393 Clouds 2 1021 80 10000 2.1 240 10:46 15.01.2020
4394 Clouds 0 1021 86 10000 1 0 10:27 15.01.2020
4395 Clouds 0 1021 92 10000 2.63 184 09:46 15.01.2020
4396 Clouds 0 1021 86 10000 2.6 80 09:26 15.01.2020
4397 Clouds -1 1021 85 10000 2.6 100 08:59 15.01.2020
4398 Clouds -1 1021 85 10000 2.6 100 08:59 15.01.2020
4399 Clouds -1 1021 85 10000 2.6 100 08:41 15.01.2020
4400 Clear -1 1021 86 10000 2.28 190 08:22 15.01.2020
4401 Clear -1 1020 80 10000 1 260 07:52 15.01.2020
4402 Clear -1 1020 80 10000 1.5 320 07:32 15.01.2020
4403 Clear -1 1020 86 0 3.1 110 06:46 15.01.2020
4404 Clear -1 1020 86 0 3.6 100 06:20 15.01.2020
4405 Clear -1 1020 92 0 1 0 04:44 15.01.2020
4406 Clear 0 1020 86 0 3.1 110 02:38 15.01.2020
4407 Clouds 0 1020 86 0 1.5 110 01:28 15.01.2020
4408 Clouds 0 1020 92 0 0.5 0 00:47 15.01.2020
4409 Clouds 0 1020 86 0 1 0 00:27 15.01.2020
4410 Clouds 0 1019 86 0 2.13 196 23:57 14.01.2020
4411 Clouds 0 1028 92 0 2.13 196 23:38 14.01.2020
4412 Clouds 0 1019 92 0 1.94 189 23:19 14.01.2020
4413 Clouds 0 1019 92 0 1 0 22:41 14.01.2020
4414 Clouds 0 1020 80 0 1 0 22:19 14.01.2020
4415 Clouds 1 1020 86 0 1.94 189 21:59 14.01.2020
4416 Clouds 1 1028 66 0 1.94 189 21:40 14.01.2020
4417 Clouds 1 1020 80 0 1.94 189 21:21 14.01.2020
4418 Clouds 1 1020 80 0 1.94 189 21:21 14.01.2020
4419 Clouds 2 1020 64 10000 1.5 250 20:59 14.01.2020
4420 Clouds 2 1020 64 10000 1.5 250 20:40 14.01.2020
4421 Clouds 2 1020 86 0 0.5 0 20:20 14.01.2020
4422 Clouds 2 1020 86 0 0.5 0 19:56 14.01.2020
4423 Clouds 2 1027 69 0 1.38 230 19:38 14.01.2020
4424 Clouds 2 1020 69 10000 2.1 250 19:18 14.01.2020
4425 Clouds 2 1020 64 10000 1 250 18:56 14.01.2020
4426 Clouds 3 1026 69 0 1 90 18:37 14.01.2020
4427 Clouds 3 1026 74 0 1.38 230 18:18 14.01.2020
4428 Clouds 3 1020 60 10000 2.1 230 17:38 14.01.2020
4429 Clouds 4 1019 89 10000 1 0 17:19 14.01.2020
4430 Clouds 4 1019 60 10000 0.5 0 16:55 14.01.2020
4431 Clouds 5 1025 60 10000 1 220 16:37 14.01.2020
4432 Clouds 5 1019 65 10000 1 0 16:19 14.01.2020
4433 Clouds 6 1019 60 10000 1.5 70 15:43 14.01.2020
4434 Clouds 6 1019 56 10000 1.5 70 15:19 14.01.2020
4435 Clouds 6 1019 60 10000 2.1 50 14:47 14.01.2020
4436 Clouds 6 1019 52 10000 1 0 14:23 14.01.2020
4437 Clouds 6 1019 52 10000 0.5 0 13:59 14.01.2020
4438 Clouds 6 1019 52 10000 0.5 0 13:41 14.01.2020
4439 Clouds 6 1020 56 10000 1 0 13:19 14.01.2020
4440 Clouds 5 1020 60 10000 1 0 12:42 14.01.2020
4441 Clouds 5 1020 55 10000 1 0 12:24 14.01.2020
4442 Clouds 3 1020 59 10000 1.5 230 11:58 14.01.2020
4443 Clouds 3 1021 79 10000 1 0 11:40 14.01.2020
4444 Clouds 2 1020 64 10000 1 0 11:22 14.01.2020
4445 Clouds 1 1019 92 10000 1 0 10:56 14.01.2020
4446 Clouds 0 1026 67 10000 2.6 70 10:37 14.01.2020
4447 Clouds 0 1018 85 10000 0.5 0 10:19 14.01.2020
4448 Clouds -1 1019 79 10000 1 0 09:43 14.01.2020
4449 Clouds -2 1020 85 10000 3.1 90 09:24 14.01.2020
4450 Clouds -3 1020 85 10000 2.6 90 08:58 14.01.2020
4451 Clouds -3 1020 85 10000 2.6 90 08:39 14.01.2020
4452 Clouds -3 1020 85 10000 1 100 08:20 14.01.2020
4453 Clouds -3 1019 92 10000 1.78 212 07:46 14.01.2020
4454 Clouds -3 1018 85 10000 1.78 212 07:18 14.01.2020
4455 Clouds -3 1018 85 0 1 0 06:42 14.01.2020
4456 Clouds -3 1018 79 10000 1.5 230 05:57 14.01.2020
4457 Clouds -2 1018 74 10000 2.6 280 04:49 14.01.2020
4458 Clouds -2 1019 86 10000 2.6 220 03:45 14.01.2020
4459 Clouds -2 1019 79 10000 1.5 240 02:32 14.01.2020
4460 Clouds -2 1019 85 0 1.52 204 01:19 14.01.2020
4461 Clouds -2 1020 85 0 1.52 204 00:47 14.01.2020
4462 Clouds -2 1020 85 0 0.5 0 00:21 14.01.2020
4463 Clouds -2 1020 85 0 0.5 0 00:21 14.01.2020
4464 Clouds -2 1019 80 10000 1.5 240 23:42 13.01.2020
4465 Clouds -1 1019 85 0 1 0 23:19 13.01.2020
4466 Clouds -1 1018 85 0 0.5 0 22:56 13.01.2020
4467 Clouds -2 1025 100 0 1 0 22:37 13.01.2020
4468 Clouds -1 1019 79 0 1.72 211 22:19 13.01.2020
4469 Clouds -1 1019 86 0 2.1 70 21:55 13.01.2020
4470 Clouds -1 1025 92 0 1.72 211 21:36 13.01.2020
4471 Clouds 0 1019 52 10000 1.5 210 21:18 13.01.2020
4472 Clouds -1 1020 86 0 1.5 60 20:42 13.01.2020
4473 Clear -1 1020 86 0 2.1 80 20:23 13.01.2020
4474 Clear -1 1020 86 0 2.1 80 20:23 13.01.2020
4475 Clouds 0 1020 86 0 1 310 20:00 13.01.2020
4476 Clouds 0 1020 86 0 1 310 19:41 13.01.2020
4477 Clouds 0 1020 92 0 0.5 0 19:20 13.01.2020
4478 Clouds 0 1020 86 0 0.5 0 18:58 13.01.2020
4479 Clouds 0 1024 80 0 1.52 238 18:38 13.01.2020
4480 Clouds 1 1020 86 0 0.5 0 18:19 13.01.2020
4481 Clouds 1 1019 55 0 1 0 17:58 13.01.2020
4482 Clouds 2 1019 55 0 1 0 17:38 13.01.2020
4483 Clouds 3 1020 64 10000 1 190 17:20 13.01.2020
4484 Clouds 4 1024 60 10000 1.5 120 16:42 13.01.2020
4485 Clouds 4 1024 56 10000 2.1 250 16:22 13.01.2020
4486 Clouds 5 1023 45 0 1.96 191 15:58 13.01.2020
4487 Clouds 5 1021 31 0 1.96 191 15:40 13.01.2020
4488 Clouds 6 1022 68 0 1.96 191 15:20 13.01.2020
4489 Clouds 5 1036 31 0 1.788 67 14:43 13.01.2020
4490 Clouds 6 1022 68 0 1.96 191 14:24 13.01.2020
4491 Clouds 5 1022 41 0 2.72 183 13:59 13.01.2020
4492 Clouds 5 1023 44 0 2.72 183 13:40 13.01.2020
4493 Clouds 5 1023 44 0 2.72 183 13:40 13.01.2020
4494 Clouds 5 1023 41 0 2.71 183 13:21 13.01.2020
4495 Clouds 4 1023 45 0 2.71 183 12:57 13.01.2020
4496 Clouds 4 1024 74 10000 0.5 0 12:39 13.01.2020
4497 Clouds 4 1024 74 10000 0.5 0 12:21 13.01.2020
4498 Clouds 2 1028 69 10000 1 0 11:40 13.01.2020
4499 Clouds 1 1024 80 10000 2.23 195 11:20 13.01.2020
4500 Clouds 1 1024 80 10000 2.23 195 11:20 13.01.2020
4501 Clouds 1 1025 86 10000 2.23 195 10:58 13.01.2020
4502 Clouds 0 1025 86 10000 2.23 195 10:39 13.01.2020
4503 Clouds 0 1025 86 10000 2.23 195 10:39 13.01.2020
4504 Clouds -1 1025 86 10000 2.23 195 10:20 13.01.2020
4505 Clouds -1 1025 86 10000 2.23 195 10:20 13.01.2020
4506 Clouds -2 1024 92 10000 1 0 09:58 13.01.2020
4507 Clouds -2 1028 100 10000 2.23 195 09:38 13.01.2020
4508 Clouds -2 1024 85 10000 1 140 09:19 13.01.2020
4509 Clouds -2 1024 79 10000 1.5 240 08:41 13.01.2020
4510 Clouds -3 1024 92 10000 1.52 208 08:20 13.01.2020
4511 Clouds -3 1024 86 10000 1.5 240 07:48 13.01.2020
4512 Clouds -3 1025 79 10000 1.5 260 07:27 13.01.2020
4513 Clouds -3 1026 100 0 1.52 208 06:43 13.01.2020
4514 Clouds -3 1025 79 10000 2.1 230 06:21 13.01.2020
4515 Clouds -2 1026 74 10000 1.5 270 05:27 13.01.2020
4516 Clear -2 1026 79 10000 1 230 03:55 13.01.2020
4517 Clear -2 1027 92 0 0.5 0 03:25 13.01.2020
4518 Clear -2 1027 86 10000 1.5 250 02:47 13.01.2020
4519 Clear -2 1027 80 10000 1.5 240 02:28 13.01.2020
4520 Clouds -1 1027 80 10000 2.1 250 01:21 13.01.2020
4521 Clouds -1 1028 86 10000 2.1 250 00:41 13.01.2020
4522 Clouds -1 1028 86 10000 1.5 240 00:23 13.01.2020
4523 Clouds -1 1028 80 10000 1 220 23:54 12.01.2020
4524 Clouds -1 1028 29 10000 2.1 280 23:36 12.01.2020
4525 Clouds -1 1028 26 10000 2.1 280 23:18 12.01.2020
4526 Clouds -1 1028 26 10000 1.5 250 22:42 12.01.2020
4527 Clouds -1 1029 26 10000 1.5 210 22:23 12.01.2020
4528 Clouds 0 1029 69 10000 1.5 0 21:56 12.01.2020
4529 Clouds 0 1027 74 0 3.55 335 21:38 12.01.2020
4530 Clouds 0 1029 74 10000 2.1 270 21:19 12.01.2020
4531 Clouds 0 1029 74 10000 0.5 0 20:56 12.01.2020
4532 Clouds 1 1027 80 0 1 70 20:38 12.01.2020
4533 Clouds 1 1029 80 10000 1 0 20:20 12.01.2020
4534 Clouds 1 1028 74 10000 2.1 270 19:56 12.01.2020
4535 Clouds 1 1027 80 0 1 0 19:37 12.01.2020
4536 Clouds 1 1028 74 10000 1 0 19:18 12.01.2020
4537 Clouds 1 1028 74 10000 1.5 250 18:57 12.01.2020
4538 Clouds 2 1028 74 10000 1.5 250 18:39 12.01.2020
4539 Clouds 2 1028 74 10000 1.5 260 18:21 12.01.2020
4540 Clouds 2 1028 74 10000 0.5 0 17:43 12.01.2020
4541 Clouds 3 1028 80 0 1.5 80 17:23 12.01.2020
4542 Clouds 3 1028 80 0 1.5 80 17:23 12.01.2020
4543 Clouds 4 1028 69 10000 0.5 0 16:59 12.01.2020
4544 Clouds 4 1028 69 10000 0.5 0 16:40 12.01.2020
4545 Clouds 5 1028 74 10000 2.1 220 16:21 12.01.2020
4546 Clouds 5 1028 74 10000 2.1 220 16:21 12.01.2020
4547 Clouds 5 1028 35 10000 2.6 90 15:58 12.01.2020
4548 Clouds 5 1028 35 10000 2.6 90 15:39 12.01.2020
4549 Clouds 5 1028 65 10000 1.5 0 15:21 12.01.2020
4550 Clouds 5 1028 35 10000 1 90 14:44 12.01.2020
4551 Clouds 5 1028 35 10000 0.5 0 14:25 12.01.2020
4552 Clear 6 1028 59 10000 1 0 13:57 12.01.2020
4553 Clear 6 1028 59 10000 1 0 13:39 12.01.2020
4554 Clear 5 1028 60 10000 0.5 0 13:20 12.01.2020
4555 Clear 5 1029 58 10000 0.5 0 12:57 12.01.2020
4556 Clear 5 1029 56 0 3 332 12:38 12.01.2020
4557 Clear 5 1029 65 10000 0.5 0 12:19 12.01.2020
4558 Clear 4 1029 69 10000 1 0 11:42 12.01.2020
4559 Clear 1 1029 74 10000 2.1 210 11:22 12.01.2020
4560 Clear 1 1029 26 10000 1.5 0 10:57 12.01.2020
4561 Clear 1 1029 26 10000 1.5 0 10:39 12.01.2020
4562 Clear 1 1029 26 10000 1.5 0 10:39 12.01.2020
4563 Clear -1 1029 85 0 1 0 10:20 12.01.2020
4564 Clear -1 1029 79 0 2.6 120 09:43 12.01.2020
4565 Clear -1 1029 92 0 3.1 100 09:23 12.01.2020
4566 Clear -1 1029 92 0 1.64 311 08:48 12.01.2020
4567 Clear -1 1029 92 0 0.5 0 08:25 12.01.2020
4568 Clear -2 1029 92 0 1 0 07:58 12.01.2020
4569 Clear -2 1029 92 0 1.5 110 07:38 12.01.2020
4570 Clear -2 1029 92 0 1.5 110 07:19 12.01.2020
4571 Clear -2 1031 100 0 1 0 06:40 12.01.2020
4572 Clear -2 1028 92 0 1 0 05:58 12.01.2020
4573 Clear -1 1028 92 0 1.55 214 05:18 12.01.2020
4574 Clear -1 1029 86 10000 1.5 0 03:44 12.01.2020
4575 Clear -1 1030 92 0 0.5 0 02:52 12.01.2020
4576 Clear -1 1029 20 10000 2.1 280 02:27 12.01.2020
4577 Clear -1 1030 100 0 0.75 237 01:35 12.01.2020
4578 Clear -1 1030 92 0 0.5 0 00:57 12.01.2020
4579 Clear 0 1030 100 0 1.13 232 00:37 12.01.2020
4580 Clear -1 1030 92 0 1.13 232 00:18 12.01.2020
4581 Clear 0 1030 92 0 1.13 232 23:41 11.01.2020
4582 Clear 0 1030 74 10000 2.1 260 23:19 11.01.2020
4583 Clear 0 1030 92 0 0.41 224 22:56 11.01.2020
4584 Clear 0 1030 100 0 1 80 22:38 11.01.2020
4585 Clear 0 1030 92 0 0.41 224 22:20 11.01.2020
4586 Clear 0 1030 92 0 2.6 100 21:54 11.01.2020
4587 Clear 0 1030 13 0 0.41 224 21:36 11.01.2020
4588 Clear 0 1030 92 0 1 0 21:18 11.01.2020
4589 Clear 1 1030 13 0 1 0 20:39 11.01.2020
4590 Clear 1 1030 86 0 1 0 20:20 11.01.2020
4591 Clear 1 1030 86 0 1 0 19:58 11.01.2020
4592 Clear 2 1030 80 0 3.1 110 19:38 11.01.2020
4593 Clear 1 1030 80 0 3.1 110 19:20 11.01.2020
4594 Clear 2 1030 86 0 1.5 100 18:56 11.01.2020
4595 Clear 2 1029 74 0 1.5 330 18:37 11.01.2020
4596 Clear 2 1031 17 0 2.1 110 18:19 11.01.2020
4597 Clear 2 1031 17 0 2.1 110 18:19 11.01.2020
4598 Clear 2 1030 64 0 4.6 90 17:57 11.01.2020
4599 Clear 2 1030 64 0 4.6 90 17:39 11.01.2020
4600 Clear 4 1030 64 0 3.6 90 17:18 11.01.2020
4601 Clear 4 1030 69 0 4.6 90 16:44 11.01.2020
4602 Clear 4 1030 69 0 4.6 70 16:25 11.01.2020
4603 Clear 4 1030 74 0 3.6 0 15:56 11.01.2020
4604 Clear 4 1027 53 0 1 0 15:38 11.01.2020
4605 Clear 5 1030 80 0 2.29 347 15:20 11.01.2020
4606 Clear 5 1030 80 0 2.1 100 14:46 11.01.2020
4607 Clear 5 1030 80 0 2.1 100 14:46 11.01.2020
4608 Clear 5 1031 86 0 2.29 347 14:25 11.01.2020
4609 Clouds 4 1031 80 0 2.1 260 13:57 11.01.2020
4610 Clouds 5 1028 49 0 1 0 13:38 11.01.2020
4611 Clouds 5 1031 80 0 0.5 0 13:20 11.01.2020
4612 Clear 4 1031 80 0 0.5 0 12:56 11.01.2020
4613 Clear 4 1029 65 0 0.5 0 12:37 11.01.2020
4614 Clear 4 1031 57 0 0.5 0 12:19 11.01.2020
4615 Clear 4 1031 80 0 1 0 11:42 11.01.2020
4616 Clear 3 1032 74 0 3.1 120 11:24 11.01.2020
4617 Clouds 3 1032 80 0 3.6 110 10:46 11.01.2020
4618 Clouds 2 1032 57 0 3.6 110 10:25 11.01.2020
4619 Clouds 1 1033 86 0 4.1 100 09:43 11.01.2020
4620 Clouds 1 1033 92 0 2.6 100 09:21 11.01.2020
4621 Clouds 1 1033 92 0 2.6 100 09:21 11.01.2020
4622 Clouds 1 1032 86 0 3.1 90 08:43 11.01.2020
4623 Clouds 2 1032 57 0 3.6 110 08:24 11.01.2020
4624 Clouds 1 1032 92 0 4.5 343 07:59 11.01.2020
4625 Clouds 2 1028 100 0 0.5 0 07:41 11.01.2020
4626 Clouds 2 1031 92 0 4.5 343 07:22 11.01.2020
4627 Clouds 1 1031 92 0 4.5 343 06:42 11.01.2020
4628 Clouds 1 1032 93 0 1 0 05:22 11.01.2020
4629 Clouds 1 1028 100 0 0.5 0 04:38 11.01.2020
4630 Clouds 1 1031 93 0 3.1 100 04:20 11.01.2020
4631 Clouds 2 1031 86 10000 2.6 240 02:46 11.01.2020
4632 Clouds 1 1030 100 0 2.1 70 01:45 11.01.2020
4633 Clouds 1 1030 92 0 1 0 01:25 11.01.2020
4634 Clouds 2 1030 92 0 0.5 0 00:52 11.01.2020
4635 Clouds 2 1030 92 0 2.1 80 00:24 11.01.2020
4636 Clouds 2 1030 92 0 1 0 23:58 10.01.2020
4637 Clouds 2 1027 92 0 4.05 341 23:38 10.01.2020
4638 Clouds 2 1030 91 0 1 0 23:20 10.01.2020
4639 Clouds 2 1030 86 0 1.5 0 22:41 10.01.2020
4640 -273 0 0 0 0 0 22:22 10.01.2020
4641 Clouds 2 1029 91 0 0.5 0 21:58 10.01.2020
4642 Clouds 2 1026 100 0 4.35 338 21:40 10.01.2020
4643 Clouds 2 1028 86 0 0.5 0 21:20 10.01.2020
4644 Clouds 2 1028 86 0 0.5 0 21:20 10.01.2020
4645 Clouds 2 1028 91 0 2.1 130 20:56 10.01.2020
4646 Clouds 2 1026 91 0 4.35 338 20:38 10.01.2020
4647 Clouds 2 1028 80 10000 1.5 0 20:19 10.01.2020
4648 Clouds 3 1028 80 0 2.1 90 19:40 10.01.2020
4649 Clouds 3 1028 80 0 2.1 90 19:40 10.01.2020
4650 Clouds 3 1027 90 0 1 0 19:20 10.01.2020
4651 Rain 3 1027 90 0 2.1 90 18:55 10.01.2020
4652 Rain 4 1025 90 0 4.34 335 18:36 10.01.2020
4653 Rain 4 1027 90 0 1 0 18:18 10.01.2020
4654 Rain 3 1026 90 0 1 0 17:56 10.01.2020
4655 Clouds 4 1024 90 0 4.34 335 17:37 10.01.2020
4656 Clouds 5 1025 87 0 3.09 342 17:19 10.01.2020
4657 Clouds 5 1024 87 10000 3.09 342 16:41 10.01.2020
4658 Clouds 6 1024 87 10000 3.09 342 16:21 10.01.2020
4659 Clouds 6 1024 80 10000 3.09 342 15:56 10.01.2020
4660 Clouds 6 1024 80 10000 3.09 342 15:56 10.01.2020
4661 Clouds 6 1023 70 10000 1.5 190 15:37 10.01.2020
4662 Clouds 6 1024 87 10000 2.1 120 15:19 10.01.2020
4663 Clouds 6 1024 70 10000 0.5 0 14:57 10.01.2020
4664 Clouds 6 1023 87 10000 1.5 90 14:39 10.01.2020
4665 Clouds 7 1023 65 10000 1.5 90 14:19 10.01.2020
4666 Clouds 6 1023 80 10000 0.5 0 13:54 10.01.2020
4667 Clear 6 1023 86 0 0.76 216 13:36 10.01.2020
4668 Clear 6 1023 86 0 0.62 222 13:18 10.01.2020
4669 Clear 6 1023 80 0 1.5 260 12:54 10.01.2020
4670 Clouds 6 1024 52 0 1 0 12:36 10.01.2020
4671 Clear 6 1023 74 10000 1 0 12:18 10.01.2020
4672 Clouds 5 1022 80 10000 1 0 11:42 10.01.2020
4673 Clouds 5 1022 80 10000 1 0 11:42 10.01.2020
4674 Clouds 5 1022 80 10000 1 0 11:42 10.01.2020
4675 Clouds 5 1022 80 10000 1 0 11:42 10.01.2020
4676 Clouds 5 1022 80 10000 1 0 11:42 10.01.2020
4677 Clouds 3 1022 86 10000 1.5 300 11:21 10.01.2020
4678 Clouds 2 1022 86 10000 1.5 310 10:59 10.01.2020
4679 Clouds 2 1025 65 10000 1 0 10:38 10.01.2020
4680 Clouds 2 1022 86 10000 1 0 10:19 10.01.2020
4681 Clouds 1 1022 63 10000 1.5 70 09:48 10.01.2020
4682 Clouds 1 1022 92 10000 2.1 110 09:27 10.01.2020
4683 Clouds 1 1022 92 10000 2.6 100 08:59 10.01.2020
4684 Clouds 0 1022 92 10000 2.6 100 08:38 10.01.2020
4685 Clouds 0 1021 86 10000 1 0 08:20 10.01.2020
4686 Clouds 1 1021 92 10000 1 0 07:41 10.01.2020
4687 Clouds 0 1021 92 10000 1.18 296 07:22 10.01.2020
4688 Clouds 0 1021 92 0 1.18 296 06:43 10.01.2020
4689 Clouds 0 1021 86 0 1 0 06:24 10.01.2020
4690 Clouds -1 1025 60 0 1 50 05:33 10.01.2020
4691 Clouds -1 1021 92 0 1 0 05:33 10.01.2020
4692 Clouds 0 1025 100 0 0.5 0 03:34 10.01.2020
4693 Clouds 0 1020 86 0 1 0 02:54 10.01.2020
4694 Clouds 0 1025 100 0 1 0 02:36 10.01.2020
4695 Clouds 0 1025 100 0 1 30 01:34 10.01.2020
4696 Clouds 0 1019 86 0 1.5 120 00:56 10.01.2020
4697 Clouds 0 1026 100 0 1.92 203 00:38 10.01.2020
4698 Clouds 1 1019 74 10000 2.6 250 23:57 09.01.2020
4699 Clouds 0 1026 100 0 0.5 0 23:37 09.01.2020
4700 Clouds 1 1018 86 0 0.5 0 23:19 09.01.2020
4701 Clouds 1 1018 86 0 0.5 0 23:19 09.01.2020
4702 Clouds 1 1018 86 0 2.1 0 22:56 09.01.2020
4703 Clouds 1 1026 100 0 0.5 0 22:37 09.01.2020
4704 Clouds 1 1019 92 0 2.17 195 22:18 09.01.2020
4705 Clouds 2 1018 74 10000 2.6 250 21:56 09.01.2020
4706 Clouds 1 1026 100 0 1 70 21:37 09.01.2020
4707 Clouds 2 1020 86 0 1 0 21:18 09.01.2020
4708 Clouds 2 1019 80 10000 1 0 20:55 09.01.2020
4709 Clouds 2 1020 86 0 2.6 100 20:37 09.01.2020
4710 Clouds 2 1020 74 10000 1.5 220 20:19 09.01.2020
4711 Clouds 2 1020 74 10000 1.5 220 19:54 09.01.2020
4712 Clouds 2 1020 74 10000 2.1 230 19:36 09.01.2020
4713 Clouds 2 1020 74 10000 2.1 250 19:18 09.01.2020
4714 Clouds 3 1020 69 10000 2.1 240 18:41 09.01.2020
4715 Clouds 3 1020 74 10000 1.5 260 18:22 09.01.2020
4716 Clouds 3 1020 74 10000 1.5 260 17:58 09.01.2020
4717 Clouds 4 1020 74 10000 0.5 0 17:40 09.01.2020
4718 Clouds 5 1020 80 0 2.09 183 17:18 09.01.2020
4719 Clouds 5 1020 80 0 2.09 183 17:18 09.01.2020
4720 Clouds 6 1021 74 0 1.5 300 16:46 09.01.2020
4721 Clouds 6 1021 74 10000 1 0 16:22 09.01.2020
4722 Clouds 6 1021 69 10000 2.6 90 15:44 09.01.2020
4723 Clouds 7 1021 65 10000 1 50 15:25 09.01.2020
4724 Clouds 7 1021 65 10000 1 50 14:59 09.01.2020
4725 Clouds 8 1022 52 10000 1.5 80 14:41 09.01.2020
4726 Clouds 8 1022 79 10000 2.1 60 14:19 09.01.2020
4727 Clouds 8 1022 79 10000 2.1 60 13:57 09.01.2020
4728 Clouds 8 1022 56 10000 1.5 60 13:38 09.01.2020
4729 Clouds 8 1023 56 10000 1.5 70 13:19 09.01.2020
4730 Clouds 8 1023 56 10000 1.5 70 12:57 09.01.2020
4731 Clouds 7 1023 49 10000 0.5 0 12:38 09.01.2020
4732 Clouds 6 1023 52 10000 1 0 12:18 09.01.2020
4733 Clouds 5 1024 64 10000 1.5 240 11:43 09.01.2020
4734 Clouds 5 1024 64 10000 1.5 240 11:25 09.01.2020
4735 Clouds 4 1025 58 10000 2.13 195 10:59 09.01.2020
4736 Clouds 3 1025 92 10000 1 0 10:41 09.01.2020
4737 Clouds 2 1025 86 10000 2.13 195 10:21 09.01.2020
4738 Clouds 1 1025 92 10000 1 0 09:47 09.01.2020
4739 Clouds 1 1025 69 10000 2.1 280 09:25 09.01.2020
4740 Clouds 1 1025 69 10000 2.1 280 08:59 09.01.2020
4741 Clouds 0 1026 86 10000 2.13 195 08:39 09.01.2020
4742 Clouds 0 1026 92 10000 1.5 90 08:21 09.01.2020
4743 Clouds 0 1027 86 10000 3.6 110 07:53 09.01.2020
4744 Clouds 0 1027 86 10000 3.6 110 07:33 09.01.2020
4745 Clouds 0 1027 92 0 1.5 80 06:52 09.01.2020
4746 Clouds 0 1027 92 0 1.5 80 06:32 09.01.2020
4747 Clouds 0 1026 92 0 0.5 0 05:52 09.01.2020
4748 Clouds 0 1026 92 0 0.5 0 05:26 09.01.2020
4749 Clouds 0 1026 74 10000 1 0 04:40 09.01.2020
4750 Clouds 0 1027 53 10000 2.1 290 03:27 09.01.2020
4751 Clouds 1 1028 69 10000 2.1 250 02:47 09.01.2020
4752 Clouds 1 1029 55 10000 2.1 250 01:42 09.01.2020
4753 Clouds 1 1029 55 10000 1 0 01:18 09.01.2020
4754 Clouds 1 1030 55 10000 1 0 00:38 09.01.2020
4755 Clouds 1 1030 74 10000 1 0 00:19 09.01.2020
4756 Clouds 1 1030 74 10000 1 0 00:19 09.01.2020
4757 Clouds 1 1030 80 10000 1.5 0 23:40 08.01.2020
4758 Clouds 1 1030 86 0 1 0 23:22 08.01.2020
4759 Clouds 1 1030 92 0 1.5 210 22:56 08.01.2020
4760 Clouds 1 1030 74 10000 1.5 250 22:37 08.01.2020
4761 Clouds 1 1030 80 10000 1.5 0 22:18 08.01.2020
4762 Clouds 1 1030 80 10000 1.5 0 21:55 08.01.2020
4763 Clouds 1 1030 86 0 1 0 21:37 08.01.2020
4764 Clouds 2 1029 80 10000 2.1 250 21:18 08.01.2020
4765 Clouds 1 1029 74 10000 2.1 250 20:41 08.01.2020
4766 Clouds 2 1029 74 10000 1.5 250 20:21 08.01.2020
4767 Clouds 2 1029 74 10000 1.5 250 19:59 08.01.2020
4768 Clouds 2 1030 80 10000 1.5 0 19:38 08.01.2020
4769 Clouds 2 1030 44 0 2.94 334 19:20 08.01.2020
4770 Clouds 2 1030 44 0 2.94 334 18:58 08.01.2020
4771 Clouds 2 1030 74 10000 1 0 18:39 08.01.2020
4772 Clouds 2 1030 69 10000 1.5 270 18:19 08.01.2020
4773 Clouds 3 1030 69 10000 1.5 270 17:57 08.01.2020
4774 Clouds 3 1030 74 10000 1.5 0 17:38 08.01.2020
4775 Clouds 3 1030 69 10000 2.1 320 17:19 08.01.2020
4776 Clouds 4 1030 69 10000 2.1 320 16:56 08.01.2020
4777 Clouds 5 1030 69 10000 1 0 16:38 08.01.2020
4778 Clouds 5 1030 60 10000 1 0 16:18 08.01.2020
4779 Clouds 6 1030 50 10000 1 0 15:44 08.01.2020
4780 Clouds 6 1030 50 10000 3.1 70 15:21 08.01.2020
4781 Clouds 6 1030 50 10000 3.1 70 14:59 08.01.2020
4782 Clouds 6 1030 50 10000 1.5 110 14:40 08.01.2020
4783 Clouds 6 1030 50 10000 1.5 110 14:40 08.01.2020
4784 Clouds 6 1029 66 10000 1.5 60 14:21 08.01.2020
4785 Clouds 5 1030 66 10000 1 0 13:41 08.01.2020
4786 Clouds 5 1031 80 10000 1 0 13:22 08.01.2020
4787 Clouds 5 1031 80 10000 1 0 13:22 08.01.2020
4788 Clouds 6 1031 80 10000 1 0 12:55 08.01.2020
4789 Clouds 5 1031 70 10000 0.5 0 12:37 08.01.2020
4790 Clouds 3 1032 80 10000 1.5 110 12:18 08.01.2020
4791 Clouds 3 1032 86 10000 1.5 310 11:48 08.01.2020
4792 Clouds 3 1032 86 10000 1.5 310 11:48 08.01.2020
4793 Clouds 1 1032 80 10000 1.5 130 11:19 08.01.2020
4794 Clouds 1 1032 80 10000 1.5 130 10:59 08.01.2020
4795 Clouds 1 1032 80 10000 1.5 130 10:59 08.01.2020
4796 Clouds 0 1033 92 10000 1.5 90 10:40 08.01.2020
4797 Clouds 0 1032 92 10000 1.5 240 10:21 08.01.2020
4798 Clouds 0 1032 92 10000 1.5 240 10:21 08.01.2020
4799 Clouds -1 1031 86 10000 0.5 0 09:43 08.01.2020
4800 Clouds -1 1031 86 10000 1 0 09:20 08.01.2020
4801 Clouds -1 1030 86 10000 2.1 250 08:58 08.01.2020
4802 Clouds -2 1030 86 10000 2.1 250 08:40 08.01.2020
4803 Clear -2 1031 92 10000 3.38 326 08:21 08.01.2020
4804 Clear -2 1031 86 10000 3.38 326 07:52 08.01.2020
4805 Clear -2 1031 86 10000 3.38 326 07:33 08.01.2020
4806 Clear -2 1031 92 10000 0.5 0 06:58 08.01.2020
4807 Clear -2 1031 92 0 2.6 100 06:40 08.01.2020
4808 Clear -1 1030 92 0 3.38 326 05:54 08.01.2020
4809 Clear -2 1030 92 0 1 0 05:25 08.01.2020
4810 Clear -1 1030 92 0 1 0 04:35 08.01.2020
4811 Clear -1 1031 86 0 2.12 319 02:46 08.01.2020
4812 Clear -1 1031 86 0 2.12 319 02:28 08.01.2020
4813 Clouds -1 1030 92 0 3.1 110 01:54 08.01.2020
4814 Clouds -1 1030 92 0 1.6 316 01:29 08.01.2020
4815 Clouds -1 1030 27 10000 2.1 240 00:42 08.01.2020
4816 Clouds 0 1030 100 0 1.6 316 00:21 08.01.2020
4817 Clouds 0 1030 27 10000 2.1 280 23:45 07.01.2020
4818 Clouds 0 1030 37 0 1 0 23:20 07.01.2020
4819 Clouds 0 1030 86 0 1 0 22:41 07.01.2020
4820 Clouds 0 1031 80 10000 3.1 110 22:21 07.01.2020
4821 Clouds 0 1031 37 10000 2.1 90 21:58 07.01.2020
4822 Clouds 1 1031 37 10000 2.1 90 21:40 07.01.2020
4823 Clouds 1 1031 37 10000 2.6 110 21:21 07.01.2020
4824 Clouds 1 1031 37 10000 2.6 110 20:57 07.01.2020
4825 Clouds 1 1031 37 10000 4.6 110 20:39 07.01.2020
4826 Clouds 1 1031 75 10000 5.7 70 20:21 07.01.2020
4827 Clouds 2 1031 75 10000 5.7 70 19:56 07.01.2020
4828 Clouds 2 1031 75 10000 5.7 70 19:37 07.01.2020
4829 Clouds 2 1030 70 10000 8.2 70 19:18 07.01.2020
4830 Clouds 2 1030 70 10000 8.2 70 19:18 07.01.2020
4831 Clouds 2 1030 75 10000 8.2 70 18:55 07.01.2020
4832 Clouds 2 1030 75 10000 8.2 70 18:37 07.01.2020
4833 Clouds 2 1029 70 10000 3.1 0 18:18 07.01.2020
4834 Clouds 2 1029 70 10000 3.1 0 18:18 07.01.2020
4835 Clouds 2 1029 70 10000 3.1 0 18:18 07.01.2020
4836 Clouds 2 1029 74 0 1 0 17:41 07.01.2020
4837 Clouds 3 1029 66 10000 1 0 17:22 07.01.2020
4838 Clouds 3 1029 66 10000 1 0 16:58 07.01.2020
4839 Clouds 3 1029 80 10000 1 0 16:38 07.01.2020
4840 Clouds 3 1029 80 10000 1 0 16:38 07.01.2020
4841 Clouds 3 1029 80 10000 1 0 16:38 07.01.2020
4842 Clouds 3 1030 75 10000 0.5 0 16:19 07.01.2020
4843 Clouds 3 1030 75 10000 0.5 0 15:59 07.01.2020
4844 Clouds 3 1029 74 10000 2.6 0 15:40 07.01.2020
4845 Clear 4 1029 70 10000 0.5 0 15:22 07.01.2020
4846 Clear 4 1029 70 10000 0.5 0 14:56 07.01.2020
4847 Clear 4 1029 66 10000 1 0 14:37 07.01.2020
4848 Clouds 4 1029 76 10000 5.13 333 14:19 07.01.2020
4849 Clouds 4 1030 76 10000 5.13 333 13:40 07.01.2020
4850 Clouds 4 1030 86 0 1.5 90 13:19 07.01.2020
4851 Clouds 3 1031 86 0 1 0 12:42 07.01.2020
4852 Clouds 3 1031 86 0 1 0 12:21 07.01.2020
4853 Clouds 3 1031 86 0 1 0 11:59 07.01.2020
4854 Clouds 2 1031 82 10000 0.5 0 11:40 07.01.2020
4855 Clouds 2 1031 79 10000 1 0 11:21 07.01.2020
4856 Clouds 1 1031 79 10000 0.5 0 10:42 07.01.2020
4857 Clouds 0 1031 79 10000 0.5 0 10:24 07.01.2020
4858 Clouds 0 1031 86 10000 1.5 0 09:59 07.01.2020
4859 Clouds -1 1030 92 10000 1 0 09:38 07.01.2020
4860 Clouds -1 1030 92 10000 1 0 09:20 07.01.2020
4861 Clouds -1 1030 80 10000 0.5 0 08:46 07.01.2020
4862 Clouds -1 1030 80 10000 0.5 0 08:27 07.01.2020
4863 Clouds -1 1029 92 10000 3.1 100 07:54 07.01.2020
4864 Clouds -1 1029 92 10000 1 0 07:29 07.01.2020
4865 Clouds -1 1029 86 0 3.6 90 06:54 07.01.2020
4866 Clouds -1 1029 86 0 3.6 90 06:54 07.01.2020
4867 Clouds -1 1029 86 0 3.6 90 06:35 07.01.2020
4868 Clouds -1 1029 86 0 1 0 05:57 07.01.2020
4869 Clouds -1 1030 92 0 2.1 110 05:38 07.01.2020
4870 Clear -2 1028 92 0 1 0 03:44 07.01.2020
4871 Clear -2 1028 92 0 2.1 0 02:25 07.01.2020
4872 Clear -1 1028 92 0 2.1 0 01:57 07.01.2020
4873 Clear -2 1028 92 0 1.5 300 01:34 07.01.2020
4874 Clear -2 1028 92 0 3.1 90 00:40 07.01.2020
4875 Clear -1 1029 92 0 4.76 327 00:20 07.01.2020
4876 Clear -1 1029 92 0 4.76 327 23:55 06.01.2020
4877 Clear -1 1028 92 0 1.5 80 23:36 06.01.2020
4878 Clear -1 1028 48 10000 0.5 0 23:18 06.01.2020
4879 Clear -1 1029 92 0 0.5 0 22:43 06.01.2020
4880 Clear -1 1029 92 0 4.68 326 22:23 06.01.2020
4881 Clear 0 1028 48 10000 1 260 21:57 06.01.2020
4882 Clear 0 1028 48 10000 1 260 21:39 06.01.2020
4883 Clear 0 1028 86 10000 2.1 210 21:20 06.01.2020
4884 Clear 0 1028 86 10000 2.1 210 21:20 06.01.2020
4885 Clear 0 1028 86 10000 2.1 210 21:20 06.01.2020
4886 Clear 0 1028 86 10000 2.1 210 20:57 06.01.2020
4887 Clear 0 1028 92 0 1 0 20:38 06.01.2020
4888 Clear 0 1028 46 10000 1.5 0 20:20 06.01.2020
4889 Clear 0 1028 48 10000 1.5 0 19:56 06.01.2020
4890 Clear 0 1028 48 10000 1.5 250 19:38 06.01.2020
4891 Clear 0 1028 48 10000 2.1 210 19:19 06.01.2020
4892 Clear 0 1027 80 10000 2.1 270 18:47 06.01.2020
4893 Clear 0 1027 80 10000 2.1 270 18:47 06.01.2020
4894 Clear 0 1028 48 10000 1 270 18:21 06.01.2020
4895 Clear 0 1028 48 10000 1 270 17:58 06.01.2020
4896 Clear 1 1028 80 10000 0.5 0 17:38 06.01.2020
4897 Clear 2 1027 86 10000 0.5 0 17:18 06.01.2020
4898 Clear 2 1027 80 10000 0.5 0 16:44 06.01.2020
4899 Clear 2 1027 86 10000 2.02 332 16:25 06.01.2020
4900 Clear 2 1027 80 10000 1 210 16:25 06.01.2020
4901 Clear 3 1027 86 10000 2.02 332 15:59 06.01.2020
4902 Clear 3 1027 86 10000 2.6 100 15:39 06.01.2020
4903 Clear 3 1027 92 10000 2.02 332 15:19 06.01.2020
4904 Clear 3 1027 92 10000 2.02 332 14:57 06.01.2020
4905 Clear 3 1027 64 10000 1 0 14:39 06.01.2020
4906 Clear 4 1028 89 10000 1 0 14:18 06.01.2020
4907 Clear 4 1028 89 10000 1 0 13:41 06.01.2020
4908 Clear 4 1029 90 10000 0.5 0 13:22 06.01.2020
4909 Clear 4 1029 90 10000 0.5 0 12:59 06.01.2020
4910 Clear 4 1030 90 10000 1 0 12:41 06.01.2020
4911 Clear 3 1030 90 10000 1 0 12:20 06.01.2020
4912 Clear 2 1030 90 10000 1 0 11:56 06.01.2020
4913 Clear 2 1030 92 10000 1 80 11:38 06.01.2020
4914 Clouds 1 1030 92 10000 1.48 328 11:20 06.01.2020
4915 Clouds 1 1030 92 10000 1.48 328 10:42 06.01.2020
4916 Clouds 1 1030 92 10000 1.48 328 10:42 06.01.2020
4917 Clouds 0 1030 92 10000 1.48 328 10:21 06.01.2020
4918 Clouds -1 1031 92 10000 2.1 240 09:42 06.01.2020
4919 Clouds -1 1030 85 10000 1 110 09:24 06.01.2020
4920 Clouds -2 1030 85 10000 1 110 08:58 06.01.2020
4921 Clouds -2 1031 92 10000 1.48 328 08:39 06.01.2020
4922 Clear -2 1031 92 10000 2 335 08:21 06.01.2020
4923 Clouds -2 1031 92 10000 2.02 335 08:21 06.01.2020
4924 Clear -2 1031 92 10000 2 335 07:46 06.01.2020
4925 Clear -2 1031 92 10000 1 0 07:21 06.01.2020
4926 Clear -2 1031 92 0 2 335 06:41 06.01.2020
4927 Clear -2 1031 92 0 1 110 05:51 06.01.2020
4928 Clear -2 1031 92 0 1 110 05:29 06.01.2020
4929 Clouds -2 1031 92 10000 1 260 04:25 06.01.2020
4930 Clear -2 1031 92 0 0.5 60 03:52 06.01.2020
4931 Clear -2 1031 92 0 1.31 320 02:32 06.01.2020
4932 Clear -1 1031 92 0 1 110 01:55 06.01.2020
4933 Clear -1 1031 92 0 1 100 01:32 06.01.2020
4934 Clear -1 1032 92 0 0.92 344 00:48 06.01.2020
4935 Clear -1 1032 92 0 0.92 344 00:29 06.01.2020
4936 Clear -1 1032 86 0 1 0 23:59 05.01.2020
4937 Clear -1 1032 92 0 1 0 23:40 05.01.2020
4938 Clear -1 1032 92 0 1.73 340 23:21 05.01.2020
4939 Clear -1 1032 86 0 1.73 340 22:40 05.01.2020
4940 Clear 0 1032 86 0 2.1 110 22:21 05.01.2020
4941 Clear -1 1032 86 0 2.1 110 21:59 05.01.2020
4942 Clear 0 1032 86 0 3.6 110 21:40 05.01.2020
4943 Clear 0 1033 86 0 4.6 120 21:20 05.01.2020
4944 Clear 0 1033 86 0 4.6 120 20:58 05.01.2020
4945 Clear 0 1033 80 0 4.6 100 20:39 05.01.2020
4946 Clear 0 1033 74 0 5.7 90 20:19 05.01.2020
4947 Clear 0 1033 74 0 5.7 90 19:58 05.01.2020
4948 Clear 0 1033 74 0 6.2 90 19:39 05.01.2020
4949 Clear 0 1033 74 0 6.2 90 19:39 05.01.2020
4950 Clear 0 1032 74 0 5.7 110 19:20 05.01.2020
4951 Clear 0 1032 74 0 5.7 110 18:56 05.01.2020
4952 Clear 0 1032 29 0 5.1 0 18:37 05.01.2020
4953 Clear 1 1034 80 10000 2.1 290 18:19 05.01.2020
4954 Clear 1 1034 80 10000 2.1 290 17:58 05.01.2020
4955 Clear 1 1034 80 10000 1.5 250 17:39 05.01.2020
4956 Clear 2 1033 74 0 4.6 120 17:20 05.01.2020
4957 Clear 1 1033 74 0 4.6 120 16:56 05.01.2020
4958 Clear 1 1033 74 0 4.6 120 16:56 05.01.2020
4959 Clear 2 1034 46 10000 1.5 220 16:38 05.01.2020
4960 Clear 2 1032 69 0 4.1 0 16:19 05.01.2020
4961 Clear 2 1033 46 0 6.7 60 15:39 05.01.2020
4962 Clear 2 1033 69 0 6.2 60 15:20 05.01.2020
4963 Clear 3 1033 69 0 6.2 60 14:56 05.01.2020
4964 Clear 3 1033 69 0 7.2 60 14:38 05.01.2020
4965 Clear 3 1033 69 0 5.1 0 14:20 05.01.2020
4966 Clear 3 1033 69 0 5.1 0 13:56 05.01.2020
4967 Clear 3 1033 69 0 5.7 60 13:38 05.01.2020
4968 Clear 3 1034 75 10000 1 0 13:19 05.01.2020
4969 Clear 3 1033 86 0 2.6 120 12:55 05.01.2020
4970 Clear 3 1034 75 10000 1 0 12:55 05.01.2020
4971 Clear 3 1033 86 0 2.6 120 12:37 05.01.2020
4972 Clear 3 1034 86 0 2.1 100 12:18 05.01.2020
4973 Clear 3 1034 86 0 2.1 100 12:18 05.01.2020
4974 Clouds 3 1034 80 0 1.5 120 11:43 05.01.2020
4975 Clouds 2 1034 74 0 2.1 70 11:20 05.01.2020
4976 Clouds 1 1034 74 0 2.1 70 10:58 05.01.2020
4977 Clouds 1 1034 69 0 3.6 20 10:39 05.01.2020
4978 Clouds 1 1034 69 0 3.6 20 10:39 05.01.2020
4979 Clouds 0 1034 69 0 3.1 20 10:19 05.01.2020
4980 Clouds 0 1034 69 0 2.1 50 09:42 05.01.2020
4981 Clouds 0 1034 69 0 2.1 50 09:42 05.01.2020
4982 Clouds 0 1034 74 0 2.1 100 09:22 05.01.2020
4983 Clouds 0 1034 69 0 2.1 170 08:50 05.01.2020
4984 Clouds 0 1034 69 0 2.1 170 08:31 05.01.2020
4985 Clouds -1 1034 69 0 3.1 0 07:59 05.01.2020
4986 Clouds -1 1034 69 0 3.6 70 07:39 05.01.2020
4987 Clouds -1 1035 45 10000 1 0 07:20 05.01.2020
4988 Clouds 0 1034 74 0 4.6 30 06:21 05.01.2020
4989 Clouds -1 1035 45 10000 0.5 0 05:33 05.01.2020
4990 Clouds 0 1034 74 0 3.1 90 04:48 05.01.2020
4991 Clouds 1 1034 74 0 5.7 60 04:18 05.01.2020
4992 Clouds 1 1034 74 0 5.7 30 02:47 05.01.2020
4993 Clouds 1 1034 74 0 5.7 30 02:24 05.01.2020
4994 Clouds 0 1035 69 10000 2.6 340 01:48 05.01.2020
4995 Clouds 1 1034 69 0 6.2 40 01:19 05.01.2020
4996 Clouds 1 1034 65 0 7.2 30 00:54 05.01.2020
4997 Clouds 1 1034 65 0 7.2 30 00:36 05.01.2020
4998 Clouds 1 1034 65 0 7.2 30 00:36 05.01.2020
4999 Clouds 2 1034 80 0 7.7 30 00:18 05.01.2020
5000 Clouds 2 1034 86 0 6.7 40 23:40 04.01.2020
5001 Clouds 1 1034 86 0 0.5 0 23:20 04.01.2020
5002 Clouds 2 1034 80 0 4.1 40 22:40 04.01.2020
5003 Clouds 1 1034 80 0 7.7 30 22:22 04.01.2020
5004 Clouds 2 1034 80 0 7.7 30 21:58 04.01.2020
5005 Clouds 2 1033 86 0 7.2 40 21:40 04.01.2020
5006 Clouds 2 1033 86 0 6.93 333 21:20 04.01.2020
5007 Clouds 2 1033 86 0 6.93 333 20:59 04.01.2020
5008 Clouds 2 1033 93 0 2.6 90 20:40 04.01.2020
5009 Clouds 2 1033 93 0 1 0 20:22 04.01.2020
5010 Clouds 2 1033 93 0 1 0 19:57 04.01.2020
5011 Clouds 2 1033 100 0 1 0 19:38 04.01.2020
5012 Clouds 2 1033 100 0 1 0 19:20 04.01.2020
5013 Clouds 3 1033 100 0 1 0 18:56 04.01.2020
5014 Clouds 2 1033 100 0 1 0 18:37 04.01.2020
5015 Clouds 2 1033 93 0 1 130 18:18 04.01.2020
5016 Clouds 2 1032 100 0 6.62 331 17:41 04.01.2020
5017 Clouds 4 1032 100 0 0.5 0 17:23 04.01.2020
5018 Clouds 4 1032 100 0 0.5 0 16:58 04.01.2020
5019 Clouds 4 1032 100 0 1 90 16:39 04.01.2020
5020 Clouds 4 1032 93 0 0.5 0 16:21 04.01.2020
5021 Clouds 4 1032 93 0 0.5 0 15:55 04.01.2020
5022 Clouds 4 1032 93 0 1 0 15:37 04.01.2020
5023 Clouds 5 1031 93 0 1.5 120 15:18 04.01.2020
5024 Clouds 4 1031 93 0 0.5 0 14:42 04.01.2020
5025 Clouds 4 1031 93 0 0.5 0 14:42 04.01.2020
5026 Clouds 5 1031 100 0 1 0 14:20 04.01.2020
5027 Clouds 5 1031 100 0 1 0 13:59 04.01.2020
5028 Drizzle 5 1031 81 10000 6.2 330 13:38 04.01.2020
5029 Clouds 5 1032 100 0 1 0 13:19 04.01.2020
5030 Clouds 5 1032 100 0 1 0 12:57 04.01.2020
5031 Clouds 5 1032 100 0 1.5 80 12:39 04.01.2020
5032 Clouds 5 1032 100 0 1.5 80 12:39 04.01.2020
5033 Clouds 4 1032 87 10000 1 0 12:18 04.01.2020
5034 Clouds 4 1032 87 10000 1 0 12:18 04.01.2020
5035 Clouds 4 1032 87 10000 1 0 11:56 04.01.2020
5036 Mist 4 1032 87 0 1 0 11:37 04.01.2020
5037 Clouds 4 1032 90 0 1 0 11:18 04.01.2020
5038 Mist 3 1032 90 0 0.5 0 10:40 04.01.2020
5039 Mist 3 1032 90 0 1 0 10:21 04.01.2020
5040 Clouds 3 1032 90 0 1 0 09:47 04.01.2020
5041 Clouds 2 1032 90 0 1 0 09:26 04.01.2020
5042 Mist 2 1031 90 0 5.44 333 08:49 04.01.2020
5043 Mist 2 1031 90 0 5.44 333 08:29 04.01.2020
5044 Mist 2 1031 91 0 5.3 332 07:57 04.01.2020
5045 Clouds 2 1031 91 0 5.3 332 07:39 04.01.2020
5046 Mist 2 1030 91 0 1.5 70 06:44 04.01.2020
5047 Mist 2 1031 91 0 5.3 332 05:59 04.01.2020
5048 Rain 1 1031 92 0 4.96 331 04:53 04.01.2020
5049 Rain 2 1031 92 0 4.96 331 04:32 04.01.2020
5050 Rain 2 1031 92 0 1.5 80 03:37 04.01.2020
5051 Rain 2 1030 93 10000 1 0 03:18 04.01.2020
5052 Drizzle 2 1030 90 0 1 0 02:18 04.01.2020
5053 Rain 1 1030 93 10000 1 0 01:51 04.01.2020
5054 Rain 1 1030 93 10000 1 0 01:30 04.01.2020
5055 Clouds 1 1030 93 10000 1.5 330 00:29 04.01.2020
5056 Clouds 1 1031 91 0 1 0 23:59 03.01.2020
5057 Clouds 1 1031 91 0 1.5 100 23:37 03.01.2020
5058 Rain 1 1031 90 0 1.5 90 23:19 03.01.2020
5059 Rain 2 1031 90 0 1 90 22:41 03.01.2020
5060 Rain 2 1031 90 0 2.6 90 22:19 03.01.2020
5061 Rain 2 1031 90 0 2.6 90 21:58 03.01.2020
5062 Clouds 2 1031 90 0 2.1 100 21:38 03.01.2020
5063 Clouds 2 1030 90 0 2.1 110 21:19 03.01.2020
5064 Clouds 2 1030 90 0 2.1 110 21:19 03.01.2020
5065 Clouds 2 1030 90 0 2.1 110 20:56 03.01.2020
5066 Clouds 1 1030 90 0 1.5 0 20:38 03.01.2020
5067 Clouds 1 1029 100 0 1.5 260 20:18 03.01.2020
5068 Clouds 1 1029 100 0 1.5 260 19:55 03.01.2020
5069 Clouds 1 1029 100 0 1.5 0 19:37 03.01.2020
5070 Mist 1 1029 100 0 3.6 100 19:18 03.01.2020
5071 Mist 1 1029 92 0 5.16 329 18:40 03.01.2020
5072 Clouds 1 1028 74 10000 1.5 270 18:21 03.01.2020
5073 Clouds 1 1028 100 0 5.16 329 17:54 03.01.2020
5074 Clouds 1 1028 100 0 5.16 329 17:36 03.01.2020
5075 Clouds 2 1028 77 10000 1 0 17:18 03.01.2020
5076 Clouds 3 1028 77 0 3.1 100 16:42 03.01.2020
5077 Clouds 3 1028 77 0 1.5 100 16:22 03.01.2020
5078 Clouds 3 1028 77 0 1 0 15:43 03.01.2020
5079 Clouds 4 1028 77 0 1.5 110 15:19 03.01.2020
5080 Clouds 4 1028 77 0 1.5 110 15:19 03.01.2020
5081 Clouds 4 1028 77 10000 1 0 14:56 03.01.2020
5082 Clouds 4 1028 86 10000 1.5 200 14:37 03.01.2020
5083 Clouds 4 1028 86 10000 1 0 14:19 03.01.2020
5084 Clouds 4 1028 86 10000 1 0 13:41 03.01.2020
5085 Clouds 4 1028 84 10000 0.5 0 13:23 03.01.2020
5086 Clouds 4 1028 83 10000 0.5 0 12:56 03.01.2020
5087 Clouds 4 1027 83 10000 0.5 0 12:38 03.01.2020
5088 Clouds 3 1028 83 9000 0.5 0 12:19 03.01.2020
5089 Clouds 3 1028 100 0 2.1 100 11:42 03.01.2020
5090 Clouds 2 1028 100 0 2.1 250 11:18 03.01.2020
5091 Clouds 2 1028 100 0 1.5 270 10:43 03.01.2020
5092 Clouds 1 1027 100 0 2.6 100 10:24 03.01.2020
5093 Clouds 1 1027 100 0 2.6 100 09:57 03.01.2020
5094 Mist 1 1028 92 5000 0.5 0 09:38 03.01.2020
5095 Clouds 1 1028 92 6000 1.5 210 09:20 03.01.2020
5096 Clouds 1 1027 100 0 2.1 100 08:54 03.01.2020
5097 Clouds 0 1027 100 0 2.1 100 08:36 03.01.2020
5098 Clouds 0 1027 92 0 1 0 08:18 03.01.2020
5099 Clouds 0 1028 46 8000 2.1 250 07:39 03.01.2020
5100 Clouds 0 1027 46 6000 0.5 0 07:18 03.01.2020
5101 Clouds 0 1027 100 0 2.23 319 06:42 03.01.2020
5102 Clouds 0 1027 92 6000 1 260 06:23 03.01.2020
5103 Clouds 0 1027 92 0 1.5 110 05:20 03.01.2020
5104 Clouds 0 1028 47 7000 2.1 250 03:45 03.01.2020
5105 Clouds 0 1029 92 0 0.5 110 02:54 03.01.2020
5106 Clouds 0 1029 92 0 1 100 01:54 03.01.2020
5107 Clouds 0 1029 100 0 2.46 289 01:36 03.01.2020
5108 Mist 0 1029 92 0 0.5 0 00:46 03.01.2020
5109 Mist 0 1029 92 0 0.5 0 00:26 03.01.2020
5110 Mist 0 1029 92 0 1 0 23:39 02.01.2020
5111 Mist 0 1030 100 0 1 110 23:21 02.01.2020
5112 Mist 0 1030 100 0 1 110 22:59 02.01.2020
5113 Mist 0 1030 100 0 1 0 22:41 02.01.2020
5114 Mist 0 1030 100 0 1.87 241 22:20 02.01.2020
5115 Mist 0 1029 100 0 1.5 110 21:57 02.01.2020
5116 Mist 0 1029 100 0 1.5 110 21:38 02.01.2020
5117 Mist 0 1030 100 0 1 0 21:19 02.01.2020
5118 Mist 0 1030 92 0 1.5 110 20:56 02.01.2020
5119 Mist 0 1030 92 0 1.5 110 20:37 02.01.2020
5120 Mist 0 1030 92 0 2.1 100 20:19 02.01.2020
5121 Clouds 0 1030 92 0 2.1 90 19:54 02.01.2020
5122 Clouds 0 1030 92 0 2.1 90 19:54 02.01.2020
5123 Clouds 0 1030 92 0 2.1 90 19:36 02.01.2020
5124 Clouds 0 1030 92 0 1 0 19:18 02.01.2020
5125 Clouds 0 1030 92 0 1 0 19:18 02.01.2020
5126 Mist 0 1029 100 0 1 0 18:43 02.01.2020
5127 Mist 0 1029 92 0 1.5 90 18:25 02.01.2020
5128 Mist 0 1029 92 0 1.5 90 17:59 02.01.2020
5129 Mist 0 1029 92 0 1 0 17:39 02.01.2020
5130 Fog 0 1029 100 0 2.6 240 17:21 02.01.2020
5131 Fog 0 1029 100 0 2.6 240 16:59 02.01.2020
5132 Fog 0 1028 100 0 1.9 186 16:41 02.01.2020
5133 Fog 1 1029 100 0 1.9 186 16:20 02.01.2020
5134 Fog 1 1029 100 0 1.9 186 15:58 02.01.2020
5135 Fog 0 1029 100 0 1.9 186 15:40 02.01.2020
5136 Mist 0 1029 92 0 1 0 15:22 02.01.2020
5137 Clouds 1 1029 100 0 1.5 110 14:57 02.01.2020
5138 Clouds 0 1029 100 0 1.5 110 14:36 02.01.2020
5139 Clouds 2 1030 100 0 1.5 110 14:18 02.01.2020
5140 Clouds 1 1030 100 0 2.95 168 13:50 02.01.2020
5141 Clouds 1 1030 100 0 2.86 168 13:31 02.01.2020
5142 Mist 3 1030 100 0 1.5 90 12:46 02.01.2020
5143 Clear 2 1033 69 0 1 0 12:26 02.01.2020
5144 Mist 2 1031 100 0 1.5 100 11:59 02.01.2020
5145 Mist 1 1031 100 0 1.5 100 11:40 02.01.2020
5146 Fog 0 1031 100 0 1 230 11:20 02.01.2020
5147 Fog 0 1030 100 0 1.5 260 10:45 02.01.2020
5148 Fog -1 1030 100 0 1.5 260 10:26 02.01.2020
5149 Fog 0 1030 100 0 1.5 100 09:52 02.01.2020
5150 Fog 0 1030 100 0 1.5 100 09:33 02.01.2020
5151 Fog -1 1031 92 0 1.5 110 08:48 02.01.2020
5152 Fog -1 1031 92 0 1.5 110 08:27 02.01.2020
5153 Fog -1 1030 92 0 2.6 110 07:54 02.01.2020
5154 Fog -1 1030 92 0 2.6 110 07:30 02.01.2020
5155 Mist -1 1030 92 4500 2.6 230 06:55 02.01.2020
5156 Fog -1 1030 100 0 1.77 191 06:36 02.01.2020
5157 Fog -1 1030 100 0 1.77 191 06:36 02.01.2020
5158 Fog -1 1030 92 0 1.77 191 05:36 02.01.2020
5159 Mist -1 1031 92 0 1.5 100 04:33 02.01.2020
5160 Fog -1 1030 100 0 1 0 02:54 02.01.2020
5161 Mist 0 1031 48 2900 1.5 230 02:20 02.01.2020
5162 Fog -1 1031 100 0 1 80 01:46 02.01.2020
5163 Fog 0 1031 100 0 1 0 01:19 02.01.2020
5164 Fog 0 1031 100 0 2.1 100 00:34 02.01.2020
5165 Fog 0 1031 100 0 2.6 110 23:58 01.01.2020
5166 Fog 0 1031 100 0 2.1 110 23:40 01.01.2020
5167 Mist 0 1031 38 3600 2.1 220 23:19 01.01.2020
5168 Fog 0 1031 100 0 1.18 194 22:38 01.01.2020
5169 Fog 0 1031 100 0 1.5 110 22:20 01.01.2020
5170 Fog 0 1031 100 0 1.5 110 21:56 01.01.2020
5171 Fog 0 1031 100 0 2.1 100 21:38 01.01.2020
5172 Clouds 0 1032 38 6000 2.1 230 21:19 01.01.2020
5173 Clouds 0 1032 38 6000 2.1 230 20:55 01.01.2020
5174 Clouds 0 1032 38 7000 2.6 200 20:37 01.01.2020
5175 Fog 0 1032 100 0 1.2 242 20:19 01.01.2020
5176 Fog 0 1032 100 0 1.2 242 20:19 01.01.2020
5177 Clouds 0 1032 34 8000 1.5 220 19:55 01.01.2020
5178 Clouds 0 1032 34 8000 1.5 220 19:55 01.01.2020
5179 Clouds 0 1032 34 5000 1.5 260 19:37 01.01.2020
5180 Clouds 1 1032 34 7000 2.6 230 19:19 01.01.2020
5181 Clouds 1 1032 34 7000 2.6 230 18:55 01.01.2020
5182 Clouds 1 1032 34 6000 2.1 250 18:36 01.01.2020
5183 Clouds 1 1032 34 6000 2.1 250 18:36 01.01.2020
5184 Fog 0 1031 92 0 1.2 242 18:18 01.01.2020
5185 Fog 0 1031 92 0 1.2 242 17:56 01.01.2020
5186 Fog 0 1031 92 0 1.2 242 17:56 01.01.2020
5187 Clouds 1 1032 34 9000 2.1 250 17:37 01.01.2020
5188 Fog 1 1031 100 0 1 0 17:18 01.01.2020
5189 Fog 2 1031 100 0 0.62 260 16:40 01.01.2020
5190 Fog 2 1031 100 0 0.62 260 16:40 01.01.2020
5191 Fog 2 1031 92 0 0.62 260 16:21 01.01.2020
5192 Fog 1 1031 92 0 0.62 260 15:57 01.01.2020
5193 Fog 1 1031 92 0 0.62 260 15:57 01.01.2020
5194 Fog 1 1031 100 0 1.5 130 15:39 01.01.2020
5195 Fog 1 1031 100 0 1 0 15:20 01.01.2020
5196 Fog 1 1031 100 0 1 0 14:58 01.01.2020
5197 Mist 1 1031 100 0 1 0 14:40 01.01.2020
5198 Mist 2 1032 65 0 1 0 14:21 01.01.2020
5199 Mist 2 1032 65 0 1 0 14:21 01.01.2020
5200 Mist 2 1032 65 0 1.5 90 13:56 01.01.2020
5201 Mist 2 1032 65 0 1.5 90 13:37 01.01.2020
5202 Mist 2 1032 65 0 1.5 90 13:37 01.01.2020
5203 Mist 2 1032 65 0 1.5 90 13:37 01.01.2020
5204 Mist 2 1032 65 0 1.5 90 13:37 01.01.2020
5205 Fog 2 1032 73 0 2.1 90 13:18 01.01.2020
5206 Fog 2 1032 73 0 2.1 90 12:55 01.01.2020
5207 Fog 3 1032 100 0 2.1 100 12:37 01.01.2020
5208 Fog 3 1032 100 0 1 0 12:18 01.01.2020
5209 Fog 3 1032 100 0 1.49 202 11:43 01.01.2020
5210 Fog 1 1032 100 0 1.5 250 11:22 01.01.2020
5211 Fog 1 1032 100 0 1.5 250 10:59 01.01.2020
5212 Fog 1 1032 92 0 0.5 130 10:40 01.01.2020
5213 Fog 0 1032 92 0 2.1 80 10:20 01.01.2020
5214 Fog 0 1032 100 0 2.1 90 09:56 01.01.2020
5215 Fog 0 1032 100 0 2.1 90 09:37 01.01.2020
5216 Fog -1 1032 92 0 2.6 100 09:18 01.01.2020
5217 Fog -1 1032 92 0 2.6 100 08:55 01.01.2020
5218 Fog -1 1032 92 0 2.1 100 08:36 01.01.2020
5219 Fog -1 1032 92 0 2.1 100 08:36 01.01.2020
5220 Fog -1 1032 92 0 2.1 100 08:36 01.01.2020
5221 Fog -1 1031 100 0 1 100 08:18 01.01.2020
5222 Fog -1 1031 100 0 1.73 317 07:48 01.01.2020
5223 Fog -1 1031 100 0 1.73 317 07:30 01.01.2020
5224 Fog 0 1031 100 0 1 0 06:44 01.01.2020
5225 Fog 0 1031 100 0 1.73 317 06:20 01.01.2020
5226 Fog -1 1031 92 0 1 0 04:44 01.01.2020
5227 Fog 0 1032 46 250 2.1 230 03:43 01.01.2020
5228 Fog 0 1032 46 500 1.5 250 03:22 01.01.2020
5229 Fog 0 1032 46 350 2.1 210 02:55 01.01.2020
5230 Fog 0 1032 46 350 2.1 210 02:32 01.01.2020
5231 Fog 0 1033 46 400 1.5 230 01:45 01.01.2020
5232 Fog 0 1033 45 250 2.1 220 01:24 01.01.2020
5233 Fog 0 1033 45 250 2.1 220 00:57 01.01.2020
5234 Fog 0 1033 45 200 2.1 210 00:37 01.01.2020
5235 Fog 0 1033 45 250 2.1 220 00:19 01.01.2020
5236 Fog 0 1033 45 250 2.1 210 23:40 31.12.2019
5237 Fog 0 1033 42 250 2.1 210 23:21 31.12.2019
5238 Fog 0 1033 42 250 2.1 210 22:57 31.12.2019
5239 Fog 0 1033 100 200 2.1 230 22:38 31.12.2019
5240 Mist 0 1032 92 0 3.33 356 22:18 31.12.2019
5241 Mist 0 1032 92 0 3.33 356 21:54 31.12.2019
5242 Fog 0 1033 42 300 2.1 210 21:36 31.12.2019
5243 Fog 1 1033 42 400 1.5 240 21:18 31.12.2019
5244 Fog 1 1033 42 1000 2.1 220 20:40 31.12.2019
5245 Fog 1 1033 100 400 1.5 220 20:21 31.12.2019
5246 Fog 1 1033 100 400 1.5 220 19:59 31.12.2019
5247 Fog 1 1033 100 300 0.5 0 19:40 31.12.2019
5248 Fog 1 1033 45 650 1 0 19:22 31.12.2019
5249 Fog 1 1033 45 650 1 0 18:57 31.12.2019
5250 Mist 1 1033 100 2100 0.5 0 18:39 31.12.2019
5251 Clouds 1 1032 100 0 0.5 0 18:19 31.12.2019
5252 Mist 1 1033 100 2100 1 0 17:56 31.12.2019
5253 Clouds 1 1032 100 0 4.37 351 17:37 31.12.2019
5254 Clouds 2 1032 56 0 1.5 130 17:19 31.12.2019
5255 Clouds 2 1032 56 0 1.5 130 16:56 31.12.2019
5256 Clouds 2 1032 56 0 2.1 100 16:37 31.12.2019
5257 Clouds 3 1032 56 0 4.21 344 16:19 31.12.2019
5258 Clouds 3 1032 56 0 4.21 344 15:56 31.12.2019
5259 Fog 2 1032 56 0 0.5 0 15:38 31.12.2019
5260 Fog 2 1032 56 0 1 0 15:20 31.12.2019
5261 Fog 3 1032 56 0 1 0 14:56 31.12.2019
5262 Fog 3 1032 56 0 4.21 344 14:37 31.12.2019
5263 Clouds 3 1033 75 0 1.5 90 14:19 31.12.2019
5264 Clouds 4 1033 75 0 1.5 90 13:56 31.12.2019
5265 Clouds 4 1033 100 0 3.91 344 13:38 31.12.2019
5266 Mist 4 1033 100 4500 2.1 230 13:20 31.12.2019
5267 Mist 4 1033 100 4500 2.1 230 12:56 31.12.2019
5268 Mist 4 1034 100 4800 2.1 200 12:38 31.12.2019
5269 Mist 4 1034 100 2300 1 0 12:19 31.12.2019
5270 Mist 3 1034 100 2300 1 0 11:55 31.12.2019
5271 Fog 3 1034 76 600 1.5 250 11:37 31.12.2019
5272 Fog 3 1034 76 600 1.5 250 11:37 31.12.2019
5273 Fog 2 1034 63 550 1.5 260 11:19 31.12.2019
5274 Clouds 1 1033 100 0 1 0 10:56 31.12.2019
5275 Fog 1 1033 63 650 2.6 200 10:37 31.12.2019
5276 Fog 1 1034 63 450 1 260 10:19 31.12.2019
5277 Fog 0 1034 63 450 1 260 09:57 31.12.2019
5278 Clouds 0 1033 92 0 0.5 0 09:38 31.12.2019
5279 Clouds 0 1033 92 0 1 0 09:19 31.12.2019
5280 Fog 0 1034 63 450 3.6 190 08:43 31.12.2019
5281 Clouds -1 1033 92 0 4.08 342 08:23 31.12.2019
5282 Fog 0 1034 56 300 1.5 210 07:58 31.12.2019
5283 Clouds 0 1033 100 0 4.5 337 07:40 31.12.2019
5284 Fog 0 1033 56 300 1.5 240 07:19 31.12.2019
5285 Clouds -1 1033 92 0 1.5 240 06:41 31.12.2019
5286 Mist 0 1033 56 3600 2.1 230 05:45 31.12.2019
5287 Mist 0 1034 92 0 0.5 110 04:27 31.12.2019
5288 Fog 0 1034 92 0 0.5 0 03:24 31.12.2019
5289 Fog 0 1033 100 0 3.74 332 02:36 31.12.2019
5290 Fog 0 1033 92 0 0.5 0 01:53 31.12.2019
5291 Fog -1 1033 92 0 0.5 0 01:32 31.12.2019
5292 Clouds 0 1033 50 5000 2.1 200 00:56 31.12.2019
5293 Clouds 0 1033 50 5000 2.1 200 00:37 31.12.2019
5294 Fog 0 1034 92 0 2.1 80 00:18 31.12.2019
5295 Fog 0 1034 92 0 2.1 80 00:18 31.12.2019
5296 Fog 0 1034 92 0 2.1 80 23:55 30.12.2019
5297 Fog 0 1034 100 0 2.1 90 23:36 30.12.2019
5298 Fog 0 1033 100 0 3.1 100 23:18 30.12.2019
5299 Fog 0 1033 100 0 1 0 22:54 30.12.2019
5300 Fog 0 1033 100 0 1 0 22:54 30.12.2019
5301 Fog 0 1033 100 0 1 0 22:36 30.12.2019
5302 Fog 0 1033 100 0 1 0 22:18 30.12.2019
5303 Fog 0 1032 92 0 1 0 21:55 30.12.2019
5304 Fog 0 1033 100 0 1 0 21:55 30.12.2019
5305 Fog 0 1032 92 0 1 0 21:55 30.12.2019
5306 Fog 1 1032 92 0 1 0 21:37 30.12.2019
5307 Fog 0 1032 100 0 1.25 265 21:18 30.12.2019
5308 Clouds 0 1032 52 5000 2.1 260 20:54 30.12.2019
5309 Clouds 0 1032 52 5000 2.1 260 20:36 30.12.2019
5310 Fog 1 1032 100 0 1 130 20:18 30.12.2019
5311 Fog 1 1032 100 0 1 130 19:55 30.12.2019
5312 Fog 1 1033 100 0 1 0 19:36 30.12.2019
5313 Fog 1 1033 100 0 1 0 19:18 30.12.2019
5314 Mist 1 1033 100 0 1 220 18:41 30.12.2019
5315 Mist 1 1033 100 0 0.5 0 18:21 30.12.2019
5316 Mist 1 1033 100 0 0.5 0 17:59 30.12.2019
5317 Mist 1 1033 55 0 2.6 130 17:40 30.12.2019
5318 Clouds 1 1033 58 0 2.1 110 17:19 30.12.2019
5319 Clouds 1 1033 58 0 2.1 110 16:59 30.12.2019
5320 Clouds 1 1033 58 0 1.5 110 16:39 30.12.2019
5321 Clouds 1 1033 58 0 1.5 110 16:20 30.12.2019
5322 Clouds 1 1033 58 0 1.5 110 15:56 30.12.2019
5323 Clouds 2 1033 80 10000 0.5 0 15:38 30.12.2019
5324 Clouds 2 1033 80 10000 0.5 0 15:19 30.12.2019
5325 Clouds 2 1033 80 10000 1 0 14:43 30.12.2019
5326 Clouds 1 1033 86 9000 1.5 260 14:21 30.12.2019
5327 Clouds 2 1033 86 9000 1.5 260 13:59 30.12.2019
5328 Mist 2 1033 100 0 0.42 24 13:41 30.12.2019
5329 Clouds 2 1034 86 9000 1 0 13:22 30.12.2019
5330 Clouds 2 1034 86 9000 1 0 12:57 30.12.2019
5331 Mist 3 1034 100 0 1.5 110 12:38 30.12.2019
5332 Fog 3 1034 100 0 0.43 4 12:18 30.12.2019
5333 Fog 3 1034 100 0 0.43 4 12:18 30.12.2019
5334 Fog 3 1034 100 0 0.43 4 11:46 30.12.2019
5335 Fog 1 1034 100 0 1.5 110 11:22 30.12.2019
5336 Fog 1 1034 100 0 1.5 110 10:59 30.12.2019
5337 Fog 1 1034 100 0 1.92 335 10:40 30.12.2019
5338 Clouds 0 1034 92 0 1.92 335 10:19 30.12.2019
5339 Clouds 1 1034 92 0 1 0 09:43 30.12.2019
5340 Clouds 0 1034 100 0 1 0 09:21 30.12.2019
5341 Clouds 0 1034 100 0 1 0 08:57 30.12.2019
5342 Clouds 0 1034 92 0 1 0 08:38 30.12.2019
5343 Clouds -1 1034 100 0 2.73 339 08:19 30.12.2019
5344 Clouds -1 1034 100 0 1 100 07:46 30.12.2019
5345 Clouds -1 1034 92 0 2.73 339 07:23 30.12.2019
5346 Clouds -1 1034 100 0 2.73 339 06:30 30.12.2019
5347 Clouds -1 1034 38 10000 1.5 220 04:31 30.12.2019
5348 Clear -1 1034 100 0 2.8 343 03:47 30.12.2019
5349 Clouds -1 1035 38 10000 2.1 220 02:45 30.12.2019
5350 Clouds -1 1035 38 10000 2.1 220 02:25 30.12.2019
5351 Clear -1 1034 92 0 1.5 100 01:27 30.12.2019
5352 Clear 0 1034 92 0 2.42 352 00:56 30.12.2019
5353 Clear -1 1034 92 0 2.42 352 00:36 30.12.2019
5354 Clear -1 1034 92 0 1.5 90 23:42 29.12.2019
5355 Clear -1 1034 92 0 0.5 0 23:24 29.12.2019
5356 Clear -1 1034 92 0 0.5 0 22:58 29.12.2019
5357 Clear -1 1034 92 0 1 0 22:38 29.12.2019
5358 Clear -1 1034 92 0 1 0 22:38 29.12.2019
5359 Clear 0 1034 92 0 1.5 90 22:20 29.12.2019
5360 Clear 0 1034 100 0 2.1 80 21:56 29.12.2019
5361 Clear 0 1034 100 0 2.1 80 21:38 29.12.2019
5362 Clear 0 1034 92 0 1 110 21:19 29.12.2019
5363 Clear 0 1034 92 0 1 110 20:55 29.12.2019
5364 Clear 0 1034 92 0 0.5 0 20:37 29.12.2019
5365 Clear 0 1034 92 0 4.46 352 20:18 29.12.2019
5366 Clear 0 1034 92 0 4.38 352 19:55 29.12.2019
5367 Clouds 0 1035 80 10000 1.5 280 19:37 29.12.2019
5368 Clear 0 1034 92 0 3.1 120 19:18 29.12.2019
5369 Clear 0 1035 92 0 3.1 100 18:54 29.12.2019
5370 Clear 0 1035 92 0 3.1 100 18:36 29.12.2019
5371 Clouds 0 1036 80 10000 1.5 260 18:18 29.12.2019
5372 Clear 0 1035 92 0 4.38 352 17:55 29.12.2019
5373 Clear 1 1035 92 0 4.38 352 17:36 29.12.2019
5374 Clear 1 1034 92 0 4.51 352 17:18 29.12.2019
5375 Clear 1 1034 92 0 1.5 90 16:55 29.12.2019
5376 Clear 1 1034 92 0 1.5 90 16:36 29.12.2019
5377 Clear 1 1034 86 0 4.51 352 16:18 29.12.2019
5378 Clear 1 1034 86 0 4.51 352 15:55 29.12.2019
5379 Clear 1 1034 92 0 4.51 352 15:37 29.12.2019
5380 Clear 1 1034 92 0 4.51 352 15:18 29.12.2019
5381 Clear 1 1033 92 0 0.5 0 14:47 29.12.2019
5382 Clouds 2 1034 92 0 3.96 356 14:19 29.12.2019
5383 Clouds 2 1034 92 0 3.96 356 13:59 29.12.2019
5384 Clouds 2 1034 92 0 0.5 0 13:40 29.12.2019
5385 Clouds 3 1035 74 10000 1.5 0 13:22 29.12.2019
5386 Clear 2 1034 92 0 1 0 12:58 29.12.2019
5387 Clouds 4 1035 80 10000 1.5 230 12:40 29.12.2019
5388 Clear 3 1036 92 0 0.5 0 12:22 29.12.2019
5389 Clear 3 1036 92 0 0.5 0 12:22 29.12.2019
5390 Clouds 3 1037 80 10000 3.1 240 11:43 29.12.2019
5391 Clear 1 1036 92 0 3.96 356 11:23 29.12.2019
5392 Clear 1 1036 92 0 4.49 347 10:59 29.12.2019
5393 Clear 1 1036 92 0 4.49 347 10:41 29.12.2019
5394 Clouds 2 1036 34 10000 2.6 230 10:19 29.12.2019
5395 Clear 1 1035 92 0 0.5 0 09:47 29.12.2019
5396 Clear 0 1035 92 0 0.5 0 09:28 29.12.2019
5397 Clouds 0 1036 80 10000 2.6 220 08:59 29.12.2019
5398 Clear 0 1035 92 0 4.49 347 08:41 29.12.2019
5399 Clear 0 1035 92 0 1.5 70 08:23 29.12.2019
5400 Clouds 0 1035 92 0 3.1 100 07:49 29.12.2019
5401 Clouds 0 1035 92 0 3.1 100 07:27 29.12.2019
5402 Clouds 0 1035 92 0 0.5 0 06:52 29.12.2019
5403 Clouds 0 1035 92 0 4.69 342 06:22 29.12.2019
5404 Clouds 0 1034 92 0 0.5 0 05:45 29.12.2019
5405 Clouds -1 1035 19 7000 2.6 230 04:33 29.12.2019
5406 Clouds 0 1035 92 0 1.5 110 03:39 29.12.2019
5407 Clouds 0 1035 19 0 4.1 110 02:36 29.12.2019
5408 Clouds 0 1035 74 0 5.7 60 02:18 29.12.2019
5409 Clouds 0 1036 18 10000 1 0 01:29 29.12.2019
5410 Clouds 0 1036 18 10000 1 0 00:47 29.12.2019
5411 Clouds 0 1036 18 10000 1 0 00:25 29.12.2019
5412 Clouds 0 1035 86 0 4.1 0 23:56 28.12.2019
5413 Clouds 0 1035 80 0 4.1 0 23:37 28.12.2019
5414 Clear 0 1035 80 0 3.6 80 23:18 28.12.2019
5415 Clear 0 1035 80 0 3.6 80 23:18 28.12.2019
5416 Clear 0 1035 80 0 3.6 80 23:18 28.12.2019
5417 Clear 0 1035 80 0 3.6 80 23:18 28.12.2019
5418 Clear 0 1035 80 0 3.6 80 23:18 28.12.2019
5419 Clear 0 1035 17 0 4.1 120 22:38 28.12.2019
5420 Clouds 0 1035 17 0 3.6 110 22:19 28.12.2019
5421 Clouds 1 1035 17 0 3.6 110 21:57 28.12.2019
5422 Clouds 1 1035 86 0 3.6 110 21:37 28.12.2019
5423 Clouds 1 1036 86 10000 2.1 210 21:19 28.12.2019
5424 Clear 1 1035 17 0 5.7 50 20:54 28.12.2019
5425 Clear 1 1035 17 0 5.7 50 20:54 28.12.2019
5426 Clear 1 1035 17 0 5.7 50 20:36 28.12.2019
5427 Clear 1 1035 80 0 2.6 80 20:18 28.12.2019
5428 Clear 1 1035 86 0 3.1 100 19:43 28.12.2019
5429 Clouds 1 1035 21 0 4.1 0 19:24 28.12.2019
5430 Clouds 1 1035 21 0 4.1 0 18:59 28.12.2019
5431 Clouds 1 1035 21 0 5.7 40 18:41 28.12.2019
5432 Clouds 2 1035 80 0 8.2 30 18:20 28.12.2019
5433 Clouds 1 1035 80 0 8.2 30 17:59 28.12.2019
5434 Clouds 2 1035 80 0 8.7 40 17:39 28.12.2019
5435 Clouds 2 1035 80 0 6.2 50 17:20 28.12.2019
5436 Clouds 2 1035 75 0 7.2 50 16:49 28.12.2019
5437 Clouds 2 1035 75 0 7.2 50 16:27 28.12.2019
5438 Clouds 2 1035 75 0 6.2 60 15:57 28.12.2019
5439 Clouds 2 1035 75 0 6.2 60 15:57 28.12.2019
5440 Clouds 2 1034 75 0 6.7 30 15:39 28.12.2019
5441 Clouds 3 1035 80 10000 7.2 330 15:21 28.12.2019
5442 Clouds 3 1033 75 0 5.1 80 14:46 28.12.2019
5443 Clouds 3 1034 81 10000 3.1 350 14:24 28.12.2019
5444 Clouds 3 1034 81 10000 3.1 350 13:58 28.12.2019
5445 Clear 4 1033 48 0 2.6 0 13:39 28.12.2019
5446 Clear 4 1033 47 0 3.6 100 13:19 28.12.2019
5447 Clouds 3 1034 47 0 2.6 80 12:44 28.12.2019
5448 Clouds 3 1034 47 0 2.1 100 12:25 28.12.2019
5449 Clouds 3 1034 47 0 2.1 100 11:59 28.12.2019
5450 Clouds 3 1035 47 0 3.1 90 11:39 28.12.2019
5451 Clouds 3 1036 86 10000 1.5 210 11:20 28.12.2019
5452 Clouds 3 1035 80 0 2.6 90 10:46 28.12.2019
5453 Clouds 2 1036 93 10000 0.5 0 10:23 28.12.2019
5454 Clouds 2 1036 93 10000 0.5 0 09:59 28.12.2019
5455 Clouds 1 1034 80 0 2.6 90 09:41 28.12.2019
5456 Clouds 1 1034 93 0 3.1 100 09:23 28.12.2019
5457 Clouds 1 1034 86 0 3.6 90 08:45 28.12.2019
5458 Clouds 1 1034 86 0 3.6 90 08:27 28.12.2019
5459 Rain 1 1034 93 0 3.1 100 07:59 28.12.2019
5460 Drizzle 1 1034 100 0 2.1 100 07:39 28.12.2019
5461 Rain 1 1033 93 0 1 0 06:50 28.12.2019
5462 Rain 1 1033 100 0 5.64 341 05:31 28.12.2019
5463 Clouds 2 1033 93 0 1 0 03:47 28.12.2019
5464 Clouds 2 1032 100 0 1.5 140 02:49 28.12.2019
5465 Clouds 3 1032 100 0 5.26 348 02:19 28.12.2019
5466 Clouds 2 1032 100 0 1.5 0 01:50 28.12.2019
5467 Clouds 3 1032 93 0 3.1 90 01:20 28.12.2019
5468 Clouds 3 1032 100 0 2.6 110 00:41 28.12.2019
5469 Clouds 3 1032 100 0 2.1 120 00:23 28.12.2019
5470 Clouds 3 1032 100 0 2.1 90 23:45 27.12.2019
5471 Clouds 3 1032 100 0 2.1 120 23:20 27.12.2019
5472 Clouds 3 1032 100 0 2.1 120 22:58 27.12.2019
5473 Clouds 3 1032 100 5000 0.5 0 22:39 27.12.2019
5474 Clouds 4 1032 100 0 1 140 22:21 27.12.2019
5475 Clouds 3 1032 100 0 1 140 21:59 27.12.2019
5476 Clouds 3 1032 100 0 0.5 0 21:40 27.12.2019
5477 Clouds 3 1031 100 0 0.5 0 21:22 27.12.2019
5478 Clouds 3 1031 100 0 5.77 340 20:42 27.12.2019
5479 Clouds 3 1031 100 0 1.5 80 20:23 27.12.2019
5480 Rain 3 1031 100 0 1.5 80 19:55 27.12.2019
5481 Rain 3 1030 100 0 5.57 334 19:36 27.12.2019
5482 Rain 3 1030 100 0 1.5 230 19:18 27.12.2019
5483 Rain 3 1030 100 0 1.5 230 19:18 27.12.2019
5484 Clouds 3 1029 93 0 1 0 18:41 27.12.2019
5485 Clouds 3 1028 93 0 1 0 18:23 27.12.2019
5486 Clouds 3 1028 93 0 1 0 17:59 27.12.2019
5487 Clouds 3 1028 93 0 1 130 17:41 27.12.2019
5488 Clouds 4 1028 93 0 2.1 80 17:19 27.12.2019
5489 Clouds 4 1028 93 0 2.1 80 16:59 27.12.2019
5490 Clouds 4 1028 93 0 2.1 80 16:59 27.12.2019
5491 Clouds 4 1028 93 0 0.5 0 16:39 27.12.2019
5492 Rain 4 1028 93 0 5.03 333 16:21 27.12.2019
5493 Rain 4 1028 93 0 1.5 90 15:46 27.12.2019
5494 Rain 4 1027 93 0 1 0 15:24 27.12.2019
5495 Rain 4 1027 93 0 1 0 14:59 27.12.2019
5496 Rain 4 1027 93 0 0.5 0 14:40 27.12.2019
5497 Rain 4 1026 93 0 1.5 70 14:22 27.12.2019
5498 Rain 4 1026 93 0 1.5 70 13:58 27.12.2019
5499 Rain 4 1025 93 0 2.1 120 13:40 27.12.2019
5500 Clouds 4 1026 93 0 3.84 331 13:21 27.12.2019
5501 Rain 4 1025 93 0 1 0 12:44 27.12.2019
5502 Rain 4 1025 93 0 1 0 12:26 27.12.2019
5503 Rain 4 1025 93 0 1 0 12:26 27.12.2019
5504 Rain 3 1026 93 0 1.5 90 11:56 27.12.2019
5505 Rain 4 1026 93 0 1 100 11:38 27.12.2019
5506 Rain 3 1025 93 10000 3.1 50 11:19 27.12.2019
5507 Rain 3 1025 100 0 1.5 70 10:45 27.12.2019
5508 Rain 3 1024 100 0 1 0 10:23 27.12.2019
5509 Rain 3 1024 100 0 2.88 317 09:50 27.12.2019
5510 Rain 2 1024 100 0 2.88 317 09:22 27.12.2019
5511 Rain 2 1024 100 0 2.88 317 08:59 27.12.2019
5512 Rain 2 1023 93 0 0.5 0 08:41 27.12.2019
5513 Rain 2 1023 100 0 3.19 306 08:22 27.12.2019
5514 Rain 2 1023 100 0 0.5 100 07:38 27.12.2019
5515 Rain 2 1023 93 0 1.5 90 07:19 27.12.2019
5516 Rain 2 1023 100 0 3.19 306 06:25 27.12.2019
5517 Rain 2 1024 100 0 1.5 90 04:39 27.12.2019
5518 Rain 2 1025 93 0 3.9 319 02:28 27.12.2019
5519 Rain 2 1026 93 0 1 0 01:44 27.12.2019
5520 Rain 2 1026 93 0 1.5 120 01:21 27.12.2019
5521 Rain 2 1027 93 0 1 0 00:47 27.12.2019
5522 Rain 2 1027 93 0 1.5 90 00:25 27.12.2019
5523 Rain 2 1027 93 0 1.5 90 23:56 26.12.2019
5524 Rain 2 1027 100 0 2.1 70 23:37 26.12.2019
5525 Rain 2 1027 93 0 1 0 23:19 26.12.2019
5526 Rain 2 1027 93 0 1 0 22:40 26.12.2019
5527 Rain 2 1027 93 0 1.5 70 22:18 26.12.2019
5528 Clouds 2 1027 93 0 1 0 21:40 26.12.2019
5529 Rain 2 1027 93 0 1 0 21:21 26.12.2019
5530 Rain 2 1027 93 0 1 0 20:58 26.12.2019
5531 Rain 2 1027 93 10000 1.5 230 20:38 26.12.2019
5532 Rain 2 1027 93 10000 1.5 230 20:38 26.12.2019
5533 Rain 2 1027 86 0 2.6 60 20:20 26.12.2019
5534 Rain 2 1027 86 0 2.6 60 19:55 26.12.2019
5535 Rain 3 1026 80 0 3.1 130 19:37 26.12.2019
5536 Rain 3 1026 75 10000 1 0 19:19 26.12.2019
5537 Rain 3 1026 75 10000 1 0 18:56 26.12.2019
5538 Rain 3 1026 80 0 5.1 80 18:36 26.12.2019
5539 Rain 3 1025 80 0 3.1 100 18:18 26.12.2019
5540 Clouds 3 1025 80 0 3.1 280 17:41 26.12.2019
5541 Clouds 3 1025 80 0 3.1 280 17:41 26.12.2019
5542 Clouds 3 1024 80 0 4.1 270 17:21 26.12.2019
5543 Clouds 3 1023 45 0 3.64 330 16:50 26.12.2019
5544 Clouds 3 1023 45 0 3.64 330 16:27 26.12.2019
5545 Clouds 3 1023 75 10000 1 50 15:57 26.12.2019
5546 Clouds 4 1023 75 10000 1 50 15:38 26.12.2019
5547 Clouds 4 1024 75 10000 1 60 15:19 26.12.2019
5548 Clouds 4 1024 45 0 2.1 260 14:41 26.12.2019
5549 Clouds 4 1024 45 0 2.6 240 14:23 26.12.2019
5550 Clouds 4 1024 64 0 2.6 240 13:55 26.12.2019
5551 Clouds 4 1024 64 0 2.6 260 13:36 26.12.2019
5552 Clouds 4 1024 75 10000 1 0 13:18 26.12.2019
5553 Clouds 4 1024 63 0 1 0 12:44 26.12.2019
5554 Clouds 4 1024 80 0 1.04 306 12:24 26.12.2019
5555 Clouds 4 1024 80 0 1.04 306 11:59 26.12.2019
5556 Clouds 4 1025 63 0 1 70 11:40 26.12.2019
5557 Clear 3 1025 34 0 2.15 326 11:21 26.12.2019
5558 Clear 2 1024 92 0 0.5 0 10:50 26.12.2019
5559 Clear 1 1024 92 0 0.5 0 10:26 26.12.2019
5560 Clouds 1 1024 92 0 2.15 326 09:55 26.12.2019
5561 Clouds 0 1024 92 0 2.15 326 09:33 26.12.2019
5562 Clouds 0 1024 92 0 1 0 08:59 26.12.2019
5563 Clouds 0 1024 92 0 2.15 326 08:39 26.12.2019
5564 Clouds 0 1024 92 0 3.16 330 08:20 26.12.2019
5565 Clouds 0 1024 92 0 1 0 07:38 26.12.2019
5566 Clouds 0 1024 86 10000 1.5 250 07:19 26.12.2019
5567 Clear 0 1024 92 0 2.1 100 06:37 26.12.2019
5568 Clear 0 1024 92 0 1.5 90 06:19 26.12.2019
5569 Clear 0 1024 100 0 1 110 05:41 26.12.2019
5570 Clear 0 1024 92 0 1 120 04:33 26.12.2019
5571 Clear 1 1024 24 0 1.5 90 03:31 26.12.2019
5572 Clouds 1 1024 24 0 2.6 100 02:46 26.12.2019
5573 Clouds 1 1024 24 0 2.6 100 02:27 26.12.2019
5574 Clouds 1 1024 86 0 2.6 100 01:44 26.12.2019
5575 Clouds 2 1025 93 0 2.1 180 01:24 26.12.2019
5576 Clouds 1 1024 75 0 4.6 60 00:44 26.12.2019
5577 Clouds 2 1024 70 0 4.6 60 00:23 26.12.2019
5578 Clouds 2 1024 70 0 4.6 60 00:23 26.12.2019
5579 Clouds 2 1024 70 0 4.6 60 23:57 25.12.2019
5580 Clouds 2 1024 70 0 4.1 50 23:37 25.12.2019
5581 Clouds 2 1024 70 0 4.1 30 23:18 25.12.2019
5582 Clouds 3 1024 70 0 4.1 30 22:56 25.12.2019
5583 Clouds 2 1024 75 0 5.1 50 22:37 25.12.2019
5584 Clouds 3 1024 75 0 4.6 50 22:18 25.12.2019
5585 Clouds 3 1024 75 0 4.6 50 21:55 25.12.2019
5586 Clouds 3 1025 70 0 2.1 60 21:37 25.12.2019
5587 Clouds 2 1025 75 0 2.1 260 21:18 25.12.2019
5588 Clouds 3 1025 75 0 1 0 20:40 25.12.2019
5589 Clouds 3 1025 75 0 2.6 240 20:20 25.12.2019
5590 Clouds 3 1025 75 0 2.6 240 19:57 25.12.2019
5591 Clouds 3 1024 70 0 4.6 280 19:39 25.12.2019
5592 Clouds 3 1024 65 0 6.7 300 19:21 25.12.2019
5593 Clouds 4 1024 61 0 6.7 310 18:39 25.12.2019
5594 Clouds 4 1024 95 0 3.6 260 18:20 25.12.2019
5595 Clouds 4 1024 95 0 3.6 260 17:57 25.12.2019
5596 Clouds 5 1023 45 0 4.6 300 17:36 25.12.2019
5597 Clouds 5 1023 46 0 3.1 290 17:18 25.12.2019
5598 Clouds 6 1022 46 0 5.1 300 16:39 25.12.2019
5599 Clouds 6 1022 46 0 6.2 300 16:19 25.12.2019
5600 Clouds 6 1022 46 0 6.2 300 15:58 25.12.2019
5601 Clouds 7 1022 46 0 6.7 300 15:40 25.12.2019
5602 Clouds 7 1022 43 0 5.7 280 15:21 25.12.2019
5603 Clouds 7 1022 43 0 5.7 280 14:59 25.12.2019
5604 Clouds 7 1021 43 0 7.2 260 14:40 25.12.2019
5605 Clouds 7 1021 43 0 7.2 260 14:40 25.12.2019
5606 Clouds 7 1021 46 0 6.7 270 14:21 25.12.2019
5607 Clouds 7 1021 46 0 6.7 270 13:57 25.12.2019
5608 Clouds 7 1021 46 0 5.7 270 13:38 25.12.2019
5609 Clouds 7 1021 46 0 5.7 280 13:19 25.12.2019
5610 Clouds 7 1021 49 0 4.6 280 12:42 25.12.2019
5611 Clouds 7 1021 49 0 5.1 280 12:21 25.12.2019
5612 Clouds 7 1021 49 0 5.1 280 11:57 25.12.2019
5613 Clouds 7 1021 43 10000 4.6 240 11:38 25.12.2019
5614 Clouds 5 1021 45 0 8.2 300 11:18 25.12.2019
5615 Clouds 5 1021 56 0 3.1 250 10:38 25.12.2019
5616 Clouds 5 1020 45 0 7.7 300 10:20 25.12.2019
5617 Clouds 5 1020 49 0 6.7 290 09:51 25.12.2019
5618 Clouds 6 1020 49 0 6.7 290 09:32 25.12.2019
5619 Clouds 4 1020 45 0 7.7 300 08:51 25.12.2019
5620 Clouds 4 1020 45 0 7.7 300 08:31 25.12.2019
5621 Clouds 4 1020 45 0 7.7 300 08:31 25.12.2019
5622 Clouds 4 1020 89 10000 5.1 240 07:53 25.12.2019
5623 Clouds 4 1020 89 10000 5.1 240 07:34 25.12.2019
5624 Clouds 4 1020 46 0 8.7 300 06:58 25.12.2019
5625 Clouds 4 1020 49 0 7.7 290 06:23 25.12.2019
5626 Clouds 4 1020 89 10000 6.2 240 05:31 25.12.2019
5627 Clouds 4 1019 49 0 7.7 280 04:39 25.12.2019
5628 Clouds 4 1019 49 0 6.7 280 04:20 25.12.2019
5629 Clouds 4 1019 46 0 8.7 280 03:43 25.12.2019
5630 Clouds 4 1019 46 0 7.2 280 02:56 25.12.2019
5631 Clouds 4 1019 46 0 7.2 280 02:27 25.12.2019
5632 Rain 5 1019 46 0 6.7 290 01:26 25.12.2019
5633 Clouds 5 1019 46 0 7.2 300 00:56 25.12.2019
5634 Clouds 5 1019 46 0 6.7 290 00:33 25.12.2019
5635 Clouds 4 1019 49 0 4.1 270 23:58 24.12.2019
5636 Clouds 4 1019 49 0 4.1 270 23:39 24.12.2019
5637 Clouds 5 1018 91 0 5.7 290 23:20 24.12.2019
5638 Fog 4 1019 91 0 1.5 0 22:41 24.12.2019
5639 Clouds 3 1019 43 10000 4.6 260 22:23 24.12.2019
5640 Fog 4 1019 100 0 0.5 0 21:45 24.12.2019
5641 Fog 4 1019 91 0 1 0 21:24 24.12.2019
5642 Fog 4 1019 91 0 1 0 20:59 24.12.2019
5643 Fog 4 1019 91 0 4.07 320 20:41 24.12.2019
5644 Fog 4 1018 92 0 1 0 20:19 24.12.2019
5645 Fog 4 1018 100 0 0.5 0 19:45 24.12.2019
5646 Mist 4 1019 100 0 1 0 19:22 24.12.2019
5647 Mist 4 1019 100 0 1 0 18:58 24.12.2019
5648 Clouds 5 1019 100 0 1 0 18:40 24.12.2019
5649 Clouds 4 1019 100 0 3.59 318 18:18 24.12.2019
5650 Rain 4 1019 93 0 0.5 0 17:42 24.12.2019
5651 Rain 5 1019 100 0 1 0 17:21 24.12.2019
5652 Rain 5 1019 100 0 1 0 16:57 24.12.2019
5653 Rain 4 1018 100 6000 1 0 16:38 24.12.2019
5654 Rain 4 1018 100 0 2.92 314 16:20 24.12.2019
5655 Rain 4 1018 100 0 2.92 314 15:56 24.12.2019
5656 Rain 4 1018 93 0 1 0 15:36 24.12.2019
5657 Rain 4 1018 93 0 1 0 15:36 24.12.2019
5658 Rain 4 1018 93 0 1 0 15:18 24.12.2019
5659 Rain 4 1018 93 0 1 0 14:56 24.12.2019
5660 Rain 4 1018 93 0 1.5 190 14:38 24.12.2019
5661 Rain 3 1018 100 0 1.5 240 14:20 24.12.2019
5662 Rain 3 1018 100 0 1.5 240 13:55 24.12.2019
5663 Rain 3 1018 100 0 1.5 240 13:55 24.12.2019
5664 Rain 3 1018 100 0 3.1 80 13:37 24.12.2019
5665 Rain 3 1019 100 0 2.6 110 13:19 24.12.2019
5666 Rain 3 1019 100 0 2.6 110 12:55 24.12.2019
5667 Rain 3 1020 93 0 1 0 12:36 24.12.2019
5668 Rain 3 1020 93 0 1 0 12:18 24.12.2019
5669 Rain 3 1020 93 0 2.6 110 11:55 24.12.2019
5670 Rain 3 1020 93 0 2.6 110 11:36 24.12.2019
5671 Rain 3 1020 93 0 1.5 100 11:18 24.12.2019
5672 Rain 3 1020 93 0 1.5 100 10:55 24.12.2019
5673 Rain 3 1020 93 0 1.5 100 10:55 24.12.2019
5674 Rain 3 1020 93 0 2.1 50 10:37 24.12.2019
5675 Rain 3 1021 93 0 2.65 296 10:19 24.12.2019
5676 Rain 3 1021 93 0 2.65 296 09:54 24.12.2019
5677 Rain 3 1021 93 0 2.65 296 09:36 24.12.2019
5678 Rain 3 1021 93 0 2.65 296 09:18 24.12.2019
5679 Rain 2 1021 93 0 1.5 250 08:43 24.12.2019
5680 Rain 2 1021 93 0 1 0 08:20 24.12.2019
5681 Rain 2 1021 93 0 1.5 100 07:45 24.12.2019
5682 Rain 2 1021 93 0 1.5 100 07:25 24.12.2019
5683 Clouds 2 1021 100 0 1 0 06:57 24.12.2019
5684 Clouds 2 1020 100 0 3.84 309 06:38 24.12.2019
5685 Clouds 1 1020 100 0 3.84 309 06:18 24.12.2019
5686 Clouds 1 1021 100 0 0.5 0 05:20 24.12.2019
5687 Clouds 1 1021 100 0 4.32 321 04:37 24.12.2019
5688 Clouds 2 1022 93 0 1 130 03:50 24.12.2019
5689 Clouds 1 1022 93 0 1 0 02:59 24.12.2019
5690 Clouds 2 1022 93 0 2.1 70 02:21 24.12.2019
5691 Clouds 2 1022 86 0 1 0 01:42 24.12.2019
5692 Clouds 2 1022 93 0 1.5 70 01:20 24.12.2019
5693 Clouds 2 1022 93 0 1.5 70 00:43 24.12.2019
5694 Clouds 3 1022 80 0 1.5 280 00:23 24.12.2019
5695 Clouds 2 1022 80 0 1.5 280 23:55 23.12.2019
5696 Clouds 3 1022 86 0 1.5 270 23:37 23.12.2019
5697 Rain 3 1021 80 0 2.6 310 23:19 23.12.2019
5698 Rain 3 1021 81 10000 1 0 22:54 23.12.2019
5699 Rain 3 1021 81 10000 1 0 22:54 23.12.2019
5700 Rain 3 1021 81 10000 1 0 22:36 23.12.2019
5701 Rain 3 1020 80 0 2.6 250 22:18 23.12.2019
5702 Rain 3 1020 80 0 2.6 250 21:55 23.12.2019
5703 Rain 3 1020 81 10000 2.6 190 21:36 23.12.2019
5704 Rain 3 1020 86 0 4.02 325 21:18 23.12.2019
5705 Rain 3 1020 86 0 4.02 325 20:56 23.12.2019
5706 Rain 3 1019 81 0 1.5 240 20:38 23.12.2019
5707 Rain 3 1019 75 0 3.1 0 20:18 23.12.2019
5708 Rain 4 1019 70 0 3.6 0 19:54 23.12.2019
5709 Rain 4 1019 70 0 3.6 0 19:36 23.12.2019
5710 Rain 4 1018 70 0 3.1 230 19:18 23.12.2019
5711 Rain 4 1018 65 0 3.1 0 18:54 23.12.2019
5712 Rain 3 1018 65 0 3.1 0 18:36 23.12.2019
5713 Rain 3 1017 65 0 6.2 300 18:18 23.12.2019
5714 Rain 3 1017 65 0 6.7 300 17:55 23.12.2019
5715 Rain 3 1017 65 0 6.7 300 17:37 23.12.2019
5716 Rain 3 1017 65 0 6.7 300 17:37 23.12.2019
5717 Rain 3 1016 70 0 4.6 300 17:18 23.12.2019
5718 Rain 4 1016 75 0 5.7 290 16:42 23.12.2019
5719 Rain 4 1016 70 0 3.6 280 16:19 23.12.2019
5720 Rain 4 1016 70 0 3.6 280 16:19 23.12.2019
5721 Rain 4 1016 70 0 3.6 280 15:58 23.12.2019
5722 Rain 4 1015 70 10000 5.1 230 15:38 23.12.2019
5723 Rain 4 1015 80 0 6.7 310 15:19 23.12.2019
5724 Rain 4 1015 80 0 6.7 310 14:58 23.12.2019
5725 Rain 3 1014 70 0 6.2 300 14:39 23.12.2019
5726 Rain 3 1014 70 10000 3.1 270 14:21 23.12.2019
5727 Rain 3 1014 70 10000 3.1 270 13:58 23.12.2019
5728 Rain 3 1013 70 0 8.2 300 13:40 23.12.2019
5729 Rain 3 1013 70 0 9.3 310 13:21 23.12.2019
5730 Rain 4 1013 70 0 9.3 310 12:55 23.12.2019
5731 Rain 4 1013 75 0 6.2 270 12:37 23.12.2019
5732 Rain 4 1013 70 0 7.7 290 12:18 23.12.2019
5733 Rain 4 1012 70 0 6.7 280 11:43 23.12.2019
5734 Rain 3 1013 75 0 4.6 260 11:25 23.12.2019
5735 Rain 4 1013 75 0 4.6 260 10:56 23.12.2019
5736 Rain 4 1012 80 0 4.1 240 10:38 23.12.2019
5737 Rain 4 1012 65 10000 3.6 170 10:20 23.12.2019
5738 Rain 3 1012 65 10000 3.6 170 09:59 23.12.2019
5739 Rain 3 1012 70 0 6.2 290 09:39 23.12.2019
5740 Rain 3 1011 65 10000 1.5 0 09:20 23.12.2019
5741 Rain 3 1011 65 10000 1.5 0 08:55 23.12.2019
5742 Rain 3 1011 70 0 5.7 280 08:37 23.12.2019
5743 Rain 3 1010 70 0 6.7 300 08:18 23.12.2019
5744 Rain 3 1009 75 0 4.6 0 07:43 23.12.2019
5745 Rain 3 1009 80 0 5.7 260 07:20 23.12.2019
5746 Rain 3 1008 80 0 4.6 230 06:51 23.12.2019
5747 Rain 3 1008 80 0 4.1 230 06:24 23.12.2019
5748 Rain 3 1008 86 0 4.73 316 05:49 23.12.2019
5749 Rain 3 1008 80 0 2.1 0 05:22 23.12.2019
5750 Rain 3 1007 75 0 5.7 290 04:20 23.12.2019
5751 Rain 3 1006 75 0 4.6 280 02:55 23.12.2019
5752 Rain 3 1005 75 0 7.2 290 02:25 23.12.2019
5753 Rain 3 1004 75 0 5.7 280 01:55 23.12.2019
5754 Rain 3 1003 80 0 5.1 280 01:36 23.12.2019
5755 Rain 3 1003 86 0 4.1 260 01:18 23.12.2019
5756 Drizzle 3 1003 75 10000 2.1 270 00:35 23.12.2019
5757 Rain 3 1002 86 0 4.1 270 23:57 22.12.2019
5758 Rain 3 1002 86 0 5.7 300 23:39 22.12.2019
5759 Rain 3 1001 75 10000 2.6 60 23:20 22.12.2019
5760 Rain 3 1001 75 10000 2.6 60 22:57 22.12.2019
5761 Rain 3 1000 70 0 3.38 329 22:38 22.12.2019
5762 Rain 3 1000 61 10000 3.1 330 22:19 22.12.2019
5763 Rain 4 1000 61 10000 3.1 330 21:56 22.12.2019
5764 Rain 4 1000 61 10000 3.1 330 21:56 22.12.2019
5765 Clouds 4 1000 70 0 1 0 21:38 22.12.2019
5766 Drizzle 3 999 95 10000 3.6 260 21:20 22.12.2019
5767 Drizzle 3 999 95 10000 3.6 260 20:56 22.12.2019
5768 Rain 3 999 65 0 5.7 300 20:38 22.12.2019
5769 Rain 4 999 91 10000 3.1 260 20:18 22.12.2019
5770 Clouds 4 998 65 0 9.3 310 19:41 22.12.2019
5771 Rain 4 997 70 0 10.3 310 19:21 22.12.2019
5772 Rain 4 997 70 0 10.3 310 18:58 22.12.2019
5773 Rain 3 996 70 0 10.3 300 18:38 22.12.2019
5774 Clouds 4 997 57 10000 5.1 270 18:19 22.12.2019
5775 Clouds 3 996 75 0 9.8 300 17:55 22.12.2019
5776 Rain 4 996 75 0 9.8 300 17:37 22.12.2019
5777 Rain 4 997 81 0 7.2 270 17:18 22.12.2019
5778 Rain 4 997 81 0 7.2 270 16:56 22.12.2019
5779 Rain 4 997 81 0 7.2 270 16:56 22.12.2019
5780 Rain 4 997 81 0 7.2 270 16:37 22.12.2019
5781 Rain 4 997 81 0 7.2 310 16:19 22.12.2019
5782 Rain 5 996 81 0 4.1 210 15:54 22.12.2019
5783 Rain 5 996 75 0 4.1 280 15:36 22.12.2019
5784 Rain 5 996 70 0 6.7 310 15:18 22.12.2019
5785 Rain 6 995 75 0 8.2 280 14:39 22.12.2019
5786 Rain 6 995 81 0 6.7 280 14:19 22.12.2019
5787 Rain 6 995 81 0 6.7 280 13:56 22.12.2019
5788 Rain 5 994 81 0 7.2 310 13:38 22.12.2019
5789 Rain 5 994 93 0 3.1 240 13:20 22.12.2019
5790 Rain 5 994 93 0 3.1 240 12:57 22.12.2019
5791 Rain 5 993 93 0 1.5 0 12:39 22.12.2019
5792 Rain 5 993 93 0 1 0 12:20 22.12.2019
5793 Rain 5 993 93 0 1 0 12:20 22.12.2019
5794 Rain 5 993 93 0 1 0 11:59 22.12.2019
5795 Rain 5 992 100 0 1 0 11:39 22.12.2019
5796 Rain 4 992 100 0 1 0 11:20 22.12.2019
5797 Rain 4 992 100 0 1 0 10:58 22.12.2019
5798 Rain 4 992 93 0 3.47 331 10:40 22.12.2019
5799 Rain 4 992 93 0 3.47 331 10:40 22.12.2019
5800 Rain 4 991 93 0 2.1 220 10:20 22.12.2019
5801 Rain 4 991 93 0 2.1 220 09:58 22.12.2019
5802 Rain 3 991 93 0 1.5 270 09:40 22.12.2019
5803 Rain 3 990 93 0 3.1 80 09:21 22.12.2019
5804 Clouds 3 990 100 0 3.47 331 08:45 22.12.2019
5805 Drizzle 3 989 100 0 0.5 0 08:23 22.12.2019
5806 Clouds 3 989 100 0 3.1 260 07:52 22.12.2019
5807 Clouds 3 989 100 0 3.1 80 07:22 22.12.2019
5808 Clouds 3 989 100 0 3.1 80 06:57 22.12.2019
5809 Clouds 3 989 93 0 3.66 339 06:30 22.12.2019
5810 Clouds 3 989 93 0 3.1 70 05:43 22.12.2019
5811 Clouds 3 989 93 0 1.5 70 05:21 22.12.2019
5812 Clouds 3 989 93 10000 1.5 180 04:27 22.12.2019
5813 Rain 3 990 93 0 3.39 359 03:28 22.12.2019
5814 Rain 3 990 93 0 3.1 260 02:35 22.12.2019
5815 Rain 3 991 100 0 4.1 80 01:33 22.12.2019
5816 Rain 3 991 93 0 1 0 00:59 22.12.2019
5817 Rain 3 992 93 0 1.5 80 00:41 22.12.2019
5818 Rain 3 992 93 0 0.5 0 00:21 22.12.2019
5819 Rain 3 992 86 0 2.1 190 23:42 21.12.2019
5820 Rain 3 991 100 0 5.1 260 23:24 21.12.2019
5821 Clouds 2 991 100 0 5.1 260 22:58 21.12.2019
5822 Clouds 2 990 100 0 2.1 260 22:39 21.12.2019
5823 Clouds 3 989 100 0 1 0 22:19 21.12.2019
5824 Clouds 2 989 100 0 1 0 21:56 21.12.2019
5825 Clouds 2 989 100 0 1 0 21:56 21.12.2019
5826 Clouds 2 990 93 10000 1 0 21:37 21.12.2019
5827 Clouds 2 990 93 0 1.5 0 21:19 21.12.2019
5828 Clouds 2 990 93 0 1.5 0 20:57 21.12.2019
5829 Clouds 3 990 100 0 2.6 90 20:38 21.12.2019
5830 Clouds 3 991 93 0 0.5 0 20:20 21.12.2019
5831 Clouds 3 991 93 0 0.5 0 19:57 21.12.2019
5832 Clouds 3 991 93 0 1.5 280 19:39 21.12.2019
5833 Clouds 3 992 93 10000 1 0 19:19 21.12.2019
5834 Clouds 3 992 93 0 2.6 110 18:42 21.12.2019
5835 Clouds 3 993 93 10000 1 0 18:23 21.12.2019
5836 Clouds 3 993 93 10000 1 0 17:57 21.12.2019
5837 Clouds 2 994 100 0 2.1 110 17:39 21.12.2019
5838 Clouds 4 995 100 0 2.25 329 17:20 21.12.2019
5839 Clouds 4 995 100 0 2.25 329 16:57 21.12.2019
5840 Clouds 4 995 100 0 2.25 329 16:57 21.12.2019
5841 Clouds 5 994 93 0 0.5 0 16:39 21.12.2019
5842 Clouds 5 994 93 10000 0.5 0 16:18 21.12.2019
5843 Clouds 5 995 87 0 3.1 90 15:56 21.12.2019
5844 Clouds 4 995 87 0 3.1 90 15:37 21.12.2019
5845 Clouds 5 996 87 0 2.6 80 15:18 21.12.2019
5846 Clouds 5 996 87 0 1 0 14:44 21.12.2019
5847 Clouds 5 996 87 0 1 0 14:25 21.12.2019
5848 Clouds 5 996 81 0 4.11 341 13:59 21.12.2019
5849 Clouds 5 996 81 0 0.5 0 13:40 21.12.2019
5850 Clouds 5 997 87 0 1.5 290 13:20 21.12.2019
5851 Clouds 5 997 87 0 1.5 290 12:57 21.12.2019
5852 Rain 5 997 87 0 2.1 280 12:39 21.12.2019
5853 Rain 5 997 87 0 4.6 290 12:21 21.12.2019
5854 Rain 5 997 87 0 4.6 290 11:57 21.12.2019
5855 Rain 5 997 87 0 5.1 290 11:39 21.12.2019
5856 Rain 4 997 93 0 3.6 290 11:21 21.12.2019
5857 Rain 4 997 93 0 2.1 270 10:41 21.12.2019
5858 Rain 4 997 93 10000 0.5 0 10:23 21.12.2019
5859 Rain 4 997 93 10000 0.5 0 09:59 21.12.2019
5860 Drizzle 4 996 100 0 2.6 260 09:41 21.12.2019
5861 Rain 4 996 93 10000 0.5 0 09:20 21.12.2019
5862 Rain 4 996 93 0 1 110 08:53 21.12.2019
5863 Rain 4 996 93 0 1 110 08:27 21.12.2019
5864 Rain 4 996 100 0 1.3 334 07:59 21.12.2019
5865 Rain 4 996 93 0 0.5 0 07:41 21.12.2019
5866 Clouds 4 996 87 10000 2.6 210 07:21 21.12.2019
5867 Clouds 4 996 87 10000 3.1 230 06:42 21.12.2019
5868 Drizzle 4 996 87 10000 3.6 240 06:24 21.12.2019
5869 Drizzle 4 996 87 10000 1 280 05:43 21.12.2019
5870 Clouds 4 995 87 0 2.1 270 04:56 21.12.2019
5871 Clouds 4 996 81 0 1.5 0 03:56 21.12.2019
5872 Clouds 4 997 87 0 2.1 0 02:39 21.12.2019
5873 Clouds 4 997 81 0 5.7 40 01:53 21.12.2019
5874 Clouds 4 997 81 0 5.7 40 01:27 21.12.2019
5875 Clouds 4 997 93 0 2.1 70 00:50 21.12.2019
5876 Clouds 4 998 81 10000 4.6 20 00:28 21.12.2019
5877 Clouds 4 998 81 10000 4.6 20 23:55 20.12.2019
5878 Rain 5 997 93 0 1.5 100 23:36 20.12.2019
5879 Rain 5 997 93 0 2.15 132 23:18 20.12.2019
5880 Rain 5 997 87 0 2.6 60 22:40 20.12.2019
5881 Rain 4 997 87 0 3.1 70 22:20 20.12.2019
5882 Rain 4 997 87 0 3.1 70 21:57 20.12.2019
5883 Rain 4 997 87 0 3.6 90 21:39 20.12.2019
5884 Rain 5 997 93 0 1 0 21:18 20.12.2019
5885 Rain 5 997 100 0 1 0 20:39 20.12.2019
5886 Rain 5 997 93 0 1.5 220 20:19 20.12.2019
5887 Rain 5 997 93 0 1.5 220 19:57 20.12.2019
5888 Rain 5 996 93 0 1.5 280 19:39 20.12.2019
5889 Rain 5 995 81 0 1 0 19:19 20.12.2019
5890 Rain 6 995 76 0 1 0 18:42 20.12.2019
5891 Rain 6 995 76 0 1 0 18:42 20.12.2019
5892 Rain 6 995 75 0 1.5 280 18:23 20.12.2019
5893 Rain 7 995 75 0 1.5 280 17:58 20.12.2019
5894 Rain 7 1000 100 0 1.5 0 17:40 20.12.2019
5895 Clouds 8 993 70 0 1.5 260 17:21 20.12.2019
5896 Clouds 7 992 75 0 2.1 0 16:59 20.12.2019
5897 Rain 7 1001 100 0 5.77 164 16:38 20.12.2019
5898 Clouds 7 992 66 0 2.1 0 16:20 20.12.2019
5899 Clouds 7 991 66 0 4.1 250 15:56 20.12.2019
5900 Rain 7 1002 100 0 1 0 15:38 20.12.2019
5901 Clouds 8 991 66 0 3.1 0 15:19 20.12.2019
5902 Snow 7 990 43 0 6.2 0 14:43 20.12.2019
5903 Snow 7 989 29 0 15.4 90 14:25 20.12.2019
5904 Clouds 7 989 98 0 14.4 90 13:59 20.12.2019
5905 Clouds 7 989 98 0 14.4 90 13:41 20.12.2019
5906 Clouds 7 990 98 0 16.5 100 13:20 20.12.2019
5907 Clouds 7 990 98 0 16.5 100 12:57 20.12.2019
5908 Rain 7 992 38 0 17.5 100 12:37 20.12.2019
5909 Rain 7 992 38 0 17.5 100 12:19 20.12.2019
5910 Rain 7 992 38 0 15.4 90 11:58 20.12.2019
5911 Rain 7 992 38 0 15.4 90 11:39 20.12.2019
5912 Rain 8 993 98 0 15.4 100 11:18 20.12.2019
5913 Clouds 8 993 98 0 14.4 90 10:57 20.12.2019
5914 Rain 7 1008 100 0 1 0 10:38 20.12.2019
5915 Clouds 7 993 36 0 15.4 100 10:20 20.12.2019
5916 Clouds 7 994 38 0 15.9 100 09:44 20.12.2019
5917 Clouds 8 993 98 0 17.5 100 09:22 20.12.2019
5918 Clouds 8 993 98 0 17.5 100 09:22 20.12.2019
5919 Clouds 7 993 98 0 19 100 08:59 20.12.2019
5920 Clouds 8 993 98 0 19 100 08:41 20.12.2019
5921 Snow 5 993 53 10000 3.1 0 08:21 20.12.2019
5922 Snow 4 994 57 10000 2.1 0 07:57 20.12.2019
5923 Rain 4 1010 100 0 0.5 0 07:38 20.12.2019
5924 Snow 4 995 61 10000 2.1 0 07:18 20.12.2019
5925 Snow 4 996 75 10000 2.1 0 06:48 20.12.2019
5926 Snow 4 997 80 10000 2.6 250 06:29 20.12.2019
5927 Snow 4 997 80 10000 2.6 200 05:49 20.12.2019
5928 Snow 4 997 80 10000 2.6 200 05:49 20.12.2019
5929 Snow 4 997 80 10000 2.1 230 05:21 20.12.2019
5930 Snow 4 1000 86 10000 2.6 240 03:50 20.12.2019
5931 Snow 4 1002 86 10000 3.1 240 03:28 20.12.2019
5932 Rain 4 1014 100 0 4.47 167 02:33 20.12.2019
5933 Rain 4 1015 100 0 0.5 0 01:36 20.12.2019
5934 Snow 4 1006 70 0 7.2 260 00:58 20.12.2019
5935 Snow 4 1006 70 0 7.2 260 00:39 20.12.2019
5936 Snow 4 1004 93 10000 3.6 230 23:59 19.12.2019
5937 Snow 4 1004 93 10000 3.6 230 23:40 19.12.2019
5938 Snow 4 1004 93 10000 2.6 0 23:21 19.12.2019
5939 Snow 4 1004 93 10000 2.6 250 22:40 19.12.2019
5940 Snow 4 1004 93 10000 2.6 250 22:40 19.12.2019
5941 Snow 4 1005 93 10000 2.6 230 22:22 19.12.2019
5942 Snow 4 1007 93 10000 2.6 240 21:59 19.12.2019
5943 Snow 4 1007 93 10000 2.6 240 21:41 19.12.2019
5944 Snow 4 1008 86 0 2.6 280 21:20 19.12.2019
5945 Snow 4 1009 86 0 2.6 0 20:58 19.12.2019
5946 Rain 5 1018 100 0 0.5 120 20:38 19.12.2019
5947 Snow 5 1009 81 0 4.1 260 20:20 19.12.2019
5948 Snow 5 1009 81 0 4.1 260 20:20 19.12.2019
5949 Snow 5 1009 86 0 2.1 300 19:59 19.12.2019
5950 Snow 5 1009 86 0 2.1 300 19:40 19.12.2019
5951 Snow 5 1010 86 0 2.1 290 19:20 19.12.2019
5952 Snow 5 1011 81 0 4.1 240 18:59 19.12.2019
5953 Snow 5 1011 81 0 4.1 240 18:40 19.12.2019
5954 Clouds 5 1011 81 0 4.1 250 18:20 19.12.2019
5955 Clouds 6 1011 75 0 5.1 240 17:56 19.12.2019
5956 Rain 6 1019 100 0 1 0 17:38 19.12.2019
5957 Snow 6 1010 81 0 2.6 270 17:18 19.12.2019
5958 Clouds 6 1010 81 0 2.1 270 16:56 19.12.2019
5959 Clouds 6 1010 81 0 2.1 270 16:56 19.12.2019
5960 Rain 6 1019 100 0 3.79 163 16:38 19.12.2019
5961 Rain 6 1019 100 0 3.79 163 16:38 19.12.2019
5962 Clouds 6 1010 75 0 3.1 260 16:19 19.12.2019
5963 Clouds 6 1010 75 0 3.1 260 16:19 19.12.2019
5964 Snow 6 1010 75 0 4.1 260 15:58 19.12.2019
5965 Rain 7 1019 100 0 1.5 150 15:38 19.12.2019
5966 Rain 7 1019 100 0 1.5 150 15:38 19.12.2019
5967 Clouds 6 1010 75 0 4.6 260 15:19 19.12.2019
5968 Clouds 6 1010 75 0 4.6 260 14:57 19.12.2019
5969 Rain 6 1020 100 0 1.5 0 14:39 19.12.2019
5970 Clouds 6 1011 75 0 7.2 260 14:18 19.12.2019
5971 Clouds 7 1011 75 0 4.6 280 13:39 19.12.2019
5972 Snow 7 1012 81 0 5.1 260 13:20 19.12.2019
5973 Snow 7 1013 87 0 5.1 260 12:59 19.12.2019
5974 Snow 7 1013 87 0 5.1 260 12:40 19.12.2019
5975 Snow 5 1013 81 0 4.1 270 12:19 19.12.2019
5976 Snow 5 1013 81 0 4.1 270 12:19 19.12.2019
5977 Snow 5 1013 81 0 4.1 270 12:19 19.12.2019
5978 Snow 5 1013 81 0 4.1 270 12:19 19.12.2019
5979 Clouds 6 1013 93 0 2.6 0 11:59 19.12.2019
5980 Clouds 6 1013 93 0 2.6 0 11:41 19.12.2019
5981 Snow 5 1014 86 0 5.7 250 11:20 19.12.2019
5982 Snow 5 1014 86 0 5.7 250 11:20 19.12.2019
5983 Snow 5 1014 86 0 5.7 250 11:20 19.12.2019
5984 Clouds 4 1014 93 0 3.1 250 10:59 19.12.2019
5985 Rain 4 1022 100 0 0.5 0 10:38 19.12.2019
5986 Clouds 4 1015 93 0 4.1 250 10:20 19.12.2019
5987 Clouds 4 1015 86 0 2.6 270 09:57 19.12.2019
5988 Rain 5 1022 100 0 0.5 0 09:38 19.12.2019
5989 Clouds 5 1015 93 0 3.6 250 09:19 19.12.2019
5990 Clouds 5 1015 93 0 3.6 250 09:19 19.12.2019
5991 Clouds 4 1015 93 0 3.6 260 08:55 19.12.2019
5992 Clouds 4 1015 93 0 3.6 260 08:55 19.12.2019
5993 Rain 4 1022 100 0 4.1 163 08:37 19.12.2019
5994 Clouds 4 1015 93 0 4.1 240 08:18 19.12.2019
5995 Clouds 3 1015 93 0 2.6 270 07:54 19.12.2019
5996 Clouds 3 1015 93 0 1.5 300 07:36 19.12.2019
5997 Clouds 3 1015 93 0 1.5 300 07:18 19.12.2019
5998 Clouds 3 1016 100 0 2.6 260 06:42 19.12.2019
5999 Clouds 3 1016 93 0 3.1 250 06:23 19.12.2019
6000 Clouds 3 1016 93 0 3.6 250 05:45 19.12.2019
6001 Clouds 4 1017 93 0 2.1 300 05:20 19.12.2019
6002 Snow 3 1018 86 0 3.1 250 03:58 19.12.2019
6003 Snow 3 1017 100 0 3.6 240 02:30 19.12.2019
6004 Snow 3 1017 93 0 2.6 270 01:27 19.12.2019
6005 Snow 3 1017 93 0 1.5 280 00:59 19.12.2019
6006 Snow 3 1018 100 0 1.5 290 00:39 19.12.2019
6007 Snow 3 1018 100 0 1.5 290 00:19 19.12.2019
6008 Snow 3 1018 100 0 1.5 290 00:19 19.12.2019
6009 Snow 3 1018 93 0 1 0 23:45 18.12.2019
6010 Snow 4 1018 93 0 3.45 169 23:19 18.12.2019
6011 Snow 4 1018 93 0 1.5 310 22:58 18.12.2019
6012 Snow 4 1018 93 0 2.1 290 22:40 18.12.2019
6013 Snow 4 1018 93 0 2.1 290 22:22 18.12.2019
6014 Snow 4 1018 86 0 0.5 0 21:59 18.12.2019
6015 Snow 4 1018 86 0 0.5 0 21:41 18.12.2019
6016 Snow 4 1018 86 0 0.5 0 21:21 18.12.2019
6017 Snow 5 1018 93 0 2.1 110 20:57 18.12.2019
6018 Rain 5 1025 100 0 1.5 60 20:39 18.12.2019
6019 Snow 5 1018 93 0 1.5 70 20:20 18.12.2019
6020 Snow 5 1018 86 0 1 0 19:57 18.12.2019
6021 Drizzle 6 1025 100 0 1 0 19:39 18.12.2019
6022 Snow 6 1018 80 0 1 0 19:19 18.12.2019
6023 Snow 6 1018 93 0 1 0 18:56 18.12.2019
6024 Drizzle 6 1024 100 0 1 90 18:38 18.12.2019
6025 Snow 6 1018 86 0 3 170 18:20 18.12.2019
6026 Snow 6 1018 93 0 1.5 90 17:55 18.12.2019
6027 Snow 6 1018 93 0 1.5 90 17:55 18.12.2019
6028 Rain 7 1024 100 0 0.5 0 17:37 18.12.2019
6029 Snow 7 1018 86 0 1.5 90 17:19 18.12.2019
6030 Snow 7 1018 87 0 2.1 250 16:42 18.12.2019
6031 Clouds 7 1018 87 0 1.5 320 16:24 18.12.2019
6032 Clouds 8 1018 87 0 1.5 320 15:59 18.12.2019
6033 Clouds 8 1017 81 10000 2.7 169 15:39 18.12.2019
6034 Clouds 8 1017 87 10000 1 0 15:21 18.12.2019
6035 Clouds 8 1017 87 10000 1 0 14:57 18.12.2019
6036 Clouds 9 1017 81 10000 1 0 14:39 18.12.2019
6037 Clouds 9 1018 81 10000 1 0 14:19 18.12.2019
6038 Clouds 9 1018 81 10000 1 0 13:55 18.12.2019
6039 Clouds 9 1018 81 10000 1 0 13:37 18.12.2019
6040 Clouds 9 1018 76 0 2.75 163 13:19 18.12.2019
6041 Clouds 9 1018 81 0 2.6 290 12:54 18.12.2019
6042 Clouds 9 1018 81 0 2.6 290 12:36 18.12.2019
6043 Clouds 9 1019 81 0 1 0 12:18 18.12.2019
6044 Clouds 8 1019 81 0 1 0 11:54 18.12.2019
6045 Clouds 7 1019 81 0 1 0 11:36 18.12.2019
6046 Clouds 7 1019 75 0 1 0 11:18 18.12.2019
6047 Clouds 7 1019 81 10000 2.6 100 10:54 18.12.2019
6048 Clouds 6 1019 81 10000 2.6 100 10:36 18.12.2019
6049 Clouds 5 1019 87 10000 1.5 250 10:18 18.12.2019
6050 Clouds 5 1018 93 0 1.5 90 09:21 18.12.2019
6051 Clouds 5 1018 93 0 1.5 90 08:57 18.12.2019
6052 Clouds 5 1018 93 0 1.5 90 08:57 18.12.2019
6053 Clouds 5 1018 87 0 2.65 172 08:39 18.12.2019
6054 Clouds 5 1017 87 0 1 0 08:20 18.12.2019
6055 Clouds 5 1017 86 0 2.1 280 07:42 18.12.2019
6056 Clouds 6 1016 93 0 1 0 07:21 18.12.2019
6057 Clouds 5 1016 86 0 1 0 06:53 18.12.2019
6058 Clouds 5 1016 86 0 1.5 290 06:26 18.12.2019
6059 Clouds 5 1016 80 10000 2.6 250 05:39 18.12.2019
6060 Clouds 5 1015 93 0 1 0 04:37 18.12.2019
6061 Clouds 5 1014 81 0 4.1 240 02:50 18.12.2019
6062 Clouds 5 1014 81 0 4.1 240 02:30 18.12.2019
6063 Clouds 5 1013 93 0 1 0 01:47 18.12.2019
6064 Clouds 5 1013 93 0 1 0 01:29 18.12.2019
6065 Clouds 5 1013 86 0 1.5 280 00:59 18.12.2019
6066 Clouds 5 1013 87 0 2.1 290 00:40 18.12.2019
6067 Clouds 5 1013 87 0 3.1 270 00:21 18.12.2019
6068 Clouds 5 1013 81 0 2.1 270 23:54 17.12.2019
6069 Clouds 5 1013 81 0 2.1 270 23:36 17.12.2019
6070 Clouds 5 1012 87 0 2.1 290 23:18 17.12.2019
6071 Clouds 5 1012 81 0 2.6 280 22:54 17.12.2019
6072 Clouds 6 1012 81 0 2.6 280 22:36 17.12.2019
6073 Clouds 6 1011 70 0 3.1 280 22:18 17.12.2019
6074 Clouds 6 1010 75 0 1.5 0 21:55 17.12.2019
6075 Clouds 6 1010 75 0 1.5 0 21:36 17.12.2019
6076 Snow 6 1010 75 0 1 0 21:18 17.12.2019
6077 Snow 6 1010 75 0 2.6 280 20:40 17.12.2019
6078 Clouds 6 1009 57 0 3.6 0 20:19 17.12.2019
6079 Clouds 6 1009 57 0 3.6 0 19:59 17.12.2019
6080 Clouds 6 1009 61 0 2.6 0 19:41 17.12.2019
6081 Snow 5 1009 70 10000 3.1 230 19:20 17.12.2019
6082 Snow 5 1009 70 10000 3.1 230 18:58 17.12.2019
6083 Clouds 6 1009 75 0 2.1 260 18:39 17.12.2019
6084 Clouds 6 1009 75 0 2.1 280 18:21 17.12.2019
6085 Clouds 6 1009 70 0 2.1 280 17:56 17.12.2019
6086 Clouds 6 1009 70 0 2.1 280 17:38 17.12.2019
6087 Clouds 6 1009 70 0 3.1 250 17:18 17.12.2019
6088 Clouds 7 1009 66 0 3.1 0 16:55 17.12.2019
6089 Clouds 7 1009 66 0 3.1 0 16:37 17.12.2019
6090 Clouds 7 1009 70 0 3.1 270 16:18 17.12.2019
6091 Clouds 7 1008 76 10000 2.1 0 15:54 17.12.2019
6092 Clouds 7 1008 76 10000 2.1 0 15:36 17.12.2019
6093 Clouds 7 1008 66 0 3.6 260 15:18 17.12.2019
6094 Clouds 7 1007 66 0 4.1 250 14:54 17.12.2019
6095 Clouds 7 1007 66 0 4.1 250 14:36 17.12.2019
6096 Snow 7 1007 66 0 3.1 0 14:18 17.12.2019
6097 Snow 7 1007 66 0 2.6 0 13:41 17.12.2019
6098 Snow 8 1007 66 10000 1 0 13:19 17.12.2019
6099 Snow 8 1007 66 10000 1 0 12:59 17.12.2019
6100 Snow 8 1007 66 10000 1 0 12:59 17.12.2019
6101 Snow 10 1007 36 0 5.7 0 12:39 17.12.2019
6102 Snow 10 1007 38 0 10.3 120 12:18 17.12.2019
6103 Snow 10 1007 38 0 11.3 110 11:58 17.12.2019
6104 Snow 9 1007 38 0 11.3 110 11:37 17.12.2019
6105 Snow 8 1007 38 0 12.3 100 11:18 17.12.2019
6106 Clouds 7 1008 76 10000 2.6 230 10:58 17.12.2019
6107 Clouds 6 1008 76 10000 2.6 230 10:39 17.12.2019
6108 Clouds 6 1008 81 10000 2.1 0 10:20 17.12.2019
6109 Clouds 6 1008 87 10000 2.6 230 09:58 17.12.2019
6110 Clouds 6 1008 87 10000 2.6 230 09:40 17.12.2019
6111 Snow 5 1007 81 10000 2.1 0 09:19 17.12.2019
6112 Snow 5 1008 75 10000 2.6 210 08:55 17.12.2019
6113 Snow 5 1008 75 10000 2.6 210 08:55 17.12.2019
6114 Snow 5 1008 75 10000 2.6 210 08:37 17.12.2019
6115 Snow 5 1008 81 10000 2.1 250 08:19 17.12.2019
6116 Snow 5 1007 75 10000 2.1 200 07:45 17.12.2019
6117 Snow 5 1007 81 10000 3.1 0 07:24 17.12.2019
6118 Snow 5 1007 75 10000 1.5 0 06:55 17.12.2019
6119 Snow 5 1007 75 10000 1.5 0 06:32 17.12.2019
6120 Snow 5 1006 75 10000 2.1 250 05:52 17.12.2019
6121 Snow 5 1006 75 10000 2.1 250 05:32 17.12.2019
6122 Snow 6 1006 87 10000 3.1 0 04:25 17.12.2019
6123 Clouds 6 1005 53 0 5.1 0 02:33 17.12.2019
6124 Clouds 6 1005 61 0 4.6 220 01:50 17.12.2019
6125 Snow 5 1006 93 10000 2.1 240 00:56 17.12.2019
6126 Snow 5 1006 93 10000 2.1 240 00:36 17.12.2019
6127 Snow 5 1006 93 10000 2.1 250 00:18 17.12.2019
6128 Snow 5 1006 87 10000 1.5 0 23:40 16.12.2019
6129 Snow 5 1006 93 10000 3.1 220 23:19 16.12.2019
6130 Snow 4 1006 86 10000 2.6 220 22:55 16.12.2019
6131 Snow 5 1006 86 10000 2.6 220 22:37 16.12.2019
6132 Snow 5 1006 87 10000 4.1 210 22:19 16.12.2019
6133 Snow 5 1007 87 10000 5.1 210 21:54 16.12.2019
6134 Snow 5 1007 87 10000 5.1 210 21:36 16.12.2019
6135 Snow 5 1007 86 10000 3.1 240 21:18 16.12.2019
6136 Snow 5 1007 87 10000 0.5 0 20:56 16.12.2019
6137 Snow 5 1007 87 10000 0.5 0 20:37 16.12.2019
6138 Snow 5 1007 87 10000 3.1 190 20:18 16.12.2019
6139 Snow 5 1007 86 10000 3.1 260 19:55 16.12.2019
6140 Snow 5 1007 86 10000 3.1 260 19:36 16.12.2019
6141 Clouds 5 1008 93 10000 1.5 250 19:18 16.12.2019
6142 Clouds 5 1008 75 0 2.6 0 18:54 16.12.2019
6143 Clouds 5 1008 75 0 2.6 0 18:36 16.12.2019
6144 Clouds 5 1009 81 0 3.1 270 18:18 16.12.2019
6145 Snow 6 1008 81 0 3.1 280 17:55 16.12.2019
6146 Snow 6 1008 81 0 3.1 280 17:37 16.12.2019
6147 Snow 6 1009 75 0 2.6 280 17:18 16.12.2019
6148 Snow 7 1008 70 0 4.1 260 16:54 16.12.2019
6149 Snow 7 1008 70 0 4.1 260 16:36 16.12.2019
6150 Snow 7 1009 81 0 3.1 280 16:18 16.12.2019
6151 Snow 8 1008 81 0 2.6 270 15:54 16.12.2019
6152 Snow 8 1008 81 0 2.6 270 15:36 16.12.2019
6153 Snow 8 1008 75 0 2.6 260 15:18 16.12.2019
6154 Snow 8 1009 81 0 5.1 260 14:54 16.12.2019
6155 Snow 8 1009 81 0 5.1 260 14:54 16.12.2019
6156 Snow 8 1009 81 0 5.1 260 14:36 16.12.2019
6157 Snow 8 1009 81 0 3.6 270 14:18 16.12.2019
6158 Snow 8 1009 75 0 4.1 260 13:38 16.12.2019
6159 Snow 7 1009 75 0 3.6 260 13:20 16.12.2019
6160 Snow 8 1009 75 0 3.6 260 12:58 16.12.2019
6161 Snow 8 1009 75 0 3.6 260 12:58 16.12.2019
6162 Snow 7 1009 81 0 2.1 280 12:40 16.12.2019
6163 Snow 7 1009 86 0 3.1 290 12:20 16.12.2019
6164 Snow 7 1010 86 0 2.6 0 11:59 16.12.2019
6165 Snow 7 1010 86 0 2.6 0 11:41 16.12.2019
6166 Snow 6 1010 86 0 3.1 280 11:21 16.12.2019
6167 Snow 4 1011 86 10000 2.6 220 10:58 16.12.2019
6168 Snow 5 1011 86 10000 2.6 220 10:40 16.12.2019
6169 Snow 5 1011 93 0 3.1 270 10:20 16.12.2019
6170 Snow 4 1011 93 0 3.1 260 09:46 16.12.2019
6171 Snow 4 1011 93 0 3.1 260 09:28 16.12.2019
6172 Snow 4 1011 86 0 3.6 250 08:58 16.12.2019
6173 Snow 3 1011 86 10000 2.6 260 08:58 16.12.2019
6174 Snow 3 1011 86 10000 2.6 260 08:38 16.12.2019
6175 Snow 3 1011 86 0 4.6 230 08:18 16.12.2019
6176 Snow 3 1011 86 0 4.6 250 07:47 16.12.2019
6177 Snow 3 1011 86 0 4.6 250 07:29 16.12.2019
6178 Snow 3 1011 86 0 3.1 280 06:46 16.12.2019
6179 Snow 3 1011 93 0 4.6 250 06:26 16.12.2019
6180 Snow 3 1011 93 0 2.6 270 05:54 16.12.2019
6181 Snow 3 1011 93 0 2.6 270 05:35 16.12.2019
6182 Snow 3 1011 86 0 4.1 230 04:27 16.12.2019
6183 Snow 3 1011 98 0 2.1 290 02:36 16.12.2019
6184 Clouds 3 1012 98 0 1 0 01:45 16.12.2019
6185 Clouds 3 1012 98 0 2.1 100 00:54 16.12.2019
6186 Clouds 3 1012 98 0 2.1 100 00:36 16.12.2019
6187 Clouds 3 1012 86 0 2.1 0 00:18 16.12.2019
6188 Clouds 3 1012 98 0 0.5 0 23:40 15.12.2019
6189 Clouds 3 1011 86 0 1.5 270 23:21 15.12.2019
6190 Clouds 3 1011 98 0 2.91 183 22:56 15.12.2019
6191 Clouds 4 1011 98 0 2.91 183 22:38 15.12.2019
6192 Clouds 4 1012 98 0 1 0 22:18 15.12.2019
6193 Clouds 3 1012 98 0 1 0 21:57 15.12.2019
6194 Clouds 4 1012 98 0 1 0 21:38 15.12.2019
6195 Clouds 4 1012 98 0 3.1 110 21:19 15.12.2019
6196 Clouds 4 1012 98 0 1.5 110 20:56 15.12.2019
6197 Clouds 4 1012 98 0 1.5 110 20:56 15.12.2019
6198 Clouds 3 1012 98 0 1.5 110 20:37 15.12.2019
6199 Clouds 4 1012 98 0 0.5 0 20:19 15.12.2019
6200 Clouds 4 1012 98 0 0.5 0 19:57 15.12.2019
6201 Clouds 5 1011 93 0 2.44 183 19:39 15.12.2019
6202 Clouds 5 1011 86 0 2.36 186 19:18 15.12.2019
6203 Clouds 5 1011 98 0 1 0 18:56 15.12.2019
6204 Clouds 5 1011 98 0 1 0 18:56 15.12.2019
6205 Clouds 5 1011 98 0 1 0 18:38 15.12.2019
6206 Clouds 5 1011 98 0 2.1 90 18:18 15.12.2019
6207 Clouds 6 1011 86 0 1 0 17:56 15.12.2019
6208 Clouds 6 1011 86 0 1 0 17:37 15.12.2019
6209 Clouds 7 1010 86 0 1.5 320 17:18 15.12.2019
6210 Clouds 7 1010 93 0 0.5 0 16:55 15.12.2019
6211 Clouds 7 1010 93 0 0.5 0 16:55 15.12.2019
6212 Clouds 7 1010 93 0 0.5 0 16:37 15.12.2019
6213 Clouds 7 1010 86 0 1.5 50 16:19 15.12.2019
6214 Clouds 8 1009 81 0 2.94 180 15:54 15.12.2019
6215 Clouds 9 1009 81 0 2.84 180 15:36 15.12.2019
6216 Clouds 11 1009 81 0 0.5 0 15:18 15.12.2019
6217 Clouds 10 1009 86 0 1 0 14:55 15.12.2019
6218 Clouds 10 1009 86 0 1 0 14:36 15.12.2019
6219 Clear 9 1009 80 0 1 0 14:18 15.12.2019
6220 Clear 9 1009 86 0 1.5 80 13:54 15.12.2019
6221 Clear 9 1009 86 0 1.5 80 13:36 15.12.2019
6222 Clouds 9 1009 61 10000 2.1 80 13:18 15.12.2019
6223 Clear 8 1009 96 0 1 0 12:55 15.12.2019
6224 Clear 8 1009 96 0 1 0 12:37 15.12.2019
6225 Clear 7 1009 96 0 1.5 230 12:19 15.12.2019
6226 Clouds 6 1010 96 0 1 0 11:38 15.12.2019
6227 Clouds 5 1010 85 0 1 0 11:19 15.12.2019
6228 Clouds 5 1010 85 0 1 0 11:19 15.12.2019
6229 Clear 5 1010 85 0 1 0 10:56 15.12.2019
6230 Clear 5 1010 85 0 1 0 10:38 15.12.2019
6231 Clear 4 1009 86 0 1 0 10:19 15.12.2019
6232 Clear 4 1009 86 0 1 0 09:58 15.12.2019
6233 Clear 3 1009 86 0 2 203 09:37 15.12.2019
6234 Clouds 2 1009 85 0 2.1 90 09:19 15.12.2019
6235 Clear 2 1009 85 0 1 0 08:54 15.12.2019
6236 Clear 2 1009 85 0 1 0 08:36 15.12.2019
6237 Clouds 2 1009 74 0 0.5 0 08:18 15.12.2019
6238 Clouds 2 1009 92 0 2.6 80 07:43 15.12.2019
6239 Clouds 2 1008 65 0 2.1 290 07:25 15.12.2019
6240 Clouds 2 1008 65 0 1 0 06:26 15.12.2019
6241 Clouds 2 1008 65 0 2.6 110 05:42 15.12.2019
6242 Clouds 2 1007 80 10000 2.1 290 05:21 15.12.2019
6243 Clouds 3 1007 80 10000 0.5 0 04:21 15.12.2019
6244 Clouds 2 1008 86 0 1.5 90 02:55 15.12.2019
6245 Clouds 2 1008 86 0 1.5 90 02:32 15.12.2019
6246 Clear 3 1007 66 0 1 0 01:41 15.12.2019
6247 Clear 3 1008 93 0 1.5 120 01:19 15.12.2019
6248 Clear 3 1007 86 0 2.1 70 00:49 15.12.2019
6249 Clear 3 1007 86 0 2.1 70 00:31 15.12.2019
6250 Clouds 4 1008 80 0 2.1 120 23:54 14.12.2019
6251 Clouds 5 1008 80 0 2.1 120 23:36 14.12.2019
6252 Clouds 5 1009 86 0 3.6 100 23:18 14.12.2019
6253 Clouds 5 1010 86 0 3.1 90 22:41 14.12.2019
6254 Clouds 5 1010 86 0 0.5 0 22:22 14.12.2019
6255 Clouds 5 1010 86 0 2.6 90 21:58 14.12.2019
6256 Clouds 5 1010 86 0 2.6 90 21:40 14.12.2019
6257 Clouds 5 1009 75 10000 2.1 240 21:20 14.12.2019
6258 Clouds 5 1009 75 10000 2.1 240 20:59 14.12.2019
6259 Clouds 6 1008 70 0 1 0 20:41 14.12.2019
6260 Clouds 6 1009 86 0 1.5 110 20:20 14.12.2019
6261 Clouds 6 1009 86 0 1.5 110 19:57 14.12.2019
6262 Clouds 6 1009 87 0 1 0 19:39 14.12.2019
6263 Rain 7 1009 87 0 2.6 90 19:20 14.12.2019
6264 Rain 7 1009 81 0 1.5 70 18:56 14.12.2019
6265 Rain 7 1009 81 0 1.5 70 18:38 14.12.2019
6266 Rain 7 1009 75 0 1.5 350 18:19 14.12.2019
6267 Rain 7 1008 66 0 2.1 230 17:44 14.12.2019
6268 Rain 7 1008 61 0 3.1 250 17:24 14.12.2019
6269 Clouds 7 1006 46 10000 7.7 250 16:59 14.12.2019
6270 Clouds 7 1006 46 10000 7.7 250 16:40 14.12.2019
6271 Rain 7 1006 92 0 7.2 290 16:19 14.12.2019
6272 Clouds 8 1006 40 0 8.7 300 15:54 14.12.2019
6273 Clouds 8 1006 40 0 8.7 300 15:36 14.12.2019
6274 Clouds 8 1006 40 0 8.7 300 15:36 14.12.2019
6275 Clouds 8 1006 43 0 8.2 280 15:18 14.12.2019
6276 Clouds 8 1005 40 0 10.3 280 14:40 14.12.2019
6277 Clouds 8 1005 40 0 10.8 270 14:21 14.12.2019
6278 Clouds 8 1005 40 0 10.8 270 13:59 14.12.2019
6279 Clouds 8 1004 86 0 7.2 280 13:41 14.12.2019
6280 Clouds 8 1004 40 0 9.3 280 13:19 14.12.2019
6281 Clouds 8 1003 50 0 7.2 280 12:56 14.12.2019
6282 Clouds 8 1003 50 0 7.2 280 12:37 14.12.2019
6283 Clouds 8 1002 91 0 7.7 280 12:19 14.12.2019
6284 Clouds 7 1001 35 10000 8.2 250 11:56 14.12.2019
6285 Clouds 7 1001 35 10000 8.2 250 11:37 14.12.2019
6286 Snow 6 1002 43 0 7.7 280 11:18 14.12.2019
6287 Clouds 6 1001 93 0 7.2 280 10:56 14.12.2019
6288 Clouds 6 1001 93 0 7.2 280 10:38 14.12.2019
6289 Drizzle 5 1000 54 10000 8.2 300 10:19 14.12.2019
6290 Rain 5 999 93 0 1.5 0 09:43 14.12.2019
6291 Rain 5 999 93 0 2.48 275 09:21 14.12.2019
6292 Rain 5 999 93 0 2.12 276 08:56 14.12.2019
6293 Rain 4 998 100 0 1 0 08:38 14.12.2019
6294 Rain 5 998 93 0 2.6 0 08:19 14.12.2019
6295 Rain 4 997 93 0 1.5 0 07:40 14.12.2019
6296 Rain 3 997 96 0 1 0 07:20 14.12.2019
6297 Rain 2 997 93 0 1.5 80 06:45 14.12.2019
6298 Rain 2 997 93 0 1 0 06:22 14.12.2019
6299 Rain 3 997 96 0 1 0 05:43 14.12.2019
6300 Clouds 2 997 80 0 2.1 80 03:44 14.12.2019
6301 Clouds 2 995 60 10000 2.6 50 02:23 14.12.2019
6302 Clouds 1 997 80 0 0.5 0 01:44 14.12.2019
6303 Clouds 1 998 80 0 2.1 0 01:20 14.12.2019
6304 Clouds 2 998 74 0 2.6 250 00:41 14.12.2019
6305 Clouds 1 999 74 0 4.1 240 00:20 14.12.2019
6306 Clouds 1 998 80 0 5.1 270 23:41 13.12.2019
6307 Rain 2 998 74 0 6.2 270 23:19 13.12.2019
6308 Rain 2 998 69 0 7.2 290 22:57 13.12.2019
6309 Rain 2 998 69 0 7.2 290 22:37 13.12.2019
6310 Clouds 2 998 69 0 4.1 230 22:18 13.12.2019
6311 Rain 3 997 69 0 5.1 290 21:44 13.12.2019
6312 Clouds 2 997 69 0 5.1 260 21:22 13.12.2019
6313 Clouds 2 997 69 0 5.1 260 20:59 13.12.2019
6314 Clouds 2 997 52 10000 4.1 260 20:40 13.12.2019
6315 Snow 3 992 100 0 1.5 70 20:20 13.12.2019
6316 Clouds 3 995 64 0 8.7 300 19:56 13.12.2019
6317 Snow 3 992 100 0 1.5 80 19:38 13.12.2019
6318 Rain 3 995 48 0 9.8 260 19:19 13.12.2019
6319 Rain 2 994 60 0 6.7 300 18:54 13.12.2019
6320 Clouds 2 991 93 0 2.1 60 18:36 13.12.2019
6321 Clouds 2 993 52 0 9.8 270 18:18 13.12.2019
6322 Clouds 2 993 52 0 9.8 270 18:18 13.12.2019
6323 Rain 2 992 64 0 5.1 300 17:40 13.12.2019
6324 Rain 2 992 64 0 5.1 300 17:18 13.12.2019
6325 Clouds 2 991 74 0 2.6 250 16:56 13.12.2019
6326 Snow 3 989 100 0 1 0 16:38 13.12.2019
6327 Rain 3 990 74 0 4.6 270 16:20 13.12.2019
6328 Rain 3 990 93 0 1 0 15:43 13.12.2019
6329 Rain 3 989 93 0 0.5 0 15:22 13.12.2019
6330 Rain 4 989 93 0 4.1 220 14:57 13.12.2019
6331 Snow 3 988 100 0 2.6 60 14:38 13.12.2019
6332 Rain 3 989 80 0 11.8 270 14:19 13.12.2019
6333 Rain 3 988 100 0 1 0 13:44 13.12.2019
6334 Rain 3 988 91 0 1 0 13:26 13.12.2019
6335 Snow 2 988 91 0 0.5 0 12:58 13.12.2019
6336 Snow 3 991 91 0 1.5 90 12:40 13.12.2019
6337 Snow 3 987 91 2500 1 0 12:18 13.12.2019
6338 Rain 2 987 86 10000 3.6 50 11:45 13.12.2019
6339 Clouds 2 986 91 10000 1 0 11:26 13.12.2019
6340 Snow 1 985 95 8000 2.97 192 10:57 13.12.2019
6341 Snow 1 992 95 800 1 100 10:39 13.12.2019
6342 Snow 1 985 95 1500 0.5 0 10:21 13.12.2019
6343 Rain 2 984 93 5000 2.6 0 09:42 13.12.2019
6344 Rain 2 982 95 10000 4.1 240 09:21 13.12.2019
6345 Clouds 1 981 95 10000 1 0 08:55 13.12.2019
6346 Snow 1 993 95 2000 1 110 08:36 13.12.2019
6347 Rain 1 982 97 10000 1 0 08:18 13.12.2019
6348 Clouds 0 983 97 0 2.1 0 07:42 13.12.2019
6349 Clouds 0 984 86 10000 1 0 07:19 13.12.2019
6350 Clouds 0 995 97 0 3.52 178 06:39 13.12.2019
6351 Clouds 0 984 97 0 2.1 290 06:20 13.12.2019
6352 Rain 0 995 100 0 1 0 05:37 13.12.2019
6353 Clouds 0 987 100 0 1.5 270 05:19 13.12.2019
6354 Clouds 0 991 94 0 2.6 260 03:55 13.12.2019
6355 Clouds 0 991 86 0 3.6 240 02:48 13.12.2019
6356 Clouds 0 991 86 0 3.1 240 02:30 13.12.2019
6357 Clouds -1 992 92 0 3.1 250 01:34 13.12.2019
6358 Clouds -1 992 86 0 2.1 120 00:50 13.12.2019
6359 Clouds -2 993 86 0 1.5 60 00:28 13.12.2019
6360 Clouds -2 994 92 0 1 320 23:43 12.12.2019
6361 Clouds -2 994 92 0 2.6 90 23:25 12.12.2019
6362 Clouds -2 995 92 0 3.1 110 22:56 12.12.2019
6363 Clouds -2 996 92 0 3.1 90 22:38 12.12.2019
6364 Clouds -2 996 92 0 3.1 90 22:38 12.12.2019
6365 Clouds -1 996 92 0 3.1 90 22:20 12.12.2019
6366 Clouds -2 997 92 0 1 0 21:56 12.12.2019
6367 Clouds -2 1002 100 0 1.5 90 21:37 12.12.2019
6368 Clouds -2 997 86 0 1 0 21:19 12.12.2019
6369 Clouds -2 997 92 0 1 0 20:58 12.12.2019
6370 Clouds -1 1003 100 0 2.6 110 20:40 12.12.2019
6371 Clouds -2 998 86 0 1.81 245 20:21 12.12.2019
6372 Clouds -2 999 92 0 2.1 120 19:56 12.12.2019
6373 Clouds -2 1004 93 0 2.1 100 19:37 12.12.2019
6374 Clouds -1 1000 86 0 2.1 100 19:18 12.12.2019
6375 Clouds -2 1001 92 0 2.6 110 18:55 12.12.2019
6376 Clouds -1 1004 93 0 1.5 100 18:37 12.12.2019
6377 Clear -1 1002 92 0 3.1 80 18:19 12.12.2019
6378 Clear -1 1002 92 0 2.6 90 17:56 12.12.2019
6379 Clouds 0 1004 86 0 1.81 245 17:38 12.12.2019
6380 Clear 0 1003 74 10000 1 0 17:19 12.12.2019
6381 Clear 0 1003 69 10000 1.5 0 16:54 12.12.2019
6382 Clouds 1 1004 80 6000 2.09 318 16:36 12.12.2019
6383 Clouds 1 1004 69 10000 2.1 180 16:18 12.12.2019
6384 Clouds 0 1004 92 10000 1.5 90 15:42 12.12.2019
6385 Clouds 1 1004 92 10000 1.5 100 15:20 12.12.2019
6386 Clouds 2 1005 60 10000 4.1 90 14:57 12.12.2019
6387 Clouds 2 1005 60 10000 4.1 90 14:57 12.12.2019
6388 Clouds 2 1005 86 7000 2.09 318 14:37 12.12.2019
6389 Clouds 3 1005 76 10000 1.5 120 14:19 12.12.2019
6390 Clouds 3 1006 76 10000 2.6 100 13:55 12.12.2019
6391 Clouds 3 1005 93 7000 1.5 80 13:37 12.12.2019
6392 Clouds 3 1006 60 10000 3.6 60 13:18 12.12.2019
6393 Clouds 3 1006 77 0 2.1 90 12:55 12.12.2019
6394 Clouds 3 1006 93 0 1 90 12:36 12.12.2019
6395 Clouds 3 1007 77 10000 2.1 70 12:18 12.12.2019
6396 Clouds 3 1007 77 10000 1.5 0 11:40 12.12.2019
6397 Clouds 2 1007 90 10000 1 0 11:22 12.12.2019
6398 Clouds 2 1008 90 10000 3.6 240 10:59 12.12.2019
6399 Clouds 2 1008 90 10000 3.6 240 10:59 12.12.2019
6400 Clouds 2 1008 90 10000 3.6 240 10:41 12.12.2019
6401 Clouds 2 1007 90 10000 3.6 250 10:22 12.12.2019
6402 Clouds 1 1008 90 10000 3.1 260 09:57 12.12.2019
6403 Clouds 1 1006 100 8000 3.92 341 09:39 12.12.2019
6404 Rain 1 1008 90 10000 3.6 240 09:20 12.12.2019
6405 Rain 1 1007 90 10000 2.6 280 08:50 12.12.2019
6406 Rain 1 1007 90 0 2.1 0 08:29 12.12.2019
6407 Rain 1 1007 100 5000 4.1 240 07:59 12.12.2019
6408 Rain 1 1007 100 5000 4.1 240 07:39 12.12.2019
6409 Clouds 1 1007 100 4000 2.1 270 07:20 12.12.2019
6410 Mist 1 1007 89 0 4.36 338 06:42 12.12.2019
6411 Mist 0 1007 89 0 4.36 338 06:23 12.12.2019
6412 Clouds 1 1005 100 0 2.6 90 05:34 12.12.2019
6413 Mist 0 1007 92 0 4 334 04:48 12.12.2019
6414 Clouds 1 1007 92 0 1 130 02:44 12.12.2019
6415 Clouds 1 1008 92 0 1.5 70 02:25 12.12.2019
6416 Rain 1 1008 94 0 1.5 90 01:59 12.12.2019
6417 Clouds 1 1008 86 0 3.1 100 01:36 12.12.2019
6418 Snow 1 1009 94 0 0.5 0 00:50 12.12.2019
6419 Snow 1 1009 94 0 0.5 0 00:22 12.12.2019
6420 Mist 1 1009 94 0 3.02 342 23:58 11.12.2019
6421 Clouds 1 1008 74 0 2.6 70 23:39 11.12.2019
6422 Rain 1 1010 83 0 3.45 349 23:19 11.12.2019
6423 Mist 1 1010 83 0 2.1 110 22:56 11.12.2019
6424 Clouds 1 1009 74 0 1 0 22:38 11.12.2019
6425 Clouds 2 1011 83 0 3.45 349 22:19 11.12.2019
6426 Snow 2 1011 83 0 1 0 21:55 11.12.2019
6427 Clouds 2 1010 74 0 3.45 349 21:36 11.12.2019
6428 Clouds 2 1011 83 0 0.5 0 21:18 11.12.2019
6429 Clouds 2 1011 83 0 0.5 0 21:18 11.12.2019
6430 Clouds 2 1012 83 0 2.1 90 20:55 11.12.2019
6431 Clouds 2 1010 74 0 1 0 20:36 11.12.2019
6432 Rain 2 1012 65 0 0.5 0 20:18 11.12.2019
6433 Clouds 2 1012 86 0 1 0 19:42 11.12.2019
6434 Clouds 2 1012 86 0 1 0 19:23 11.12.2019
6435 Clouds 2 1012 86 0 1.5 90 18:59 11.12.2019
6436 Clouds 2 1012 86 0 1.5 90 18:40 11.12.2019
6437 Clouds 2 1011 80 0 2.1 50 18:20 11.12.2019
6438 Clouds 2 1010 86 0 0.5 0 17:56 11.12.2019
6439 Clouds 2 1012 64 0 0.5 0 17:38 11.12.2019
6440 Clouds 2 1010 86 10000 2.1 70 17:18 11.12.2019
6441 Clouds 2 1009 80 10000 1 0 16:56 11.12.2019
6442 Clouds 2 1009 80 10000 4.1 240 16:37 11.12.2019
6443 Clouds 2 1009 80 10000 4.1 240 16:18 11.12.2019
6444 Clouds 2 1010 74 10000 0.5 0 15:56 11.12.2019
6445 Clouds 2 1009 80 10000 1.26 179 15:37 11.12.2019
6446 Clouds 2 1009 80 10000 1.26 179 15:19 11.12.2019
6447 Clouds 2 1010 86 10000 2.6 80 14:55 11.12.2019
6448 Clouds 2 1011 80 10000 1 0 14:36 11.12.2019
6449 Clouds 3 1011 80 10000 1 0 14:18 11.12.2019
6450 Clouds 3 1011 80 10000 2.1 270 13:43 11.12.2019
6451 -273 0 0 0 0 0 13:23 11.12.2019
6452 Clouds 2 1013 80 0 1 0 12:58 11.12.2019
6453 Clouds 2 1017 64 0 1.5 100 12:39 11.12.2019
6454 Clouds 2 1014 80 10000 1.5 0 12:21 11.12.2019
6455 Clouds 2 1014 58 10000 1.56 186 11:58 11.12.2019
6456 Clouds 1 1018 64 10000 1 0 11:39 11.12.2019
6457 Clouds 1 1018 64 10000 1 0 11:39 11.12.2019
6458 Clouds 1 1015 92 10000 0.5 0 11:19 11.12.2019
6459 Clouds 0 1015 92 10000 1 0 10:59 11.12.2019
6460 Clouds 0 1019 80 10000 0.81 283 10:39 11.12.2019
6461 Clouds 0 1015 92 10000 0.81 283 10:21 11.12.2019
6462 Clouds 0 1016 86 10000 1.5 200 09:56 11.12.2019
6463 Clouds -1 1019 46 10000 0.81 283 09:38 11.12.2019
6464 Clouds -1 1016 92 10000 0.81 283 09:19 11.12.2019
6465 Clouds -1 1016 80 10000 2.1 260 08:55 11.12.2019
6466 Clouds -2 1019 86 10000 0.5 0 08:36 11.12.2019
6467 Clouds -2 1016 92 10000 2.08 324 08:18 11.12.2019
6468 Clouds -2 1017 92 10000 2.08 324 07:42 11.12.2019
6469 Clouds -2 1017 92 10000 1 0 07:22 11.12.2019
6470 Clouds -3 1017 92 0 3.1 120 06:46 11.12.2019
6471 Clouds -3 1018 92 0 2.6 110 06:24 11.12.2019
6472 Clouds -3 1018 92 0 1 0 05:54 11.12.2019
6473 Clouds -3 1021 74 0 2.08 324 05:33 11.12.2019
6474 Clouds -3 1018 86 10000 1.5 220 04:49 11.12.2019
6475 Clouds -3 1020 92 0 2.6 100 03:19 11.12.2019
6476 Clouds -2 1021 92 0 1.98 317 02:31 11.12.2019
6477 Clear -3 1022 92 0 1.5 80 01:21 11.12.2019
6478 Clear -2 1023 92 0 0.5 0 00:37 11.12.2019
6479 Clear -2 1023 92 0 0.5 0 00:18 11.12.2019
6480 Clear -2 1023 92 0 1.16 296 23:43 10.12.2019
6481 Clear -2 1023 86 0 2.1 110 23:23 10.12.2019
6482 Clear -2 1023 92 0 2.6 110 22:56 10.12.2019
6483 Clear -2 1022 68 0 0.5 0 22:38 10.12.2019
6484 Clear -2 1024 86 10000 2.6 90 22:20 10.12.2019
6485 Clear -2 1024 92 10000 2.6 110 21:54 10.12.2019
6486 Clear -2 1022 55 0 2.3 321 21:36 10.12.2019
6487 Clear -2 1024 86 10000 2.1 100 21:18 10.12.2019
6488 Clear -2 1024 92 10000 2.3 321 20:55 10.12.2019
6489 Clear -2 1021 55 0 1 0 20:36 10.12.2019
6490 Clear -2 1024 86 10000 4.93 330 20:18 10.12.2019
6491 Clear -1 1024 86 10000 2.6 90 19:42 10.12.2019
6492 Clear -2 1024 86 10000 2.1 110 19:24 10.12.2019
6493 Clear -1 1025 86 0 2.1 70 18:57 10.12.2019
6494 Clear -1 1020 38 0 1 0 18:38 10.12.2019
6495 Clear -1 1025 80 0 2.6 90 18:19 10.12.2019
6496 Clear -1 1026 86 0 3.1 90 17:54 10.12.2019
6497 Clouds -1 1026 18 10000 3.6 90 17:36 10.12.2019
6498 Clouds -1 1026 34 10000 3.6 90 17:18 10.12.2019
6499 Clouds 0 1026 86 10000 4.1 110 16:41 10.12.2019
6500 Clear 1 1026 34 10000 4.1 100 16:20 10.12.2019
6501 Clear 2 1026 34 10000 3.6 100 15:40 10.12.2019
6502 Clear 3 1026 34 10000 4.1 110 15:19 10.12.2019
6503 Clouds 4 1026 34 10000 1.5 110 14:59 10.12.2019
6504 Clouds 4 1026 34 10000 1.5 110 14:41 10.12.2019
6505 Clouds 2 1027 34 10000 2.1 100 14:23 10.12.2019
6506 Clouds 3 1027 56 10000 1 70 13:59 10.12.2019
6507 Clouds 2 1027 56 10000 1 70 13:40 10.12.2019
6508 Clouds 2 1028 55 0 0.5 0 13:20 10.12.2019
6509 Clouds 5 1027 80 0 5.49 338 12:55 10.12.2019
6510 Snow 4 1028 65 8000 2.1 90 12:36 10.12.2019
6511 Snow 4 1028 65 8000 2.1 90 12:18 10.12.2019
6512 Clouds 3 1028 80 10000 0.5 0 11:40 10.12.2019
6513 Clouds 2 1028 86 10000 2.6 70 11:22 10.12.2019
6514 Snow 1 1029 74 8000 2.1 220 10:55 10.12.2019
6515 Clouds 1 1029 90 10000 5.65 332 10:36 10.12.2019
6516 Clouds 1 1029 90 10000 5.65 332 10:18 10.12.2019
6517 Clouds 1 1028 90 10000 1 0 09:54 10.12.2019
6518 Clouds 1 1028 90 10000 0.5 0 09:36 10.12.2019
6519 Clouds 1 1028 90 10000 0.5 0 09:18 10.12.2019
6520 Snow 1 1028 80 8000 2.1 90 08:41 10.12.2019
6521 Clouds 2 1027 89 10000 1.5 320 08:22 10.12.2019
6522 Clouds 2 1026 89 0 5.75 327 07:57 10.12.2019
6523 Clouds 2 1018 48 10000 1 0 07:39 10.12.2019
6524 Rain 2 1026 93 10000 1 0 07:20 10.12.2019
6525 Rain 1 1025 89 0 1.5 0 06:46 10.12.2019
6526 Rain 2 1024 89 0 2.1 0 06:19 10.12.2019
6527 Rain 2 1024 89 0 2.1 0 06:19 10.12.2019
6528 Rain 2 1024 93 0 0.5 0 05:52 10.12.2019
6529 Rain 2 1023 86 0 2.1 280 04:50 10.12.2019
6530 Rain 2 1021 86 0 6.2 300 03:31 10.12.2019
6531 Clouds 3 1013 86 0 0.5 0 02:36 10.12.2019
6532 Rain 3 1020 86 0 7.2 300 01:42 10.12.2019
6533 Rain 3 1019 86 0 7.7 300 01:19 10.12.2019
6534 Snow 3 1012 75 0 2.6 40 00:38 10.12.2019
6535 Rain 3 1018 86 0 9.3 310 00:18 10.12.2019
6536 Rain 3 1018 80 0 8.7 310 23:40 09.12.2019
6537 Rain 3 1017 80 0 6.7 320 23:22 09.12.2019
6538 Rain 3 1016 75 0 7.7 310 22:57 09.12.2019
6539 Snow 4 1011 80 0 2.1 80 22:39 09.12.2019
6540 Rain 4 1016 75 0 7.7 310 22:19 09.12.2019
6541 Rain 4 1015 80 0 6.2 320 21:56 09.12.2019
6542 Snow 4 1010 93 0 1 0 21:38 09.12.2019
6543 Rain 4 1015 75 0 5.7 320 21:18 09.12.2019
6544 Rain 4 1014 80 0 5.7 330 20:56 09.12.2019
6545 Snow 4 1009 80 0 1.5 100 20:38 09.12.2019
6546 Rain 4 1013 80 0 3.1 0 20:19 09.12.2019
6547 Rain 4 1012 80 0 1.5 0 19:55 09.12.2019
6548 Clouds 4 1008 80 0 0.5 0 19:37 09.12.2019
6549 Rain 4 1011 93 0 1.5 70 19:19 09.12.2019
6550 Rain 4 1011 93 0 0.5 0 18:56 09.12.2019
6551 Clouds 4 1008 80 0 2.1 90 18:37 09.12.2019
6552 Rain 4 1010 93 0 3.1 80 18:19 09.12.2019
6553 Rain 5 1009 86 0 3.6 220 17:57 09.12.2019
6554 Clouds 5 1007 70 0 1 310 17:38 09.12.2019
6555 Rain 5 1009 86 10000 5.1 270 17:19 09.12.2019
6556 Rain 5 1009 86 10000 6.7 290 16:55 09.12.2019
6557 Rain 5 1008 86 9000 3.1 240 16:36 09.12.2019
6558 Rain 5 1008 86 9000 3.1 240 16:18 09.12.2019
6559 Rain 6 1008 70 10000 3.1 190 15:55 09.12.2019
6560 Clouds 6 1006 66 10000 1 0 15:36 09.12.2019
6561 Clouds 6 1006 66 10000 1 0 15:36 09.12.2019
6562 Rain 6 1008 80 10000 2.6 240 15:18 09.12.2019
6563 Rain 6 1008 80 10000 0.5 0 14:42 09.12.2019
6564 Rain 6 1008 86 10000 2.6 0 14:19 09.12.2019
6565 Rain 6 1008 86 10000 2.6 90 13:57 09.12.2019
6566 Clouds 7 1006 61 10000 1.5 220 13:38 09.12.2019
6567 Drizzle 7 1008 86 0 1 0 13:19 09.12.2019
6568 Clouds 7 1007 86 0 1.5 70 12:56 09.12.2019
6569 Clouds 8 1007 65 0 0.5 0 12:38 09.12.2019
6570 Clouds 8 1008 86 10000 1.5 80 12:19 09.12.2019
6571 Clouds 7 1008 93 10000 1.5 100 11:57 09.12.2019
6572 Clouds 6 1008 75 10000 1.5 110 11:37 09.12.2019
6573 Clouds 6 1008 81 10000 4.1 40 11:18 09.12.2019
6574 Clouds 6 1009 93 10000 2.1 100 10:41 09.12.2019
6575 Rain 5 1008 75 10000 3.1 50 10:20 09.12.2019
6576 Clouds 5 1009 93 10000 3.07 280 09:59 09.12.2019
6577 Clouds 5 1009 93 10000 3.07 280 09:41 09.12.2019
6578 Clouds 4 1009 93 10000 2.1 40 09:21 09.12.2019
6579 Clouds 4 1008 86 10000 1.5 90 08:44 09.12.2019
6580 Clouds 4 1009 93 0 3.1 100 08:26 09.12.2019
6581 Rain 4 1010 93 10000 1.5 280 07:57 09.12.2019
6582 Clouds 4 1010 93 0 3.52 307 07:38 09.12.2019
6583 Rain 4 1009 93 10000 1.5 110 07:20 09.12.2019
6584 Clouds 6 1009 86 0 1.5 30 06:47 09.12.2019
6585 Clouds 5 1009 93 0 1 0 06:24 09.12.2019
6586 Rain 6 1010 75 0 5.7 0 05:27 09.12.2019
6587 Rain 5 1010 81 0 4.6 270 04:46 09.12.2019
6588 Clouds 4 1010 86 0 1.5 0 03:21 09.12.2019
6589 Clouds 4 1009 95 0 1 0 02:24 09.12.2019
6590 Clouds 4 1010 89 0 1 0 01:42 09.12.2019
6591 Clouds 5 1010 93 0 2.1 100 00:46 09.12.2019
6592 Clouds 5 1010 93 0 2.1 100 00:46 09.12.2019
6593 Clouds 5 1010 93 0 1.5 20 00:27 09.12.2019
6594 Clouds 5 1010 93 0 1 0 23:43 08.12.2019
6595 Clouds 5 1011 93 0 1.5 0 23:24 08.12.2019
6596 Rain 5 1011 82 0 2.6 90 22:57 08.12.2019
6597 Clouds 5 1016 93 0 1 40 22:39 08.12.2019
6598 Clouds 5 1016 93 0 1 40 22:39 08.12.2019
6599 Clouds 5 1011 82 0 2.1 0 22:20 08.12.2019
6600 Clouds 5 1011 82 0 4.6 110 21:58 08.12.2019
6601 Clouds 5 1011 82 0 4.6 110 21:40 08.12.2019
6602 Clouds 4 1012 82 0 2.1 70 21:21 08.12.2019
6603 Clouds 5 1013 82 0 1 0 20:57 08.12.2019
6604 Clouds 5 1017 93 0 1.57 216 20:38 08.12.2019
6605 Clouds 4 1013 82 0 2.41 193 20:20 08.12.2019
6606 Clouds 4 1013 70 0 2.24 206 20:20 08.12.2019
6607 Clouds 4 1013 86 0 2.24 206 19:59 08.12.2019
6608 Clouds 3 1013 86 0 2.24 206 19:41 08.12.2019
6609 Clouds 3 1013 70 0 1 0 19:23 08.12.2019
6610 Clouds 4 1014 70 0 0.5 0 18:55 08.12.2019
6611 Clouds 4 1018 86 0 0.5 0 18:37 08.12.2019
6612 Clouds 4 1014 70 0 1 0 18:19 08.12.2019
6613 Clouds 4 1014 70 0 2.24 206 17:57 08.12.2019
6614 Clouds 5 1018 80 0 2.24 206 17:38 08.12.2019
6615 Clouds 5 1014 77 0 0.5 0 17:20 08.12.2019
6616 Clouds 5 1014 77 0 0.5 0 17:20 08.12.2019
6617 Clouds 5 1014 77 0 0.5 0 17:20 08.12.2019
6618 Clouds 6 1014 77 0 1.58 208 16:57 08.12.2019
6619 Clouds 6 1018 77 0 0.5 0 16:39 08.12.2019
6620 Clouds 6 1015 77 0 2.1 100 16:20 08.12.2019
6621 Clouds 7 1015 77 0 1.5 120 15:55 08.12.2019
6622 Clouds 7 1018 61 0 0.5 0 15:36 08.12.2019
6623 Clouds 7 1018 61 0 0.5 0 15:36 08.12.2019
6624 Clouds 8 1015 77 0 1 0 15:18 08.12.2019
6625 Clouds 8 1016 77 0 1 0 14:43 08.12.2019
6626 Clouds 8 1015 65 10000 1.5 220 14:24 08.12.2019
6627 Clouds 8 1016 61 10000 1.5 0 13:58 08.12.2019
6628 Clouds 8 1016 61 10000 1.5 0 13:40 08.12.2019
6629 Clouds 8 1016 70 10000 2.1 260 13:21 08.12.2019
6630 Clouds 8 1017 65 10000 1 0 12:56 08.12.2019
6631 Clouds 7 1021 75 0 1 0 12:38 08.12.2019
6632 Clouds 6 1017 70 10000 2.6 90 12:18 08.12.2019
6633 Clouds 6 1017 70 10000 1 110 11:55 08.12.2019
6634 Clouds 5 1022 69 0 1.5 100 11:37 08.12.2019
6635 Clouds 4 1018 75 10000 1 0 11:19 08.12.2019
6636 Clouds 4 1018 75 10000 1 0 11:19 08.12.2019
6637 Clouds 4 1018 75 10000 1 0 11:19 08.12.2019
6638 Clouds 3 1018 80 10000 2.1 240 10:39 08.12.2019
6639 Clouds 2 1018 93 10000 1 270 10:21 08.12.2019
6640 Clouds 1 1018 46 10000 1.5 250 09:58 08.12.2019
6641 Clouds 1 1022 46 0 0.5 0 09:39 08.12.2019
6642 Clouds 1 1019 92 0 0.5 0 09:20 08.12.2019
6643 Clouds 0 1019 100 0 2 222 08:58 08.12.2019
6644 Clouds 0 1019 100 0 2 222 08:39 08.12.2019
6645 Clear 0 1018 86 10000 2.6 230 08:21 08.12.2019
6646 Clear 0 1019 100 0 0.5 0 07:44 08.12.2019
6647 Clear 0 1018 92 0 1.5 80 07:20 08.12.2019
6648 Clear 0 1018 92 0 1.5 100 06:51 08.12.2019
6649 Fog 0 1019 100 0 1 0 06:23 08.12.2019
6650 Mist 0 1019 100 0 1 70 05:51 08.12.2019
6651 Clear 0 1019 100 0 1.92 299 05:18 08.12.2019
6652 Clear 1 1020 100 0 1.92 299 03:54 08.12.2019
6653 Clear 1 1022 100 0 1.92 299 03:36 08.12.2019
6654 Clear 1 1021 100 0 3.1 100 02:40 08.12.2019
6655 Clear 2 1021 100 0 1 150 01:56 08.12.2019
6656 Clear 1 1021 100 0 1 0 01:33 08.12.2019
6657 Clear 2 1021 92 0 1 0 00:42 08.12.2019
6658 Clouds 2 1021 42 0 2.3 306 00:21 08.12.2019
6659 Clouds 2 1021 100 0 1.5 120 23:55 07.12.2019
6660 Clouds 2 1021 42 0 1 0 23:36 07.12.2019
6661 Clouds 3 1021 79 0 1 0 23:18 07.12.2019
6662 Clouds 3 1021 79 0 1 80 22:54 07.12.2019
6663 Clouds 3 1021 79 0 1 80 22:54 07.12.2019
6664 Clear 3 1020 79 0 3.55 326 22:36 07.12.2019
6665 Clear 3 1020 79 0 3.55 326 22:36 07.12.2019
6666 Clouds 3 1021 79 0 1.5 100 22:18 07.12.2019
6667 Clouds 4 1021 79 0 3.55 326 21:54 07.12.2019
6668 Clear 4 1020 79 0 0.5 0 21:36 07.12.2019
6669 Clouds 4 1021 93 0 3.55 326 21:18 07.12.2019
6670 Clear 4 1020 79 0 3.55 326 20:37 07.12.2019
6671 Clouds 4 1021 86 0 0.5 0 20:19 07.12.2019
6672 Clouds 4 1020 86 0 3.6 329 19:57 07.12.2019
6673 Clouds 4 1020 86 0 2.6 90 19:38 07.12.2019
6674 Clouds 5 1020 80 0 1.5 20 19:20 07.12.2019
6675 Clouds 5 1020 86 0 1.5 0 18:55 07.12.2019
6676 Clouds 5 1019 86 0 3.6 329 18:36 07.12.2019
6677 Clouds 5 1020 81 10000 1.5 240 18:18 07.12.2019
6678 Clouds 6 1020 81 10000 1 0 17:42 07.12.2019
6679 Clouds 6 1019 86 0 2.1 90 17:24 07.12.2019
6680 Clouds 6 1019 81 0 2.6 120 16:58 07.12.2019
6681 Clouds 6 1019 81 0 2.6 120 16:39 07.12.2019
6682 Clouds 7 1019 75 0 0.5 0 16:21 07.12.2019
6683 Clouds 9 1019 66 10000 2.6 40 15:57 07.12.2019
6684 Clouds 8 1019 81 0 3.57 336 15:38 07.12.2019
6685 Clouds 8 1019 81 0 3.57 336 15:20 07.12.2019
6686 Clouds 8 1019 86 0 1.5 70 14:42 07.12.2019
6687 Clouds 7 1019 93 0 1 0 14:19 07.12.2019
6688 Clouds 7 1019 92 0 0.5 0 13:58 07.12.2019
6689 Clouds 7 1019 92 0 0.5 0 13:58 07.12.2019
6690 Clouds 7 1018 92 0 1 0 13:39 07.12.2019
6691 Clouds 7 1019 93 0 0.5 0 13:19 07.12.2019
6692 Clouds 8 1019 65 0 1 170 12:41 07.12.2019
6693 Clouds 6 1019 90 0 1.5 110 12:23 07.12.2019
6694 Clouds 7 1019 93 0 0.5 0 11:59 07.12.2019
6695 Clouds 6 1019 93 0 0.5 0 11:41 07.12.2019
6696 Clouds 5 1020 87 0 1.5 310 11:22 07.12.2019
6697 Clouds 4 1019 87 0 1 0 10:39 07.12.2019
6698 Clouds 4 1019 93 0 1 0 10:20 07.12.2019
6699 Clouds 3 1019 87 0 3.87 326 09:59 07.12.2019
6700 Clouds 3 1019 87 0 3.87 326 09:38 07.12.2019
6701 Clouds 3 1019 87 0 3.87 326 09:38 07.12.2019
6702 Clouds 3 1019 87 0 1 0 09:20 07.12.2019
6703 Clouds 2 1019 87 0 1 0 08:45 07.12.2019
6704 Clouds 2 1019 88 0 1.5 0 08:21 07.12.2019
6705 Clouds 2 1018 88 0 1 0 07:47 07.12.2019
6706 Clouds 2 1018 88 0 3.53 325 07:28 07.12.2019
6707 Clouds 2 1018 88 0 0.5 0 06:52 07.12.2019
6708 Clouds 2 1018 88 0 3.53 325 06:25 07.12.2019
6709 Clouds 2 1018 86 0 0.5 0 05:44 07.12.2019
6710 Clouds 2 1018 86 0 1.5 330 04:41 07.12.2019
6711 Clouds 3 1018 86 0 3.1 110 03:49 07.12.2019
6712 Clouds 3 1018 74 0 1.5 100 02:22 07.12.2019
6713 Clouds 2 1021 48 0 2.46 309 01:37 07.12.2019
6714 Rain 2 1019 44 0 1 0 01:18 07.12.2019
6715 Clouds 1 1019 44 0 2.36 310 00:21 07.12.2019
6716 Clouds 1 1018 44 10000 1.5 260 23:57 06.12.2019
6717 Clouds 1 1022 44 0 2.36 310 23:38 06.12.2019
6718 Clouds 1 1019 92 0 1 0 23:19 06.12.2019
6719 Clouds 0 1022 100 0 1.91 298 22:39 06.12.2019
6720 Clouds 0 1019 31 10000 1 0 22:21 06.12.2019
6721 Clouds 0 1019 31 10000 1 0 21:58 06.12.2019
6722 Clouds 0 1022 100 0 1.91 298 21:39 06.12.2019
6723 Clouds 0 1019 100 10000 1.5 0 21:20 06.12.2019
6724 Clouds 0 1019 100 9000 1 0 20:45 06.12.2019
6725 Fog 0 1019 92 450 1.5 270 20:25 06.12.2019
6726 Fog 0 1019 100 200 1 260 19:59 06.12.2019
6727 Fog 0 1019 100 200 1 260 19:40 06.12.2019
6728 Fog 0 1019 100 150 1 260 19:22 06.12.2019
6729 Fog 0 1019 100 150 1 260 19:22 06.12.2019
6730 Fog 1 1019 41 100 1 0 18:57 06.12.2019
6731 Fog 0 1019 41 100 1 0 18:57 06.12.2019
6732 Fog 0 1019 41 100 1 0 18:39 06.12.2019
6733 Fog 0 1019 41 150 0.5 0 18:20 06.12.2019
6734 Mist 0 1019 41 1700 1.5 0 17:56 06.12.2019
6735 Mist 0 1019 41 1700 1.5 0 17:56 06.12.2019
6736 Clear 1 1022 86 0 1 60 17:38 06.12.2019
6737 Clouds 1 1020 64 5000 1 260 17:19 06.12.2019
6738 Clouds 1 1020 64 5000 1 260 17:19 06.12.2019
6739 Clouds 2 1020 64 2000 1.5 0 16:43 06.12.2019
6740 Mist 2 1020 64 1800 1.5 0 16:25 06.12.2019
6741 Mist 2 1020 64 3000 1 0 15:59 06.12.2019
6742 Mist 2 1020 64 3000 1 0 15:40 06.12.2019
6743 Mist 2 1020 64 3000 1 0 15:40 06.12.2019
6744 Clouds 3 1020 64 3500 1 0 15:19 06.12.2019
6745 Mist 3 1020 64 3500 0.5 0 14:56 06.12.2019
6746 Clouds 2 1020 64 6000 1 0 14:38 06.12.2019
6747 Clouds 3 1020 63 6000 1 0 14:18 06.12.2019
6748 Clouds 4 1021 63 8000 1 0 13:43 06.12.2019
6749 Clouds 4 1021 71 6000 1 0 13:25 06.12.2019
6750 Mist 4 1022 71 3000 2.1 190 12:43 06.12.2019
6751 Mist 3 1022 71 2800 1.5 0 12:23 06.12.2019
6752 Mist 1 1023 71 3500 1.5 230 11:58 06.12.2019
6753 Clear 1 1026 71 10000 1 0 11:39 06.12.2019
6754 Mist 1 1023 47 2000 2.1 240 11:20 06.12.2019
6755 Mist 1 1023 100 1400 2.6 210 10:43 06.12.2019
6756 Mist 0 1023 100 1600 2.1 220 10:21 06.12.2019
6757 Mist 0 1023 100 1400 2.1 250 09:58 06.12.2019
6758 Clear -1 1026 100 10000 1.21 249 09:37 06.12.2019
6759 Clear -1 1026 100 10000 1.21 249 09:37 06.12.2019
6760 Fog -1 1023 92 10000 1.21 249 09:19 06.12.2019
6761 Fog -1 1023 100 550 2.1 250 08:45 06.12.2019
6762 Fog -1 1023 92 10000 1.5 100 08:27 06.12.2019
6763 Clear -2 1023 92 10000 1.48 294 07:56 06.12.2019
6764 Clear -1 1026 100 10000 0.5 0 07:36 06.12.2019
6765 Clear -2 1023 92 10000 0.5 0 07:18 06.12.2019
6766 Mist -1 1023 30 1100 2.1 220 06:29 06.12.2019
6767 Clear -1 1023 92 0 1.48 294 05:53 06.12.2019
6768 Clear -1 1026 100 0 1.48 294 05:33 06.12.2019
6769 Mist -1 1023 34 1900 2.6 200 02:19 06.12.2019
6770 Mist -1 1023 36 1400 1.5 210 01:30 06.12.2019
6771 Mist -1 1023 100 3200 2.1 210 00:41 06.12.2019
6772 Fog -1 1023 36 600 2.6 210 00:20 06.12.2019
6773 Mist 0 1024 36 1200 2.1 230 23:45 05.12.2019
6774 Mist 0 1024 35 2300 2.6 250 23:19 05.12.2019
6775 Clouds 0 1024 35 5000 2.1 250 22:57 05.12.2019
6776 Clear 0 1027 35 0 1 40 22:37 05.12.2019
6777 Clear 0 1027 35 0 1 40 22:37 05.12.2019
6778 Mist 0 1024 35 4700 1.5 250 22:18 05.12.2019
6779 Mist 0 1024 35 4700 1.5 250 22:18 05.12.2019
6780 Clouds 0 1024 35 5000 2.6 200 21:44 05.12.2019
6781 Clouds 0 1024 35 5000 2.6 200 21:25 05.12.2019
6782 Mist 0 1024 35 4600 2.6 190 20:59 05.12.2019
6783 Mist 0 1024 35 4600 2.6 190 20:40 05.12.2019
6784 Clouds 1 1024 36 5000 1.5 200 20:20 05.12.2019
6785 Clouds 1 1024 36 5000 1.5 200 19:57 05.12.2019
6786 Clouds 1 1024 36 5000 1.5 200 19:57 05.12.2019
6787 Clouds 1 1024 36 5000 1.5 210 19:39 05.12.2019
6788 Clouds 1 1024 36 5000 2.1 200 19:20 05.12.2019
6789 Clouds 1 1024 36 5000 2.1 200 18:57 05.12.2019
6790 Clouds 0 1024 36 5000 2.1 210 18:37 05.12.2019
6791 Clouds 1 1023 36 5000 2.1 230 18:19 05.12.2019
6792 Clouds 1 1023 36 5000 2.1 230 18:19 05.12.2019
6793 Clouds 1 1023 36 5000 1.5 240 17:39 05.12.2019
6794 Mist 1 1023 43 2500 0.5 0 17:19 05.12.2019
6795 Mist 1 1023 43 2500 0.5 0 16:57 05.12.2019
6796 Clouds 1 1022 92 10000 1.5 100 16:38 05.12.2019
6797 Clouds 1 1022 92 10000 1.5 100 16:38 05.12.2019
6798 Mist 1 1023 43 3500 1.5 250 16:20 05.12.2019
6799 Fog 1 1022 92 10000 1 90 15:56 05.12.2019
6800 Fog 1 1022 92 10000 1 90 15:37 05.12.2019
6801 Fog 1 1022 92 10000 1.5 80 15:19 05.12.2019
6802 Clouds 1 1023 93 6000 1.5 0 14:55 05.12.2019
6803 Clouds 1 1023 93 6000 1.5 0 14:36 05.12.2019
6804 Fog 3 1022 100 10000 1 0 14:18 05.12.2019
6805 Fog 3 1022 100 10000 1 0 13:56 05.12.2019
6806 Fog 3 1022 100 10000 1 0 13:56 05.12.2019
6807 Fog 3 1022 100 9000 1.89 194 13:37 05.12.2019
6808 Clouds 3 1022 92 0 1.68 198 13:18 05.12.2019
6809 Clouds 4 1022 100 0 0.5 0 12:43 05.12.2019
6810 Clouds 3 1022 92 8000 1.68 198 12:24 05.12.2019
6811 Clouds 3 1022 92 8000 1.68 198 11:59 05.12.2019
6812 Clouds 2 1022 92 8000 1.68 198 11:38 05.12.2019
6813 Clouds 2 1022 92 8000 1.68 198 11:38 05.12.2019
6814 Clouds 1 1022 100 8000 1.19 243 11:20 05.12.2019
6815 Clouds 1 1022 100 8000 1.19 243 10:57 05.12.2019
6816 Clouds 1 1022 92 10000 1.19 243 10:38 05.12.2019
6817 Mist 1 1023 45 3600 2.1 220 10:18 05.12.2019
6818 Mist 1 1023 45 3500 2.6 200 09:46 05.12.2019
6819 Fog 0 1022 92 6000 1 90 09:24 05.12.2019
6820 Fog 0 1022 92 6000 1 90 08:59 05.12.2019
6821 Mist 1 1023 45 3500 2.1 210 08:39 05.12.2019
6822 Mist 0 1022 31 4000 2.1 210 08:20 05.12.2019
6823 Mist 0 1022 31 4600 2.6 210 07:54 05.12.2019
6824 Mist 0 1022 31 4600 2.6 210 07:36 05.12.2019
6825 Mist 0 1022 31 3900 2.1 210 07:18 05.12.2019
6826 Fog -1 1021 100 0 1 0 06:41 05.12.2019
6827 Fog -1 1021 100 0 1.81 241 06:20 05.12.2019
6828 Fog -1 1022 100 0 1.81 241 05:47 05.12.2019
6829 Fog -1 1022 100 0 1.81 241 05:23 05.12.2019
6830 Clouds 0 1022 100 0 0.5 0 04:20 05.12.2019
6831 Clouds 0 1022 29 5000 2.1 210 02:44 05.12.2019
6832 Clouds 0 1022 100 0 1.95 217 02:24 05.12.2019
6833 Clouds 0 1021 100 0 0.5 0 01:53 05.12.2019
6834 Clouds 0 1021 100 0 0.5 0 01:27 05.12.2019
6835 Clouds 0 1021 92 0 2.1 100 00:52 05.12.2019
6836 Clouds 1 1021 92 0 2.1 100 00:33 05.12.2019
6837 Clouds 1 1020 92 0 2.1 250 23:58 04.12.2019
6838 Clouds 1 1020 92 0 2.1 250 23:39 04.12.2019
6839 Clouds 0 1020 92 0 1.6 220 23:21 04.12.2019
6840 Clouds 1 1020 92 0 2.1 110 22:55 04.12.2019
6841 Clouds 1 1020 92 0 2.1 110 22:36 04.12.2019
6842 Clouds 1 1020 27 0 2.6 90 22:18 04.12.2019
6843 Clouds 1 1021 27 0 1.6 220 21:54 04.12.2019
6844 Clouds 1 1021 27 0 1.6 220 21:36 04.12.2019
6845 Clouds 1 1021 27 0 2.1 110 21:18 04.12.2019
6846 Clouds 1 1021 27 0 2.1 110 20:56 04.12.2019
6847 Clouds 1 1020 27 0 1 110 20:37 04.12.2019
6848 Clouds 0 1020 92 0 1.5 100 20:19 04.12.2019
6849 Clouds 0 1020 92 0 0.5 0 19:40 04.12.2019
6850 Clouds 0 1020 100 0 1.71 212 19:21 04.12.2019
6851 Clouds 0 1020 100 0 1.71 212 18:58 04.12.2019
6852 Clouds 0 1020 100 0 1.71 212 18:58 04.12.2019
6853 Clouds 0 1019 92 0 2.1 100 18:40 04.12.2019
6854 Clouds 0 1019 92 0 1.71 212</